<?xml version="1.0" encoding="UTF-8" standalone="no" ?>
<gpx xmlns="http://www.topografix.com/GPX/1/1" xmlns:xsi="http://www.w3.org/2001/XMLSchema-instance" xsi:schemaLocation="http://www.topografix.com/GPX/1/1 http://www.topografix.com/GPX/1/1/gpx.xsd" version="1.1" creator="VisuGPX - https://www.visugpx.com">
  <metadata>
    <name>2020-05-23 16:46:06</name>
  </metadata>
  <trk>
    <name><![CDATA[2020-05-23 16:46:06]]></name>
    <trkseg>
      <trkpt lat="43.92889" lon="2.20146">
        <ele>192.4</ele>
        <time>2020-05-23T07:23:08Z</time>
      </trkpt>
      <trkpt lat="43.92888" lon="2.20148">
        <ele>192.4</ele>
        <time>2020-05-23T07:23:10Z</time>
      </trkpt>
      <trkpt lat="43.92885" lon="2.20161">
        <ele>193.36</ele>
        <time>2020-05-23T07:23:19Z</time>
      </trkpt>
      <trkpt lat="43.9288" lon="2.20181">
        <ele>192.4</ele>
        <time>2020-05-23T07:23:32Z</time>
      </trkpt>
      <trkpt lat="43.92875" lon="2.20199">
        <ele>192.88</ele>
        <time>2020-05-23T07:23:43Z</time>
      </trkpt>
      <trkpt lat="43.92873" lon="2.20217">
        <ele>192.88</ele>
        <time>2020-05-23T07:23:53Z</time>
      </trkpt>
      <trkpt lat="43.92876" lon="2.20232">
        <ele>192.88</ele>
        <time>2020-05-23T07:24:02Z</time>
      </trkpt>
      <trkpt lat="43.92878" lon="2.20236">
        <ele>192.4</ele>
        <time>2020-05-23T07:24:05Z</time>
      </trkpt>
      <trkpt lat="43.92888" lon="2.20242">
        <ele>191.92</ele>
        <time>2020-05-23T07:24:15Z</time>
      </trkpt>
      <trkpt lat="43.929" lon="2.20247">
        <ele>190.96</ele>
        <time>2020-05-23T07:24:25Z</time>
      </trkpt>
      <trkpt lat="43.92913" lon="2.20252">
        <ele>190.96</ele>
        <time>2020-05-23T07:24:36Z</time>
      </trkpt>
      <trkpt lat="43.92927" lon="2.20259">
        <ele>190.96</ele>
        <time>2020-05-23T07:24:48Z</time>
      </trkpt>
      <trkpt lat="43.92939" lon="2.20264">
        <ele>190.96</ele>
        <time>2020-05-23T07:24:58Z</time>
      </trkpt>
      <trkpt lat="43.92957" lon="2.20272">
        <ele>190</ele>
        <time>2020-05-23T07:25:12Z</time>
      </trkpt>
      <trkpt lat="43.92971" lon="2.20276">
        <ele>189.04</ele>
        <time>2020-05-23T07:25:21Z</time>
      </trkpt>
      <trkpt lat="43.92982" lon="2.20283">
        <ele>189.04</ele>
        <time>2020-05-23T07:25:29Z</time>
      </trkpt>
      <trkpt lat="43.92991" lon="2.20293">
        <ele>188.56</ele>
        <time>2020-05-23T07:25:37Z</time>
      </trkpt>
      <trkpt lat="43.92991" lon="2.20306">
        <ele>188.56</ele>
        <time>2020-05-23T07:25:45Z</time>
      </trkpt>
      <trkpt lat="43.92993" lon="2.20309">
        <ele>188.56</ele>
        <time>2020-05-23T07:25:47Z</time>
      </trkpt>
      <trkpt lat="43.93" lon="2.20319">
        <ele>188.08</ele>
        <time>2020-05-23T07:25:54Z</time>
      </trkpt>
      <trkpt lat="43.9301" lon="2.20333">
        <ele>189.04</ele>
        <time>2020-05-23T07:26:03Z</time>
      </trkpt>
      <trkpt lat="43.93019" lon="2.20346">
        <ele>189.52</ele>
        <time>2020-05-23T07:26:12Z</time>
      </trkpt>
      <trkpt lat="43.9303" lon="2.20353">
        <ele>188.08</ele>
        <time>2020-05-23T07:26:21Z</time>
      </trkpt>
      <trkpt lat="43.93043" lon="2.20361">
        <ele>188.08</ele>
        <time>2020-05-23T07:26:31Z</time>
      </trkpt>
      <trkpt lat="43.93049" lon="2.20365">
        <ele>187.59</ele>
        <time>2020-05-23T07:26:36Z</time>
      </trkpt>
      <trkpt lat="43.93061" lon="2.20373">
        <ele>187.59</ele>
        <time>2020-05-23T07:26:46Z</time>
      </trkpt>
      <trkpt lat="43.93072" lon="2.20381">
        <ele>185.67</ele>
        <time>2020-05-23T07:26:56Z</time>
      </trkpt>
      <trkpt lat="43.93085" lon="2.2039">
        <ele>185.67</ele>
        <time>2020-05-23T07:27:07Z</time>
      </trkpt>
      <trkpt lat="43.93099" lon="2.20399">
        <ele>186.63</ele>
        <time>2020-05-23T07:27:18Z</time>
      </trkpt>
      <trkpt lat="43.93108" lon="2.20407">
        <ele>187.11</ele>
        <time>2020-05-23T07:27:26Z</time>
      </trkpt>
      <trkpt lat="43.9312" lon="2.20414">
        <ele>186.15</ele>
        <time>2020-05-23T07:27:36Z</time>
      </trkpt>
      <trkpt lat="43.93136" lon="2.20425">
        <ele>185.19</ele>
        <time>2020-05-23T07:27:49Z</time>
      </trkpt>
      <trkpt lat="43.93149" lon="2.20435">
        <ele>184.23</ele>
        <time>2020-05-23T07:28:01Z</time>
      </trkpt>
      <trkpt lat="43.93162" lon="2.20444">
        <ele>182.79</ele>
        <time>2020-05-23T07:28:12Z</time>
      </trkpt>
      <trkpt lat="43.93173" lon="2.2045">
        <ele>182.79</ele>
        <time>2020-05-23T07:28:20Z</time>
      </trkpt>
      <trkpt lat="43.93182" lon="2.20457">
        <ele>183.27</ele>
        <time>2020-05-23T07:28:27Z</time>
      </trkpt>
      <trkpt lat="43.93192" lon="2.20465">
        <ele>181.83</ele>
        <time>2020-05-23T07:28:36Z</time>
      </trkpt>
      <trkpt lat="43.93206" lon="2.20473">
        <ele>182.31</ele>
        <time>2020-05-23T07:28:47Z</time>
      </trkpt>
      <trkpt lat="43.93215" lon="2.20482">
        <ele>181.83</ele>
        <time>2020-05-23T07:28:56Z</time>
      </trkpt>
      <trkpt lat="43.93228" lon="2.20492">
        <ele>181.83</ele>
        <time>2020-05-23T07:29:07Z</time>
      </trkpt>
      <trkpt lat="43.93241" lon="2.20504">
        <ele>180.38</ele>
        <time>2020-05-23T07:29:19Z</time>
      </trkpt>
      <trkpt lat="43.93249" lon="2.2051">
        <ele>179.42</ele>
        <time>2020-05-23T07:29:26Z</time>
      </trkpt>
      <trkpt lat="43.93263" lon="2.20523">
        <ele>180.87</ele>
        <time>2020-05-23T07:29:38Z</time>
      </trkpt>
      <trkpt lat="43.93273" lon="2.20536">
        <ele>180.38</ele>
        <time>2020-05-23T07:29:48Z</time>
      </trkpt>
      <trkpt lat="43.93285" lon="2.20546">
        <ele>180.38</ele>
        <time>2020-05-23T07:29:59Z</time>
      </trkpt>
      <trkpt lat="43.93294" lon="2.20557">
        <ele>179.9</ele>
        <time>2020-05-23T07:30:08Z</time>
      </trkpt>
      <trkpt lat="43.93304" lon="2.20569">
        <ele>179.9</ele>
        <time>2020-05-23T07:30:17Z</time>
      </trkpt>
      <trkpt lat="43.93313" lon="2.20578">
        <ele>179.9</ele>
        <time>2020-05-23T07:30:25Z</time>
      </trkpt>
      <trkpt lat="43.93324" lon="2.20589">
        <ele>181.35</ele>
        <time>2020-05-23T07:30:35Z</time>
      </trkpt>
      <trkpt lat="43.93332" lon="2.20599">
        <ele>181.35</ele>
        <time>2020-05-23T07:30:44Z</time>
      </trkpt>
      <trkpt lat="43.93341" lon="2.2061">
        <ele>180.38</ele>
        <time>2020-05-23T07:30:53Z</time>
      </trkpt>
      <trkpt lat="43.93352" lon="2.20625">
        <ele>180.87</ele>
        <time>2020-05-23T07:31:04Z</time>
      </trkpt>
      <trkpt lat="43.93362" lon="2.20637">
        <ele>179.9</ele>
        <time>2020-05-23T07:31:14Z</time>
      </trkpt>
      <trkpt lat="43.9337" lon="2.20645">
        <ele>178.94</ele>
        <time>2020-05-23T07:31:22Z</time>
      </trkpt>
      <trkpt lat="43.93383" lon="2.20657">
        <ele>177.5</ele>
        <time>2020-05-23T07:31:33Z</time>
      </trkpt>
      <trkpt lat="43.93395" lon="2.20665">
        <ele>179.42</ele>
        <time>2020-05-23T07:31:42Z</time>
      </trkpt>
      <trkpt lat="43.93407" lon="2.20673">
        <ele>179.9</ele>
        <time>2020-05-23T07:31:51Z</time>
      </trkpt>
      <trkpt lat="43.93412" lon="2.20677">
        <ele>180.87</ele>
        <time>2020-05-23T07:31:57Z</time>
      </trkpt>
      <trkpt lat="43.9342" lon="2.20682">
        <ele>182.31</ele>
        <time>2020-05-23T07:32:04Z</time>
      </trkpt>
      <trkpt lat="43.93436" lon="2.20691">
        <ele>183.75</ele>
        <time>2020-05-23T07:32:16Z</time>
      </trkpt>
      <trkpt lat="43.93448" lon="2.20697">
        <ele>185.19</ele>
        <time>2020-05-23T07:32:26Z</time>
      </trkpt>
      <trkpt lat="43.93459" lon="2.20701">
        <ele>186.15</ele>
        <time>2020-05-23T07:32:34Z</time>
      </trkpt>
      <trkpt lat="43.93469" lon="2.20706">
        <ele>186.63</ele>
        <time>2020-05-23T07:32:43Z</time>
      </trkpt>
      <trkpt lat="43.93483" lon="2.20714">
        <ele>187.59</ele>
        <time>2020-05-23T07:32:54Z</time>
      </trkpt>
      <trkpt lat="43.93496" lon="2.20721">
        <ele>188.08</ele>
        <time>2020-05-23T07:33:05Z</time>
      </trkpt>
      <trkpt lat="43.93509" lon="2.20728">
        <ele>187.59</ele>
        <time>2020-05-23T07:33:16Z</time>
      </trkpt>
      <trkpt lat="43.93523" lon="2.20733">
        <ele>188.08</ele>
        <time>2020-05-23T07:33:26Z</time>
      </trkpt>
      <trkpt lat="43.93538" lon="2.20739">
        <ele>190.48</ele>
        <time>2020-05-23T07:33:36Z</time>
      </trkpt>
      <trkpt lat="43.93553" lon="2.20741">
        <ele>190.96</ele>
        <time>2020-05-23T07:33:46Z</time>
      </trkpt>
      <trkpt lat="43.93566" lon="2.20739">
        <ele>190.48</ele>
        <time>2020-05-23T07:33:55Z</time>
      </trkpt>
      <trkpt lat="43.93578" lon="2.20736">
        <ele>190</ele>
        <time>2020-05-23T07:34:04Z</time>
      </trkpt>
      <trkpt lat="43.93588" lon="2.20733">
        <ele>190</ele>
        <time>2020-05-23T07:34:12Z</time>
      </trkpt>
      <trkpt lat="43.936" lon="2.20731">
        <ele>190.96</ele>
        <time>2020-05-23T07:34:20Z</time>
      </trkpt>
      <trkpt lat="43.93613" lon="2.20732">
        <ele>191.44</ele>
        <time>2020-05-23T07:34:29Z</time>
      </trkpt>
      <trkpt lat="43.93617" lon="2.20734">
        <ele>190.48</ele>
        <time>2020-05-23T07:34:36Z</time>
      </trkpt>
      <trkpt lat="43.93616" lon="2.20736">
        <ele>189.04</ele>
        <time>2020-05-23T07:34:43Z</time>
      </trkpt>
      <trkpt lat="43.93622" lon="2.2073">
        <ele>188.56</ele>
        <time>2020-05-23T07:34:47Z</time>
      </trkpt>
      <trkpt lat="43.93638" lon="2.20724">
        <ele>189.52</ele>
        <time>2020-05-23T07:34:57Z</time>
      </trkpt>
      <trkpt lat="43.93654" lon="2.2072">
        <ele>190.96</ele>
        <time>2020-05-23T07:35:07Z</time>
      </trkpt>
      <trkpt lat="43.93672" lon="2.2072">
        <ele>190.48</ele>
        <time>2020-05-23T07:35:17Z</time>
      </trkpt>
      <trkpt lat="43.93689" lon="2.20722">
        <ele>188.56</ele>
        <time>2020-05-23T07:35:28Z</time>
      </trkpt>
      <trkpt lat="43.93707" lon="2.20723">
        <ele>185.67</ele>
        <time>2020-05-23T07:35:41Z</time>
      </trkpt>
      <trkpt lat="43.9372" lon="2.20722">
        <ele>185.19</ele>
        <time>2020-05-23T07:35:49Z</time>
      </trkpt>
      <trkpt lat="43.93733" lon="2.20721">
        <ele>186.15</ele>
        <time>2020-05-23T07:35:58Z</time>
      </trkpt>
      <trkpt lat="43.93749" lon="2.20721">
        <ele>188.08</ele>
        <time>2020-05-23T07:36:09Z</time>
      </trkpt>
      <trkpt lat="43.93763" lon="2.20721">
        <ele>185.67</ele>
        <time>2020-05-23T07:36:20Z</time>
      </trkpt>
      <trkpt lat="43.9378" lon="2.20721">
        <ele>185.19</ele>
        <time>2020-05-23T07:36:31Z</time>
      </trkpt>
      <trkpt lat="43.93794" lon="2.20722">
        <ele>186.15</ele>
        <time>2020-05-23T07:36:41Z</time>
      </trkpt>
      <trkpt lat="43.93805" lon="2.20722">
        <ele>186.63</ele>
        <time>2020-05-23T07:36:49Z</time>
      </trkpt>
      <trkpt lat="43.9382" lon="2.20724">
        <ele>187.11</ele>
        <time>2020-05-23T07:37:01Z</time>
      </trkpt>
      <trkpt lat="43.93832" lon="2.20726">
        <ele>188.56</ele>
        <time>2020-05-23T07:37:10Z</time>
      </trkpt>
      <trkpt lat="43.93847" lon="2.20728">
        <ele>188.08</ele>
        <time>2020-05-23T07:37:21Z</time>
      </trkpt>
      <trkpt lat="43.93858" lon="2.20728">
        <ele>188.08</ele>
        <time>2020-05-23T07:37:30Z</time>
      </trkpt>
      <trkpt lat="43.93872" lon="2.20729">
        <ele>188.08</ele>
        <time>2020-05-23T07:37:39Z</time>
      </trkpt>
      <trkpt lat="43.93887" lon="2.20732">
        <ele>186.63</ele>
        <time>2020-05-23T07:37:50Z</time>
      </trkpt>
      <trkpt lat="43.93899" lon="2.20734">
        <ele>186.15</ele>
        <time>2020-05-23T07:37:58Z</time>
      </trkpt>
      <trkpt lat="43.93913" lon="2.20734">
        <ele>186.63</ele>
        <time>2020-05-23T07:38:08Z</time>
      </trkpt>
      <trkpt lat="43.93926" lon="2.20737">
        <ele>185.67</ele>
        <time>2020-05-23T07:38:17Z</time>
      </trkpt>
      <trkpt lat="43.93939" lon="2.20738">
        <ele>184.23</ele>
        <time>2020-05-23T07:38:27Z</time>
      </trkpt>
      <trkpt lat="43.93942" lon="2.20739">
        <ele>184.23</ele>
        <time>2020-05-23T07:38:29Z</time>
      </trkpt>
      <trkpt lat="43.93954" lon="2.20741">
        <ele>185.19</ele>
        <time>2020-05-23T07:38:39Z</time>
      </trkpt>
      <trkpt lat="43.93968" lon="2.20745">
        <ele>186.15</ele>
        <time>2020-05-23T07:38:48Z</time>
      </trkpt>
      <trkpt lat="43.9398" lon="2.20752">
        <ele>187.59</ele>
        <time>2020-05-23T07:38:56Z</time>
      </trkpt>
      <trkpt lat="43.93989" lon="2.20765">
        <ele>184.71</ele>
        <time>2020-05-23T07:39:06Z</time>
      </trkpt>
      <trkpt lat="43.93997" lon="2.20771">
        <ele>183.75</ele>
        <time>2020-05-23T07:39:13Z</time>
      </trkpt>
      <trkpt lat="43.9401" lon="2.20778">
        <ele>183.75</ele>
        <time>2020-05-23T07:39:22Z</time>
      </trkpt>
      <trkpt lat="43.94014" lon="2.20779">
        <ele>183.27</ele>
        <time>2020-05-23T07:39:25Z</time>
      </trkpt>
      <trkpt lat="43.94027" lon="2.2078">
        <ele>182.31</ele>
        <time>2020-05-23T07:39:35Z</time>
      </trkpt>
      <trkpt lat="43.94038" lon="2.2078">
        <ele>183.27</ele>
        <time>2020-05-23T07:39:43Z</time>
      </trkpt>
      <trkpt lat="43.94056" lon="2.2078">
        <ele>184.71</ele>
        <time>2020-05-23T07:39:55Z</time>
      </trkpt>
      <trkpt lat="43.94073" lon="2.2078">
        <ele>185.19</ele>
        <time>2020-05-23T07:40:06Z</time>
      </trkpt>
      <trkpt lat="43.94087" lon="2.2078">
        <ele>185.19</ele>
        <time>2020-05-23T07:40:16Z</time>
      </trkpt>
      <trkpt lat="43.94099" lon="2.20782">
        <ele>186.63</ele>
        <time>2020-05-23T07:40:25Z</time>
      </trkpt>
      <trkpt lat="43.94112" lon="2.20785">
        <ele>187.11</ele>
        <time>2020-05-23T07:40:34Z</time>
      </trkpt>
      <trkpt lat="43.94124" lon="2.20787">
        <ele>186.63</ele>
        <time>2020-05-23T07:40:43Z</time>
      </trkpt>
      <trkpt lat="43.94136" lon="2.20789">
        <ele>187.11</ele>
        <time>2020-05-23T07:40:51Z</time>
      </trkpt>
      <trkpt lat="43.94146" lon="2.20794">
        <ele>187.59</ele>
        <time>2020-05-23T07:40:59Z</time>
      </trkpt>
      <trkpt lat="43.94161" lon="2.20801">
        <ele>188.56</ele>
        <time>2020-05-23T07:41:09Z</time>
      </trkpt>
      <trkpt lat="43.94172" lon="2.20808">
        <ele>188.08</ele>
        <time>2020-05-23T07:41:19Z</time>
      </trkpt>
      <trkpt lat="43.94179" lon="2.20814">
        <ele>187.59</ele>
        <time>2020-05-23T07:41:26Z</time>
      </trkpt>
      <trkpt lat="43.94191" lon="2.2082">
        <ele>186.15</ele>
        <time>2020-05-23T07:41:35Z</time>
      </trkpt>
      <trkpt lat="43.94206" lon="2.20827">
        <ele>186.15</ele>
        <time>2020-05-23T07:41:45Z</time>
      </trkpt>
      <trkpt lat="43.94217" lon="2.20832">
        <ele>186.63</ele>
        <time>2020-05-23T07:41:53Z</time>
      </trkpt>
      <trkpt lat="43.94229" lon="2.20838">
        <ele>184.71</ele>
        <time>2020-05-23T07:42:03Z</time>
      </trkpt>
      <trkpt lat="43.94245" lon="2.20848">
        <ele>185.19</ele>
        <time>2020-05-23T07:42:15Z</time>
      </trkpt>
      <trkpt lat="43.94259" lon="2.20855">
        <ele>185.19</ele>
        <time>2020-05-23T07:42:26Z</time>
      </trkpt>
      <trkpt lat="43.9427" lon="2.20861">
        <ele>186.15</ele>
        <time>2020-05-23T07:42:34Z</time>
      </trkpt>
      <trkpt lat="43.94283" lon="2.20868">
        <ele>186.63</ele>
        <time>2020-05-23T07:42:43Z</time>
      </trkpt>
      <trkpt lat="43.94299" lon="2.20877">
        <ele>188.56</ele>
        <time>2020-05-23T07:42:55Z</time>
      </trkpt>
      <trkpt lat="43.94312" lon="2.20885">
        <ele>188.56</ele>
        <time>2020-05-23T07:43:05Z</time>
      </trkpt>
      <trkpt lat="43.94329" lon="2.20896">
        <ele>189.52</ele>
        <time>2020-05-23T07:43:17Z</time>
      </trkpt>
      <trkpt lat="43.94342" lon="2.20906">
        <ele>190.96</ele>
        <time>2020-05-23T07:43:28Z</time>
      </trkpt>
      <trkpt lat="43.94356" lon="2.20916">
        <ele>193.84</ele>
        <time>2020-05-23T07:43:39Z</time>
      </trkpt>
      <trkpt lat="43.94359" lon="2.20918">
        <ele>194.32</ele>
        <time>2020-05-23T07:43:43Z</time>
      </trkpt>
      <trkpt lat="43.94365" lon="2.20923">
        <ele>192.88</ele>
        <time>2020-05-23T07:43:51Z</time>
      </trkpt>
      <trkpt lat="43.94375" lon="2.20933">
        <ele>189.04</ele>
        <time>2020-05-23T07:44:00Z</time>
      </trkpt>
      <trkpt lat="43.94383" lon="2.2094">
        <ele>186.63</ele>
        <time>2020-05-23T07:44:08Z</time>
      </trkpt>
      <trkpt lat="43.94393" lon="2.20945">
        <ele>182.79</ele>
        <time>2020-05-23T07:44:17Z</time>
      </trkpt>
      <trkpt lat="43.94408" lon="2.20948">
        <ele>179.42</ele>
        <time>2020-05-23T07:44:27Z</time>
      </trkpt>
      <trkpt lat="43.94425" lon="2.20955">
        <ele>182.31</ele>
        <time>2020-05-23T07:44:38Z</time>
      </trkpt>
      <trkpt lat="43.9444" lon="2.20961">
        <ele>183.27</ele>
        <time>2020-05-23T07:44:47Z</time>
      </trkpt>
      <trkpt lat="43.9445" lon="2.20963">
        <ele>185.19</ele>
        <time>2020-05-23T07:44:54Z</time>
      </trkpt>
      <trkpt lat="43.94464" lon="2.20966">
        <ele>185.67</ele>
        <time>2020-05-23T07:45:04Z</time>
      </trkpt>
      <trkpt lat="43.9448" lon="2.2097">
        <ele>183.27</ele>
        <time>2020-05-23T07:45:16Z</time>
      </trkpt>
      <trkpt lat="43.94493" lon="2.20973">
        <ele>182.79</ele>
        <time>2020-05-23T07:45:26Z</time>
      </trkpt>
      <trkpt lat="43.94504" lon="2.20977">
        <ele>181.35</ele>
        <time>2020-05-23T07:45:36Z</time>
      </trkpt>
      <trkpt lat="43.94514" lon="2.2098">
        <ele>178.94</ele>
        <time>2020-05-23T07:45:45Z</time>
      </trkpt>
      <trkpt lat="43.94524" lon="2.20982">
        <ele>175.58</ele>
        <time>2020-05-23T07:45:53Z</time>
      </trkpt>
      <trkpt lat="43.94538" lon="2.20985">
        <ele>174.62</ele>
        <time>2020-05-23T07:46:03Z</time>
      </trkpt>
      <trkpt lat="43.9454" lon="2.20985">
        <ele>174.62</ele>
        <time>2020-05-23T07:46:04Z</time>
      </trkpt>
      <trkpt lat="43.94553" lon="2.20985">
        <ele>178.46</ele>
        <time>2020-05-23T07:46:12Z</time>
      </trkpt>
      <trkpt lat="43.94563" lon="2.20989">
        <ele>180.38</ele>
        <time>2020-05-23T07:46:19Z</time>
      </trkpt>
      <trkpt lat="43.94573" lon="2.20992">
        <ele>181.83</ele>
        <time>2020-05-23T07:46:26Z</time>
      </trkpt>
      <trkpt lat="43.94582" lon="2.20993">
        <ele>183.75</ele>
        <time>2020-05-23T07:46:33Z</time>
      </trkpt>
      <trkpt lat="43.94593" lon="2.21004">
        <ele>180.87</ele>
        <time>2020-05-23T07:46:43Z</time>
      </trkpt>
      <trkpt lat="43.94601" lon="2.21006">
        <ele>177.5</ele>
        <time>2020-05-23T07:46:50Z</time>
      </trkpt>
      <trkpt lat="43.94605" lon="2.21007">
        <ele>176.06</ele>
        <time>2020-05-23T07:46:53Z</time>
      </trkpt>
      <trkpt lat="43.94616" lon="2.21012">
        <ele>173.66</ele>
        <time>2020-05-23T07:47:01Z</time>
      </trkpt>
      <trkpt lat="43.94624" lon="2.21016">
        <ele>170.77</ele>
        <time>2020-05-23T07:47:07Z</time>
      </trkpt>
      <trkpt lat="43.94631" lon="2.21019">
        <ele>170.29</ele>
        <time>2020-05-23T07:47:12Z</time>
      </trkpt>
      <trkpt lat="43.94642" lon="2.21015">
        <ele>171.73</ele>
        <time>2020-05-23T07:47:20Z</time>
      </trkpt>
      <trkpt lat="43.94652" lon="2.21019">
        <ele>172.21</ele>
        <time>2020-05-23T07:47:28Z</time>
      </trkpt>
      <trkpt lat="43.94666" lon="2.21018">
        <ele>173.66</ele>
        <time>2020-05-23T07:47:37Z</time>
      </trkpt>
      <trkpt lat="43.94679" lon="2.21018">
        <ele>176.54</ele>
        <time>2020-05-23T07:47:45Z</time>
      </trkpt>
      <trkpt lat="43.94687" lon="2.21019">
        <ele>176.54</ele>
        <time>2020-05-23T07:47:52Z</time>
      </trkpt>
      <trkpt lat="43.94698" lon="2.21021">
        <ele>175.1</ele>
        <time>2020-05-23T07:48:00Z</time>
      </trkpt>
      <trkpt lat="43.947" lon="2.21021">
        <ele>174.62</ele>
        <time>2020-05-23T07:48:02Z</time>
      </trkpt>
      <trkpt lat="43.94713" lon="2.2103">
        <ele>175.58</ele>
        <time>2020-05-23T07:48:10Z</time>
      </trkpt>
      <trkpt lat="43.94728" lon="2.21038">
        <ele>178.94</ele>
        <time>2020-05-23T07:48:19Z</time>
      </trkpt>
      <trkpt lat="43.94733" lon="2.21046">
        <ele>177.98</ele>
        <time>2020-05-23T07:48:25Z</time>
      </trkpt>
      <trkpt lat="43.94737" lon="2.21056">
        <ele>177.5</ele>
        <time>2020-05-23T07:48:31Z</time>
      </trkpt>
      <trkpt lat="43.94745" lon="2.21069">
        <ele>174.14</ele>
        <time>2020-05-23T07:48:41Z</time>
      </trkpt>
      <trkpt lat="43.9475" lon="2.21076">
        <ele>168.37</ele>
        <time>2020-05-23T07:48:48Z</time>
      </trkpt>
      <trkpt lat="43.94755" lon="2.21087">
        <ele>163.08</ele>
        <time>2020-05-23T07:48:56Z</time>
      </trkpt>
      <trkpt lat="43.94764" lon="2.21097">
        <ele>159.24</ele>
        <time>2020-05-23T07:49:06Z</time>
      </trkpt>
      <trkpt lat="43.94768" lon="2.21099">
        <ele>160.68</ele>
        <time>2020-05-23T07:49:21Z</time>
      </trkpt>
      <trkpt lat="43.94764" lon="2.21095">
        <ele>165.48</ele>
        <time>2020-05-23T07:49:30Z</time>
      </trkpt>
      <trkpt lat="43.94765" lon="2.21092">
        <ele>168.85</ele>
        <time>2020-05-23T07:49:43Z</time>
      </trkpt>
      <trkpt lat="43.94768" lon="2.21093">
        <ele>172.21</ele>
        <time>2020-05-23T07:49:49Z</time>
      </trkpt>
      <trkpt lat="43.94768" lon="2.21093">
        <ele>176.54</ele>
        <time>2020-05-23T07:49:59Z</time>
      </trkpt>
      <trkpt lat="43.94768" lon="2.21091">
        <ele>177.02</ele>
        <time>2020-05-23T07:50:12Z</time>
      </trkpt>
      <trkpt lat="43.94768" lon="2.21085">
        <ele>177.98</ele>
        <time>2020-05-23T07:50:29Z</time>
      </trkpt>
      <trkpt lat="43.94771" lon="2.21091">
        <ele>181.83</ele>
        <time>2020-05-23T07:50:35Z</time>
      </trkpt>
      <trkpt lat="43.94778" lon="2.21096">
        <ele>190</ele>
        <time>2020-05-23T07:50:49Z</time>
      </trkpt>
      <trkpt lat="43.94777" lon="2.21094">
        <ele>189.52</ele>
        <time>2020-05-23T07:50:59Z</time>
      </trkpt>
      <trkpt lat="43.94781" lon="2.21097">
        <ele>189.04</ele>
        <time>2020-05-23T07:51:06Z</time>
      </trkpt>
      <trkpt lat="43.94788" lon="2.21104">
        <ele>187.11</ele>
        <time>2020-05-23T07:51:14Z</time>
      </trkpt>
      <trkpt lat="43.94795" lon="2.21109">
        <ele>183.27</ele>
        <time>2020-05-23T07:51:22Z</time>
      </trkpt>
      <trkpt lat="43.94803" lon="2.21119">
        <ele>178.94</ele>
        <time>2020-05-23T07:51:32Z</time>
      </trkpt>
      <trkpt lat="43.94807" lon="2.21123">
        <ele>179.9</ele>
        <time>2020-05-23T07:51:46Z</time>
      </trkpt>
      <trkpt lat="43.94807" lon="2.21125">
        <ele>181.35</ele>
        <time>2020-05-23T07:51:56Z</time>
      </trkpt>
      <trkpt lat="43.94814" lon="2.2113">
        <ele>181.83</ele>
        <time>2020-05-23T07:52:03Z</time>
      </trkpt>
      <trkpt lat="43.94822" lon="2.21137">
        <ele>180.87</ele>
        <time>2020-05-23T07:52:10Z</time>
      </trkpt>
      <trkpt lat="43.94834" lon="2.21145">
        <ele>178.46</ele>
        <time>2020-05-23T07:52:18Z</time>
      </trkpt>
      <trkpt lat="43.94845" lon="2.21154">
        <ele>176.54</ele>
        <time>2020-05-23T07:52:26Z</time>
      </trkpt>
      <trkpt lat="43.94857" lon="2.21163">
        <ele>173.17</ele>
        <time>2020-05-23T07:52:35Z</time>
      </trkpt>
      <trkpt lat="43.94858" lon="2.21164">
        <ele>172.69</ele>
        <time>2020-05-23T07:52:36Z</time>
      </trkpt>
      <trkpt lat="43.94873" lon="2.21168">
        <ele>171.25</ele>
        <time>2020-05-23T07:52:47Z</time>
      </trkpt>
      <trkpt lat="43.94889" lon="2.21171">
        <ele>169.33</ele>
        <time>2020-05-23T07:52:57Z</time>
      </trkpt>
      <trkpt lat="43.94902" lon="2.21181">
        <ele>173.66</ele>
        <time>2020-05-23T07:53:06Z</time>
      </trkpt>
      <trkpt lat="43.94914" lon="2.2119">
        <ele>174.14</ele>
        <time>2020-05-23T07:53:15Z</time>
      </trkpt>
      <trkpt lat="43.94928" lon="2.21197">
        <ele>175.1</ele>
        <time>2020-05-23T07:53:24Z</time>
      </trkpt>
      <trkpt lat="43.94944" lon="2.21204">
        <ele>176.54</ele>
        <time>2020-05-23T07:53:35Z</time>
      </trkpt>
      <trkpt lat="43.9495" lon="2.21208">
        <ele>176.06</ele>
        <time>2020-05-23T07:53:40Z</time>
      </trkpt>
      <trkpt lat="43.94961" lon="2.21214">
        <ele>173.66</ele>
        <time>2020-05-23T07:53:50Z</time>
      </trkpt>
      <trkpt lat="43.94971" lon="2.21221">
        <ele>172.21</ele>
        <time>2020-05-23T07:53:59Z</time>
      </trkpt>
      <trkpt lat="43.94986" lon="2.21229">
        <ele>172.69</ele>
        <time>2020-05-23T07:54:09Z</time>
      </trkpt>
      <trkpt lat="43.94999" lon="2.21233">
        <ele>174.14</ele>
        <time>2020-05-23T07:54:18Z</time>
      </trkpt>
      <trkpt lat="43.95009" lon="2.21239">
        <ele>174.14</ele>
        <time>2020-05-23T07:54:25Z</time>
      </trkpt>
      <trkpt lat="43.95021" lon="2.21252">
        <ele>177.02</ele>
        <time>2020-05-23T07:54:35Z</time>
      </trkpt>
      <trkpt lat="43.95036" lon="2.21257">
        <ele>177.02</ele>
        <time>2020-05-23T07:54:44Z</time>
      </trkpt>
      <trkpt lat="43.95041" lon="2.21258">
        <ele>175.1</ele>
        <time>2020-05-23T07:54:48Z</time>
      </trkpt>
      <trkpt lat="43.95052" lon="2.21269">
        <ele>173.17</ele>
        <time>2020-05-23T07:54:57Z</time>
      </trkpt>
      <trkpt lat="43.95055" lon="2.21273">
        <ele>172.21</ele>
        <time>2020-05-23T07:55:00Z</time>
      </trkpt>
      <trkpt lat="43.95062" lon="2.21282">
        <ele>171.25</ele>
        <time>2020-05-23T07:55:06Z</time>
      </trkpt>
      <trkpt lat="43.95069" lon="2.21292">
        <ele>171.73</ele>
        <time>2020-05-23T07:55:15Z</time>
      </trkpt>
      <trkpt lat="43.95069" lon="2.21296">
        <ele>172.21</ele>
        <time>2020-05-23T07:55:25Z</time>
      </trkpt>
      <trkpt lat="43.95068" lon="2.21301">
        <ele>176.54</ele>
        <time>2020-05-23T07:55:44Z</time>
      </trkpt>
      <trkpt lat="43.95068" lon="2.213">
        <ele>180.38</ele>
        <time>2020-05-23T07:56:00Z</time>
      </trkpt>
      <trkpt lat="43.95072" lon="2.21306">
        <ele>181.35</ele>
        <time>2020-05-23T07:56:07Z</time>
      </trkpt>
      <trkpt lat="43.95083" lon="2.2132">
        <ele>178.94</ele>
        <time>2020-05-23T07:56:18Z</time>
      </trkpt>
      <trkpt lat="43.95091" lon="2.21332">
        <ele>179.9</ele>
        <time>2020-05-23T07:56:26Z</time>
      </trkpt>
      <trkpt lat="43.95101" lon="2.21347">
        <ele>180.87</ele>
        <time>2020-05-23T07:56:36Z</time>
      </trkpt>
      <trkpt lat="43.95108" lon="2.21359">
        <ele>180.87</ele>
        <time>2020-05-23T07:56:44Z</time>
      </trkpt>
      <trkpt lat="43.95115" lon="2.21373">
        <ele>179.9</ele>
        <time>2020-05-23T07:56:54Z</time>
      </trkpt>
      <trkpt lat="43.95122" lon="2.21391">
        <ele>180.87</ele>
        <time>2020-05-23T07:57:05Z</time>
      </trkpt>
      <trkpt lat="43.95128" lon="2.2141">
        <ele>182.31</ele>
        <time>2020-05-23T07:57:15Z</time>
      </trkpt>
      <trkpt lat="43.95135" lon="2.21431">
        <ele>181.35</ele>
        <time>2020-05-23T07:57:27Z</time>
      </trkpt>
      <trkpt lat="43.95139" lon="2.21444">
        <ele>180.87</ele>
        <time>2020-05-23T07:57:34Z</time>
      </trkpt>
      <trkpt lat="43.95142" lon="2.2146">
        <ele>178.94</ele>
        <time>2020-05-23T07:57:44Z</time>
      </trkpt>
      <trkpt lat="43.95146" lon="2.21472">
        <ele>175.58</ele>
        <time>2020-05-23T07:57:52Z</time>
      </trkpt>
      <trkpt lat="43.95147" lon="2.21487">
        <ele>169.81</ele>
        <time>2020-05-23T07:58:02Z</time>
      </trkpt>
      <trkpt lat="43.9515" lon="2.215">
        <ele>167.41</ele>
        <time>2020-05-23T07:58:10Z</time>
      </trkpt>
      <trkpt lat="43.95156" lon="2.21522">
        <ele>167.89</ele>
        <time>2020-05-23T07:58:21Z</time>
      </trkpt>
      <trkpt lat="43.95163" lon="2.21546">
        <ele>175.1</ele>
        <time>2020-05-23T07:58:30Z</time>
      </trkpt>
      <trkpt lat="43.95168" lon="2.21561">
        <ele>176.06</ele>
        <time>2020-05-23T07:58:39Z</time>
      </trkpt>
      <trkpt lat="43.95173" lon="2.21576">
        <ele>176.54</ele>
        <time>2020-05-23T07:58:48Z</time>
      </trkpt>
      <trkpt lat="43.95175" lon="2.2159">
        <ele>176.54</ele>
        <time>2020-05-23T07:58:56Z</time>
      </trkpt>
      <trkpt lat="43.95178" lon="2.21609">
        <ele>176.06</ele>
        <time>2020-05-23T07:59:06Z</time>
      </trkpt>
      <trkpt lat="43.95185" lon="2.21631">
        <ele>178.46</ele>
        <time>2020-05-23T07:59:16Z</time>
      </trkpt>
      <trkpt lat="43.95188" lon="2.21648">
        <ele>177.5</ele>
        <time>2020-05-23T07:59:25Z</time>
      </trkpt>
      <trkpt lat="43.95191" lon="2.21667">
        <ele>177.5</ele>
        <time>2020-05-23T07:59:36Z</time>
      </trkpt>
      <trkpt lat="43.95193" lon="2.21684">
        <ele>176.54</ele>
        <time>2020-05-23T07:59:44Z</time>
      </trkpt>
      <trkpt lat="43.95198" lon="2.21709">
        <ele>173.66</ele>
        <time>2020-05-23T07:59:57Z</time>
      </trkpt>
      <trkpt lat="43.95203" lon="2.2173">
        <ele>173.17</ele>
        <time>2020-05-23T08:00:08Z</time>
      </trkpt>
      <trkpt lat="43.95204" lon="2.21747">
        <ele>173.66</ele>
        <time>2020-05-23T08:00:17Z</time>
      </trkpt>
      <trkpt lat="43.95206" lon="2.2176">
        <ele>171.25</ele>
        <time>2020-05-23T08:00:24Z</time>
      </trkpt>
      <trkpt lat="43.95206" lon="2.21785">
        <ele>168.85</ele>
        <time>2020-05-23T08:00:37Z</time>
      </trkpt>
      <trkpt lat="43.95208" lon="2.21808">
        <ele>168.85</ele>
        <time>2020-05-23T08:00:48Z</time>
      </trkpt>
      <trkpt lat="43.95208" lon="2.21813">
        <ele>168.85</ele>
        <time>2020-05-23T08:00:51Z</time>
      </trkpt>
      <trkpt lat="43.95207" lon="2.21831">
        <ele>166.93</ele>
        <time>2020-05-23T08:01:02Z</time>
      </trkpt>
      <trkpt lat="43.95204" lon="2.21845">
        <ele>165</ele>
        <time>2020-05-23T08:01:10Z</time>
      </trkpt>
      <trkpt lat="43.95203" lon="2.21851">
        <ele>164.04</ele>
        <time>2020-05-23T08:01:14Z</time>
      </trkpt>
      <trkpt lat="43.95201" lon="2.2187">
        <ele>163.08</ele>
        <time>2020-05-23T08:01:24Z</time>
      </trkpt>
      <trkpt lat="43.95201" lon="2.21894">
        <ele>165.48</ele>
        <time>2020-05-23T08:01:34Z</time>
      </trkpt>
      <trkpt lat="43.95201" lon="2.21919">
        <ele>169.81</ele>
        <time>2020-05-23T08:01:45Z</time>
      </trkpt>
      <trkpt lat="43.95196" lon="2.21937">
        <ele>170.29</ele>
        <time>2020-05-23T08:01:54Z</time>
      </trkpt>
      <trkpt lat="43.95193" lon="2.21953">
        <ele>169.33</ele>
        <time>2020-05-23T08:02:02Z</time>
      </trkpt>
      <trkpt lat="43.95189" lon="2.21968">
        <ele>168.85</ele>
        <time>2020-05-23T08:02:11Z</time>
      </trkpt>
      <trkpt lat="43.95185" lon="2.21983">
        <ele>167.89</ele>
        <time>2020-05-23T08:02:19Z</time>
      </trkpt>
      <trkpt lat="43.95179" lon="2.22001">
        <ele>168.37</ele>
        <time>2020-05-23T08:02:28Z</time>
      </trkpt>
      <trkpt lat="43.95175" lon="2.22018">
        <ele>168.85</ele>
        <time>2020-05-23T08:02:37Z</time>
      </trkpt>
      <trkpt lat="43.95169" lon="2.22033">
        <ele>169.33</ele>
        <time>2020-05-23T08:02:45Z</time>
      </trkpt>
      <trkpt lat="43.95163" lon="2.22048">
        <ele>169.33</ele>
        <time>2020-05-23T08:02:54Z</time>
      </trkpt>
      <trkpt lat="43.95154" lon="2.22069">
        <ele>166.93</ele>
        <time>2020-05-23T08:03:07Z</time>
      </trkpt>
      <trkpt lat="43.95151" lon="2.22081">
        <ele>165.48</ele>
        <time>2020-05-23T08:03:15Z</time>
      </trkpt>
      <trkpt lat="43.95141" lon="2.22096">
        <ele>164.04</ele>
        <time>2020-05-23T08:03:24Z</time>
      </trkpt>
      <trkpt lat="43.95134" lon="2.22105">
        <ele>161.64</ele>
        <time>2020-05-23T08:03:31Z</time>
      </trkpt>
      <trkpt lat="43.95129" lon="2.22111">
        <ele>161.64</ele>
        <time>2020-05-23T08:03:35Z</time>
      </trkpt>
      <trkpt lat="43.95121" lon="2.22124">
        <ele>163.08</ele>
        <time>2020-05-23T08:03:43Z</time>
      </trkpt>
      <trkpt lat="43.95115" lon="2.22139">
        <ele>163.08</ele>
        <time>2020-05-23T08:03:52Z</time>
      </trkpt>
      <trkpt lat="43.95107" lon="2.22157">
        <ele>163.08</ele>
        <time>2020-05-23T08:04:03Z</time>
      </trkpt>
      <trkpt lat="43.95098" lon="2.22176">
        <ele>162.6</ele>
        <time>2020-05-23T08:04:13Z</time>
      </trkpt>
      <trkpt lat="43.95092" lon="2.22191">
        <ele>163.08</ele>
        <time>2020-05-23T08:04:21Z</time>
      </trkpt>
      <trkpt lat="43.95088" lon="2.22199">
        <ele>163.08</ele>
        <time>2020-05-23T08:04:28Z</time>
      </trkpt>
      <trkpt lat="43.95082" lon="2.22211">
        <ele>163.08</ele>
        <time>2020-05-23T08:04:36Z</time>
      </trkpt>
      <trkpt lat="43.95074" lon="2.22224">
        <ele>163.56</ele>
        <time>2020-05-23T08:04:44Z</time>
      </trkpt>
      <trkpt lat="43.95072" lon="2.2223">
        <ele>163.56</ele>
        <time>2020-05-23T08:04:48Z</time>
      </trkpt>
      <trkpt lat="43.95064" lon="2.22247">
        <ele>165</ele>
        <time>2020-05-23T08:04:58Z</time>
      </trkpt>
      <trkpt lat="43.9506" lon="2.22257">
        <ele>166.45</ele>
        <time>2020-05-23T08:05:05Z</time>
      </trkpt>
      <trkpt lat="43.95055" lon="2.2227">
        <ele>167.89</ele>
        <time>2020-05-23T08:05:14Z</time>
      </trkpt>
      <trkpt lat="43.95048" lon="2.22288">
        <ele>167.41</ele>
        <time>2020-05-23T08:05:23Z</time>
      </trkpt>
      <trkpt lat="43.95045" lon="2.22305">
        <ele>168.37</ele>
        <time>2020-05-23T08:05:31Z</time>
      </trkpt>
      <trkpt lat="43.95041" lon="2.22323">
        <ele>169.81</ele>
        <time>2020-05-23T08:05:39Z</time>
      </trkpt>
      <trkpt lat="43.9504" lon="2.22329">
        <ele>170.77</ele>
        <time>2020-05-23T08:05:42Z</time>
      </trkpt>
      <trkpt lat="43.95036" lon="2.22347">
        <ele>171.73</ele>
        <time>2020-05-23T08:05:51Z</time>
      </trkpt>
      <trkpt lat="43.95033" lon="2.22355">
        <ele>171.73</ele>
        <time>2020-05-23T08:05:55Z</time>
      </trkpt>
      <trkpt lat="43.95032" lon="2.22361">
        <ele>171.73</ele>
        <time>2020-05-23T08:05:58Z</time>
      </trkpt>
      <trkpt lat="43.95025" lon="2.22379">
        <ele>168.85</ele>
        <time>2020-05-23T08:06:09Z</time>
      </trkpt>
      <trkpt lat="43.95024" lon="2.22381">
        <ele>168.85</ele>
        <time>2020-05-23T08:06:10Z</time>
      </trkpt>
      <trkpt lat="43.95022" lon="2.22396">
        <ele>166.45</ele>
        <time>2020-05-23T08:06:19Z</time>
      </trkpt>
      <trkpt lat="43.95018" lon="2.22413">
        <ele>165</ele>
        <time>2020-05-23T08:06:28Z</time>
      </trkpt>
      <trkpt lat="43.95016" lon="2.22428">
        <ele>165</ele>
        <time>2020-05-23T08:06:36Z</time>
      </trkpt>
      <trkpt lat="43.95013" lon="2.22446">
        <ele>165.96</ele>
        <time>2020-05-23T08:06:45Z</time>
      </trkpt>
      <trkpt lat="43.95011" lon="2.22462">
        <ele>166.45</ele>
        <time>2020-05-23T08:06:52Z</time>
      </trkpt>
      <trkpt lat="43.95008" lon="2.22478">
        <ele>165.96</ele>
        <time>2020-05-23T08:07:00Z</time>
      </trkpt>
      <trkpt lat="43.95007" lon="2.22485">
        <ele>165</ele>
        <time>2020-05-23T08:07:03Z</time>
      </trkpt>
      <trkpt lat="43.95004" lon="2.22505">
        <ele>164.52</ele>
        <time>2020-05-23T08:07:13Z</time>
      </trkpt>
      <trkpt lat="43.95005" lon="2.2252">
        <ele>164.04</ele>
        <time>2020-05-23T08:07:21Z</time>
      </trkpt>
      <trkpt lat="43.95006" lon="2.22534">
        <ele>165.48</ele>
        <time>2020-05-23T08:07:28Z</time>
      </trkpt>
      <trkpt lat="43.95004" lon="2.22556">
        <ele>166.93</ele>
        <time>2020-05-23T08:07:38Z</time>
      </trkpt>
      <trkpt lat="43.95002" lon="2.22578">
        <ele>167.89</ele>
        <time>2020-05-23T08:07:48Z</time>
      </trkpt>
      <trkpt lat="43.95002" lon="2.22605">
        <ele>169.81</ele>
        <time>2020-05-23T08:08:01Z</time>
      </trkpt>
      <trkpt lat="43.95003" lon="2.2263">
        <ele>172.21</ele>
        <time>2020-05-23T08:08:13Z</time>
      </trkpt>
      <trkpt lat="43.95002" lon="2.22652">
        <ele>171.73</ele>
        <time>2020-05-23T08:08:24Z</time>
      </trkpt>
      <trkpt lat="43.95002" lon="2.2267">
        <ele>169.33</ele>
        <time>2020-05-23T08:08:34Z</time>
      </trkpt>
      <trkpt lat="43.95002" lon="2.22675">
        <ele>169.33</ele>
        <time>2020-05-23T08:08:36Z</time>
      </trkpt>
      <trkpt lat="43.95002" lon="2.22685">
        <ele>168.85</ele>
        <time>2020-05-23T08:08:41Z</time>
      </trkpt>
      <trkpt lat="43.95002" lon="2.22704">
        <ele>167.89</ele>
        <time>2020-05-23T08:08:52Z</time>
      </trkpt>
      <trkpt lat="43.95005" lon="2.22728">
        <ele>170.77</ele>
        <time>2020-05-23T08:09:04Z</time>
      </trkpt>
      <trkpt lat="43.95007" lon="2.2275">
        <ele>173.17</ele>
        <time>2020-05-23T08:09:15Z</time>
      </trkpt>
      <trkpt lat="43.95006" lon="2.22766">
        <ele>172.21</ele>
        <time>2020-05-23T08:09:23Z</time>
      </trkpt>
      <trkpt lat="43.94998" lon="2.22785">
        <ele>172.69</ele>
        <time>2020-05-23T08:09:34Z</time>
      </trkpt>
      <trkpt lat="43.9499" lon="2.22794">
        <ele>173.17</ele>
        <time>2020-05-23T08:09:42Z</time>
      </trkpt>
      <trkpt lat="43.94981" lon="2.22803">
        <ele>172.69</ele>
        <time>2020-05-23T08:09:52Z</time>
      </trkpt>
      <trkpt lat="43.94977" lon="2.22806">
        <ele>171.73</ele>
        <time>2020-05-23T08:09:58Z</time>
      </trkpt>
      <trkpt lat="43.94968" lon="2.22815">
        <ele>171.25</ele>
        <time>2020-05-23T08:10:07Z</time>
      </trkpt>
      <trkpt lat="43.94958" lon="2.22819">
        <ele>170.29</ele>
        <time>2020-05-23T08:10:17Z</time>
      </trkpt>
      <trkpt lat="43.9495" lon="2.22822">
        <ele>169.81</ele>
        <time>2020-05-23T08:10:25Z</time>
      </trkpt>
      <trkpt lat="43.94949" lon="2.22822">
        <ele>169.81</ele>
        <time>2020-05-23T08:10:26Z</time>
      </trkpt>
      <trkpt lat="43.94939" lon="2.22826">
        <ele>168.37</ele>
        <time>2020-05-23T08:10:35Z</time>
      </trkpt>
      <trkpt lat="43.9493" lon="2.2283">
        <ele>165.96</ele>
        <time>2020-05-23T08:10:43Z</time>
      </trkpt>
      <trkpt lat="43.9492" lon="2.22836">
        <ele>162.12</ele>
        <time>2020-05-23T08:10:52Z</time>
      </trkpt>
      <trkpt lat="43.94911" lon="2.22842">
        <ele>159.72</ele>
        <time>2020-05-23T08:11:00Z</time>
      </trkpt>
      <trkpt lat="43.949" lon="2.22848">
        <ele>155.87</ele>
        <time>2020-05-23T08:11:09Z</time>
      </trkpt>
      <trkpt lat="43.94894" lon="2.22855">
        <ele>153.47</ele>
        <time>2020-05-23T08:11:16Z</time>
      </trkpt>
      <trkpt lat="43.94888" lon="2.22863">
        <ele>150.58</ele>
        <time>2020-05-23T08:11:25Z</time>
      </trkpt>
      <trkpt lat="43.94882" lon="2.22868">
        <ele>149.14</ele>
        <time>2020-05-23T08:11:31Z</time>
      </trkpt>
      <trkpt lat="43.94876" lon="2.22875">
        <ele>148.66</ele>
        <time>2020-05-23T08:11:38Z</time>
      </trkpt>
      <trkpt lat="43.94868" lon="2.22882">
        <ele>146.74</ele>
        <time>2020-05-23T08:11:47Z</time>
      </trkpt>
      <trkpt lat="43.94859" lon="2.22892">
        <ele>141.45</ele>
        <time>2020-05-23T08:11:57Z</time>
      </trkpt>
      <trkpt lat="43.94848" lon="2.22901">
        <ele>136.64</ele>
        <time>2020-05-23T08:12:07Z</time>
      </trkpt>
      <trkpt lat="43.94839" lon="2.22911">
        <ele>133.28</ele>
        <time>2020-05-23T08:12:15Z</time>
      </trkpt>
      <trkpt lat="43.94831" lon="2.2292">
        <ele>130.4</ele>
        <time>2020-05-23T08:12:23Z</time>
      </trkpt>
      <trkpt lat="43.94823" lon="2.22927">
        <ele>128.95</ele>
        <time>2020-05-23T08:12:31Z</time>
      </trkpt>
      <trkpt lat="43.94814" lon="2.22936">
        <ele>132.8</ele>
        <time>2020-05-23T08:12:39Z</time>
      </trkpt>
      <trkpt lat="43.94808" lon="2.22942">
        <ele>137.13</ele>
        <time>2020-05-23T08:12:47Z</time>
      </trkpt>
      <trkpt lat="43.94802" lon="2.22948">
        <ele>141.45</ele>
        <time>2020-05-23T08:12:52Z</time>
      </trkpt>
      <trkpt lat="43.94792" lon="2.22957">
        <ele>152.03</ele>
        <time>2020-05-23T08:13:00Z</time>
      </trkpt>
      <trkpt lat="43.94786" lon="2.22969">
        <ele>159.24</ele>
        <time>2020-05-23T08:13:08Z</time>
      </trkpt>
      <trkpt lat="43.94783" lon="2.2298">
        <ele>165.96</ele>
        <time>2020-05-23T08:13:14Z</time>
      </trkpt>
      <trkpt lat="43.94776" lon="2.22991">
        <ele>168.37</ele>
        <time>2020-05-23T08:13:23Z</time>
      </trkpt>
      <trkpt lat="43.94769" lon="2.23002">
        <ele>173.66</ele>
        <time>2020-05-23T08:13:31Z</time>
      </trkpt>
      <trkpt lat="43.94758" lon="2.2302">
        <ele>178.94</ele>
        <time>2020-05-23T08:13:42Z</time>
      </trkpt>
      <trkpt lat="43.94754" lon="2.23026">
        <ele>180.38</ele>
        <time>2020-05-23T08:13:46Z</time>
      </trkpt>
      <trkpt lat="43.94742" lon="2.23037">
        <ele>183.27</ele>
        <time>2020-05-23T08:13:57Z</time>
      </trkpt>
      <trkpt lat="43.94734" lon="2.23045">
        <ele>184.23</ele>
        <time>2020-05-23T08:14:06Z</time>
      </trkpt>
      <trkpt lat="43.94724" lon="2.23052">
        <ele>188.56</ele>
        <time>2020-05-23T08:14:15Z</time>
      </trkpt>
      <trkpt lat="43.94713" lon="2.23058">
        <ele>193.36</ele>
        <time>2020-05-23T08:14:25Z</time>
      </trkpt>
      <trkpt lat="43.94702" lon="2.23063">
        <ele>194.8</ele>
        <time>2020-05-23T08:14:34Z</time>
      </trkpt>
      <trkpt lat="43.94694" lon="2.23064">
        <ele>195.28</ele>
        <time>2020-05-23T08:14:43Z</time>
      </trkpt>
      <trkpt lat="43.94682" lon="2.23064">
        <ele>196.25</ele>
        <time>2020-05-23T08:14:52Z</time>
      </trkpt>
      <trkpt lat="43.94666" lon="2.23065">
        <ele>205.86</ele>
        <time>2020-05-23T08:15:01Z</time>
      </trkpt>
      <trkpt lat="43.94663" lon="2.23067">
        <ele>206.82</ele>
        <time>2020-05-23T08:15:09Z</time>
      </trkpt>
      <trkpt lat="43.94664" lon="2.23068">
        <ele>210.19</ele>
        <time>2020-05-23T08:15:19Z</time>
      </trkpt>
      <trkpt lat="43.94665" lon="2.2307">
        <ele>213.07</ele>
        <time>2020-05-23T08:15:25Z</time>
      </trkpt>
      <trkpt lat="43.94664" lon="2.2307">
        <ele>214.51</ele>
        <time>2020-05-23T08:15:34Z</time>
      </trkpt>
      <trkpt lat="43.94663" lon="2.23069">
        <ele>214.51</ele>
        <time>2020-05-23T08:15:39Z</time>
      </trkpt>
      <trkpt lat="43.9466" lon="2.23065">
        <ele>214.03</ele>
        <time>2020-05-23T08:15:46Z</time>
      </trkpt>
      <trkpt lat="43.94659" lon="2.23064">
        <ele>214.03</ele>
        <time>2020-05-23T08:15:47Z</time>
      </trkpt>
      <trkpt lat="43.94651" lon="2.23052">
        <ele>214.03</ele>
        <time>2020-05-23T08:15:56Z</time>
      </trkpt>
      <trkpt lat="43.94646" lon="2.23042">
        <ele>213.55</ele>
        <time>2020-05-23T08:16:04Z</time>
      </trkpt>
      <trkpt lat="43.94643" lon="2.23029">
        <ele>213.55</ele>
        <time>2020-05-23T08:16:12Z</time>
      </trkpt>
      <trkpt lat="43.94638" lon="2.23006">
        <ele>215.95</ele>
        <time>2020-05-23T08:16:23Z</time>
      </trkpt>
      <trkpt lat="43.94636" lon="2.22993">
        <ele>215.95</ele>
        <time>2020-05-23T08:16:30Z</time>
      </trkpt>
      <trkpt lat="43.94635" lon="2.22982">
        <ele>217.88</ele>
        <time>2020-05-23T08:16:37Z</time>
      </trkpt>
      <trkpt lat="43.94633" lon="2.22971">
        <ele>218.84</ele>
        <time>2020-05-23T08:16:43Z</time>
      </trkpt>
      <trkpt lat="43.94629" lon="2.22954">
        <ele>220.28</ele>
        <time>2020-05-23T08:16:52Z</time>
      </trkpt>
      <trkpt lat="43.94627" lon="2.22945">
        <ele>220.76</ele>
        <time>2020-05-23T08:17:00Z</time>
      </trkpt>
      <trkpt lat="43.94625" lon="2.22934">
        <ele>221.24</ele>
        <time>2020-05-23T08:17:08Z</time>
      </trkpt>
      <trkpt lat="43.94623" lon="2.22926">
        <ele>220.76</ele>
        <time>2020-05-23T08:17:14Z</time>
      </trkpt>
      <trkpt lat="43.94618" lon="2.22911">
        <ele>221.72</ele>
        <time>2020-05-23T08:17:20Z</time>
      </trkpt>
      <trkpt lat="43.94612" lon="2.22901">
        <ele>221.72</ele>
        <time>2020-05-23T08:17:30Z</time>
      </trkpt>
      <trkpt lat="43.94603" lon="2.22885">
        <ele>219.8</ele>
        <time>2020-05-23T08:17:38Z</time>
      </trkpt>
      <trkpt lat="43.94594" lon="2.22878">
        <ele>219.32</ele>
        <time>2020-05-23T08:17:47Z</time>
      </trkpt>
      <trkpt lat="43.94593" lon="2.22877">
        <ele>219.32</ele>
        <time>2020-05-23T08:17:48Z</time>
      </trkpt>
      <trkpt lat="43.94582" lon="2.22866">
        <ele>221.24</ele>
        <time>2020-05-23T08:17:58Z</time>
      </trkpt>
      <trkpt lat="43.94572" lon="2.22862">
        <ele>219.8</ele>
        <time>2020-05-23T08:18:06Z</time>
      </trkpt>
      <trkpt lat="43.9456" lon="2.22859">
        <ele>218.84</ele>
        <time>2020-05-23T08:18:15Z</time>
      </trkpt>
      <trkpt lat="43.94552" lon="2.22855">
        <ele>218.36</ele>
        <time>2020-05-23T08:18:21Z</time>
      </trkpt>
      <trkpt lat="43.94545" lon="2.2286">
        <ele>222.2</ele>
        <time>2020-05-23T08:18:29Z</time>
      </trkpt>
      <trkpt lat="43.94545" lon="2.22865">
        <ele>221.72</ele>
        <time>2020-05-23T08:18:32Z</time>
      </trkpt>
      <trkpt lat="43.94545" lon="2.22885">
        <ele>221.72</ele>
        <time>2020-05-23T08:18:43Z</time>
      </trkpt>
      <trkpt lat="43.94546" lon="2.22898">
        <ele>222.68</ele>
        <time>2020-05-23T08:18:51Z</time>
      </trkpt>
      <trkpt lat="43.94546" lon="2.22911">
        <ele>224.61</ele>
        <time>2020-05-23T08:18:58Z</time>
      </trkpt>
      <trkpt lat="43.94546" lon="2.22929">
        <ele>227.49</ele>
        <time>2020-05-23T08:19:07Z</time>
      </trkpt>
      <trkpt lat="43.94546" lon="2.22946">
        <ele>228.93</ele>
        <time>2020-05-23T08:19:16Z</time>
      </trkpt>
      <trkpt lat="43.94545" lon="2.22971">
        <ele>229.89</ele>
        <time>2020-05-23T08:19:29Z</time>
      </trkpt>
      <trkpt lat="43.94542" lon="2.22994">
        <ele>230.85</ele>
        <time>2020-05-23T08:19:41Z</time>
      </trkpt>
      <trkpt lat="43.94539" lon="2.23011">
        <ele>230.37</ele>
        <time>2020-05-23T08:19:51Z</time>
      </trkpt>
      <trkpt lat="43.94535" lon="2.2303">
        <ele>230.37</ele>
        <time>2020-05-23T08:20:01Z</time>
      </trkpt>
      <trkpt lat="43.94531" lon="2.23052">
        <ele>230.85</ele>
        <time>2020-05-23T08:20:14Z</time>
      </trkpt>
      <trkpt lat="43.94527" lon="2.23072">
        <ele>230.85</ele>
        <time>2020-05-23T08:20:24Z</time>
      </trkpt>
      <trkpt lat="43.94523" lon="2.23088">
        <ele>229.41</ele>
        <time>2020-05-23T08:20:33Z</time>
      </trkpt>
      <trkpt lat="43.94517" lon="2.23108">
        <ele>231.33</ele>
        <time>2020-05-23T08:20:45Z</time>
      </trkpt>
      <trkpt lat="43.94512" lon="2.2313">
        <ele>232.3</ele>
        <time>2020-05-23T08:20:57Z</time>
      </trkpt>
      <trkpt lat="43.94507" lon="2.2315">
        <ele>232.78</ele>
        <time>2020-05-23T08:21:09Z</time>
      </trkpt>
      <trkpt lat="43.945" lon="2.23169">
        <ele>233.26</ele>
        <time>2020-05-23T08:21:20Z</time>
      </trkpt>
      <trkpt lat="43.94496" lon="2.2318">
        <ele>233.26</ele>
        <time>2020-05-23T08:21:26Z</time>
      </trkpt>
      <trkpt lat="43.94486" lon="2.23204">
        <ele>234.22</ele>
        <time>2020-05-23T08:21:40Z</time>
      </trkpt>
      <trkpt lat="43.94475" lon="2.23226">
        <ele>235.18</ele>
        <time>2020-05-23T08:21:53Z</time>
      </trkpt>
      <trkpt lat="43.94469" lon="2.23244">
        <ele>236.14</ele>
        <time>2020-05-23T08:22:04Z</time>
      </trkpt>
      <trkpt lat="43.94463" lon="2.23262">
        <ele>235.18</ele>
        <time>2020-05-23T08:22:15Z</time>
      </trkpt>
      <trkpt lat="43.94461" lon="2.23271">
        <ele>235.18</ele>
        <time>2020-05-23T08:22:21Z</time>
      </trkpt>
      <trkpt lat="43.94457" lon="2.23282">
        <ele>235.18</ele>
        <time>2020-05-23T08:22:28Z</time>
      </trkpt>
      <trkpt lat="43.94454" lon="2.23296">
        <ele>234.7</ele>
        <time>2020-05-23T08:22:36Z</time>
      </trkpt>
      <trkpt lat="43.9445" lon="2.23312">
        <ele>232.78</ele>
        <time>2020-05-23T08:22:45Z</time>
      </trkpt>
      <trkpt lat="43.94445" lon="2.23333">
        <ele>234.7</ele>
        <time>2020-05-23T08:22:57Z</time>
      </trkpt>
      <trkpt lat="43.94445" lon="2.23338">
        <ele>235.18</ele>
        <time>2020-05-23T08:23:00Z</time>
      </trkpt>
      <trkpt lat="43.94443" lon="2.23346">
        <ele>235.18</ele>
        <time>2020-05-23T08:23:04Z</time>
      </trkpt>
      <trkpt lat="43.94441" lon="2.23366">
        <ele>236.62</ele>
        <time>2020-05-23T08:23:15Z</time>
      </trkpt>
      <trkpt lat="43.94437" lon="2.23387">
        <ele>235.18</ele>
        <time>2020-05-23T08:23:25Z</time>
      </trkpt>
      <trkpt lat="43.94433" lon="2.23402">
        <ele>233.74</ele>
        <time>2020-05-23T08:23:33Z</time>
      </trkpt>
      <trkpt lat="43.94429" lon="2.2342">
        <ele>232.3</ele>
        <time>2020-05-23T08:23:43Z</time>
      </trkpt>
      <trkpt lat="43.94433" lon="2.23429">
        <ele>228.45</ele>
        <time>2020-05-23T08:23:50Z</time>
      </trkpt>
      <trkpt lat="43.94437" lon="2.23435">
        <ele>225.09</ele>
        <time>2020-05-23T08:23:56Z</time>
      </trkpt>
      <trkpt lat="43.94434" lon="2.2344">
        <ele>223.16</ele>
        <time>2020-05-23T08:24:01Z</time>
      </trkpt>
      <trkpt lat="43.9442" lon="2.23451">
        <ele>219.8</ele>
        <time>2020-05-23T08:24:13Z</time>
      </trkpt>
      <trkpt lat="43.94407" lon="2.2346">
        <ele>216.43</ele>
        <time>2020-05-23T08:24:24Z</time>
      </trkpt>
      <trkpt lat="43.94393" lon="2.23468">
        <ele>216.43</ele>
        <time>2020-05-23T08:24:34Z</time>
      </trkpt>
      <trkpt lat="43.9438" lon="2.23473">
        <ele>217.88</ele>
        <time>2020-05-23T08:24:43Z</time>
      </trkpt>
      <trkpt lat="43.94366" lon="2.23478">
        <ele>218.84</ele>
        <time>2020-05-23T08:24:53Z</time>
      </trkpt>
      <trkpt lat="43.94351" lon="2.23482">
        <ele>220.76</ele>
        <time>2020-05-23T08:25:03Z</time>
      </trkpt>
      <trkpt lat="43.94338" lon="2.23486">
        <ele>222.68</ele>
        <time>2020-05-23T08:25:13Z</time>
      </trkpt>
      <trkpt lat="43.94324" lon="2.2349">
        <ele>224.12</ele>
        <time>2020-05-23T08:25:24Z</time>
      </trkpt>
      <trkpt lat="43.94304" lon="2.23496">
        <ele>228.93</ele>
        <time>2020-05-23T08:25:37Z</time>
      </trkpt>
      <trkpt lat="43.94294" lon="2.23499">
        <ele>230.37</ele>
        <time>2020-05-23T08:25:46Z</time>
      </trkpt>
      <trkpt lat="43.94284" lon="2.23504">
        <ele>231.33</ele>
        <time>2020-05-23T08:25:54Z</time>
      </trkpt>
      <trkpt lat="43.94275" lon="2.23509">
        <ele>229.41</ele>
        <time>2020-05-23T08:26:01Z</time>
      </trkpt>
      <trkpt lat="43.94262" lon="2.23518">
        <ele>230.85</ele>
        <time>2020-05-23T08:26:11Z</time>
      </trkpt>
      <trkpt lat="43.94257" lon="2.23522">
        <ele>231.33</ele>
        <time>2020-05-23T08:26:15Z</time>
      </trkpt>
      <trkpt lat="43.9425" lon="2.23537">
        <ele>231.33</ele>
        <time>2020-05-23T08:26:24Z</time>
      </trkpt>
      <trkpt lat="43.94247" lon="2.23551">
        <ele>232.3</ele>
        <time>2020-05-23T08:26:31Z</time>
      </trkpt>
      <trkpt lat="43.9424" lon="2.23569">
        <ele>231.81</ele>
        <time>2020-05-23T08:26:42Z</time>
      </trkpt>
      <trkpt lat="43.94233" lon="2.23579">
        <ele>231.81</ele>
        <time>2020-05-23T08:26:50Z</time>
      </trkpt>
      <trkpt lat="43.94224" lon="2.23588">
        <ele>232.3</ele>
        <time>2020-05-23T08:26:58Z</time>
      </trkpt>
      <trkpt lat="43.94213" lon="2.23598">
        <ele>231.33</ele>
        <time>2020-05-23T08:27:08Z</time>
      </trkpt>
      <trkpt lat="43.9421" lon="2.23601">
        <ele>231.33</ele>
        <time>2020-05-23T08:27:11Z</time>
      </trkpt>
      <trkpt lat="43.94201" lon="2.23612">
        <ele>230.85</ele>
        <time>2020-05-23T08:27:20Z</time>
      </trkpt>
      <trkpt lat="43.94188" lon="2.23629">
        <ele>228.45</ele>
        <time>2020-05-23T08:27:30Z</time>
      </trkpt>
      <trkpt lat="43.94178" lon="2.23642">
        <ele>227.97</ele>
        <time>2020-05-23T08:27:40Z</time>
      </trkpt>
      <trkpt lat="43.94169" lon="2.23654">
        <ele>227.49</ele>
        <time>2020-05-23T08:27:48Z</time>
      </trkpt>
      <trkpt lat="43.94159" lon="2.23665">
        <ele>226.05</ele>
        <time>2020-05-23T08:27:57Z</time>
      </trkpt>
      <trkpt lat="43.94152" lon="2.23675">
        <ele>228.45</ele>
        <time>2020-05-23T08:28:05Z</time>
      </trkpt>
      <trkpt lat="43.94145" lon="2.23682">
        <ele>230.37</ele>
        <time>2020-05-23T08:28:12Z</time>
      </trkpt>
      <trkpt lat="43.94129" lon="2.23692">
        <ele>227.49</ele>
        <time>2020-05-23T08:28:23Z</time>
      </trkpt>
      <trkpt lat="43.9412" lon="2.23697">
        <ele>227.01</ele>
        <time>2020-05-23T08:28:30Z</time>
      </trkpt>
      <trkpt lat="43.94108" lon="2.23704">
        <ele>226.53</ele>
        <time>2020-05-23T08:28:38Z</time>
      </trkpt>
      <trkpt lat="43.94099" lon="2.23711">
        <ele>225.57</ele>
        <time>2020-05-23T08:28:46Z</time>
      </trkpt>
      <trkpt lat="43.94088" lon="2.2372">
        <ele>225.57</ele>
        <time>2020-05-23T08:28:54Z</time>
      </trkpt>
      <trkpt lat="43.94075" lon="2.23731">
        <ele>225.57</ele>
        <time>2020-05-23T08:29:03Z</time>
      </trkpt>
      <trkpt lat="43.94069" lon="2.23737">
        <ele>226.05</ele>
        <time>2020-05-23T08:29:09Z</time>
      </trkpt>
      <trkpt lat="43.94065" lon="2.2374">
        <ele>225.09</ele>
        <time>2020-05-23T08:29:12Z</time>
      </trkpt>
      <trkpt lat="43.94056" lon="2.23748">
        <ele>224.61</ele>
        <time>2020-05-23T08:29:21Z</time>
      </trkpt>
      <trkpt lat="43.94048" lon="2.23757">
        <ele>226.53</ele>
        <time>2020-05-23T08:29:31Z</time>
      </trkpt>
      <trkpt lat="43.94042" lon="2.23764">
        <ele>227.49</ele>
        <time>2020-05-23T08:29:38Z</time>
      </trkpt>
      <trkpt lat="43.94041" lon="2.23765">
        <ele>227.49</ele>
        <time>2020-05-23T08:29:39Z</time>
      </trkpt>
      <trkpt lat="43.94031" lon="2.23779">
        <ele>226.53</ele>
        <time>2020-05-23T08:29:47Z</time>
      </trkpt>
      <trkpt lat="43.94017" lon="2.23793">
        <ele>224.12</ele>
        <time>2020-05-23T08:29:56Z</time>
      </trkpt>
      <trkpt lat="43.94006" lon="2.23801">
        <ele>223.64</ele>
        <time>2020-05-23T08:30:04Z</time>
      </trkpt>
      <trkpt lat="43.93996" lon="2.23808">
        <ele>223.16</ele>
        <time>2020-05-23T08:30:12Z</time>
      </trkpt>
      <trkpt lat="43.93984" lon="2.23819">
        <ele>217.88</ele>
        <time>2020-05-23T08:30:21Z</time>
      </trkpt>
      <trkpt lat="43.93975" lon="2.23827">
        <ele>216.43</ele>
        <time>2020-05-23T08:30:28Z</time>
      </trkpt>
      <trkpt lat="43.93964" lon="2.23836">
        <ele>214.03</ele>
        <time>2020-05-23T08:30:37Z</time>
      </trkpt>
      <trkpt lat="43.93953" lon="2.23845">
        <ele>213.55</ele>
        <time>2020-05-23T08:30:47Z</time>
      </trkpt>
      <trkpt lat="43.93945" lon="2.23851">
        <ele>214.51</ele>
        <time>2020-05-23T08:30:56Z</time>
      </trkpt>
      <trkpt lat="43.93938" lon="2.23858">
        <ele>213.55</ele>
        <time>2020-05-23T08:31:04Z</time>
      </trkpt>
      <trkpt lat="43.93931" lon="2.23861">
        <ele>212.59</ele>
        <time>2020-05-23T08:31:11Z</time>
      </trkpt>
      <trkpt lat="43.93922" lon="2.23868">
        <ele>212.11</ele>
        <time>2020-05-23T08:31:19Z</time>
      </trkpt>
      <trkpt lat="43.93914" lon="2.23878">
        <ele>209.22</ele>
        <time>2020-05-23T08:31:28Z</time>
      </trkpt>
      <trkpt lat="43.9391" lon="2.23884">
        <ele>208.74</ele>
        <time>2020-05-23T08:31:32Z</time>
      </trkpt>
      <trkpt lat="43.93907" lon="2.23892">
        <ele>208.74</ele>
        <time>2020-05-23T08:31:37Z</time>
      </trkpt>
      <trkpt lat="43.939" lon="2.23914">
        <ele>209.22</ele>
        <time>2020-05-23T08:31:48Z</time>
      </trkpt>
      <trkpt lat="43.93897" lon="2.2392">
        <ele>209.22</ele>
        <time>2020-05-23T08:31:52Z</time>
      </trkpt>
      <trkpt lat="43.93896" lon="2.23923">
        <ele>205.86</ele>
        <time>2020-05-23T08:31:59Z</time>
      </trkpt>
      <trkpt lat="43.93895" lon="2.23924">
        <ele>202.98</ele>
        <time>2020-05-23T08:32:09Z</time>
      </trkpt>
      <trkpt lat="43.93893" lon="2.23925">
        <ele>202.01</ele>
        <time>2020-05-23T08:32:11Z</time>
      </trkpt>
      <trkpt lat="43.93892" lon="2.23927">
        <ele>202.01</ele>
        <time>2020-05-23T08:32:13Z</time>
      </trkpt>
      <trkpt lat="43.93884" lon="2.23939">
        <ele>198.17</ele>
        <time>2020-05-23T08:32:23Z</time>
      </trkpt>
      <trkpt lat="43.93883" lon="2.23939">
        <ele>197.69</ele>
        <time>2020-05-23T08:32:25Z</time>
      </trkpt>
      <trkpt lat="43.93877" lon="2.23944">
        <ele>196.25</ele>
        <time>2020-05-23T08:32:29Z</time>
      </trkpt>
      <trkpt lat="43.93868" lon="2.23952">
        <ele>195.28</ele>
        <time>2020-05-23T08:32:38Z</time>
      </trkpt>
      <trkpt lat="43.93865" lon="2.23951">
        <ele>192.88</ele>
        <time>2020-05-23T08:32:45Z</time>
      </trkpt>
      <trkpt lat="43.93866" lon="2.23951">
        <ele>190</ele>
        <time>2020-05-23T08:32:58Z</time>
      </trkpt>
      <trkpt lat="43.93865" lon="2.23954">
        <ele>190.48</ele>
        <time>2020-05-23T08:33:14Z</time>
      </trkpt>
      <trkpt lat="43.93864" lon="2.23954">
        <ele>190.48</ele>
        <time>2020-05-23T08:33:16Z</time>
      </trkpt>
      <trkpt lat="43.93857" lon="2.23954">
        <ele>190.96</ele>
        <time>2020-05-23T08:33:24Z</time>
      </trkpt>
      <trkpt lat="43.93857" lon="2.23957">
        <ele>190.96</ele>
        <time>2020-05-23T08:33:32Z</time>
      </trkpt>
      <trkpt lat="43.93858" lon="2.23954">
        <ele>189.52</ele>
        <time>2020-05-23T08:33:41Z</time>
      </trkpt>
      <trkpt lat="43.93858" lon="2.23954">
        <ele>189.04</ele>
        <time>2020-05-23T08:33:47Z</time>
      </trkpt>
      <trkpt lat="43.93858" lon="2.23954">
        <ele>188.56</ele>
        <time>2020-05-23T08:33:53Z</time>
      </trkpt>
      <trkpt lat="43.93858" lon="2.23955">
        <ele>188.56</ele>
        <time>2020-05-23T08:33:58Z</time>
      </trkpt>
      <trkpt lat="43.93856" lon="2.23955">
        <ele>188.08</ele>
        <time>2020-05-23T08:34:03Z</time>
      </trkpt>
      <trkpt lat="43.93854" lon="2.23953">
        <ele>187.11</ele>
        <time>2020-05-23T08:34:10Z</time>
      </trkpt>
      <trkpt lat="43.93852" lon="2.23956">
        <ele>189.04</ele>
        <time>2020-05-23T08:34:19Z</time>
      </trkpt>
      <trkpt lat="43.93849" lon="2.23955">
        <ele>189.52</ele>
        <time>2020-05-23T08:34:27Z</time>
      </trkpt>
      <trkpt lat="43.93843" lon="2.23954">
        <ele>188.56</ele>
        <time>2020-05-23T08:34:34Z</time>
      </trkpt>
      <trkpt lat="43.93837" lon="2.23954">
        <ele>187.59</ele>
        <time>2020-05-23T08:34:43Z</time>
      </trkpt>
      <trkpt lat="43.93833" lon="2.23956">
        <ele>191.92</ele>
        <time>2020-05-23T08:34:52Z</time>
      </trkpt>
      <trkpt lat="43.93833" lon="2.23956">
        <ele>195.28</ele>
        <time>2020-05-23T08:35:05Z</time>
      </trkpt>
      <trkpt lat="43.93834" lon="2.2396">
        <ele>201.05</ele>
        <time>2020-05-23T08:35:25Z</time>
      </trkpt>
      <trkpt lat="43.93834" lon="2.23961">
        <ele>202.49</ele>
        <time>2020-05-23T08:35:38Z</time>
      </trkpt>
      <trkpt lat="43.9383" lon="2.2396">
        <ele>202.49</ele>
        <time>2020-05-23T08:35:48Z</time>
      </trkpt>
      <trkpt lat="43.93825" lon="2.23959">
        <ele>201.53</ele>
        <time>2020-05-23T08:35:58Z</time>
      </trkpt>
      <trkpt lat="43.93813" lon="2.23958">
        <ele>200.09</ele>
        <time>2020-05-23T08:36:09Z</time>
      </trkpt>
      <trkpt lat="43.93797" lon="2.23958">
        <ele>200.57</ele>
        <time>2020-05-23T08:36:18Z</time>
      </trkpt>
      <trkpt lat="43.93789" lon="2.2396">
        <ele>199.61</ele>
        <time>2020-05-23T08:36:26Z</time>
      </trkpt>
      <trkpt lat="43.93782" lon="2.23962">
        <ele>198.17</ele>
        <time>2020-05-23T08:36:33Z</time>
      </trkpt>
      <trkpt lat="43.93774" lon="2.23966">
        <ele>198.17</ele>
        <time>2020-05-23T08:36:41Z</time>
      </trkpt>
      <trkpt lat="43.9377" lon="2.2397">
        <ele>199.61</ele>
        <time>2020-05-23T08:36:49Z</time>
      </trkpt>
      <trkpt lat="43.93764" lon="2.23977">
        <ele>199.61</ele>
        <time>2020-05-23T08:36:59Z</time>
      </trkpt>
      <trkpt lat="43.93757" lon="2.23981">
        <ele>200.09</ele>
        <time>2020-05-23T08:37:08Z</time>
      </trkpt>
      <trkpt lat="43.93748" lon="2.23986">
        <ele>201.53</ele>
        <time>2020-05-23T08:37:19Z</time>
      </trkpt>
      <trkpt lat="43.93739" lon="2.23993">
        <ele>202.01</ele>
        <time>2020-05-23T08:37:28Z</time>
      </trkpt>
      <trkpt lat="43.93732" lon="2.23998">
        <ele>202.98</ele>
        <time>2020-05-23T08:37:37Z</time>
      </trkpt>
      <trkpt lat="43.93723" lon="2.24003">
        <ele>203.94</ele>
        <time>2020-05-23T08:37:47Z</time>
      </trkpt>
      <trkpt lat="43.93715" lon="2.24008">
        <ele>205.38</ele>
        <time>2020-05-23T08:37:56Z</time>
      </trkpt>
      <trkpt lat="43.93706" lon="2.24014">
        <ele>208.26</ele>
        <time>2020-05-23T08:38:05Z</time>
      </trkpt>
      <trkpt lat="43.93699" lon="2.2402">
        <ele>210.67</ele>
        <time>2020-05-23T08:38:15Z</time>
      </trkpt>
      <trkpt lat="43.9369" lon="2.24028">
        <ele>213.07</ele>
        <time>2020-05-23T08:38:25Z</time>
      </trkpt>
      <trkpt lat="43.93681" lon="2.24035">
        <ele>216.91</ele>
        <time>2020-05-23T08:38:34Z</time>
      </trkpt>
      <trkpt lat="43.93674" lon="2.2404">
        <ele>218.84</ele>
        <time>2020-05-23T08:38:42Z</time>
      </trkpt>
      <trkpt lat="43.93667" lon="2.24044">
        <ele>221.24</ele>
        <time>2020-05-23T08:38:51Z</time>
      </trkpt>
      <trkpt lat="43.93657" lon="2.2405">
        <ele>225.57</ele>
        <time>2020-05-23T08:39:01Z</time>
      </trkpt>
      <trkpt lat="43.93647" lon="2.24055">
        <ele>230.37</ele>
        <time>2020-05-23T08:39:13Z</time>
      </trkpt>
      <trkpt lat="43.93642" lon="2.24057">
        <ele>230.37</ele>
        <time>2020-05-23T08:39:20Z</time>
      </trkpt>
      <trkpt lat="43.93638" lon="2.24056">
        <ele>231.33</ele>
        <time>2020-05-23T08:39:28Z</time>
      </trkpt>
      <trkpt lat="43.9363" lon="2.24057">
        <ele>230.85</ele>
        <time>2020-05-23T08:39:37Z</time>
      </trkpt>
      <trkpt lat="43.9362" lon="2.24061">
        <ele>231.33</ele>
        <time>2020-05-23T08:39:46Z</time>
      </trkpt>
      <trkpt lat="43.93613" lon="2.24062">
        <ele>233.26</ele>
        <time>2020-05-23T08:39:54Z</time>
      </trkpt>
      <trkpt lat="43.93606" lon="2.24061">
        <ele>232.78</ele>
        <time>2020-05-23T08:40:01Z</time>
      </trkpt>
      <trkpt lat="43.93597" lon="2.2406">
        <ele>232.3</ele>
        <time>2020-05-23T08:40:10Z</time>
      </trkpt>
      <trkpt lat="43.93589" lon="2.24058">
        <ele>231.33</ele>
        <time>2020-05-23T08:40:19Z</time>
      </trkpt>
      <trkpt lat="43.93579" lon="2.24058">
        <ele>230.37</ele>
        <time>2020-05-23T08:40:27Z</time>
      </trkpt>
      <trkpt lat="43.93567" lon="2.24058">
        <ele>231.81</ele>
        <time>2020-05-23T08:40:35Z</time>
      </trkpt>
      <trkpt lat="43.93559" lon="2.24058">
        <ele>231.81</ele>
        <time>2020-05-23T08:40:43Z</time>
      </trkpt>
      <trkpt lat="43.93548" lon="2.24061">
        <ele>231.81</ele>
        <time>2020-05-23T08:40:52Z</time>
      </trkpt>
      <trkpt lat="43.93537" lon="2.24064">
        <ele>231.81</ele>
        <time>2020-05-23T08:41:03Z</time>
      </trkpt>
      <trkpt lat="43.9353" lon="2.24067">
        <ele>232.3</ele>
        <time>2020-05-23T08:41:10Z</time>
      </trkpt>
      <trkpt lat="43.93518" lon="2.24069">
        <ele>233.26</ele>
        <time>2020-05-23T08:41:19Z</time>
      </trkpt>
      <trkpt lat="43.93511" lon="2.2407">
        <ele>234.7</ele>
        <time>2020-05-23T08:41:28Z</time>
      </trkpt>
      <trkpt lat="43.93507" lon="2.24073">
        <ele>236.62</ele>
        <time>2020-05-23T08:41:37Z</time>
      </trkpt>
      <trkpt lat="43.93501" lon="2.24075">
        <ele>238.54</ele>
        <time>2020-05-23T08:41:51Z</time>
      </trkpt>
      <trkpt lat="43.93498" lon="2.2407">
        <ele>239.51</ele>
        <time>2020-05-23T08:42:00Z</time>
      </trkpt>
      <trkpt lat="43.93491" lon="2.24068">
        <ele>241.43</ele>
        <time>2020-05-23T08:42:08Z</time>
      </trkpt>
      <trkpt lat="43.93481" lon="2.24064">
        <ele>242.87</ele>
        <time>2020-05-23T08:42:17Z</time>
      </trkpt>
      <trkpt lat="43.93474" lon="2.24063">
        <ele>244.79</ele>
        <time>2020-05-23T08:42:24Z</time>
      </trkpt>
      <trkpt lat="43.93465" lon="2.24062">
        <ele>247.2</ele>
        <time>2020-05-23T08:42:32Z</time>
      </trkpt>
      <trkpt lat="43.9346" lon="2.24061">
        <ele>249.12</ele>
        <time>2020-05-23T08:42:40Z</time>
      </trkpt>
      <trkpt lat="43.93454" lon="2.24059">
        <ele>251.04</ele>
        <time>2020-05-23T08:42:46Z</time>
      </trkpt>
      <trkpt lat="43.93439" lon="2.24059">
        <ele>252.96</ele>
        <time>2020-05-23T08:42:56Z</time>
      </trkpt>
      <trkpt lat="43.93426" lon="2.24058">
        <ele>253.93</ele>
        <time>2020-05-23T08:43:06Z</time>
      </trkpt>
      <trkpt lat="43.93413" lon="2.24058">
        <ele>253.93</ele>
        <time>2020-05-23T08:43:16Z</time>
      </trkpt>
      <trkpt lat="43.93396" lon="2.24057">
        <ele>254.41</ele>
        <time>2020-05-23T08:43:28Z</time>
      </trkpt>
      <trkpt lat="43.93378" lon="2.24056">
        <ele>257.77</ele>
        <time>2020-05-23T08:43:40Z</time>
      </trkpt>
      <trkpt lat="43.93364" lon="2.24057">
        <ele>259.69</ele>
        <time>2020-05-23T08:43:50Z</time>
      </trkpt>
      <trkpt lat="43.93361" lon="2.24059">
        <ele>260.17</ele>
        <time>2020-05-23T08:43:52Z</time>
      </trkpt>
      <trkpt lat="43.93358" lon="2.24076">
        <ele>262.58</ele>
        <time>2020-05-23T08:44:02Z</time>
      </trkpt>
      <trkpt lat="43.93356" lon="2.24095">
        <ele>263.06</ele>
        <time>2020-05-23T08:44:13Z</time>
      </trkpt>
      <trkpt lat="43.93354" lon="2.24113">
        <ele>263.06</ele>
        <time>2020-05-23T08:44:23Z</time>
      </trkpt>
      <trkpt lat="43.93352" lon="2.24128">
        <ele>263.54</ele>
        <time>2020-05-23T08:44:31Z</time>
      </trkpt>
      <trkpt lat="43.93349" lon="2.24151">
        <ele>263.54</ele>
        <time>2020-05-23T08:44:43Z</time>
      </trkpt>
      <trkpt lat="43.93347" lon="2.2417">
        <ele>264.02</ele>
        <time>2020-05-23T08:44:53Z</time>
      </trkpt>
      <trkpt lat="43.93346" lon="2.2418">
        <ele>263.54</ele>
        <time>2020-05-23T08:44:59Z</time>
      </trkpt>
      <trkpt lat="43.93343" lon="2.24201">
        <ele>263.54</ele>
        <time>2020-05-23T08:45:11Z</time>
      </trkpt>
      <trkpt lat="43.93338" lon="2.24225">
        <ele>264.5</ele>
        <time>2020-05-23T08:45:23Z</time>
      </trkpt>
      <trkpt lat="43.9333" lon="2.24239">
        <ele>264.5</ele>
        <time>2020-05-23T08:45:32Z</time>
      </trkpt>
      <trkpt lat="43.93315" lon="2.24243">
        <ele>263.54</ele>
        <time>2020-05-23T08:45:43Z</time>
      </trkpt>
      <trkpt lat="43.93304" lon="2.24247">
        <ele>263.54</ele>
        <time>2020-05-23T08:45:52Z</time>
      </trkpt>
      <trkpt lat="43.93286" lon="2.24253">
        <ele>265.46</ele>
        <time>2020-05-23T08:46:05Z</time>
      </trkpt>
      <trkpt lat="43.93272" lon="2.2426">
        <ele>267.86</ele>
        <time>2020-05-23T08:46:16Z</time>
      </trkpt>
      <trkpt lat="43.93252" lon="2.24266">
        <ele>264.98</ele>
        <time>2020-05-23T08:46:30Z</time>
      </trkpt>
      <trkpt lat="43.93244" lon="2.24272">
        <ele>265.94</ele>
        <time>2020-05-23T08:46:38Z</time>
      </trkpt>
      <trkpt lat="43.93244" lon="2.24273">
        <ele>266.42</ele>
        <time>2020-05-23T08:46:44Z</time>
      </trkpt>
      <trkpt lat="43.93243" lon="2.24273">
        <ele>265.46</ele>
        <time>2020-05-23T08:46:51Z</time>
      </trkpt>
      <trkpt lat="43.93244" lon="2.2427">
        <ele>267.86</ele>
        <time>2020-05-23T08:47:05Z</time>
      </trkpt>
      <trkpt lat="43.93244" lon="2.24271">
        <ele>268.35</ele>
        <time>2020-05-23T08:47:17Z</time>
      </trkpt>
      <trkpt lat="43.93244" lon="2.24271">
        <ele>268.35</ele>
        <time>2020-05-23T08:47:31Z</time>
      </trkpt>
      <trkpt lat="43.93244" lon="2.24271">
        <ele>269.31</ele>
        <time>2020-05-23T08:47:45Z</time>
      </trkpt>
      <trkpt lat="43.93243" lon="2.24272">
        <ele>268.35</ele>
        <time>2020-05-23T08:47:59Z</time>
      </trkpt>
      <trkpt lat="43.93242" lon="2.24273">
        <ele>268.35</ele>
        <time>2020-05-23T08:48:01Z</time>
      </trkpt>
      <trkpt lat="43.93231" lon="2.24281">
        <ele>266.9</ele>
        <time>2020-05-23T08:48:12Z</time>
      </trkpt>
      <trkpt lat="43.9322" lon="2.24292">
        <ele>267.38</ele>
        <time>2020-05-23T08:48:23Z</time>
      </trkpt>
      <trkpt lat="43.93209" lon="2.24302">
        <ele>266.9</ele>
        <time>2020-05-23T08:48:34Z</time>
      </trkpt>
      <trkpt lat="43.93202" lon="2.2431">
        <ele>267.38</ele>
        <time>2020-05-23T08:48:42Z</time>
      </trkpt>
      <trkpt lat="43.93192" lon="2.2432">
        <ele>266.9</ele>
        <time>2020-05-23T08:48:51Z</time>
      </trkpt>
      <trkpt lat="43.93181" lon="2.24332">
        <ele>267.38</ele>
        <time>2020-05-23T08:49:02Z</time>
      </trkpt>
      <trkpt lat="43.93173" lon="2.24341">
        <ele>267.38</ele>
        <time>2020-05-23T08:49:10Z</time>
      </trkpt>
      <trkpt lat="43.93162" lon="2.24352">
        <ele>266.9</ele>
        <time>2020-05-23T08:49:20Z</time>
      </trkpt>
      <trkpt lat="43.93153" lon="2.24364">
        <ele>268.35</ele>
        <time>2020-05-23T08:49:29Z</time>
      </trkpt>
      <trkpt lat="43.93145" lon="2.24374">
        <ele>268.83</ele>
        <time>2020-05-23T08:49:37Z</time>
      </trkpt>
      <trkpt lat="43.93135" lon="2.24386">
        <ele>270.27</ele>
        <time>2020-05-23T08:49:47Z</time>
      </trkpt>
      <trkpt lat="43.93122" lon="2.24397">
        <ele>269.31</ele>
        <time>2020-05-23T08:49:58Z</time>
      </trkpt>
      <trkpt lat="43.93118" lon="2.24403">
        <ele>269.79</ele>
        <time>2020-05-23T08:50:03Z</time>
      </trkpt>
      <trkpt lat="43.93114" lon="2.24408">
        <ele>269.31</ele>
        <time>2020-05-23T08:50:07Z</time>
      </trkpt>
      <trkpt lat="43.93097" lon="2.24412">
        <ele>267.86</ele>
        <time>2020-05-23T08:50:20Z</time>
      </trkpt>
      <trkpt lat="43.93085" lon="2.24404">
        <ele>268.35</ele>
        <time>2020-05-23T08:50:30Z</time>
      </trkpt>
      <trkpt lat="43.93071" lon="2.2439">
        <ele>270.27</ele>
        <time>2020-05-23T08:50:41Z</time>
      </trkpt>
      <trkpt lat="43.9306" lon="2.24379">
        <ele>273.15</ele>
        <time>2020-05-23T08:50:50Z</time>
      </trkpt>
      <trkpt lat="43.93049" lon="2.24367">
        <ele>272.19</ele>
        <time>2020-05-23T08:51:00Z</time>
      </trkpt>
      <trkpt lat="43.93038" lon="2.24355">
        <ele>273.63</ele>
        <time>2020-05-23T08:51:09Z</time>
      </trkpt>
      <trkpt lat="43.93032" lon="2.2435">
        <ele>273.15</ele>
        <time>2020-05-23T08:51:15Z</time>
      </trkpt>
      <trkpt lat="43.93021" lon="2.24336">
        <ele>271.71</ele>
        <time>2020-05-23T08:51:26Z</time>
      </trkpt>
      <trkpt lat="43.93018" lon="2.24328">
        <ele>272.19</ele>
        <time>2020-05-23T08:51:31Z</time>
      </trkpt>
      <trkpt lat="43.93021" lon="2.24316">
        <ele>272.19</ele>
        <time>2020-05-23T08:51:38Z</time>
      </trkpt>
      <trkpt lat="43.93025" lon="2.24303">
        <ele>271.71</ele>
        <time>2020-05-23T08:51:46Z</time>
      </trkpt>
      <trkpt lat="43.93031" lon="2.24283">
        <ele>270.27</ele>
        <time>2020-05-23T08:51:57Z</time>
      </trkpt>
      <trkpt lat="43.93037" lon="2.24267">
        <ele>269.79</ele>
        <time>2020-05-23T08:52:06Z</time>
      </trkpt>
      <trkpt lat="43.93046" lon="2.24246">
        <ele>270.27</ele>
        <time>2020-05-23T08:52:18Z</time>
      </trkpt>
      <trkpt lat="43.93052" lon="2.24227">
        <ele>270.75</ele>
        <time>2020-05-23T08:52:28Z</time>
      </trkpt>
      <trkpt lat="43.93056" lon="2.24213">
        <ele>271.71</ele>
        <time>2020-05-23T08:52:36Z</time>
      </trkpt>
      <trkpt lat="43.93063" lon="2.24191">
        <ele>269.79</ele>
        <time>2020-05-23T08:52:47Z</time>
      </trkpt>
      <trkpt lat="43.93072" lon="2.24169">
        <ele>270.27</ele>
        <time>2020-05-23T08:52:59Z</time>
      </trkpt>
      <trkpt lat="43.93077" lon="2.24158">
        <ele>270.27</ele>
        <time>2020-05-23T08:53:05Z</time>
      </trkpt>
      <trkpt lat="43.93075" lon="2.24151">
        <ele>269.31</ele>
        <time>2020-05-23T08:53:12Z</time>
      </trkpt>
      <trkpt lat="43.93064" lon="2.24156">
        <ele>267.38</ele>
        <time>2020-05-23T08:53:21Z</time>
      </trkpt>
      <trkpt lat="43.93055" lon="2.24163">
        <ele>266.42</ele>
        <time>2020-05-23T08:53:29Z</time>
      </trkpt>
      <trkpt lat="43.93044" lon="2.2417">
        <ele>269.31</ele>
        <time>2020-05-23T08:53:38Z</time>
      </trkpt>
      <trkpt lat="43.93031" lon="2.2418">
        <ele>272.67</ele>
        <time>2020-05-23T08:53:48Z</time>
      </trkpt>
      <trkpt lat="43.93016" lon="2.24191">
        <ele>275.07</ele>
        <time>2020-05-23T08:54:00Z</time>
      </trkpt>
      <trkpt lat="43.93002" lon="2.242">
        <ele>276.52</ele>
        <time>2020-05-23T08:54:10Z</time>
      </trkpt>
      <trkpt lat="43.92986" lon="2.24207">
        <ele>272.19</ele>
        <time>2020-05-23T08:54:22Z</time>
      </trkpt>
      <trkpt lat="43.92973" lon="2.24213">
        <ele>271.71</ele>
        <time>2020-05-23T08:54:33Z</time>
      </trkpt>
      <trkpt lat="43.92956" lon="2.24221">
        <ele>272.67</ele>
        <time>2020-05-23T08:54:45Z</time>
      </trkpt>
      <trkpt lat="43.9294" lon="2.24227">
        <ele>269.79</ele>
        <time>2020-05-23T08:54:57Z</time>
      </trkpt>
      <trkpt lat="43.92924" lon="2.24232">
        <ele>269.79</ele>
        <time>2020-05-23T08:55:09Z</time>
      </trkpt>
      <trkpt lat="43.92909" lon="2.2424">
        <ele>271.71</ele>
        <time>2020-05-23T08:55:21Z</time>
      </trkpt>
      <trkpt lat="43.92897" lon="2.24245">
        <ele>272.19</ele>
        <time>2020-05-23T08:55:30Z</time>
      </trkpt>
      <trkpt lat="43.92886" lon="2.24251">
        <ele>273.15</ele>
        <time>2020-05-23T08:55:40Z</time>
      </trkpt>
      <trkpt lat="43.92872" lon="2.24257">
        <ele>272.67</ele>
        <time>2020-05-23T08:55:51Z</time>
      </trkpt>
      <trkpt lat="43.92856" lon="2.24263">
        <ele>273.63</ele>
        <time>2020-05-23T08:56:03Z</time>
      </trkpt>
      <trkpt lat="43.92842" lon="2.24268">
        <ele>274.59</ele>
        <time>2020-05-23T08:56:14Z</time>
      </trkpt>
      <trkpt lat="43.92827" lon="2.2427">
        <ele>272.67</ele>
        <time>2020-05-23T08:56:25Z</time>
      </trkpt>
      <trkpt lat="43.92811" lon="2.24274">
        <ele>272.19</ele>
        <time>2020-05-23T08:56:37Z</time>
      </trkpt>
      <trkpt lat="43.92796" lon="2.24279">
        <ele>273.63</ele>
        <time>2020-05-23T08:56:48Z</time>
      </trkpt>
      <trkpt lat="43.92782" lon="2.24281">
        <ele>273.15</ele>
        <time>2020-05-23T08:56:59Z</time>
      </trkpt>
      <trkpt lat="43.92769" lon="2.24285">
        <ele>274.11</ele>
        <time>2020-05-23T08:57:09Z</time>
      </trkpt>
      <trkpt lat="43.92751" lon="2.2429">
        <ele>274.59</ele>
        <time>2020-05-23T08:57:22Z</time>
      </trkpt>
      <trkpt lat="43.9274" lon="2.24294">
        <ele>274.59</ele>
        <time>2020-05-23T08:57:33Z</time>
      </trkpt>
      <trkpt lat="43.92735" lon="2.24296">
        <ele>275.56</ele>
        <time>2020-05-23T08:57:39Z</time>
      </trkpt>
      <trkpt lat="43.92722" lon="2.24305">
        <ele>276.52</ele>
        <time>2020-05-23T08:57:50Z</time>
      </trkpt>
      <trkpt lat="43.92711" lon="2.24312">
        <ele>277</ele>
        <time>2020-05-23T08:57:59Z</time>
      </trkpt>
      <trkpt lat="43.92701" lon="2.24317">
        <ele>277.48</ele>
        <time>2020-05-23T08:58:07Z</time>
      </trkpt>
      <trkpt lat="43.9269" lon="2.24325">
        <ele>277.96</ele>
        <time>2020-05-23T08:58:17Z</time>
      </trkpt>
      <trkpt lat="43.92681" lon="2.24331">
        <ele>277.96</ele>
        <time>2020-05-23T08:58:25Z</time>
      </trkpt>
      <trkpt lat="43.9267" lon="2.2434">
        <ele>278.44</ele>
        <time>2020-05-23T08:58:34Z</time>
      </trkpt>
      <trkpt lat="43.92659" lon="2.24345">
        <ele>278.44</ele>
        <time>2020-05-23T08:58:43Z</time>
      </trkpt>
      <trkpt lat="43.92649" lon="2.24354">
        <ele>278.92</ele>
        <time>2020-05-23T08:58:52Z</time>
      </trkpt>
      <trkpt lat="43.92636" lon="2.24362">
        <ele>278.92</ele>
        <time>2020-05-23T08:59:03Z</time>
      </trkpt>
      <trkpt lat="43.92623" lon="2.24371">
        <ele>277.48</ele>
        <time>2020-05-23T08:59:13Z</time>
      </trkpt>
      <trkpt lat="43.92611" lon="2.24378">
        <ele>277.48</ele>
        <time>2020-05-23T08:59:23Z</time>
      </trkpt>
      <trkpt lat="43.92598" lon="2.24386">
        <ele>278.44</ele>
        <time>2020-05-23T08:59:33Z</time>
      </trkpt>
      <trkpt lat="43.92586" lon="2.24392">
        <ele>279.4</ele>
        <time>2020-05-23T08:59:43Z</time>
      </trkpt>
      <trkpt lat="43.92576" lon="2.24399">
        <ele>279.88</ele>
        <time>2020-05-23T08:59:52Z</time>
      </trkpt>
      <trkpt lat="43.92564" lon="2.24403">
        <ele>280.36</ele>
        <time>2020-05-23T09:00:01Z</time>
      </trkpt>
      <trkpt lat="43.92551" lon="2.24405">
        <ele>281.8</ele>
        <time>2020-05-23T09:00:11Z</time>
      </trkpt>
      <trkpt lat="43.9254" lon="2.24403">
        <ele>281.32</ele>
        <time>2020-05-23T09:00:20Z</time>
      </trkpt>
      <trkpt lat="43.92533" lon="2.24402">
        <ele>281.32</ele>
        <time>2020-05-23T09:00:28Z</time>
      </trkpt>
      <trkpt lat="43.9253" lon="2.24401">
        <ele>281.8</ele>
        <time>2020-05-23T09:00:39Z</time>
      </trkpt>
      <trkpt lat="43.92515" lon="2.24398">
        <ele>283.25</ele>
        <time>2020-05-23T09:00:49Z</time>
      </trkpt>
      <trkpt lat="43.92501" lon="2.24393">
        <ele>284.69</ele>
        <time>2020-05-23T09:00:59Z</time>
      </trkpt>
      <trkpt lat="43.92485" lon="2.24386">
        <ele>285.17</ele>
        <time>2020-05-23T09:01:10Z</time>
      </trkpt>
      <trkpt lat="43.9247" lon="2.24382">
        <ele>286.61</ele>
        <time>2020-05-23T09:01:21Z</time>
      </trkpt>
      <trkpt lat="43.92456" lon="2.24377">
        <ele>285.65</ele>
        <time>2020-05-23T09:01:31Z</time>
      </trkpt>
      <trkpt lat="43.92442" lon="2.2437">
        <ele>284.69</ele>
        <time>2020-05-23T09:01:42Z</time>
      </trkpt>
      <trkpt lat="43.92431" lon="2.24366">
        <ele>285.17</ele>
        <time>2020-05-23T09:01:51Z</time>
      </trkpt>
      <trkpt lat="43.92421" lon="2.24363">
        <ele>284.21</ele>
        <time>2020-05-23T09:01:59Z</time>
      </trkpt>
      <trkpt lat="43.92409" lon="2.24357">
        <ele>283.25</ele>
        <time>2020-05-23T09:02:08Z</time>
      </trkpt>
      <trkpt lat="43.92399" lon="2.24353">
        <ele>282.77</ele>
        <time>2020-05-23T09:02:18Z</time>
      </trkpt>
      <trkpt lat="43.92386" lon="2.24347">
        <ele>282.28</ele>
        <time>2020-05-23T09:02:30Z</time>
      </trkpt>
      <trkpt lat="43.9237" lon="2.24341">
        <ele>280.84</ele>
        <time>2020-05-23T09:02:42Z</time>
      </trkpt>
      <trkpt lat="43.92364" lon="2.2434">
        <ele>280.84</ele>
        <time>2020-05-23T09:02:49Z</time>
      </trkpt>
      <trkpt lat="43.92361" lon="2.24346">
        <ele>281.32</ele>
        <time>2020-05-23T09:02:54Z</time>
      </trkpt>
      <trkpt lat="43.92359" lon="2.2436">
        <ele>280.84</ele>
        <time>2020-05-23T09:03:04Z</time>
      </trkpt>
      <trkpt lat="43.92358" lon="2.24373">
        <ele>280.84</ele>
        <time>2020-05-23T09:03:14Z</time>
      </trkpt>
      <trkpt lat="43.92356" lon="2.24385">
        <ele>281.32</ele>
        <time>2020-05-23T09:03:23Z</time>
      </trkpt>
      <trkpt lat="43.92355" lon="2.24393">
        <ele>282.28</ele>
        <time>2020-05-23T09:03:30Z</time>
      </trkpt>
      <trkpt lat="43.92355" lon="2.24402">
        <ele>282.77</ele>
        <time>2020-05-23T09:03:39Z</time>
      </trkpt>
      <trkpt lat="43.92355" lon="2.24406">
        <ele>283.73</ele>
        <time>2020-05-23T09:03:50Z</time>
      </trkpt>
      <trkpt lat="43.92355" lon="2.24408">
        <ele>284.21</ele>
        <time>2020-05-23T09:03:56Z</time>
      </trkpt>
      <trkpt lat="43.92354" lon="2.24409">
        <ele>283.25</ele>
        <time>2020-05-23T09:04:06Z</time>
      </trkpt>
      <trkpt lat="43.92353" lon="2.24409">
        <ele>280.36</ele>
        <time>2020-05-23T09:04:18Z</time>
      </trkpt>
      <trkpt lat="43.92353" lon="2.24409">
        <ele>280.36</ele>
        <time>2020-05-23T09:04:33Z</time>
      </trkpt>
      <trkpt lat="43.92355" lon="2.24415">
        <ele>280.84</ele>
        <time>2020-05-23T09:04:42Z</time>
      </trkpt>
      <trkpt lat="43.92353" lon="2.24435">
        <ele>280.84</ele>
        <time>2020-05-23T09:04:53Z</time>
      </trkpt>
      <trkpt lat="43.92351" lon="2.24456">
        <ele>281.32</ele>
        <time>2020-05-23T09:05:04Z</time>
      </trkpt>
      <trkpt lat="43.92349" lon="2.24475">
        <ele>283.25</ele>
        <time>2020-05-23T09:05:15Z</time>
      </trkpt>
      <trkpt lat="43.92349" lon="2.24486">
        <ele>283.25</ele>
        <time>2020-05-23T09:05:21Z</time>
      </trkpt>
      <trkpt lat="43.92349" lon="2.2449">
        <ele>283.25</ele>
        <time>2020-05-23T09:05:24Z</time>
      </trkpt>
      <trkpt lat="43.9235" lon="2.24512">
        <ele>284.21</ele>
        <time>2020-05-23T09:05:36Z</time>
      </trkpt>
      <trkpt lat="43.92351" lon="2.24529">
        <ele>285.17</ele>
        <time>2020-05-23T09:05:45Z</time>
      </trkpt>
      <trkpt lat="43.92353" lon="2.24545">
        <ele>286.13</ele>
        <time>2020-05-23T09:05:54Z</time>
      </trkpt>
      <trkpt lat="43.92357" lon="2.24562">
        <ele>285.17</ele>
        <time>2020-05-23T09:06:04Z</time>
      </trkpt>
      <trkpt lat="43.92361" lon="2.24585">
        <ele>286.61</ele>
        <time>2020-05-23T09:06:16Z</time>
      </trkpt>
      <trkpt lat="43.92365" lon="2.246">
        <ele>286.61</ele>
        <time>2020-05-23T09:06:25Z</time>
      </trkpt>
      <trkpt lat="43.92369" lon="2.24622">
        <ele>286.61</ele>
        <time>2020-05-23T09:06:37Z</time>
      </trkpt>
      <trkpt lat="43.92374" lon="2.24641">
        <ele>287.09</ele>
        <time>2020-05-23T09:06:48Z</time>
      </trkpt>
      <trkpt lat="43.92377" lon="2.2466">
        <ele>287.57</ele>
        <time>2020-05-23T09:06:59Z</time>
      </trkpt>
      <trkpt lat="43.92383" lon="2.24682">
        <ele>289.49</ele>
        <time>2020-05-23T09:07:11Z</time>
      </trkpt>
      <trkpt lat="43.92388" lon="2.24702">
        <ele>289.01</ele>
        <time>2020-05-23T09:07:22Z</time>
      </trkpt>
      <trkpt lat="43.92393" lon="2.24717">
        <ele>289.01</ele>
        <time>2020-05-23T09:07:31Z</time>
      </trkpt>
      <trkpt lat="43.92398" lon="2.24737">
        <ele>289.97</ele>
        <time>2020-05-23T09:07:41Z</time>
      </trkpt>
      <trkpt lat="43.92403" lon="2.24755">
        <ele>289.97</ele>
        <time>2020-05-23T09:07:51Z</time>
      </trkpt>
      <trkpt lat="43.92404" lon="2.24758">
        <ele>289.97</ele>
        <time>2020-05-23T09:07:53Z</time>
      </trkpt>
      <trkpt lat="43.92408" lon="2.24773">
        <ele>289.49</ele>
        <time>2020-05-23T09:08:02Z</time>
      </trkpt>
      <trkpt lat="43.92414" lon="2.24797">
        <ele>289.49</ele>
        <time>2020-05-23T09:08:15Z</time>
      </trkpt>
      <trkpt lat="43.92418" lon="2.24812">
        <ele>289.49</ele>
        <time>2020-05-23T09:08:23Z</time>
      </trkpt>
      <trkpt lat="43.9242" lon="2.2482">
        <ele>289.97</ele>
        <time>2020-05-23T09:08:29Z</time>
      </trkpt>
      <trkpt lat="43.92424" lon="2.24833">
        <ele>290.46</ele>
        <time>2020-05-23T09:08:36Z</time>
      </trkpt>
      <trkpt lat="43.92428" lon="2.24853">
        <ele>292.86</ele>
        <time>2020-05-23T09:08:47Z</time>
      </trkpt>
      <trkpt lat="43.92431" lon="2.2487">
        <ele>292.38</ele>
        <time>2020-05-23T09:08:56Z</time>
      </trkpt>
      <trkpt lat="43.92434" lon="2.24892">
        <ele>292.38</ele>
        <time>2020-05-23T09:09:07Z</time>
      </trkpt>
      <trkpt lat="43.92437" lon="2.24909">
        <ele>292.86</ele>
        <time>2020-05-23T09:09:17Z</time>
      </trkpt>
      <trkpt lat="43.9244" lon="2.24931">
        <ele>292.86</ele>
        <time>2020-05-23T09:09:28Z</time>
      </trkpt>
      <trkpt lat="43.9244" lon="2.24945">
        <ele>293.34</ele>
        <time>2020-05-23T09:09:37Z</time>
      </trkpt>
      <trkpt lat="43.92434" lon="2.24965">
        <ele>293.82</ele>
        <time>2020-05-23T09:09:49Z</time>
      </trkpt>
      <trkpt lat="43.92424" lon="2.24982">
        <ele>292.86</ele>
        <time>2020-05-23T09:10:00Z</time>
      </trkpt>
      <trkpt lat="43.92412" lon="2.24997">
        <ele>290.46</ele>
        <time>2020-05-23T09:10:12Z</time>
      </trkpt>
      <trkpt lat="43.924" lon="2.25009">
        <ele>289.97</ele>
        <time>2020-05-23T09:10:23Z</time>
      </trkpt>
      <trkpt lat="43.92393" lon="2.25016">
        <ele>290.46</ele>
        <time>2020-05-23T09:10:29Z</time>
      </trkpt>
      <trkpt lat="43.9238" lon="2.25029">
        <ele>289.49</ele>
        <time>2020-05-23T09:10:41Z</time>
      </trkpt>
      <trkpt lat="43.92378" lon="2.25034">
        <ele>289.49</ele>
        <time>2020-05-23T09:10:45Z</time>
      </trkpt>
      <trkpt lat="43.92364" lon="2.25047">
        <ele>289.01</ele>
        <time>2020-05-23T09:10:57Z</time>
      </trkpt>
      <trkpt lat="43.92352" lon="2.25062">
        <ele>289.97</ele>
        <time>2020-05-23T09:11:09Z</time>
      </trkpt>
      <trkpt lat="43.9234" lon="2.25073">
        <ele>289.01</ele>
        <time>2020-05-23T09:11:19Z</time>
      </trkpt>
      <trkpt lat="43.92331" lon="2.25084">
        <ele>289.97</ele>
        <time>2020-05-23T09:11:29Z</time>
      </trkpt>
      <trkpt lat="43.92329" lon="2.25086">
        <ele>290.46</ele>
        <time>2020-05-23T09:11:31Z</time>
      </trkpt>
      <trkpt lat="43.92326" lon="2.25091">
        <ele>289.49</ele>
        <time>2020-05-23T09:11:35Z</time>
      </trkpt>
      <trkpt lat="43.92308" lon="2.25107">
        <ele>289.97</ele>
        <time>2020-05-23T09:11:49Z</time>
      </trkpt>
      <trkpt lat="43.92297" lon="2.2512">
        <ele>291.9</ele>
        <time>2020-05-23T09:12:00Z</time>
      </trkpt>
      <trkpt lat="43.92287" lon="2.25133">
        <ele>290.46</ele>
        <time>2020-05-23T09:12:10Z</time>
      </trkpt>
      <trkpt lat="43.92274" lon="2.25151">
        <ele>290.94</ele>
        <time>2020-05-23T09:12:23Z</time>
      </trkpt>
      <trkpt lat="43.92262" lon="2.25168">
        <ele>291.9</ele>
        <time>2020-05-23T09:12:35Z</time>
      </trkpt>
      <trkpt lat="43.92252" lon="2.25181">
        <ele>289.97</ele>
        <time>2020-05-23T09:12:45Z</time>
      </trkpt>
      <trkpt lat="43.92238" lon="2.25197">
        <ele>290.94</ele>
        <time>2020-05-23T09:12:58Z</time>
      </trkpt>
      <trkpt lat="43.92222" lon="2.25214">
        <ele>291.9</ele>
        <time>2020-05-23T09:13:12Z</time>
      </trkpt>
      <trkpt lat="43.9221" lon="2.25227">
        <ele>291.9</ele>
        <time>2020-05-23T09:13:24Z</time>
      </trkpt>
      <trkpt lat="43.922" lon="2.25237">
        <ele>292.38</ele>
        <time>2020-05-23T09:13:33Z</time>
      </trkpt>
      <trkpt lat="43.92201" lon="2.25249">
        <ele>293.82</ele>
        <time>2020-05-23T09:13:41Z</time>
      </trkpt>
      <trkpt lat="43.922" lon="2.25251">
        <ele>293.82</ele>
        <time>2020-05-23T09:13:47Z</time>
      </trkpt>
      <trkpt lat="43.92199" lon="2.25251">
        <ele>293.82</ele>
        <time>2020-05-23T09:13:48Z</time>
      </trkpt>
      <trkpt lat="43.92194" lon="2.25246">
        <ele>291.9</ele>
        <time>2020-05-23T09:13:53Z</time>
      </trkpt>
      <trkpt lat="43.92191" lon="2.25245">
        <ele>291.42</ele>
        <time>2020-05-23T09:13:55Z</time>
      </trkpt>
      <trkpt lat="43.92184" lon="2.25252">
        <ele>291.42</ele>
        <time>2020-05-23T09:14:03Z</time>
      </trkpt>
      <trkpt lat="43.92172" lon="2.25263">
        <ele>293.34</ele>
        <time>2020-05-23T09:14:13Z</time>
      </trkpt>
      <trkpt lat="43.92156" lon="2.25277">
        <ele>295.74</ele>
        <time>2020-05-23T09:14:27Z</time>
      </trkpt>
      <trkpt lat="43.92151" lon="2.25281">
        <ele>296.22</ele>
        <time>2020-05-23T09:14:31Z</time>
      </trkpt>
      <trkpt lat="43.92147" lon="2.25287">
        <ele>294.78</ele>
        <time>2020-05-23T09:14:36Z</time>
      </trkpt>
      <trkpt lat="43.92135" lon="2.25296">
        <ele>294.78</ele>
        <time>2020-05-23T09:14:46Z</time>
      </trkpt>
      <trkpt lat="43.92131" lon="2.253">
        <ele>294.78</ele>
        <time>2020-05-23T09:14:50Z</time>
      </trkpt>
      <trkpt lat="43.92122" lon="2.25306">
        <ele>295.74</ele>
        <time>2020-05-23T09:14:58Z</time>
      </trkpt>
      <trkpt lat="43.92111" lon="2.25317">
        <ele>295.74</ele>
        <time>2020-05-23T09:15:09Z</time>
      </trkpt>
      <trkpt lat="43.92103" lon="2.25325">
        <ele>296.7</ele>
        <time>2020-05-23T09:15:16Z</time>
      </trkpt>
      <trkpt lat="43.92092" lon="2.25339">
        <ele>296.7</ele>
        <time>2020-05-23T09:15:26Z</time>
      </trkpt>
      <trkpt lat="43.92083" lon="2.25347">
        <ele>295.74</ele>
        <time>2020-05-23T09:15:34Z</time>
      </trkpt>
      <trkpt lat="43.92069" lon="2.25359">
        <ele>299.11</ele>
        <time>2020-05-23T09:15:45Z</time>
      </trkpt>
      <trkpt lat="43.92056" lon="2.25372">
        <ele>300.07</ele>
        <time>2020-05-23T09:15:57Z</time>
      </trkpt>
      <trkpt lat="43.92045" lon="2.25384">
        <ele>299.11</ele>
        <time>2020-05-23T09:16:07Z</time>
      </trkpt>
      <trkpt lat="43.92032" lon="2.25398">
        <ele>298.15</ele>
        <time>2020-05-23T09:16:19Z</time>
      </trkpt>
      <trkpt lat="43.92018" lon="2.25411">
        <ele>299.11</ele>
        <time>2020-05-23T09:16:31Z</time>
      </trkpt>
      <trkpt lat="43.92008" lon="2.25422">
        <ele>298.63</ele>
        <time>2020-05-23T09:16:41Z</time>
      </trkpt>
      <trkpt lat="43.91995" lon="2.25433">
        <ele>299.11</ele>
        <time>2020-05-23T09:16:52Z</time>
      </trkpt>
      <trkpt lat="43.9198" lon="2.25447">
        <ele>298.15</ele>
        <time>2020-05-23T09:17:05Z</time>
      </trkpt>
      <trkpt lat="43.91967" lon="2.25458">
        <ele>299.11</ele>
        <time>2020-05-23T09:17:16Z</time>
      </trkpt>
      <trkpt lat="43.91959" lon="2.25463">
        <ele>298.63</ele>
        <time>2020-05-23T09:17:22Z</time>
      </trkpt>
      <trkpt lat="43.91951" lon="2.25469">
        <ele>298.15</ele>
        <time>2020-05-23T09:17:32Z</time>
      </trkpt>
      <trkpt lat="43.9195" lon="2.25471">
        <ele>297.67</ele>
        <time>2020-05-23T09:17:40Z</time>
      </trkpt>
      <trkpt lat="43.91945" lon="2.25473">
        <ele>298.15</ele>
        <time>2020-05-23T09:17:48Z</time>
      </trkpt>
      <trkpt lat="43.91935" lon="2.25479">
        <ele>297.18</ele>
        <time>2020-05-23T09:17:56Z</time>
      </trkpt>
      <trkpt lat="43.9192" lon="2.25488">
        <ele>299.11</ele>
        <time>2020-05-23T09:18:08Z</time>
      </trkpt>
      <trkpt lat="43.91905" lon="2.25499">
        <ele>298.63</ele>
        <time>2020-05-23T09:18:20Z</time>
      </trkpt>
      <trkpt lat="43.91893" lon="2.25511">
        <ele>298.63</ele>
        <time>2020-05-23T09:18:30Z</time>
      </trkpt>
      <trkpt lat="43.9188" lon="2.25526">
        <ele>296.7</ele>
        <time>2020-05-23T09:18:42Z</time>
      </trkpt>
      <trkpt lat="43.91872" lon="2.25539">
        <ele>294.78</ele>
        <time>2020-05-23T09:18:51Z</time>
      </trkpt>
      <trkpt lat="43.9186" lon="2.25554">
        <ele>292.86</ele>
        <time>2020-05-23T09:19:02Z</time>
      </trkpt>
      <trkpt lat="43.91854" lon="2.25566">
        <ele>292.86</ele>
        <time>2020-05-23T09:19:09Z</time>
      </trkpt>
      <trkpt lat="43.91847" lon="2.25578">
        <ele>291.42</ele>
        <time>2020-05-23T09:19:18Z</time>
      </trkpt>
      <trkpt lat="43.91838" lon="2.25591">
        <ele>291.9</ele>
        <time>2020-05-23T09:19:27Z</time>
      </trkpt>
      <trkpt lat="43.9183" lon="2.25604">
        <ele>291.42</ele>
        <time>2020-05-23T09:19:35Z</time>
      </trkpt>
      <trkpt lat="43.91823" lon="2.2562">
        <ele>290.46</ele>
        <time>2020-05-23T09:19:45Z</time>
      </trkpt>
      <trkpt lat="43.91811" lon="2.2564">
        <ele>293.82</ele>
        <time>2020-05-23T09:19:58Z</time>
      </trkpt>
      <trkpt lat="43.91803" lon="2.25653">
        <ele>294.78</ele>
        <time>2020-05-23T09:20:07Z</time>
      </trkpt>
      <trkpt lat="43.91793" lon="2.25665">
        <ele>293.82</ele>
        <time>2020-05-23T09:20:17Z</time>
      </trkpt>
      <trkpt lat="43.91784" lon="2.2568">
        <ele>294.78</ele>
        <time>2020-05-23T09:20:28Z</time>
      </trkpt>
      <trkpt lat="43.91776" lon="2.25698">
        <ele>296.22</ele>
        <time>2020-05-23T09:20:38Z</time>
      </trkpt>
      <trkpt lat="43.91772" lon="2.25714">
        <ele>295.26</ele>
        <time>2020-05-23T09:20:47Z</time>
      </trkpt>
      <trkpt lat="43.91769" lon="2.25731">
        <ele>294.3</ele>
        <time>2020-05-23T09:20:56Z</time>
      </trkpt>
      <trkpt lat="43.91767" lon="2.2575">
        <ele>295.26</ele>
        <time>2020-05-23T09:21:06Z</time>
      </trkpt>
      <trkpt lat="43.91767" lon="2.25769">
        <ele>293.82</ele>
        <time>2020-05-23T09:21:16Z</time>
      </trkpt>
      <trkpt lat="43.91769" lon="2.25786">
        <ele>294.78</ele>
        <time>2020-05-23T09:21:25Z</time>
      </trkpt>
      <trkpt lat="43.91771" lon="2.25806">
        <ele>294.3</ele>
        <time>2020-05-23T09:21:35Z</time>
      </trkpt>
      <trkpt lat="43.91772" lon="2.25815">
        <ele>293.82</ele>
        <time>2020-05-23T09:21:40Z</time>
      </trkpt>
      <trkpt lat="43.91772" lon="2.25826">
        <ele>293.34</ele>
        <time>2020-05-23T09:21:45Z</time>
      </trkpt>
      <trkpt lat="43.91772" lon="2.2585">
        <ele>289.49</ele>
        <time>2020-05-23T09:21:56Z</time>
      </trkpt>
      <trkpt lat="43.91774" lon="2.25864">
        <ele>287.57</ele>
        <time>2020-05-23T09:22:04Z</time>
      </trkpt>
      <trkpt lat="43.91775" lon="2.25876">
        <ele>288.05</ele>
        <time>2020-05-23T09:22:10Z</time>
      </trkpt>
      <trkpt lat="43.91782" lon="2.25893">
        <ele>291.42</ele>
        <time>2020-05-23T09:22:19Z</time>
      </trkpt>
      <trkpt lat="43.91787" lon="2.25908">
        <ele>293.34</ele>
        <time>2020-05-23T09:22:26Z</time>
      </trkpt>
      <trkpt lat="43.91791" lon="2.25924">
        <ele>294.78</ele>
        <time>2020-05-23T09:22:34Z</time>
      </trkpt>
      <trkpt lat="43.91795" lon="2.25939">
        <ele>295.74</ele>
        <time>2020-05-23T09:22:43Z</time>
      </trkpt>
      <trkpt lat="43.91797" lon="2.25956">
        <ele>297.18</ele>
        <time>2020-05-23T09:22:52Z</time>
      </trkpt>
      <trkpt lat="43.91796" lon="2.25975">
        <ele>296.7</ele>
        <time>2020-05-23T09:23:02Z</time>
      </trkpt>
      <trkpt lat="43.91793" lon="2.2599">
        <ele>295.74</ele>
        <time>2020-05-23T09:23:11Z</time>
      </trkpt>
      <trkpt lat="43.91792" lon="2.26002">
        <ele>295.26</ele>
        <time>2020-05-23T09:23:18Z</time>
      </trkpt>
      <trkpt lat="43.91788" lon="2.26014">
        <ele>294.78</ele>
        <time>2020-05-23T09:23:27Z</time>
      </trkpt>
      <trkpt lat="43.91786" lon="2.2602">
        <ele>295.26</ele>
        <time>2020-05-23T09:23:33Z</time>
      </trkpt>
      <trkpt lat="43.91785" lon="2.26023">
        <ele>295.26</ele>
        <time>2020-05-23T09:23:35Z</time>
      </trkpt>
      <trkpt lat="43.91785" lon="2.26033">
        <ele>295.74</ele>
        <time>2020-05-23T09:23:42Z</time>
      </trkpt>
      <trkpt lat="43.91784" lon="2.2605">
        <ele>295.26</ele>
        <time>2020-05-23T09:23:52Z</time>
      </trkpt>
      <trkpt lat="43.91782" lon="2.26064">
        <ele>292.86</ele>
        <time>2020-05-23T09:24:00Z</time>
      </trkpt>
      <trkpt lat="43.91782" lon="2.2608">
        <ele>290.94</ele>
        <time>2020-05-23T09:24:08Z</time>
      </trkpt>
      <trkpt lat="43.9178" lon="2.26088">
        <ele>290.94</ele>
        <time>2020-05-23T09:24:12Z</time>
      </trkpt>
      <trkpt lat="43.9178" lon="2.26093">
        <ele>291.9</ele>
        <time>2020-05-23T09:24:15Z</time>
      </trkpt>
      <trkpt lat="43.91775" lon="2.26115">
        <ele>293.34</ele>
        <time>2020-05-23T09:24:26Z</time>
      </trkpt>
      <trkpt lat="43.9177" lon="2.26121">
        <ele>296.7</ele>
        <time>2020-05-23T09:24:32Z</time>
      </trkpt>
      <trkpt lat="43.91767" lon="2.26127">
        <ele>299.11</ele>
        <time>2020-05-23T09:24:39Z</time>
      </trkpt>
      <trkpt lat="43.91764" lon="2.2613">
        <ele>300.07</ele>
        <time>2020-05-23T09:24:45Z</time>
      </trkpt>
      <trkpt lat="43.91763" lon="2.26131">
        <ele>300.07</ele>
        <time>2020-05-23T09:24:46Z</time>
      </trkpt>
      <trkpt lat="43.91762" lon="2.26133">
        <ele>299.11</ele>
        <time>2020-05-23T09:24:54Z</time>
      </trkpt>
      <trkpt lat="43.91758" lon="2.26138">
        <ele>300.55</ele>
        <time>2020-05-23T09:25:01Z</time>
      </trkpt>
      <trkpt lat="43.91754" lon="2.26141">
        <ele>300.07</ele>
        <time>2020-05-23T09:25:06Z</time>
      </trkpt>
      <trkpt lat="43.91753" lon="2.26142">
        <ele>301.51</ele>
        <time>2020-05-23T09:25:13Z</time>
      </trkpt>
      <trkpt lat="43.91752" lon="2.26137">
        <ele>301.51</ele>
        <time>2020-05-23T09:25:19Z</time>
      </trkpt>
      <trkpt lat="43.91752" lon="2.2614">
        <ele>301.51</ele>
        <time>2020-05-23T09:25:28Z</time>
      </trkpt>
      <trkpt lat="43.91745" lon="2.26146">
        <ele>301.99</ele>
        <time>2020-05-23T09:25:37Z</time>
      </trkpt>
      <trkpt lat="43.91742" lon="2.26147">
        <ele>302.95</ele>
        <time>2020-05-23T09:25:42Z</time>
      </trkpt>
      <trkpt lat="43.91738" lon="2.2615">
        <ele>302.95</ele>
        <time>2020-05-23T09:25:46Z</time>
      </trkpt>
      <trkpt lat="43.9173" lon="2.26154">
        <ele>303.43</ele>
        <time>2020-05-23T09:25:55Z</time>
      </trkpt>
      <trkpt lat="43.91728" lon="2.26155">
        <ele>303.91</ele>
        <time>2020-05-23T09:26:02Z</time>
      </trkpt>
      <trkpt lat="43.91725" lon="2.26159">
        <ele>304.88</ele>
        <time>2020-05-23T09:26:10Z</time>
      </trkpt>
      <trkpt lat="43.91716" lon="2.26168">
        <ele>304.39</ele>
        <time>2020-05-23T09:26:19Z</time>
      </trkpt>
      <trkpt lat="43.91707" lon="2.26179">
        <ele>305.36</ele>
        <time>2020-05-23T09:26:28Z</time>
      </trkpt>
      <trkpt lat="43.91702" lon="2.26189">
        <ele>305.36</ele>
        <time>2020-05-23T09:26:34Z</time>
      </trkpt>
      <trkpt lat="43.91697" lon="2.26204">
        <ele>306.32</ele>
        <time>2020-05-23T09:26:44Z</time>
      </trkpt>
      <trkpt lat="43.91693" lon="2.26218">
        <ele>309.2</ele>
        <time>2020-05-23T09:26:52Z</time>
      </trkpt>
      <trkpt lat="43.91691" lon="2.26225">
        <ele>310.64</ele>
        <time>2020-05-23T09:26:57Z</time>
      </trkpt>
      <trkpt lat="43.91686" lon="2.26239">
        <ele>312.09</ele>
        <time>2020-05-23T09:27:06Z</time>
      </trkpt>
      <trkpt lat="43.91684" lon="2.26248">
        <ele>313.53</ele>
        <time>2020-05-23T09:27:12Z</time>
      </trkpt>
      <trkpt lat="43.9168" lon="2.26262">
        <ele>314.49</ele>
        <time>2020-05-23T09:27:21Z</time>
      </trkpt>
      <trkpt lat="43.91675" lon="2.26282">
        <ele>314.97</ele>
        <time>2020-05-23T09:27:32Z</time>
      </trkpt>
      <trkpt lat="43.9167" lon="2.26301">
        <ele>315.93</ele>
        <time>2020-05-23T09:27:42Z</time>
      </trkpt>
      <trkpt lat="43.91664" lon="2.26322">
        <ele>317.85</ele>
        <time>2020-05-23T09:27:53Z</time>
      </trkpt>
      <trkpt lat="43.91658" lon="2.26345">
        <ele>319.78</ele>
        <time>2020-05-23T09:28:05Z</time>
      </trkpt>
      <trkpt lat="43.91653" lon="2.26365">
        <ele>320.74</ele>
        <time>2020-05-23T09:28:15Z</time>
      </trkpt>
      <trkpt lat="43.91649" lon="2.26387">
        <ele>320.26</ele>
        <time>2020-05-23T09:28:26Z</time>
      </trkpt>
      <trkpt lat="43.91645" lon="2.26409">
        <ele>321.22</ele>
        <time>2020-05-23T09:28:37Z</time>
      </trkpt>
      <trkpt lat="43.91642" lon="2.26429">
        <ele>322.18</ele>
        <time>2020-05-23T09:28:47Z</time>
      </trkpt>
      <trkpt lat="43.9164" lon="2.26448">
        <ele>321.7</ele>
        <time>2020-05-23T09:28:57Z</time>
      </trkpt>
      <trkpt lat="43.91639" lon="2.26471">
        <ele>322.18</ele>
        <time>2020-05-23T09:29:08Z</time>
      </trkpt>
      <trkpt lat="43.9164" lon="2.26496">
        <ele>322.18</ele>
        <time>2020-05-23T09:29:20Z</time>
      </trkpt>
      <trkpt lat="43.9164" lon="2.26516">
        <ele>321.22</ele>
        <time>2020-05-23T09:29:30Z</time>
      </trkpt>
      <trkpt lat="43.91641" lon="2.26542">
        <ele>324.1</ele>
        <time>2020-05-23T09:29:42Z</time>
      </trkpt>
      <trkpt lat="43.91645" lon="2.26565">
        <ele>324.1</ele>
        <time>2020-05-23T09:29:54Z</time>
      </trkpt>
      <trkpt lat="43.91648" lon="2.26582">
        <ele>323.14</ele>
        <time>2020-05-23T09:30:03Z</time>
      </trkpt>
      <trkpt lat="43.91651" lon="2.26593">
        <ele>323.62</ele>
        <time>2020-05-23T09:30:10Z</time>
      </trkpt>
      <trkpt lat="43.91652" lon="2.266">
        <ele>324.1</ele>
        <time>2020-05-23T09:30:16Z</time>
      </trkpt>
      <trkpt lat="43.91656" lon="2.26618">
        <ele>324.58</ele>
        <time>2020-05-23T09:30:26Z</time>
      </trkpt>
      <trkpt lat="43.91659" lon="2.26633">
        <ele>325.06</ele>
        <time>2020-05-23T09:30:34Z</time>
      </trkpt>
      <trkpt lat="43.91662" lon="2.26659">
        <ele>326.99</ele>
        <time>2020-05-23T09:30:47Z</time>
      </trkpt>
      <trkpt lat="43.91663" lon="2.26675">
        <ele>326.02</ele>
        <time>2020-05-23T09:30:56Z</time>
      </trkpt>
      <trkpt lat="43.91663" lon="2.26684">
        <ele>326.02</ele>
        <time>2020-05-23T09:31:04Z</time>
      </trkpt>
      <trkpt lat="43.91665" lon="2.26702">
        <ele>326.02</ele>
        <time>2020-05-23T09:31:14Z</time>
      </trkpt>
      <trkpt lat="43.91665" lon="2.26722">
        <ele>326.5</ele>
        <time>2020-05-23T09:31:24Z</time>
      </trkpt>
      <trkpt lat="43.91666" lon="2.26741">
        <ele>327.47</ele>
        <time>2020-05-23T09:31:34Z</time>
      </trkpt>
      <trkpt lat="43.91667" lon="2.26756">
        <ele>326.02</ele>
        <time>2020-05-23T09:31:42Z</time>
      </trkpt>
      <trkpt lat="43.91666" lon="2.26766">
        <ele>326.02</ele>
        <time>2020-05-23T09:31:48Z</time>
      </trkpt>
      <trkpt lat="43.91668" lon="2.26773">
        <ele>325.06</ele>
        <time>2020-05-23T09:31:54Z</time>
      </trkpt>
      <trkpt lat="43.91668" lon="2.26783">
        <ele>324.58</ele>
        <time>2020-05-23T09:31:59Z</time>
      </trkpt>
      <trkpt lat="43.91668" lon="2.26791">
        <ele>324.1</ele>
        <time>2020-05-23T09:32:03Z</time>
      </trkpt>
      <trkpt lat="43.91672" lon="2.26814">
        <ele>322.18</ele>
        <time>2020-05-23T09:32:14Z</time>
      </trkpt>
      <trkpt lat="43.91682" lon="2.26828">
        <ele>326.02</ele>
        <time>2020-05-23T09:32:22Z</time>
      </trkpt>
      <trkpt lat="43.91694" lon="2.26844">
        <ele>327.47</ele>
        <time>2020-05-23T09:32:33Z</time>
      </trkpt>
      <trkpt lat="43.917" lon="2.2685">
        <ele>326.5</ele>
        <time>2020-05-23T09:32:39Z</time>
      </trkpt>
      <trkpt lat="43.91702" lon="2.26857">
        <ele>327.47</ele>
        <time>2020-05-23T09:32:46Z</time>
      </trkpt>
      <trkpt lat="43.91702" lon="2.26857">
        <ele>328.43</ele>
        <time>2020-05-23T09:32:51Z</time>
      </trkpt>
      <trkpt lat="43.91703" lon="2.26864">
        <ele>328.91</ele>
        <time>2020-05-23T09:32:59Z</time>
      </trkpt>
      <trkpt lat="43.91705" lon="2.2687">
        <ele>328.43</ele>
        <time>2020-05-23T09:33:04Z</time>
      </trkpt>
      <trkpt lat="43.91707" lon="2.26878">
        <ele>328.43</ele>
        <time>2020-05-23T09:33:08Z</time>
      </trkpt>
      <trkpt lat="43.91709" lon="2.26888">
        <ele>329.39</ele>
        <time>2020-05-23T09:33:14Z</time>
      </trkpt>
      <trkpt lat="43.91715" lon="2.26907">
        <ele>328.43</ele>
        <time>2020-05-23T09:33:24Z</time>
      </trkpt>
      <trkpt lat="43.91723" lon="2.26927">
        <ele>327.47</ele>
        <time>2020-05-23T09:33:35Z</time>
      </trkpt>
      <trkpt lat="43.91732" lon="2.26946">
        <ele>328.91</ele>
        <time>2020-05-23T09:33:46Z</time>
      </trkpt>
      <trkpt lat="43.91737" lon="2.2696">
        <ele>328.91</ele>
        <time>2020-05-23T09:33:55Z</time>
      </trkpt>
      <trkpt lat="43.91739" lon="2.26963">
        <ele>328.91</ele>
        <time>2020-05-23T09:33:57Z</time>
      </trkpt>
      <trkpt lat="43.91748" lon="2.26983">
        <ele>329.39</ele>
        <time>2020-05-23T09:34:09Z</time>
      </trkpt>
      <trkpt lat="43.91754" lon="2.26999">
        <ele>328.91</ele>
        <time>2020-05-23T09:34:18Z</time>
      </trkpt>
      <trkpt lat="43.9176" lon="2.27013">
        <ele>327.95</ele>
        <time>2020-05-23T09:34:27Z</time>
      </trkpt>
      <trkpt lat="43.91768" lon="2.27032">
        <ele>328.43</ele>
        <time>2020-05-23T09:34:38Z</time>
      </trkpt>
      <trkpt lat="43.91773" lon="2.27048">
        <ele>327.47</ele>
        <time>2020-05-23T09:34:47Z</time>
      </trkpt>
      <trkpt lat="43.91781" lon="2.27067">
        <ele>324.58</ele>
        <time>2020-05-23T09:34:59Z</time>
      </trkpt>
      <trkpt lat="43.91785" lon="2.27075">
        <ele>322.66</ele>
        <time>2020-05-23T09:35:05Z</time>
      </trkpt>
      <trkpt lat="43.91785" lon="2.27082">
        <ele>321.7</ele>
        <time>2020-05-23T09:35:09Z</time>
      </trkpt>
      <trkpt lat="43.91784" lon="2.27093">
        <ele>319.3</ele>
        <time>2020-05-23T09:35:19Z</time>
      </trkpt>
      <trkpt lat="43.91784" lon="2.27096">
        <ele>318.81</ele>
        <time>2020-05-23T09:35:22Z</time>
      </trkpt>
      <trkpt lat="43.9178" lon="2.27103">
        <ele>319.78</ele>
        <time>2020-05-23T09:35:31Z</time>
      </trkpt>
      <trkpt lat="43.91781" lon="2.27101">
        <ele>319.3</ele>
        <time>2020-05-23T09:35:38Z</time>
      </trkpt>
      <trkpt lat="43.91778" lon="2.27108">
        <ele>317.85</ele>
        <time>2020-05-23T09:35:47Z</time>
      </trkpt>
      <trkpt lat="43.91773" lon="2.27118">
        <ele>316.89</ele>
        <time>2020-05-23T09:35:55Z</time>
      </trkpt>
      <trkpt lat="43.91769" lon="2.27135">
        <ele>316.89</ele>
        <time>2020-05-23T09:36:04Z</time>
      </trkpt>
      <trkpt lat="43.91769" lon="2.27152">
        <ele>317.85</ele>
        <time>2020-05-23T09:36:13Z</time>
      </trkpt>
      <trkpt lat="43.91774" lon="2.27176">
        <ele>317.37</ele>
        <time>2020-05-23T09:36:25Z</time>
      </trkpt>
      <trkpt lat="43.91782" lon="2.27192">
        <ele>316.41</ele>
        <time>2020-05-23T09:36:35Z</time>
      </trkpt>
      <trkpt lat="43.91787" lon="2.272">
        <ele>316.41</ele>
        <time>2020-05-23T09:36:44Z</time>
      </trkpt>
      <trkpt lat="43.91791" lon="2.27201">
        <ele>315.45</ele>
        <time>2020-05-23T09:36:59Z</time>
      </trkpt>
      <trkpt lat="43.91796" lon="2.27213">
        <ele>315.45</ele>
        <time>2020-05-23T09:37:07Z</time>
      </trkpt>
      <trkpt lat="43.91802" lon="2.27227">
        <ele>314.97</ele>
        <time>2020-05-23T09:37:16Z</time>
      </trkpt>
      <trkpt lat="43.91808" lon="2.27245">
        <ele>317.37</ele>
        <time>2020-05-23T09:37:26Z</time>
      </trkpt>
      <trkpt lat="43.91812" lon="2.2726">
        <ele>318.81</ele>
        <time>2020-05-23T09:37:34Z</time>
      </trkpt>
      <trkpt lat="43.91817" lon="2.27277">
        <ele>319.3</ele>
        <time>2020-05-23T09:37:43Z</time>
      </trkpt>
      <trkpt lat="43.91822" lon="2.27294">
        <ele>318.33</ele>
        <time>2020-05-23T09:37:53Z</time>
      </trkpt>
      <trkpt lat="43.91827" lon="2.27317">
        <ele>318.33</ele>
        <time>2020-05-23T09:38:05Z</time>
      </trkpt>
      <trkpt lat="43.9183" lon="2.27337">
        <ele>318.33</ele>
        <time>2020-05-23T09:38:16Z</time>
      </trkpt>
      <trkpt lat="43.91833" lon="2.27358">
        <ele>317.85</ele>
        <time>2020-05-23T09:38:26Z</time>
      </trkpt>
      <trkpt lat="43.91835" lon="2.27377">
        <ele>316.41</ele>
        <time>2020-05-23T09:38:37Z</time>
      </trkpt>
      <trkpt lat="43.91836" lon="2.27402">
        <ele>314.01</ele>
        <time>2020-05-23T09:38:50Z</time>
      </trkpt>
      <trkpt lat="43.91837" lon="2.27423">
        <ele>313.05</ele>
        <time>2020-05-23T09:39:01Z</time>
      </trkpt>
      <trkpt lat="43.91842" lon="2.27435">
        <ele>311.6</ele>
        <time>2020-05-23T09:39:09Z</time>
      </trkpt>
      <trkpt lat="43.91842" lon="2.27444">
        <ele>311.6</ele>
        <time>2020-05-23T09:39:15Z</time>
      </trkpt>
      <trkpt lat="43.91843" lon="2.27447">
        <ele>312.09</ele>
        <time>2020-05-23T09:39:17Z</time>
      </trkpt>
      <trkpt lat="43.91844" lon="2.27467">
        <ele>314.01</ele>
        <time>2020-05-23T09:39:28Z</time>
      </trkpt>
      <trkpt lat="43.91847" lon="2.27484">
        <ele>315.45</ele>
        <time>2020-05-23T09:39:37Z</time>
      </trkpt>
      <trkpt lat="43.91849" lon="2.27501">
        <ele>317.37</ele>
        <time>2020-05-23T09:39:46Z</time>
      </trkpt>
      <trkpt lat="43.91851" lon="2.27507">
        <ele>318.81</ele>
        <time>2020-05-23T09:39:53Z</time>
      </trkpt>
      <trkpt lat="43.91853" lon="2.27527">
        <ele>321.7</ele>
        <time>2020-05-23T09:40:04Z</time>
      </trkpt>
      <trkpt lat="43.91857" lon="2.27545">
        <ele>323.62</ele>
        <time>2020-05-23T09:40:15Z</time>
      </trkpt>
      <trkpt lat="43.91862" lon="2.27566">
        <ele>325.54</ele>
        <time>2020-05-23T09:40:26Z</time>
      </trkpt>
      <trkpt lat="43.91868" lon="2.2758">
        <ele>328.91</ele>
        <time>2020-05-23T09:40:35Z</time>
      </trkpt>
      <trkpt lat="43.91873" lon="2.2759">
        <ele>330.83</ele>
        <time>2020-05-23T09:40:42Z</time>
      </trkpt>
      <trkpt lat="43.9188" lon="2.27602">
        <ele>332.27</ele>
        <time>2020-05-23T09:40:51Z</time>
      </trkpt>
      <trkpt lat="43.91888" lon="2.27612">
        <ele>333.71</ele>
        <time>2020-05-23T09:41:00Z</time>
      </trkpt>
      <trkpt lat="43.91897" lon="2.27618">
        <ele>334.2</ele>
        <time>2020-05-23T09:41:08Z</time>
      </trkpt>
      <trkpt lat="43.91905" lon="2.27626">
        <ele>333.71</ele>
        <time>2020-05-23T09:41:18Z</time>
      </trkpt>
      <trkpt lat="43.91908" lon="2.27629">
        <ele>333.23</ele>
        <time>2020-05-23T09:41:24Z</time>
      </trkpt>
      <trkpt lat="43.91914" lon="2.27636">
        <ele>331.79</ele>
        <time>2020-05-23T09:41:32Z</time>
      </trkpt>
      <trkpt lat="43.91919" lon="2.27646">
        <ele>327.95</ele>
        <time>2020-05-23T09:41:42Z</time>
      </trkpt>
      <trkpt lat="43.91926" lon="2.27655">
        <ele>326.02</ele>
        <time>2020-05-23T09:41:52Z</time>
      </trkpt>
      <trkpt lat="43.91932" lon="2.27666">
        <ele>324.58</ele>
        <time>2020-05-23T09:42:01Z</time>
      </trkpt>
      <trkpt lat="43.91941" lon="2.27678">
        <ele>325.54</ele>
        <time>2020-05-23T09:42:11Z</time>
      </trkpt>
      <trkpt lat="43.91943" lon="2.27682">
        <ele>325.54</ele>
        <time>2020-05-23T09:42:14Z</time>
      </trkpt>
      <trkpt lat="43.9195" lon="2.27701">
        <ele>325.54</ele>
        <time>2020-05-23T09:42:25Z</time>
      </trkpt>
      <trkpt lat="43.91955" lon="2.27718">
        <ele>327.95</ele>
        <time>2020-05-23T09:42:34Z</time>
      </trkpt>
      <trkpt lat="43.91958" lon="2.27732">
        <ele>328.43</ele>
        <time>2020-05-23T09:42:42Z</time>
      </trkpt>
      <trkpt lat="43.91967" lon="2.27746">
        <ele>331.31</ele>
        <time>2020-05-23T09:42:52Z</time>
      </trkpt>
      <trkpt lat="43.91974" lon="2.27769">
        <ele>335.16</ele>
        <time>2020-05-23T09:43:04Z</time>
      </trkpt>
      <trkpt lat="43.91978" lon="2.27781">
        <ele>334.68</ele>
        <time>2020-05-23T09:43:12Z</time>
      </trkpt>
      <trkpt lat="43.91986" lon="2.27799">
        <ele>335.64</ele>
        <time>2020-05-23T09:43:21Z</time>
      </trkpt>
      <trkpt lat="43.91992" lon="2.27811">
        <ele>336.12</ele>
        <time>2020-05-23T09:43:31Z</time>
      </trkpt>
      <trkpt lat="43.91999" lon="2.27829">
        <ele>338.52</ele>
        <time>2020-05-23T09:43:41Z</time>
      </trkpt>
      <trkpt lat="43.92" lon="2.27833">
        <ele>338.52</ele>
        <time>2020-05-23T09:43:43Z</time>
      </trkpt>
      <trkpt lat="43.92009" lon="2.2785">
        <ele>339</ele>
        <time>2020-05-23T09:43:53Z</time>
      </trkpt>
      <trkpt lat="43.92014" lon="2.27865">
        <ele>340.92</ele>
        <time>2020-05-23T09:44:01Z</time>
      </trkpt>
      <trkpt lat="43.92016" lon="2.27874">
        <ele>342.37</ele>
        <time>2020-05-23T09:44:09Z</time>
      </trkpt>
      <trkpt lat="43.92019" lon="2.27882">
        <ele>343.33</ele>
        <time>2020-05-23T09:44:17Z</time>
      </trkpt>
      <trkpt lat="43.92022" lon="2.27892">
        <ele>344.29</ele>
        <time>2020-05-23T09:44:23Z</time>
      </trkpt>
      <trkpt lat="43.92027" lon="2.27908">
        <ele>346.21</ele>
        <time>2020-05-23T09:44:32Z</time>
      </trkpt>
      <trkpt lat="43.92032" lon="2.2792">
        <ele>346.21</ele>
        <time>2020-05-23T09:44:41Z</time>
      </trkpt>
      <trkpt lat="43.92032" lon="2.27919">
        <ele>345.73</ele>
        <time>2020-05-23T09:44:50Z</time>
      </trkpt>
      <trkpt lat="43.92034" lon="2.27926">
        <ele>346.21</ele>
        <time>2020-05-23T09:44:57Z</time>
      </trkpt>
      <trkpt lat="43.9204" lon="2.2794">
        <ele>346.69</ele>
        <time>2020-05-23T09:45:06Z</time>
      </trkpt>
      <trkpt lat="43.92046" lon="2.27953">
        <ele>347.17</ele>
        <time>2020-05-23T09:45:15Z</time>
      </trkpt>
      <trkpt lat="43.92053" lon="2.27966">
        <ele>347.17</ele>
        <time>2020-05-23T09:45:25Z</time>
      </trkpt>
      <trkpt lat="43.92058" lon="2.27976">
        <ele>347.17</ele>
        <time>2020-05-23T09:45:33Z</time>
      </trkpt>
      <trkpt lat="43.92066" lon="2.2799">
        <ele>347.17</ele>
        <time>2020-05-23T09:45:43Z</time>
      </trkpt>
      <trkpt lat="43.92069" lon="2.27998">
        <ele>347.65</ele>
        <time>2020-05-23T09:45:48Z</time>
      </trkpt>
      <trkpt lat="43.92083" lon="2.28006">
        <ele>348.13</ele>
        <time>2020-05-23T09:46:00Z</time>
      </trkpt>
      <trkpt lat="43.92092" lon="2.2801">
        <ele>347.17</ele>
        <time>2020-05-23T09:46:08Z</time>
      </trkpt>
      <trkpt lat="43.92106" lon="2.28017">
        <ele>345.73</ele>
        <time>2020-05-23T09:46:20Z</time>
      </trkpt>
      <trkpt lat="43.92121" lon="2.28023">
        <ele>345.73</ele>
        <time>2020-05-23T09:46:31Z</time>
      </trkpt>
      <trkpt lat="43.92133" lon="2.28029">
        <ele>344.77</ele>
        <time>2020-05-23T09:46:41Z</time>
      </trkpt>
      <trkpt lat="43.92145" lon="2.28034">
        <ele>343.33</ele>
        <time>2020-05-23T09:46:50Z</time>
      </trkpt>
      <trkpt lat="43.9216" lon="2.2804">
        <ele>343.33</ele>
        <time>2020-05-23T09:47:01Z</time>
      </trkpt>
      <trkpt lat="43.92176" lon="2.28045">
        <ele>343.81</ele>
        <time>2020-05-23T09:47:12Z</time>
      </trkpt>
      <trkpt lat="43.92188" lon="2.28051">
        <ele>344.29</ele>
        <time>2020-05-23T09:47:22Z</time>
      </trkpt>
      <trkpt lat="43.922" lon="2.28057">
        <ele>345.25</ele>
        <time>2020-05-23T09:47:31Z</time>
      </trkpt>
      <trkpt lat="43.92212" lon="2.28062">
        <ele>344.77</ele>
        <time>2020-05-23T09:47:40Z</time>
      </trkpt>
      <trkpt lat="43.92226" lon="2.28067">
        <ele>344.77</ele>
        <time>2020-05-23T09:47:50Z</time>
      </trkpt>
      <trkpt lat="43.92242" lon="2.28075">
        <ele>344.77</ele>
        <time>2020-05-23T09:48:02Z</time>
      </trkpt>
      <trkpt lat="43.92257" lon="2.28077">
        <ele>344.29</ele>
        <time>2020-05-23T09:48:12Z</time>
      </trkpt>
      <trkpt lat="43.92275" lon="2.28079">
        <ele>343.33</ele>
        <time>2020-05-23T09:48:24Z</time>
      </trkpt>
      <trkpt lat="43.9229" lon="2.28077">
        <ele>344.77</ele>
        <time>2020-05-23T09:48:35Z</time>
      </trkpt>
      <trkpt lat="43.92307" lon="2.28068">
        <ele>344.77</ele>
        <time>2020-05-23T09:48:47Z</time>
      </trkpt>
      <trkpt lat="43.92325" lon="2.28058">
        <ele>344.29</ele>
        <time>2020-05-23T09:49:00Z</time>
      </trkpt>
      <trkpt lat="43.92342" lon="2.28048">
        <ele>343.33</ele>
        <time>2020-05-23T09:49:12Z</time>
      </trkpt>
      <trkpt lat="43.92357" lon="2.28038">
        <ele>343.33</ele>
        <time>2020-05-23T09:49:23Z</time>
      </trkpt>
      <trkpt lat="43.92376" lon="2.28026">
        <ele>343.81</ele>
        <time>2020-05-23T09:49:36Z</time>
      </trkpt>
      <trkpt lat="43.92389" lon="2.28018">
        <ele>343.81</ele>
        <time>2020-05-23T09:49:47Z</time>
      </trkpt>
      <trkpt lat="43.92395" lon="2.28014">
        <ele>343.33</ele>
        <time>2020-05-23T09:49:54Z</time>
      </trkpt>
      <trkpt lat="43.92405" lon="2.28009">
        <ele>342.85</ele>
        <time>2020-05-23T09:50:03Z</time>
      </trkpt>
      <trkpt lat="43.92418" lon="2.28001">
        <ele>342.37</ele>
        <time>2020-05-23T09:50:14Z</time>
      </trkpt>
      <trkpt lat="43.92432" lon="2.27993">
        <ele>341.41</ele>
        <time>2020-05-23T09:50:25Z</time>
      </trkpt>
      <trkpt lat="43.92447" lon="2.27984">
        <ele>340.44</ele>
        <time>2020-05-23T09:50:36Z</time>
      </trkpt>
      <trkpt lat="43.92456" lon="2.2798">
        <ele>340.44</ele>
        <time>2020-05-23T09:50:42Z</time>
      </trkpt>
      <trkpt lat="43.92468" lon="2.27974">
        <ele>340.44</ele>
        <time>2020-05-23T09:50:51Z</time>
      </trkpt>
      <trkpt lat="43.92481" lon="2.27968">
        <ele>340.92</ele>
        <time>2020-05-23T09:51:00Z</time>
      </trkpt>
      <trkpt lat="43.92493" lon="2.27963">
        <ele>340.92</ele>
        <time>2020-05-23T09:51:10Z</time>
      </trkpt>
      <trkpt lat="43.9251" lon="2.27956">
        <ele>340.92</ele>
        <time>2020-05-23T09:51:22Z</time>
      </trkpt>
      <trkpt lat="43.92511" lon="2.27956">
        <ele>340.44</ele>
        <time>2020-05-23T09:51:23Z</time>
      </trkpt>
      <trkpt lat="43.92512" lon="2.27955">
        <ele>340.44</ele>
        <time>2020-05-23T09:51:24Z</time>
      </trkpt>
      <trkpt lat="43.9253" lon="2.27948">
        <ele>339.96</ele>
        <time>2020-05-23T09:51:37Z</time>
      </trkpt>
      <trkpt lat="43.92545" lon="2.27942">
        <ele>338.52</ele>
        <time>2020-05-23T09:51:48Z</time>
      </trkpt>
      <trkpt lat="43.92558" lon="2.27939">
        <ele>337.08</ele>
        <time>2020-05-23T09:51:58Z</time>
      </trkpt>
      <trkpt lat="43.9257" lon="2.27937">
        <ele>337.56</ele>
        <time>2020-05-23T09:52:07Z</time>
      </trkpt>
      <trkpt lat="43.92584" lon="2.27935">
        <ele>337.56</ele>
        <time>2020-05-23T09:52:16Z</time>
      </trkpt>
      <trkpt lat="43.92597" lon="2.27931">
        <ele>336.6</ele>
        <time>2020-05-23T09:52:25Z</time>
      </trkpt>
      <trkpt lat="43.92605" lon="2.2793">
        <ele>336.6</ele>
        <time>2020-05-23T09:52:32Z</time>
      </trkpt>
      <trkpt lat="43.92607" lon="2.27929">
        <ele>336.6</ele>
        <time>2020-05-23T09:52:33Z</time>
      </trkpt>
      <trkpt lat="43.92608" lon="2.27929">
        <ele>336.6</ele>
        <time>2020-05-23T09:52:34Z</time>
      </trkpt>
      <trkpt lat="43.9262" lon="2.27925">
        <ele>336.6</ele>
        <time>2020-05-23T09:52:43Z</time>
      </trkpt>
      <trkpt lat="43.92621" lon="2.27925">
        <ele>336.6</ele>
        <time>2020-05-23T09:52:44Z</time>
      </trkpt>
      <trkpt lat="43.92639" lon="2.27921">
        <ele>336.12</ele>
        <time>2020-05-23T09:52:55Z</time>
      </trkpt>
      <trkpt lat="43.92655" lon="2.27918">
        <ele>335.16</ele>
        <time>2020-05-23T09:53:07Z</time>
      </trkpt>
      <trkpt lat="43.92667" lon="2.27917">
        <ele>334.2</ele>
        <time>2020-05-23T09:53:16Z</time>
      </trkpt>
      <trkpt lat="43.92668" lon="2.27918">
        <ele>334.2</ele>
        <time>2020-05-23T09:53:17Z</time>
      </trkpt>
      <trkpt lat="43.92673" lon="2.2793">
        <ele>334.68</ele>
        <time>2020-05-23T09:53:25Z</time>
      </trkpt>
      <trkpt lat="43.92674" lon="2.27937">
        <ele>334.68</ele>
        <time>2020-05-23T09:53:29Z</time>
      </trkpt>
      <trkpt lat="43.92675" lon="2.27938">
        <ele>335.16</ele>
        <time>2020-05-23T09:53:35Z</time>
      </trkpt>
      <trkpt lat="43.92674" lon="2.27939">
        <ele>335.64</ele>
        <time>2020-05-23T09:53:48Z</time>
      </trkpt>
      <trkpt lat="43.92674" lon="2.27941">
        <ele>335.64</ele>
        <time>2020-05-23T09:53:49Z</time>
      </trkpt>
      <trkpt lat="43.92675" lon="2.27943">
        <ele>335.64</ele>
        <time>2020-05-23T09:53:50Z</time>
      </trkpt>
      <trkpt lat="43.92678" lon="2.27969">
        <ele>334.2</ele>
        <time>2020-05-23T09:54:02Z</time>
      </trkpt>
      <trkpt lat="43.92681" lon="2.2799">
        <ele>331.79</ele>
        <time>2020-05-23T09:54:12Z</time>
      </trkpt>
      <trkpt lat="43.92681" lon="2.27994">
        <ele>331.31</ele>
        <time>2020-05-23T09:54:14Z</time>
      </trkpt>
      <trkpt lat="43.92681" lon="2.27996">
        <ele>330.83</ele>
        <time>2020-05-23T09:54:15Z</time>
      </trkpt>
      <trkpt lat="43.92679" lon="2.28005">
        <ele>327.47</ele>
        <time>2020-05-23T09:54:24Z</time>
      </trkpt>
      <trkpt lat="43.92683" lon="2.28005">
        <ele>325.54</ele>
        <time>2020-05-23T09:54:33Z</time>
      </trkpt>
      <trkpt lat="43.92683" lon="2.28004">
        <ele>324.58</ele>
        <time>2020-05-23T09:54:50Z</time>
      </trkpt>
      <trkpt lat="43.92681" lon="2.28005">
        <ele>325.06</ele>
        <time>2020-05-23T09:54:58Z</time>
      </trkpt>
      <trkpt lat="43.92678" lon="2.28008">
        <ele>324.1</ele>
        <time>2020-05-23T09:55:08Z</time>
      </trkpt>
      <trkpt lat="43.92676" lon="2.28009">
        <ele>323.62</ele>
        <time>2020-05-23T09:55:17Z</time>
      </trkpt>
      <trkpt lat="43.92675" lon="2.2801">
        <ele>327.95</ele>
        <time>2020-05-23T09:55:36Z</time>
      </trkpt>
      <trkpt lat="43.92678" lon="2.28007">
        <ele>327.95</ele>
        <time>2020-05-23T09:55:54Z</time>
      </trkpt>
      <trkpt lat="43.92679" lon="2.28006">
        <ele>328.43</ele>
        <time>2020-05-23T09:56:04Z</time>
      </trkpt>
      <trkpt lat="43.92678" lon="2.28006">
        <ele>327.95</ele>
        <time>2020-05-23T09:56:16Z</time>
      </trkpt>
      <trkpt lat="43.92679" lon="2.28006">
        <ele>326.5</ele>
        <time>2020-05-23T09:56:28Z</time>
      </trkpt>
      <trkpt lat="43.9268" lon="2.28005">
        <ele>326.5</ele>
        <time>2020-05-23T09:56:47Z</time>
      </trkpt>
      <trkpt lat="43.92678" lon="2.28008">
        <ele>325.54</ele>
        <time>2020-05-23T09:57:02Z</time>
      </trkpt>
      <trkpt lat="43.92672" lon="2.28015">
        <ele>323.14</ele>
        <time>2020-05-23T09:57:11Z</time>
      </trkpt>
      <trkpt lat="43.92666" lon="2.28028">
        <ele>319.78</ele>
        <time>2020-05-23T09:57:22Z</time>
      </trkpt>
      <trkpt lat="43.92661" lon="2.28033">
        <ele>318.33</ele>
        <time>2020-05-23T09:57:28Z</time>
      </trkpt>
      <trkpt lat="43.92653" lon="2.2804">
        <ele>314.49</ele>
        <time>2020-05-23T09:57:38Z</time>
      </trkpt>
      <trkpt lat="43.92647" lon="2.28047">
        <ele>312.57</ele>
        <time>2020-05-23T09:57:44Z</time>
      </trkpt>
      <trkpt lat="43.9264" lon="2.28054">
        <ele>309.2</ele>
        <time>2020-05-23T09:57:52Z</time>
      </trkpt>
      <trkpt lat="43.92631" lon="2.28067">
        <ele>302.95</ele>
        <time>2020-05-23T09:58:02Z</time>
      </trkpt>
      <trkpt lat="43.92623" lon="2.28076">
        <ele>298.15</ele>
        <time>2020-05-23T09:58:09Z</time>
      </trkpt>
      <trkpt lat="43.92616" lon="2.28087">
        <ele>293.34</ele>
        <time>2020-05-23T09:58:16Z</time>
      </trkpt>
      <trkpt lat="43.92609" lon="2.28105">
        <ele>289.97</ele>
        <time>2020-05-23T09:58:25Z</time>
      </trkpt>
      <trkpt lat="43.92605" lon="2.28116">
        <ele>287.09</ele>
        <time>2020-05-23T09:58:32Z</time>
      </trkpt>
      <trkpt lat="43.92605" lon="2.28122">
        <ele>285.17</ele>
        <time>2020-05-23T09:58:38Z</time>
      </trkpt>
      <trkpt lat="43.92602" lon="2.28133">
        <ele>283.25</ele>
        <time>2020-05-23T09:58:45Z</time>
      </trkpt>
      <trkpt lat="43.92598" lon="2.28147">
        <ele>280.84</ele>
        <time>2020-05-23T09:58:53Z</time>
      </trkpt>
      <trkpt lat="43.92598" lon="2.28162">
        <ele>278.44</ele>
        <time>2020-05-23T09:59:00Z</time>
      </trkpt>
      <trkpt lat="43.92597" lon="2.28173">
        <ele>276.04</ele>
        <time>2020-05-23T09:59:06Z</time>
      </trkpt>
      <trkpt lat="43.92595" lon="2.28186">
        <ele>277</ele>
        <time>2020-05-23T09:59:12Z</time>
      </trkpt>
      <trkpt lat="43.92597" lon="2.28193">
        <ele>278.92</ele>
        <time>2020-05-23T09:59:17Z</time>
      </trkpt>
      <trkpt lat="43.92603" lon="2.28196">
        <ele>279.4</ele>
        <time>2020-05-23T09:59:25Z</time>
      </trkpt>
      <trkpt lat="43.92607" lon="2.28194">
        <ele>278.92</ele>
        <time>2020-05-23T09:59:31Z</time>
      </trkpt>
      <trkpt lat="43.92612" lon="2.28188">
        <ele>275.56</ele>
        <time>2020-05-23T09:59:39Z</time>
      </trkpt>
      <trkpt lat="43.92613" lon="2.28181">
        <ele>272.67</ele>
        <time>2020-05-23T09:59:46Z</time>
      </trkpt>
      <trkpt lat="43.9262" lon="2.28173">
        <ele>270.27</ele>
        <time>2020-05-23T09:59:54Z</time>
      </trkpt>
      <trkpt lat="43.92625" lon="2.28166">
        <ele>267.86</ele>
        <time>2020-05-23T10:00:01Z</time>
      </trkpt>
      <trkpt lat="43.92633" lon="2.2816">
        <ele>266.9</ele>
        <time>2020-05-23T10:00:10Z</time>
      </trkpt>
      <trkpt lat="43.92645" lon="2.28158">
        <ele>266.9</ele>
        <time>2020-05-23T10:00:18Z</time>
      </trkpt>
      <trkpt lat="43.92655" lon="2.2816">
        <ele>264.98</ele>
        <time>2020-05-23T10:00:25Z</time>
      </trkpt>
      <trkpt lat="43.92664" lon="2.28165">
        <ele>263.54</ele>
        <time>2020-05-23T10:00:32Z</time>
      </trkpt>
      <trkpt lat="43.92673" lon="2.28172">
        <ele>263.54</ele>
        <time>2020-05-23T10:00:39Z</time>
      </trkpt>
      <trkpt lat="43.92682" lon="2.28179">
        <ele>263.06</ele>
        <time>2020-05-23T10:00:46Z</time>
      </trkpt>
      <trkpt lat="43.92688" lon="2.28184">
        <ele>260.65</ele>
        <time>2020-05-23T10:00:54Z</time>
      </trkpt>
      <trkpt lat="43.92695" lon="2.28186">
        <ele>258.25</ele>
        <time>2020-05-23T10:01:01Z</time>
      </trkpt>
      <trkpt lat="43.927" lon="2.28184">
        <ele>256.33</ele>
        <time>2020-05-23T10:01:08Z</time>
      </trkpt>
      <trkpt lat="43.92706" lon="2.28184">
        <ele>254.89</ele>
        <time>2020-05-23T10:01:14Z</time>
      </trkpt>
      <trkpt lat="43.92713" lon="2.28187">
        <ele>252.96</ele>
        <time>2020-05-23T10:01:23Z</time>
      </trkpt>
      <trkpt lat="43.92718" lon="2.28188">
        <ele>252.96</ele>
        <time>2020-05-23T10:01:30Z</time>
      </trkpt>
      <trkpt lat="43.92724" lon="2.28191">
        <ele>252</ele>
        <time>2020-05-23T10:01:37Z</time>
      </trkpt>
      <trkpt lat="43.92733" lon="2.28198">
        <ele>252</ele>
        <time>2020-05-23T10:01:44Z</time>
      </trkpt>
      <trkpt lat="43.9274" lon="2.28204">
        <ele>252.48</ele>
        <time>2020-05-23T10:01:52Z</time>
      </trkpt>
      <trkpt lat="43.92745" lon="2.28209">
        <ele>252</ele>
        <time>2020-05-23T10:01:58Z</time>
      </trkpt>
      <trkpt lat="43.92749" lon="2.28213">
        <ele>251.04</ele>
        <time>2020-05-23T10:02:05Z</time>
      </trkpt>
      <trkpt lat="43.92755" lon="2.28225">
        <ele>252.96</ele>
        <time>2020-05-23T10:02:13Z</time>
      </trkpt>
      <trkpt lat="43.9276" lon="2.28233">
        <ele>253.44</ele>
        <time>2020-05-23T10:02:20Z</time>
      </trkpt>
      <trkpt lat="43.92763" lon="2.28235">
        <ele>252</ele>
        <time>2020-05-23T10:02:28Z</time>
      </trkpt>
      <trkpt lat="43.92767" lon="2.28239">
        <ele>249.6</ele>
        <time>2020-05-23T10:02:36Z</time>
      </trkpt>
      <trkpt lat="43.92769" lon="2.28243">
        <ele>247.68</ele>
        <time>2020-05-23T10:02:42Z</time>
      </trkpt>
      <trkpt lat="43.92774" lon="2.28249">
        <ele>245.27</ele>
        <time>2020-05-23T10:02:50Z</time>
      </trkpt>
      <trkpt lat="43.92776" lon="2.28254">
        <ele>244.31</ele>
        <time>2020-05-23T10:02:56Z</time>
      </trkpt>
      <trkpt lat="43.92779" lon="2.28259">
        <ele>242.39</ele>
        <time>2020-05-23T10:03:02Z</time>
      </trkpt>
      <trkpt lat="43.92784" lon="2.28266">
        <ele>241.43</ele>
        <time>2020-05-23T10:03:08Z</time>
      </trkpt>
      <trkpt lat="43.92788" lon="2.28274">
        <ele>241.43</ele>
        <time>2020-05-23T10:03:13Z</time>
      </trkpt>
      <trkpt lat="43.92796" lon="2.28282">
        <ele>239.02</ele>
        <time>2020-05-23T10:03:20Z</time>
      </trkpt>
      <trkpt lat="43.92802" lon="2.28287">
        <ele>234.22</ele>
        <time>2020-05-23T10:03:28Z</time>
      </trkpt>
      <trkpt lat="43.92805" lon="2.28291">
        <ele>231.33</ele>
        <time>2020-05-23T10:03:34Z</time>
      </trkpt>
      <trkpt lat="43.92811" lon="2.28298">
        <ele>228.93</ele>
        <time>2020-05-23T10:03:42Z</time>
      </trkpt>
      <trkpt lat="43.92817" lon="2.28304">
        <ele>227.49</ele>
        <time>2020-05-23T10:03:49Z</time>
      </trkpt>
      <trkpt lat="43.92822" lon="2.28309">
        <ele>226.53</ele>
        <time>2020-05-23T10:03:56Z</time>
      </trkpt>
      <trkpt lat="43.92826" lon="2.28315">
        <ele>225.57</ele>
        <time>2020-05-23T10:04:03Z</time>
      </trkpt>
      <trkpt lat="43.92832" lon="2.28319">
        <ele>225.09</ele>
        <time>2020-05-23T10:04:09Z</time>
      </trkpt>
      <trkpt lat="43.92841" lon="2.28326">
        <ele>224.12</ele>
        <time>2020-05-23T10:04:17Z</time>
      </trkpt>
      <trkpt lat="43.92846" lon="2.2833">
        <ele>222.68</ele>
        <time>2020-05-23T10:04:24Z</time>
      </trkpt>
      <trkpt lat="43.92854" lon="2.28338">
        <ele>222.2</ele>
        <time>2020-05-23T10:04:32Z</time>
      </trkpt>
      <trkpt lat="43.92863" lon="2.28342">
        <ele>222.2</ele>
        <time>2020-05-23T10:04:38Z</time>
      </trkpt>
      <trkpt lat="43.92871" lon="2.28346">
        <ele>222.68</ele>
        <time>2020-05-23T10:04:45Z</time>
      </trkpt>
      <trkpt lat="43.92881" lon="2.28351">
        <ele>222.2</ele>
        <time>2020-05-23T10:04:52Z</time>
      </trkpt>
      <trkpt lat="43.92884" lon="2.28361">
        <ele>220.76</ele>
        <time>2020-05-23T10:05:01Z</time>
      </trkpt>
      <trkpt lat="43.92886" lon="2.2837">
        <ele>220.28</ele>
        <time>2020-05-23T10:05:09Z</time>
      </trkpt>
      <trkpt lat="43.92885" lon="2.28372">
        <ele>220.76</ele>
        <time>2020-05-23T10:05:10Z</time>
      </trkpt>
      <trkpt lat="43.92879" lon="2.28378">
        <ele>219.32</ele>
        <time>2020-05-23T10:05:17Z</time>
      </trkpt>
      <trkpt lat="43.92875" lon="2.28383">
        <ele>218.36</ele>
        <time>2020-05-23T10:05:24Z</time>
      </trkpt>
      <trkpt lat="43.92865" lon="2.28384">
        <ele>216.43</ele>
        <time>2020-05-23T10:05:33Z</time>
      </trkpt>
      <trkpt lat="43.92858" lon="2.28388">
        <ele>214.99</ele>
        <time>2020-05-23T10:05:41Z</time>
      </trkpt>
      <trkpt lat="43.92858" lon="2.28393">
        <ele>211.63</ele>
        <time>2020-05-23T10:05:46Z</time>
      </trkpt>
      <trkpt lat="43.9286" lon="2.28397">
        <ele>210.67</ele>
        <time>2020-05-23T10:05:51Z</time>
      </trkpt>
      <trkpt lat="43.92864" lon="2.28403">
        <ele>210.19</ele>
        <time>2020-05-23T10:05:59Z</time>
      </trkpt>
      <trkpt lat="43.92866" lon="2.28407">
        <ele>208.74</ele>
        <time>2020-05-23T10:06:06Z</time>
      </trkpt>
      <trkpt lat="43.92872" lon="2.2841">
        <ele>207.78</ele>
        <time>2020-05-23T10:06:13Z</time>
      </trkpt>
      <trkpt lat="43.92876" lon="2.28412">
        <ele>207.78</ele>
        <time>2020-05-23T10:06:16Z</time>
      </trkpt>
      <trkpt lat="43.92878" lon="2.28413">
        <ele>207.78</ele>
        <time>2020-05-23T10:06:17Z</time>
      </trkpt>
      <trkpt lat="43.92886" lon="2.28414">
        <ele>206.82</ele>
        <time>2020-05-23T10:06:23Z</time>
      </trkpt>
      <trkpt lat="43.92894" lon="2.28416">
        <ele>205.38</ele>
        <time>2020-05-23T10:06:30Z</time>
      </trkpt>
      <trkpt lat="43.92897" lon="2.28415">
        <ele>203.46</ele>
        <time>2020-05-23T10:06:35Z</time>
      </trkpt>
      <trkpt lat="43.92903" lon="2.28412">
        <ele>201.53</ele>
        <time>2020-05-23T10:06:41Z</time>
      </trkpt>
      <trkpt lat="43.92909" lon="2.28409">
        <ele>201.05</ele>
        <time>2020-05-23T10:06:47Z</time>
      </trkpt>
      <trkpt lat="43.92916" lon="2.28403">
        <ele>201.53</ele>
        <time>2020-05-23T10:06:54Z</time>
      </trkpt>
      <trkpt lat="43.9292" lon="2.284">
        <ele>202.49</ele>
        <time>2020-05-23T10:06:57Z</time>
      </trkpt>
      <trkpt lat="43.92923" lon="2.28396">
        <ele>203.46</ele>
        <time>2020-05-23T10:07:00Z</time>
      </trkpt>
      <trkpt lat="43.92932" lon="2.28391">
        <ele>204.42</ele>
        <time>2020-05-23T10:07:09Z</time>
      </trkpt>
      <trkpt lat="43.9294" lon="2.2839">
        <ele>203.94</ele>
        <time>2020-05-23T10:07:16Z</time>
      </trkpt>
      <trkpt lat="43.92946" lon="2.28392">
        <ele>203.94</ele>
        <time>2020-05-23T10:07:24Z</time>
      </trkpt>
      <trkpt lat="43.92952" lon="2.28393">
        <ele>203.94</ele>
        <time>2020-05-23T10:07:30Z</time>
      </trkpt>
      <trkpt lat="43.92956" lon="2.28396">
        <ele>205.86</ele>
        <time>2020-05-23T10:07:38Z</time>
      </trkpt>
      <trkpt lat="43.92957" lon="2.28397">
        <ele>205.86</ele>
        <time>2020-05-23T10:07:48Z</time>
      </trkpt>
      <trkpt lat="43.92956" lon="2.28405">
        <ele>207.78</ele>
        <time>2020-05-23T10:08:06Z</time>
      </trkpt>
      <trkpt lat="43.92953" lon="2.28405">
        <ele>209.7</ele>
        <time>2020-05-23T10:08:17Z</time>
      </trkpt>
      <trkpt lat="43.92949" lon="2.28407">
        <ele>209.22</ele>
        <time>2020-05-23T10:08:27Z</time>
      </trkpt>
      <trkpt lat="43.92946" lon="2.28409">
        <ele>208.26</ele>
        <time>2020-05-23T10:08:34Z</time>
      </trkpt>
      <trkpt lat="43.92943" lon="2.2841">
        <ele>206.82</ele>
        <time>2020-05-23T10:08:42Z</time>
      </trkpt>
      <trkpt lat="43.9294" lon="2.28413">
        <ele>204.42</ele>
        <time>2020-05-23T10:08:49Z</time>
      </trkpt>
      <trkpt lat="43.92935" lon="2.28418">
        <ele>202.49</ele>
        <time>2020-05-23T10:08:57Z</time>
      </trkpt>
      <trkpt lat="43.92932" lon="2.28423">
        <ele>199.61</ele>
        <time>2020-05-23T10:09:04Z</time>
      </trkpt>
      <trkpt lat="43.9293" lon="2.28427">
        <ele>197.69</ele>
        <time>2020-05-23T10:09:10Z</time>
      </trkpt>
      <trkpt lat="43.92929" lon="2.28434">
        <ele>198.17</ele>
        <time>2020-05-23T10:09:19Z</time>
      </trkpt>
      <trkpt lat="43.92928" lon="2.2844">
        <ele>198.65</ele>
        <time>2020-05-23T10:09:27Z</time>
      </trkpt>
      <trkpt lat="43.92924" lon="2.28446">
        <ele>197.69</ele>
        <time>2020-05-23T10:09:34Z</time>
      </trkpt>
      <trkpt lat="43.92923" lon="2.2845">
        <ele>197.21</ele>
        <time>2020-05-23T10:09:40Z</time>
      </trkpt>
      <trkpt lat="43.92918" lon="2.28456">
        <ele>195.28</ele>
        <time>2020-05-23T10:09:47Z</time>
      </trkpt>
      <trkpt lat="43.92914" lon="2.28461">
        <ele>193.84</ele>
        <time>2020-05-23T10:09:55Z</time>
      </trkpt>
      <trkpt lat="43.92909" lon="2.2847">
        <ele>192.4</ele>
        <time>2020-05-23T10:10:03Z</time>
      </trkpt>
      <trkpt lat="43.92907" lon="2.28478">
        <ele>192.4</ele>
        <time>2020-05-23T10:10:07Z</time>
      </trkpt>
      <trkpt lat="43.92907" lon="2.2848">
        <ele>192.4</ele>
        <time>2020-05-23T10:10:08Z</time>
      </trkpt>
      <trkpt lat="43.9291" lon="2.28493">
        <ele>193.36</ele>
        <time>2020-05-23T10:10:15Z</time>
      </trkpt>
      <trkpt lat="43.9292" lon="2.28515">
        <ele>194.8</ele>
        <time>2020-05-23T10:10:26Z</time>
      </trkpt>
      <trkpt lat="43.92925" lon="2.28535">
        <ele>195.28</ele>
        <time>2020-05-23T10:10:36Z</time>
      </trkpt>
      <trkpt lat="43.92929" lon="2.2855">
        <ele>193.84</ele>
        <time>2020-05-23T10:10:44Z</time>
      </trkpt>
      <trkpt lat="43.92929" lon="2.28552">
        <ele>193.84</ele>
        <time>2020-05-23T10:10:45Z</time>
      </trkpt>
      <trkpt lat="43.9293" lon="2.28553">
        <ele>193.36</ele>
        <time>2020-05-23T10:10:46Z</time>
      </trkpt>
      <trkpt lat="43.9293" lon="2.28555">
        <ele>193.36</ele>
        <time>2020-05-23T10:10:47Z</time>
      </trkpt>
      <trkpt lat="43.92931" lon="2.28556">
        <ele>192.88</ele>
        <time>2020-05-23T10:10:48Z</time>
      </trkpt>
      <trkpt lat="43.92932" lon="2.28558">
        <ele>192.4</ele>
        <time>2020-05-23T10:10:49Z</time>
      </trkpt>
      <trkpt lat="43.92933" lon="2.28559">
        <ele>191.92</ele>
        <time>2020-05-23T10:10:50Z</time>
      </trkpt>
      <trkpt lat="43.92934" lon="2.28559">
        <ele>191.44</ele>
        <time>2020-05-23T10:10:51Z</time>
      </trkpt>
      <trkpt lat="43.92936" lon="2.2856">
        <ele>190.96</ele>
        <time>2020-05-23T10:10:52Z</time>
      </trkpt>
      <trkpt lat="43.92942" lon="2.28564">
        <ele>188.56</ele>
        <time>2020-05-23T10:10:58Z</time>
      </trkpt>
      <trkpt lat="43.92944" lon="2.28564">
        <ele>188.08</ele>
        <time>2020-05-23T10:10:59Z</time>
      </trkpt>
      <trkpt lat="43.92951" lon="2.28564">
        <ele>184.23</ele>
        <time>2020-05-23T10:11:07Z</time>
      </trkpt>
      <trkpt lat="43.9296" lon="2.28562">
        <ele>184.23</ele>
        <time>2020-05-23T10:11:14Z</time>
      </trkpt>
      <trkpt lat="43.9297" lon="2.28567">
        <ele>185.67</ele>
        <time>2020-05-23T10:11:21Z</time>
      </trkpt>
      <trkpt lat="43.9298" lon="2.28577">
        <ele>188.08</ele>
        <time>2020-05-23T10:11:31Z</time>
      </trkpt>
      <trkpt lat="43.92982" lon="2.28585">
        <ele>189.04</ele>
        <time>2020-05-23T10:11:37Z</time>
      </trkpt>
      <trkpt lat="43.92982" lon="2.28586">
        <ele>189.04</ele>
        <time>2020-05-23T10:11:38Z</time>
      </trkpt>
      <trkpt lat="43.92982" lon="2.28588">
        <ele>188.56</ele>
        <time>2020-05-23T10:11:39Z</time>
      </trkpt>
      <trkpt lat="43.92984" lon="2.28595">
        <ele>188.08</ele>
        <time>2020-05-23T10:11:45Z</time>
      </trkpt>
      <trkpt lat="43.92981" lon="2.28608">
        <ele>186.63</ele>
        <time>2020-05-23T10:11:52Z</time>
      </trkpt>
      <trkpt lat="43.92979" lon="2.28622">
        <ele>186.15</ele>
        <time>2020-05-23T10:12:00Z</time>
      </trkpt>
      <trkpt lat="43.92977" lon="2.28636">
        <ele>185.19</ele>
        <time>2020-05-23T10:12:08Z</time>
      </trkpt>
      <trkpt lat="43.92986" lon="2.28646">
        <ele>184.23</ele>
        <time>2020-05-23T10:12:18Z</time>
      </trkpt>
      <trkpt lat="43.92993" lon="2.28653">
        <ele>182.31</ele>
        <time>2020-05-23T10:12:26Z</time>
      </trkpt>
      <trkpt lat="43.93002" lon="2.28663">
        <ele>180.87</ele>
        <time>2020-05-23T10:12:34Z</time>
      </trkpt>
      <trkpt lat="43.93009" lon="2.2867">
        <ele>181.35</ele>
        <time>2020-05-23T10:12:40Z</time>
      </trkpt>
      <trkpt lat="43.93019" lon="2.28682">
        <ele>180.87</ele>
        <time>2020-05-23T10:12:50Z</time>
      </trkpt>
      <trkpt lat="43.93025" lon="2.28695">
        <ele>178.94</ele>
        <time>2020-05-23T10:12:59Z</time>
      </trkpt>
      <trkpt lat="43.93028" lon="2.28701">
        <ele>177.98</ele>
        <time>2020-05-23T10:13:04Z</time>
      </trkpt>
      <trkpt lat="43.9303" lon="2.28702">
        <ele>177.5</ele>
        <time>2020-05-23T10:13:05Z</time>
      </trkpt>
      <trkpt lat="43.93031" lon="2.28703">
        <ele>177.5</ele>
        <time>2020-05-23T10:13:06Z</time>
      </trkpt>
      <trkpt lat="43.93032" lon="2.28703">
        <ele>177.02</ele>
        <time>2020-05-23T10:13:07Z</time>
      </trkpt>
      <trkpt lat="43.93033" lon="2.28704">
        <ele>177.02</ele>
        <time>2020-05-23T10:13:08Z</time>
      </trkpt>
      <trkpt lat="43.93045" lon="2.2871">
        <ele>177.02</ele>
        <time>2020-05-23T10:13:17Z</time>
      </trkpt>
      <trkpt lat="43.9305" lon="2.28721">
        <ele>176.06</ele>
        <time>2020-05-23T10:13:25Z</time>
      </trkpt>
      <trkpt lat="43.93054" lon="2.28737">
        <ele>177.98</ele>
        <time>2020-05-23T10:13:33Z</time>
      </trkpt>
      <trkpt lat="43.93057" lon="2.28754">
        <ele>177.98</ele>
        <time>2020-05-23T10:13:42Z</time>
      </trkpt>
      <trkpt lat="43.93061" lon="2.28771">
        <ele>177.98</ele>
        <time>2020-05-23T10:13:52Z</time>
      </trkpt>
      <trkpt lat="43.93067" lon="2.28784">
        <ele>177.98</ele>
        <time>2020-05-23T10:14:00Z</time>
      </trkpt>
      <trkpt lat="43.93075" lon="2.28797">
        <ele>177.98</ele>
        <time>2020-05-23T10:14:09Z</time>
      </trkpt>
      <trkpt lat="43.93082" lon="2.28811">
        <ele>177.98</ele>
        <time>2020-05-23T10:14:18Z</time>
      </trkpt>
      <trkpt lat="43.93089" lon="2.28826">
        <ele>177.98</ele>
        <time>2020-05-23T10:14:27Z</time>
      </trkpt>
      <trkpt lat="43.93096" lon="2.28839">
        <ele>177.98</ele>
        <time>2020-05-23T10:14:35Z</time>
      </trkpt>
      <trkpt lat="43.93098" lon="2.28843">
        <ele>177.98</ele>
        <time>2020-05-23T10:14:37Z</time>
      </trkpt>
      <trkpt lat="43.93099" lon="2.28845">
        <ele>178.46</ele>
        <time>2020-05-23T10:14:38Z</time>
      </trkpt>
      <trkpt lat="43.93108" lon="2.28862">
        <ele>178.94</ele>
        <time>2020-05-23T10:14:48Z</time>
      </trkpt>
      <trkpt lat="43.93112" lon="2.2887">
        <ele>179.42</ele>
        <time>2020-05-23T10:14:53Z</time>
      </trkpt>
      <trkpt lat="43.93113" lon="2.28872">
        <ele>179.42</ele>
        <time>2020-05-23T10:14:54Z</time>
      </trkpt>
      <trkpt lat="43.93114" lon="2.28874">
        <ele>179.42</ele>
        <time>2020-05-23T10:14:55Z</time>
      </trkpt>
      <trkpt lat="43.93122" lon="2.28888">
        <ele>177.02</ele>
        <time>2020-05-23T10:15:05Z</time>
      </trkpt>
      <trkpt lat="43.93132" lon="2.28902">
        <ele>176.54</ele>
        <time>2020-05-23T10:15:15Z</time>
      </trkpt>
      <trkpt lat="43.93141" lon="2.28906">
        <ele>177.02</ele>
        <time>2020-05-23T10:15:24Z</time>
      </trkpt>
      <trkpt lat="43.93143" lon="2.28904">
        <ele>178.46</ele>
        <time>2020-05-23T10:15:33Z</time>
      </trkpt>
      <trkpt lat="43.93145" lon="2.28904">
        <ele>180.38</ele>
        <time>2020-05-23T10:15:53Z</time>
      </trkpt>
      <trkpt lat="43.93144" lon="2.28906">
        <ele>181.35</ele>
        <time>2020-05-23T10:16:03Z</time>
      </trkpt>
      <trkpt lat="43.93144" lon="2.2891">
        <ele>181.35</ele>
        <time>2020-05-23T10:16:13Z</time>
      </trkpt>
      <trkpt lat="43.93146" lon="2.28913">
        <ele>181.83</ele>
        <time>2020-05-23T10:16:19Z</time>
      </trkpt>
      <trkpt lat="43.93148" lon="2.28914">
        <ele>182.79</ele>
        <time>2020-05-23T10:16:26Z</time>
      </trkpt>
      <trkpt lat="43.93152" lon="2.28916">
        <ele>184.23</ele>
        <time>2020-05-23T10:16:37Z</time>
      </trkpt>
      <trkpt lat="43.93161" lon="2.28923">
        <ele>184.71</ele>
        <time>2020-05-23T10:16:45Z</time>
      </trkpt>
      <trkpt lat="43.9317" lon="2.28931">
        <ele>184.71</ele>
        <time>2020-05-23T10:16:54Z</time>
      </trkpt>
      <trkpt lat="43.93179" lon="2.2894">
        <ele>184.23</ele>
        <time>2020-05-23T10:17:03Z</time>
      </trkpt>
      <trkpt lat="43.93193" lon="2.28952">
        <ele>185.19</ele>
        <time>2020-05-23T10:17:16Z</time>
      </trkpt>
      <trkpt lat="43.93202" lon="2.28957">
        <ele>185.67</ele>
        <time>2020-05-23T10:17:24Z</time>
      </trkpt>
      <trkpt lat="43.93203" lon="2.28959">
        <ele>186.15</ele>
        <time>2020-05-23T10:17:27Z</time>
      </trkpt>
      <trkpt lat="43.93204" lon="2.2896">
        <ele>186.15</ele>
        <time>2020-05-23T10:17:28Z</time>
      </trkpt>
      <trkpt lat="43.9321" lon="2.28966">
        <ele>186.63</ele>
        <time>2020-05-23T10:17:35Z</time>
      </trkpt>
      <trkpt lat="43.9322" lon="2.28974">
        <ele>186.63</ele>
        <time>2020-05-23T10:17:43Z</time>
      </trkpt>
      <trkpt lat="43.93232" lon="2.28985">
        <ele>186.15</ele>
        <time>2020-05-23T10:17:54Z</time>
      </trkpt>
      <trkpt lat="43.93244" lon="2.28994">
        <ele>185.19</ele>
        <time>2020-05-23T10:18:04Z</time>
      </trkpt>
      <trkpt lat="43.93254" lon="2.29002">
        <ele>184.71</ele>
        <time>2020-05-23T10:18:13Z</time>
      </trkpt>
      <trkpt lat="43.93264" lon="2.29012">
        <ele>184.71</ele>
        <time>2020-05-23T10:18:22Z</time>
      </trkpt>
      <trkpt lat="43.93274" lon="2.29022">
        <ele>184.23</ele>
        <time>2020-05-23T10:18:31Z</time>
      </trkpt>
      <trkpt lat="43.93284" lon="2.2903">
        <ele>184.23</ele>
        <time>2020-05-23T10:18:41Z</time>
      </trkpt>
      <trkpt lat="43.93295" lon="2.29039">
        <ele>183.75</ele>
        <time>2020-05-23T10:18:50Z</time>
      </trkpt>
      <trkpt lat="43.93306" lon="2.29048">
        <ele>182.31</ele>
        <time>2020-05-23T10:18:59Z</time>
      </trkpt>
      <trkpt lat="43.93314" lon="2.29055">
        <ele>182.31</ele>
        <time>2020-05-23T10:19:08Z</time>
      </trkpt>
      <trkpt lat="43.93322" lon="2.29064">
        <ele>183.27</ele>
        <time>2020-05-23T10:19:16Z</time>
      </trkpt>
      <trkpt lat="43.93335" lon="2.29074">
        <ele>183.27</ele>
        <time>2020-05-23T10:19:26Z</time>
      </trkpt>
      <trkpt lat="43.93347" lon="2.29083">
        <ele>183.75</ele>
        <time>2020-05-23T10:19:36Z</time>
      </trkpt>
      <trkpt lat="43.93363" lon="2.29091">
        <ele>185.19</ele>
        <time>2020-05-23T10:19:47Z</time>
      </trkpt>
      <trkpt lat="43.93373" lon="2.29095">
        <ele>185.67</ele>
        <time>2020-05-23T10:19:55Z</time>
      </trkpt>
      <trkpt lat="43.93384" lon="2.29099">
        <ele>187.11</ele>
        <time>2020-05-23T10:20:02Z</time>
      </trkpt>
      <trkpt lat="43.93398" lon="2.29102">
        <ele>187.11</ele>
        <time>2020-05-23T10:20:11Z</time>
      </trkpt>
      <trkpt lat="43.93413" lon="2.29108">
        <ele>187.11</ele>
        <time>2020-05-23T10:20:21Z</time>
      </trkpt>
      <trkpt lat="43.93428" lon="2.2912">
        <ele>187.59</ele>
        <time>2020-05-23T10:20:33Z</time>
      </trkpt>
      <trkpt lat="43.93437" lon="2.29131">
        <ele>187.11</ele>
        <time>2020-05-23T10:20:42Z</time>
      </trkpt>
      <trkpt lat="43.93447" lon="2.29144">
        <ele>187.59</ele>
        <time>2020-05-23T10:20:51Z</time>
      </trkpt>
      <trkpt lat="43.9346" lon="2.29157">
        <ele>187.59</ele>
        <time>2020-05-23T10:21:03Z</time>
      </trkpt>
      <trkpt lat="43.93472" lon="2.29167">
        <ele>188.08</ele>
        <time>2020-05-23T10:21:13Z</time>
      </trkpt>
      <trkpt lat="43.93484" lon="2.29172">
        <ele>188.56</ele>
        <time>2020-05-23T10:21:22Z</time>
      </trkpt>
      <trkpt lat="43.93496" lon="2.29176">
        <ele>188.56</ele>
        <time>2020-05-23T10:21:30Z</time>
      </trkpt>
      <trkpt lat="43.93511" lon="2.29182">
        <ele>188.08</ele>
        <time>2020-05-23T10:21:42Z</time>
      </trkpt>
      <trkpt lat="43.93524" lon="2.29185">
        <ele>188.08</ele>
        <time>2020-05-23T10:21:51Z</time>
      </trkpt>
      <trkpt lat="43.93538" lon="2.29189">
        <ele>189.52</ele>
        <time>2020-05-23T10:22:01Z</time>
      </trkpt>
      <trkpt lat="43.9355" lon="2.29192">
        <ele>189.04</ele>
        <time>2020-05-23T10:22:10Z</time>
      </trkpt>
      <trkpt lat="43.93565" lon="2.29196">
        <ele>189.52</ele>
        <time>2020-05-23T10:22:21Z</time>
      </trkpt>
      <trkpt lat="43.93579" lon="2.292">
        <ele>189.52</ele>
        <time>2020-05-23T10:22:32Z</time>
      </trkpt>
      <trkpt lat="43.93592" lon="2.29203">
        <ele>189.52</ele>
        <time>2020-05-23T10:22:42Z</time>
      </trkpt>
      <trkpt lat="43.9361" lon="2.29206">
        <ele>190.48</ele>
        <time>2020-05-23T10:22:55Z</time>
      </trkpt>
      <trkpt lat="43.93622" lon="2.2921">
        <ele>190</ele>
        <time>2020-05-23T10:23:05Z</time>
      </trkpt>
      <trkpt lat="43.93634" lon="2.29215">
        <ele>189.52</ele>
        <time>2020-05-23T10:23:15Z</time>
      </trkpt>
      <trkpt lat="43.93644" lon="2.29219">
        <ele>190.48</ele>
        <time>2020-05-23T10:23:23Z</time>
      </trkpt>
      <trkpt lat="43.93659" lon="2.29222">
        <ele>189.52</ele>
        <time>2020-05-23T10:23:33Z</time>
      </trkpt>
      <trkpt lat="43.9367" lon="2.29224">
        <ele>189.52</ele>
        <time>2020-05-23T10:23:41Z</time>
      </trkpt>
      <trkpt lat="43.9368" lon="2.29227">
        <ele>189.52</ele>
        <time>2020-05-23T10:23:49Z</time>
      </trkpt>
      <trkpt lat="43.93683" lon="2.29228">
        <ele>189.52</ele>
        <time>2020-05-23T10:23:51Z</time>
      </trkpt>
      <trkpt lat="43.93697" lon="2.29235">
        <ele>190.48</ele>
        <time>2020-05-23T10:24:00Z</time>
      </trkpt>
      <trkpt lat="43.93707" lon="2.29239">
        <ele>190.48</ele>
        <time>2020-05-23T10:24:08Z</time>
      </trkpt>
      <trkpt lat="43.93719" lon="2.29244">
        <ele>189.52</ele>
        <time>2020-05-23T10:24:17Z</time>
      </trkpt>
      <trkpt lat="43.93725" lon="2.29249">
        <ele>189.52</ele>
        <time>2020-05-23T10:24:22Z</time>
      </trkpt>
      <trkpt lat="43.93729" lon="2.29251">
        <ele>188.56</ele>
        <time>2020-05-23T10:24:26Z</time>
      </trkpt>
      <trkpt lat="43.93731" lon="2.29251">
        <ele>188.08</ele>
        <time>2020-05-23T10:24:27Z</time>
      </trkpt>
      <trkpt lat="43.93738" lon="2.29256">
        <ele>186.63</ele>
        <time>2020-05-23T10:24:35Z</time>
      </trkpt>
      <trkpt lat="43.93745" lon="2.29264">
        <ele>184.23</ele>
        <time>2020-05-23T10:24:44Z</time>
      </trkpt>
      <trkpt lat="43.93755" lon="2.29271">
        <ele>182.31</ele>
        <time>2020-05-23T10:24:54Z</time>
      </trkpt>
      <trkpt lat="43.93765" lon="2.29278">
        <ele>180.87</ele>
        <time>2020-05-23T10:25:03Z</time>
      </trkpt>
      <trkpt lat="43.93777" lon="2.29282">
        <ele>180.87</ele>
        <time>2020-05-23T10:25:13Z</time>
      </trkpt>
      <trkpt lat="43.93786" lon="2.29288">
        <ele>181.83</ele>
        <time>2020-05-23T10:25:21Z</time>
      </trkpt>
      <trkpt lat="43.93796" lon="2.2929">
        <ele>184.23</ele>
        <time>2020-05-23T10:25:26Z</time>
      </trkpt>
      <trkpt lat="43.9381" lon="2.29295">
        <ele>187.11</ele>
        <time>2020-05-23T10:25:35Z</time>
      </trkpt>
      <trkpt lat="43.93821" lon="2.29299">
        <ele>188.56</ele>
        <time>2020-05-23T10:25:43Z</time>
      </trkpt>
      <trkpt lat="43.9383" lon="2.29304">
        <ele>187.59</ele>
        <time>2020-05-23T10:25:53Z</time>
      </trkpt>
      <trkpt lat="43.93843" lon="2.2931">
        <ele>190.48</ele>
        <time>2020-05-23T10:26:01Z</time>
      </trkpt>
      <trkpt lat="43.93855" lon="2.29315">
        <ele>193.36</ele>
        <time>2020-05-23T10:26:10Z</time>
      </trkpt>
      <trkpt lat="43.93863" lon="2.2932">
        <ele>194.32</ele>
        <time>2020-05-23T10:26:18Z</time>
      </trkpt>
      <trkpt lat="43.93875" lon="2.29325">
        <ele>195.77</ele>
        <time>2020-05-23T10:26:27Z</time>
      </trkpt>
      <trkpt lat="43.93887" lon="2.2933">
        <ele>196.73</ele>
        <time>2020-05-23T10:26:35Z</time>
      </trkpt>
      <trkpt lat="43.939" lon="2.29333">
        <ele>197.21</ele>
        <time>2020-05-23T10:26:45Z</time>
      </trkpt>
      <trkpt lat="43.9391" lon="2.29338">
        <ele>194.32</ele>
        <time>2020-05-23T10:26:55Z</time>
      </trkpt>
      <trkpt lat="43.93924" lon="2.29345">
        <ele>192.88</ele>
        <time>2020-05-23T10:27:05Z</time>
      </trkpt>
      <trkpt lat="43.93936" lon="2.29351">
        <ele>193.84</ele>
        <time>2020-05-23T10:27:12Z</time>
      </trkpt>
      <trkpt lat="43.93947" lon="2.29361">
        <ele>194.32</ele>
        <time>2020-05-23T10:27:22Z</time>
      </trkpt>
      <trkpt lat="43.93949" lon="2.29363">
        <ele>194.8</ele>
        <time>2020-05-23T10:27:24Z</time>
      </trkpt>
      <trkpt lat="43.9395" lon="2.29364">
        <ele>195.28</ele>
        <time>2020-05-23T10:27:25Z</time>
      </trkpt>
      <trkpt lat="43.93961" lon="2.29373">
        <ele>199.61</ele>
        <time>2020-05-23T10:27:33Z</time>
      </trkpt>
      <trkpt lat="43.9397" lon="2.29382">
        <ele>202.01</ele>
        <time>2020-05-23T10:27:42Z</time>
      </trkpt>
      <trkpt lat="43.93975" lon="2.29388">
        <ele>203.94</ele>
        <time>2020-05-23T10:27:48Z</time>
      </trkpt>
      <trkpt lat="43.93974" lon="2.29393">
        <ele>205.38</ele>
        <time>2020-05-23T10:27:52Z</time>
      </trkpt>
      <trkpt lat="43.9397" lon="2.29397">
        <ele>207.3</ele>
        <time>2020-05-23T10:27:59Z</time>
      </trkpt>
      <trkpt lat="43.93967" lon="2.29397">
        <ele>207.78</ele>
        <time>2020-05-23T10:28:03Z</time>
      </trkpt>
      <trkpt lat="43.9396" lon="2.29397">
        <ele>209.7</ele>
        <time>2020-05-23T10:28:11Z</time>
      </trkpt>
      <trkpt lat="43.93958" lon="2.29398">
        <ele>210.19</ele>
        <time>2020-05-23T10:28:13Z</time>
      </trkpt>
      <trkpt lat="43.93953" lon="2.29401">
        <ele>211.63</ele>
        <time>2020-05-23T10:28:20Z</time>
      </trkpt>
      <trkpt lat="43.93945" lon="2.29399">
        <ele>213.07</ele>
        <time>2020-05-23T10:28:29Z</time>
      </trkpt>
      <trkpt lat="43.93938" lon="2.294">
        <ele>214.03</ele>
        <time>2020-05-23T10:28:35Z</time>
      </trkpt>
      <trkpt lat="43.93936" lon="2.294">
        <ele>214.03</ele>
        <time>2020-05-23T10:28:36Z</time>
      </trkpt>
      <trkpt lat="43.93928" lon="2.29399">
        <ele>214.03</ele>
        <time>2020-05-23T10:28:44Z</time>
      </trkpt>
      <trkpt lat="43.93916" lon="2.29397">
        <ele>214.03</ele>
        <time>2020-05-23T10:28:54Z</time>
      </trkpt>
      <trkpt lat="43.93905" lon="2.29396">
        <ele>214.03</ele>
        <time>2020-05-23T10:29:03Z</time>
      </trkpt>
      <trkpt lat="43.93894" lon="2.29398">
        <ele>212.11</ele>
        <time>2020-05-23T10:29:12Z</time>
      </trkpt>
      <trkpt lat="43.93883" lon="2.29398">
        <ele>213.07</ele>
        <time>2020-05-23T10:29:21Z</time>
      </trkpt>
      <trkpt lat="43.93876" lon="2.29397">
        <ele>215.47</ele>
        <time>2020-05-23T10:29:27Z</time>
      </trkpt>
      <trkpt lat="43.93869" lon="2.29397">
        <ele>216.43</ele>
        <time>2020-05-23T10:29:33Z</time>
      </trkpt>
      <trkpt lat="43.93861" lon="2.29397">
        <ele>217.88</ele>
        <time>2020-05-23T10:29:40Z</time>
      </trkpt>
      <trkpt lat="43.93857" lon="2.29399">
        <ele>220.28</ele>
        <time>2020-05-23T10:29:46Z</time>
      </trkpt>
      <trkpt lat="43.93855" lon="2.29396">
        <ele>222.2</ele>
        <time>2020-05-23T10:29:51Z</time>
      </trkpt>
      <trkpt lat="43.93853" lon="2.29395">
        <ele>222.68</ele>
        <time>2020-05-23T10:29:52Z</time>
      </trkpt>
      <trkpt lat="43.93852" lon="2.29395">
        <ele>223.16</ele>
        <time>2020-05-23T10:29:53Z</time>
      </trkpt>
      <trkpt lat="43.93844" lon="2.29396">
        <ele>225.57</ele>
        <time>2020-05-23T10:30:00Z</time>
      </trkpt>
      <trkpt lat="43.93842" lon="2.29395">
        <ele>225.57</ele>
        <time>2020-05-23T10:30:01Z</time>
      </trkpt>
      <trkpt lat="43.93836" lon="2.29397">
        <ele>227.01</ele>
        <time>2020-05-23T10:30:08Z</time>
      </trkpt>
      <trkpt lat="43.93827" lon="2.294">
        <ele>227.97</ele>
        <time>2020-05-23T10:30:16Z</time>
      </trkpt>
      <trkpt lat="43.93817" lon="2.29404">
        <ele>229.89</ele>
        <time>2020-05-23T10:30:25Z</time>
      </trkpt>
      <trkpt lat="43.93811" lon="2.29406">
        <ele>230.85</ele>
        <time>2020-05-23T10:30:33Z</time>
      </trkpt>
      <trkpt lat="43.93803" lon="2.2941">
        <ele>231.33</ele>
        <time>2020-05-23T10:30:42Z</time>
      </trkpt>
      <trkpt lat="43.93796" lon="2.29413">
        <ele>231.81</ele>
        <time>2020-05-23T10:30:50Z</time>
      </trkpt>
      <trkpt lat="43.93787" lon="2.29416">
        <ele>231.81</ele>
        <time>2020-05-23T10:30:59Z</time>
      </trkpt>
      <trkpt lat="43.93779" lon="2.29421">
        <ele>230.85</ele>
        <time>2020-05-23T10:31:06Z</time>
      </trkpt>
      <trkpt lat="43.93772" lon="2.29423">
        <ele>230.37</ele>
        <time>2020-05-23T10:31:14Z</time>
      </trkpt>
      <trkpt lat="43.93763" lon="2.29427">
        <ele>232.3</ele>
        <time>2020-05-23T10:31:22Z</time>
      </trkpt>
      <trkpt lat="43.93755" lon="2.29434">
        <ele>233.26</ele>
        <time>2020-05-23T10:31:31Z</time>
      </trkpt>
      <trkpt lat="43.93745" lon="2.2944">
        <ele>236.14</ele>
        <time>2020-05-23T10:31:39Z</time>
      </trkpt>
      <trkpt lat="43.93732" lon="2.29447">
        <ele>238.06</ele>
        <time>2020-05-23T10:31:50Z</time>
      </trkpt>
      <trkpt lat="43.93724" lon="2.29452">
        <ele>238.06</ele>
        <time>2020-05-23T10:31:59Z</time>
      </trkpt>
      <trkpt lat="43.93715" lon="2.29458">
        <ele>238.06</ele>
        <time>2020-05-23T10:32:09Z</time>
      </trkpt>
      <trkpt lat="43.93705" lon="2.29461">
        <ele>240.47</ele>
        <time>2020-05-23T10:32:18Z</time>
      </trkpt>
      <trkpt lat="43.93693" lon="2.2947">
        <ele>243.83</ele>
        <time>2020-05-23T10:32:27Z</time>
      </trkpt>
      <trkpt lat="43.93684" lon="2.29476">
        <ele>245.75</ele>
        <time>2020-05-23T10:32:36Z</time>
      </trkpt>
      <trkpt lat="43.93674" lon="2.29481">
        <ele>249.12</ele>
        <time>2020-05-23T10:32:45Z</time>
      </trkpt>
      <trkpt lat="43.93664" lon="2.29489">
        <ele>251.52</ele>
        <time>2020-05-23T10:32:56Z</time>
      </trkpt>
      <trkpt lat="43.93657" lon="2.29496">
        <ele>252.48</ele>
        <time>2020-05-23T10:33:05Z</time>
      </trkpt>
      <trkpt lat="43.93651" lon="2.29502">
        <ele>254.41</ele>
        <time>2020-05-23T10:33:13Z</time>
      </trkpt>
      <trkpt lat="43.93646" lon="2.29508">
        <ele>254.41</ele>
        <time>2020-05-23T10:33:22Z</time>
      </trkpt>
      <trkpt lat="43.93642" lon="2.29516">
        <ele>254.89</ele>
        <time>2020-05-23T10:33:31Z</time>
      </trkpt>
      <trkpt lat="43.93635" lon="2.29528">
        <ele>255.85</ele>
        <time>2020-05-23T10:33:40Z</time>
      </trkpt>
      <trkpt lat="43.93625" lon="2.29538">
        <ele>259.21</ele>
        <time>2020-05-23T10:33:50Z</time>
      </trkpt>
      <trkpt lat="43.93614" lon="2.29542">
        <ele>261.62</ele>
        <time>2020-05-23T10:33:58Z</time>
      </trkpt>
      <trkpt lat="43.93606" lon="2.29544">
        <ele>262.58</ele>
        <time>2020-05-23T10:34:06Z</time>
      </trkpt>
      <trkpt lat="43.93595" lon="2.29547">
        <ele>263.06</ele>
        <time>2020-05-23T10:34:16Z</time>
      </trkpt>
      <trkpt lat="43.93586" lon="2.29548">
        <ele>264.02</ele>
        <time>2020-05-23T10:34:24Z</time>
      </trkpt>
      <trkpt lat="43.93577" lon="2.29547">
        <ele>267.38</ele>
        <time>2020-05-23T10:34:33Z</time>
      </trkpt>
      <trkpt lat="43.93565" lon="2.29545">
        <ele>270.75</ele>
        <time>2020-05-23T10:34:44Z</time>
      </trkpt>
      <trkpt lat="43.93555" lon="2.29546">
        <ele>271.71</ele>
        <time>2020-05-23T10:34:54Z</time>
      </trkpt>
      <trkpt lat="43.93547" lon="2.29549">
        <ele>273.15</ele>
        <time>2020-05-23T10:35:03Z</time>
      </trkpt>
      <trkpt lat="43.93535" lon="2.29553">
        <ele>272.19</ele>
        <time>2020-05-23T10:35:13Z</time>
      </trkpt>
      <trkpt lat="43.93524" lon="2.29559">
        <ele>270.27</ele>
        <time>2020-05-23T10:35:23Z</time>
      </trkpt>
      <trkpt lat="43.93517" lon="2.29563">
        <ele>269.31</ele>
        <time>2020-05-23T10:35:30Z</time>
      </trkpt>
      <trkpt lat="43.93513" lon="2.29565">
        <ele>268.83</ele>
        <time>2020-05-23T10:35:34Z</time>
      </trkpt>
      <trkpt lat="43.935" lon="2.29568">
        <ele>271.23</ele>
        <time>2020-05-23T10:35:42Z</time>
      </trkpt>
      <trkpt lat="43.93495" lon="2.29568">
        <ele>273.15</ele>
        <time>2020-05-23T10:35:45Z</time>
      </trkpt>
      <trkpt lat="43.93493" lon="2.29569">
        <ele>273.15</ele>
        <time>2020-05-23T10:35:46Z</time>
      </trkpt>
      <trkpt lat="43.93492" lon="2.29569">
        <ele>273.63</ele>
        <time>2020-05-23T10:35:47Z</time>
      </trkpt>
      <trkpt lat="43.93481" lon="2.29577">
        <ele>276.04</ele>
        <time>2020-05-23T10:35:57Z</time>
      </trkpt>
      <trkpt lat="43.93474" lon="2.29584">
        <ele>276.52</ele>
        <time>2020-05-23T10:36:05Z</time>
      </trkpt>
      <trkpt lat="43.93468" lon="2.29586">
        <ele>278.44</ele>
        <time>2020-05-23T10:36:10Z</time>
      </trkpt>
      <trkpt lat="43.9346" lon="2.2959">
        <ele>280.36</ele>
        <time>2020-05-23T10:36:19Z</time>
      </trkpt>
      <trkpt lat="43.93457" lon="2.29592">
        <ele>282.28</ele>
        <time>2020-05-23T10:36:27Z</time>
      </trkpt>
      <trkpt lat="43.93452" lon="2.29595">
        <ele>282.77</ele>
        <time>2020-05-23T10:36:39Z</time>
      </trkpt>
      <trkpt lat="43.9345" lon="2.29595">
        <ele>282.28</ele>
        <time>2020-05-23T10:36:46Z</time>
      </trkpt>
      <trkpt lat="43.93446" lon="2.29598">
        <ele>283.25</ele>
        <time>2020-05-23T10:36:55Z</time>
      </trkpt>
      <trkpt lat="43.93436" lon="2.29605">
        <ele>281.8</ele>
        <time>2020-05-23T10:37:04Z</time>
      </trkpt>
      <trkpt lat="43.93423" lon="2.29609">
        <ele>279.88</ele>
        <time>2020-05-23T10:37:13Z</time>
      </trkpt>
      <trkpt lat="43.93409" lon="2.29613">
        <ele>279.88</ele>
        <time>2020-05-23T10:37:22Z</time>
      </trkpt>
      <trkpt lat="43.93396" lon="2.29618">
        <ele>279.88</ele>
        <time>2020-05-23T10:37:30Z</time>
      </trkpt>
      <trkpt lat="43.93382" lon="2.29623">
        <ele>280.36</ele>
        <time>2020-05-23T10:37:40Z</time>
      </trkpt>
      <trkpt lat="43.93373" lon="2.29627">
        <ele>280.36</ele>
        <time>2020-05-23T10:37:49Z</time>
      </trkpt>
      <trkpt lat="43.9336" lon="2.29626">
        <ele>279.88</ele>
        <time>2020-05-23T10:37:58Z</time>
      </trkpt>
      <trkpt lat="43.93346" lon="2.29625">
        <ele>282.77</ele>
        <time>2020-05-23T10:38:08Z</time>
      </trkpt>
      <trkpt lat="43.93335" lon="2.29621">
        <ele>286.13</ele>
        <time>2020-05-23T10:38:16Z</time>
      </trkpt>
      <trkpt lat="43.93334" lon="2.29621">
        <ele>286.61</ele>
        <time>2020-05-23T10:38:17Z</time>
      </trkpt>
      <trkpt lat="43.93332" lon="2.29621">
        <ele>286.61</ele>
        <time>2020-05-23T10:38:18Z</time>
      </trkpt>
      <trkpt lat="43.93331" lon="2.29621">
        <ele>287.09</ele>
        <time>2020-05-23T10:38:19Z</time>
      </trkpt>
      <trkpt lat="43.9333" lon="2.29621">
        <ele>287.57</ele>
        <time>2020-05-23T10:38:20Z</time>
      </trkpt>
      <trkpt lat="43.93328" lon="2.29621">
        <ele>287.57</ele>
        <time>2020-05-23T10:38:21Z</time>
      </trkpt>
      <trkpt lat="43.93318" lon="2.29619">
        <ele>289.49</ele>
        <time>2020-05-23T10:38:30Z</time>
      </trkpt>
      <trkpt lat="43.9331" lon="2.2962">
        <ele>291.42</ele>
        <time>2020-05-23T10:38:39Z</time>
      </trkpt>
      <trkpt lat="43.93298" lon="2.29621">
        <ele>289.97</ele>
        <time>2020-05-23T10:38:50Z</time>
      </trkpt>
      <trkpt lat="43.93286" lon="2.29618">
        <ele>288.53</ele>
        <time>2020-05-23T10:39:00Z</time>
      </trkpt>
      <trkpt lat="43.93278" lon="2.29616">
        <ele>287.09</ele>
        <time>2020-05-23T10:39:08Z</time>
      </trkpt>
      <trkpt lat="43.93267" lon="2.2961">
        <ele>285.65</ele>
        <time>2020-05-23T10:39:17Z</time>
      </trkpt>
      <trkpt lat="43.93254" lon="2.29603">
        <ele>284.21</ele>
        <time>2020-05-23T10:39:29Z</time>
      </trkpt>
      <trkpt lat="43.93243" lon="2.29597">
        <ele>285.17</ele>
        <time>2020-05-23T10:39:40Z</time>
      </trkpt>
      <trkpt lat="43.93239" lon="2.29601">
        <ele>289.97</ele>
        <time>2020-05-23T10:39:48Z</time>
      </trkpt>
      <trkpt lat="43.93236" lon="2.29613">
        <ele>292.38</ele>
        <time>2020-05-23T10:39:58Z</time>
      </trkpt>
      <trkpt lat="43.93235" lon="2.29621">
        <ele>295.74</ele>
        <time>2020-05-23T10:40:04Z</time>
      </trkpt>
      <trkpt lat="43.93235" lon="2.29623">
        <ele>295.74</ele>
        <time>2020-05-23T10:40:05Z</time>
      </trkpt>
      <trkpt lat="43.93231" lon="2.29635">
        <ele>297.67</ele>
        <time>2020-05-23T10:40:13Z</time>
      </trkpt>
      <trkpt lat="43.93224" lon="2.29637">
        <ele>298.63</ele>
        <time>2020-05-23T10:40:22Z</time>
      </trkpt>
      <trkpt lat="43.93215" lon="2.29632">
        <ele>299.11</ele>
        <time>2020-05-23T10:40:33Z</time>
      </trkpt>
      <trkpt lat="43.93205" lon="2.29622">
        <ele>301.03</ele>
        <time>2020-05-23T10:40:43Z</time>
      </trkpt>
      <trkpt lat="43.93198" lon="2.29615">
        <ele>302.47</ele>
        <time>2020-05-23T10:40:51Z</time>
      </trkpt>
      <trkpt lat="43.93198" lon="2.29614">
        <ele>302.47</ele>
        <time>2020-05-23T10:40:52Z</time>
      </trkpt>
      <trkpt lat="43.93192" lon="2.29611">
        <ele>302.95</ele>
        <time>2020-05-23T10:40:58Z</time>
      </trkpt>
      <trkpt lat="43.93185" lon="2.29608">
        <ele>302.47</ele>
        <time>2020-05-23T10:41:05Z</time>
      </trkpt>
      <trkpt lat="43.93175" lon="2.29605">
        <ele>303.43</ele>
        <time>2020-05-23T10:41:14Z</time>
      </trkpt>
      <trkpt lat="43.93164" lon="2.29602">
        <ele>306.32</ele>
        <time>2020-05-23T10:41:23Z</time>
      </trkpt>
      <trkpt lat="43.93163" lon="2.29602">
        <ele>306.32</ele>
        <time>2020-05-23T10:41:24Z</time>
      </trkpt>
      <trkpt lat="43.93152" lon="2.29601">
        <ele>308.72</ele>
        <time>2020-05-23T10:41:34Z</time>
      </trkpt>
      <trkpt lat="43.93146" lon="2.29609">
        <ele>313.05</ele>
        <time>2020-05-23T10:41:43Z</time>
      </trkpt>
      <trkpt lat="43.93145" lon="2.2961">
        <ele>313.53</ele>
        <time>2020-05-23T10:41:44Z</time>
      </trkpt>
      <trkpt lat="43.9314" lon="2.2962">
        <ele>316.41</ele>
        <time>2020-05-23T10:41:53Z</time>
      </trkpt>
      <trkpt lat="43.93133" lon="2.29631">
        <ele>318.33</ele>
        <time>2020-05-23T10:42:02Z</time>
      </trkpt>
      <trkpt lat="43.93127" lon="2.29639">
        <ele>318.81</ele>
        <time>2020-05-23T10:42:10Z</time>
      </trkpt>
      <trkpt lat="43.93117" lon="2.29648">
        <ele>319.3</ele>
        <time>2020-05-23T10:42:21Z</time>
      </trkpt>
      <trkpt lat="43.93108" lon="2.29658">
        <ele>318.33</ele>
        <time>2020-05-23T10:42:32Z</time>
      </trkpt>
      <trkpt lat="43.931" lon="2.29665">
        <ele>318.33</ele>
        <time>2020-05-23T10:42:41Z</time>
      </trkpt>
      <trkpt lat="43.93091" lon="2.29675">
        <ele>319.3</ele>
        <time>2020-05-23T10:42:49Z</time>
      </trkpt>
      <trkpt lat="43.9308" lon="2.29683">
        <ele>322.66</ele>
        <time>2020-05-23T10:42:58Z</time>
      </trkpt>
      <trkpt lat="43.93068" lon="2.2969">
        <ele>327.95</ele>
        <time>2020-05-23T10:43:09Z</time>
      </trkpt>
      <trkpt lat="43.93063" lon="2.29694">
        <ele>328.91</ele>
        <time>2020-05-23T10:43:16Z</time>
      </trkpt>
      <trkpt lat="43.93056" lon="2.29698">
        <ele>329.39</ele>
        <time>2020-05-23T10:43:24Z</time>
      </trkpt>
      <trkpt lat="43.93047" lon="2.29705">
        <ele>330.83</ele>
        <time>2020-05-23T10:43:33Z</time>
      </trkpt>
      <trkpt lat="43.93039" lon="2.29711">
        <ele>331.79</ele>
        <time>2020-05-23T10:43:41Z</time>
      </trkpt>
      <trkpt lat="43.93028" lon="2.29719">
        <ele>332.75</ele>
        <time>2020-05-23T10:43:51Z</time>
      </trkpt>
      <trkpt lat="43.9302" lon="2.29725">
        <ele>333.71</ele>
        <time>2020-05-23T10:43:59Z</time>
      </trkpt>
      <trkpt lat="43.93009" lon="2.29732">
        <ele>336.12</ele>
        <time>2020-05-23T10:44:09Z</time>
      </trkpt>
      <trkpt lat="43.93008" lon="2.29733">
        <ele>336.12</ele>
        <time>2020-05-23T10:44:10Z</time>
      </trkpt>
      <trkpt lat="43.93007" lon="2.29734">
        <ele>336.12</ele>
        <time>2020-05-23T10:44:11Z</time>
      </trkpt>
      <trkpt lat="43.92996" lon="2.29742">
        <ele>337.56</ele>
        <time>2020-05-23T10:44:21Z</time>
      </trkpt>
      <trkpt lat="43.92984" lon="2.29748">
        <ele>339.48</ele>
        <time>2020-05-23T10:44:31Z</time>
      </trkpt>
      <trkpt lat="43.92974" lon="2.29752">
        <ele>339.48</ele>
        <time>2020-05-23T10:44:39Z</time>
      </trkpt>
      <trkpt lat="43.92965" lon="2.29755">
        <ele>341.89</ele>
        <time>2020-05-23T10:44:48Z</time>
      </trkpt>
      <trkpt lat="43.92957" lon="2.29758">
        <ele>343.81</ele>
        <time>2020-05-23T10:44:55Z</time>
      </trkpt>
      <trkpt lat="43.92942" lon="2.29763">
        <ele>347.17</ele>
        <time>2020-05-23T10:45:06Z</time>
      </trkpt>
      <trkpt lat="43.92929" lon="2.2977">
        <ele>347.17</ele>
        <time>2020-05-23T10:45:16Z</time>
      </trkpt>
      <trkpt lat="43.92915" lon="2.29776">
        <ele>347.65</ele>
        <time>2020-05-23T10:45:26Z</time>
      </trkpt>
      <trkpt lat="43.92899" lon="2.29777">
        <ele>348.62</ele>
        <time>2020-05-23T10:45:38Z</time>
      </trkpt>
      <trkpt lat="43.92887" lon="2.29776">
        <ele>346.21</ele>
        <time>2020-05-23T10:45:47Z</time>
      </trkpt>
      <trkpt lat="43.92871" lon="2.29775">
        <ele>347.17</ele>
        <time>2020-05-23T10:45:58Z</time>
      </trkpt>
      <trkpt lat="43.92857" lon="2.29773">
        <ele>349.58</ele>
        <time>2020-05-23T10:46:08Z</time>
      </trkpt>
      <trkpt lat="43.92844" lon="2.2977">
        <ele>351.5</ele>
        <time>2020-05-23T10:46:18Z</time>
      </trkpt>
      <trkpt lat="43.92831" lon="2.29766">
        <ele>351.98</ele>
        <time>2020-05-23T10:46:28Z</time>
      </trkpt>
      <trkpt lat="43.92822" lon="2.29762">
        <ele>352.94</ele>
        <time>2020-05-23T10:46:35Z</time>
      </trkpt>
      <trkpt lat="43.92808" lon="2.29757">
        <ele>353.9</ele>
        <time>2020-05-23T10:46:46Z</time>
      </trkpt>
      <trkpt lat="43.92801" lon="2.29754">
        <ele>354.38</ele>
        <time>2020-05-23T10:46:55Z</time>
      </trkpt>
      <trkpt lat="43.92802" lon="2.29754">
        <ele>353.42</ele>
        <time>2020-05-23T10:47:11Z</time>
      </trkpt>
      <trkpt lat="43.92801" lon="2.29754">
        <ele>352.94</ele>
        <time>2020-05-23T10:47:25Z</time>
      </trkpt>
      <trkpt lat="43.92799" lon="2.29752">
        <ele>353.42</ele>
        <time>2020-05-23T10:47:32Z</time>
      </trkpt>
      <trkpt lat="43.92798" lon="2.29751">
        <ele>354.38</ele>
        <time>2020-05-23T10:47:40Z</time>
      </trkpt>
      <trkpt lat="43.92792" lon="2.29749">
        <ele>354.38</ele>
        <time>2020-05-23T10:47:47Z</time>
      </trkpt>
      <trkpt lat="43.92787" lon="2.29749">
        <ele>354.86</ele>
        <time>2020-05-23T10:47:51Z</time>
      </trkpt>
      <trkpt lat="43.92774" lon="2.29743">
        <ele>354.86</ele>
        <time>2020-05-23T10:48:02Z</time>
      </trkpt>
      <trkpt lat="43.92762" lon="2.29738">
        <ele>354.38</ele>
        <time>2020-05-23T10:48:12Z</time>
      </trkpt>
      <trkpt lat="43.92748" lon="2.29735">
        <ele>353.9</ele>
        <time>2020-05-23T10:48:23Z</time>
      </trkpt>
      <trkpt lat="43.92735" lon="2.29735">
        <ele>353.9</ele>
        <time>2020-05-23T10:48:33Z</time>
      </trkpt>
      <trkpt lat="43.92721" lon="2.29734">
        <ele>356.31</ele>
        <time>2020-05-23T10:48:43Z</time>
      </trkpt>
      <trkpt lat="43.92708" lon="2.29735">
        <ele>356.79</ele>
        <time>2020-05-23T10:48:53Z</time>
      </trkpt>
      <trkpt lat="43.92695" lon="2.29735">
        <ele>357.27</ele>
        <time>2020-05-23T10:49:02Z</time>
      </trkpt>
      <trkpt lat="43.9268" lon="2.29732">
        <ele>359.19</ele>
        <time>2020-05-23T10:49:12Z</time>
      </trkpt>
      <trkpt lat="43.92664" lon="2.2973">
        <ele>358.71</ele>
        <time>2020-05-23T10:49:23Z</time>
      </trkpt>
      <trkpt lat="43.92652" lon="2.29727">
        <ele>358.23</ele>
        <time>2020-05-23T10:49:32Z</time>
      </trkpt>
      <trkpt lat="43.92651" lon="2.29728">
        <ele>358.23</ele>
        <time>2020-05-23T10:49:33Z</time>
      </trkpt>
      <trkpt lat="43.92649" lon="2.29728">
        <ele>357.75</ele>
        <time>2020-05-23T10:49:34Z</time>
      </trkpt>
      <trkpt lat="43.92648" lon="2.29728">
        <ele>358.23</ele>
        <time>2020-05-23T10:49:35Z</time>
      </trkpt>
      <trkpt lat="43.92646" lon="2.29733">
        <ele>357.75</ele>
        <time>2020-05-23T10:49:39Z</time>
      </trkpt>
      <trkpt lat="43.92646" lon="2.29734">
        <ele>357.75</ele>
        <time>2020-05-23T10:49:40Z</time>
      </trkpt>
      <trkpt lat="43.92645" lon="2.29736">
        <ele>357.75</ele>
        <time>2020-05-23T10:49:41Z</time>
      </trkpt>
      <trkpt lat="43.92645" lon="2.29738">
        <ele>357.75</ele>
        <time>2020-05-23T10:49:42Z</time>
      </trkpt>
      <trkpt lat="43.92645" lon="2.2974">
        <ele>357.27</ele>
        <time>2020-05-23T10:49:43Z</time>
      </trkpt>
      <trkpt lat="43.92646" lon="2.29742">
        <ele>357.27</ele>
        <time>2020-05-23T10:49:44Z</time>
      </trkpt>
      <trkpt lat="43.92646" lon="2.29744">
        <ele>357.27</ele>
        <time>2020-05-23T10:49:45Z</time>
      </trkpt>
      <trkpt lat="43.92652" lon="2.29758">
        <ele>356.79</ele>
        <time>2020-05-23T10:49:55Z</time>
      </trkpt>
      <trkpt lat="43.92658" lon="2.29775">
        <ele>355.83</ele>
        <time>2020-05-23T10:50:05Z</time>
      </trkpt>
      <trkpt lat="43.92665" lon="2.29787">
        <ele>353.9</ele>
        <time>2020-05-23T10:50:13Z</time>
      </trkpt>
      <trkpt lat="43.92671" lon="2.29801">
        <ele>351.5</ele>
        <time>2020-05-23T10:50:22Z</time>
      </trkpt>
      <trkpt lat="43.92677" lon="2.29815">
        <ele>348.13</ele>
        <time>2020-05-23T10:50:31Z</time>
      </trkpt>
      <trkpt lat="43.92683" lon="2.29828">
        <ele>346.69</ele>
        <time>2020-05-23T10:50:39Z</time>
      </trkpt>
      <trkpt lat="43.9269" lon="2.29851">
        <ele>347.17</ele>
        <time>2020-05-23T10:50:50Z</time>
      </trkpt>
      <trkpt lat="43.92693" lon="2.29865">
        <ele>347.65</ele>
        <time>2020-05-23T10:50:58Z</time>
      </trkpt>
      <trkpt lat="43.92695" lon="2.29884">
        <ele>350.06</ele>
        <time>2020-05-23T10:51:06Z</time>
      </trkpt>
      <trkpt lat="43.92693" lon="2.29903">
        <ele>350.06</ele>
        <time>2020-05-23T10:51:14Z</time>
      </trkpt>
      <trkpt lat="43.9269" lon="2.29921">
        <ele>349.58</ele>
        <time>2020-05-23T10:51:23Z</time>
      </trkpt>
      <trkpt lat="43.92687" lon="2.29938">
        <ele>351.5</ele>
        <time>2020-05-23T10:51:32Z</time>
      </trkpt>
      <trkpt lat="43.92688" lon="2.29953">
        <ele>352.46</ele>
        <time>2020-05-23T10:51:40Z</time>
      </trkpt>
      <trkpt lat="43.92692" lon="2.29973">
        <ele>354.38</ele>
        <time>2020-05-23T10:51:51Z</time>
      </trkpt>
      <trkpt lat="43.92697" lon="2.29985">
        <ele>355.83</ele>
        <time>2020-05-23T10:52:01Z</time>
      </trkpt>
      <trkpt lat="43.92698" lon="2.29987">
        <ele>355.83</ele>
        <time>2020-05-23T10:52:07Z</time>
      </trkpt>
      <trkpt lat="43.92704" lon="2.29999">
        <ele>355.83</ele>
        <time>2020-05-23T10:52:16Z</time>
      </trkpt>
      <trkpt lat="43.92711" lon="2.30012">
        <ele>356.31</ele>
        <time>2020-05-23T10:52:25Z</time>
      </trkpt>
      <trkpt lat="43.92718" lon="2.30027">
        <ele>356.31</ele>
        <time>2020-05-23T10:52:35Z</time>
      </trkpt>
      <trkpt lat="43.92726" lon="2.30039">
        <ele>355.83</ele>
        <time>2020-05-23T10:52:44Z</time>
      </trkpt>
      <trkpt lat="43.92731" lon="2.30047">
        <ele>354.38</ele>
        <time>2020-05-23T10:52:51Z</time>
      </trkpt>
      <trkpt lat="43.9274" lon="2.30056">
        <ele>351.98</ele>
        <time>2020-05-23T10:53:00Z</time>
      </trkpt>
      <trkpt lat="43.92746" lon="2.30062">
        <ele>348.62</ele>
        <time>2020-05-23T10:53:08Z</time>
      </trkpt>
      <trkpt lat="43.9275" lon="2.30072">
        <ele>344.77</ele>
        <time>2020-05-23T10:53:16Z</time>
      </trkpt>
      <trkpt lat="43.92756" lon="2.30085">
        <ele>341.41</ele>
        <time>2020-05-23T10:53:25Z</time>
      </trkpt>
      <trkpt lat="43.92761" lon="2.301">
        <ele>338.52</ele>
        <time>2020-05-23T10:53:35Z</time>
      </trkpt>
      <trkpt lat="43.92763" lon="2.3011">
        <ele>338.04</ele>
        <time>2020-05-23T10:53:40Z</time>
      </trkpt>
      <trkpt lat="43.92763" lon="2.30113">
        <ele>338.04</ele>
        <time>2020-05-23T10:53:41Z</time>
      </trkpt>
      <trkpt lat="43.92766" lon="2.30125">
        <ele>337.08</ele>
        <time>2020-05-23T10:53:49Z</time>
      </trkpt>
      <trkpt lat="43.92767" lon="2.30136">
        <ele>336.12</ele>
        <time>2020-05-23T10:53:56Z</time>
      </trkpt>
      <trkpt lat="43.9277" lon="2.3015">
        <ele>335.64</ele>
        <time>2020-05-23T10:54:04Z</time>
      </trkpt>
      <trkpt lat="43.92773" lon="2.30167">
        <ele>337.08</ele>
        <time>2020-05-23T10:54:13Z</time>
      </trkpt>
      <trkpt lat="43.92778" lon="2.30185">
        <ele>338.04</ele>
        <time>2020-05-23T10:54:23Z</time>
      </trkpt>
      <trkpt lat="43.92782" lon="2.30198">
        <ele>334.2</ele>
        <time>2020-05-23T10:54:33Z</time>
      </trkpt>
      <trkpt lat="43.92788" lon="2.30207">
        <ele>331.31</ele>
        <time>2020-05-23T10:54:41Z</time>
      </trkpt>
      <trkpt lat="43.92792" lon="2.3021">
        <ele>330.35</ele>
        <time>2020-05-23T10:54:44Z</time>
      </trkpt>
      <trkpt lat="43.92802" lon="2.30214">
        <ele>329.39</ele>
        <time>2020-05-23T10:54:51Z</time>
      </trkpt>
      <trkpt lat="43.92816" lon="2.30217">
        <ele>329.39</ele>
        <time>2020-05-23T10:54:59Z</time>
      </trkpt>
      <trkpt lat="43.92825" lon="2.30215">
        <ele>329.39</ele>
        <time>2020-05-23T10:55:07Z</time>
      </trkpt>
      <trkpt lat="43.92836" lon="2.30214">
        <ele>327.47</ele>
        <time>2020-05-23T10:55:15Z</time>
      </trkpt>
      <trkpt lat="43.9285" lon="2.30207">
        <ele>327.47</ele>
        <time>2020-05-23T10:55:26Z</time>
      </trkpt>
      <trkpt lat="43.92859" lon="2.30202">
        <ele>329.39</ele>
        <time>2020-05-23T10:55:35Z</time>
      </trkpt>
      <trkpt lat="43.92869" lon="2.30195">
        <ele>329.39</ele>
        <time>2020-05-23T10:55:44Z</time>
      </trkpt>
      <trkpt lat="43.92881" lon="2.30188">
        <ele>328.91</ele>
        <time>2020-05-23T10:55:54Z</time>
      </trkpt>
      <trkpt lat="43.92883" lon="2.30189">
        <ele>328.43</ele>
        <time>2020-05-23T10:56:03Z</time>
      </trkpt>
      <trkpt lat="43.9288" lon="2.30198">
        <ele>326.02</ele>
        <time>2020-05-23T10:56:11Z</time>
      </trkpt>
      <trkpt lat="43.9288" lon="2.30211">
        <ele>322.18</ele>
        <time>2020-05-23T10:56:19Z</time>
      </trkpt>
      <trkpt lat="43.9288" lon="2.30213">
        <ele>321.7</ele>
        <time>2020-05-23T10:56:20Z</time>
      </trkpt>
      <trkpt lat="43.92879" lon="2.30227">
        <ele>317.37</ele>
        <time>2020-05-23T10:56:30Z</time>
      </trkpt>
      <trkpt lat="43.9288" lon="2.30243">
        <ele>314.01</ele>
        <time>2020-05-23T10:56:40Z</time>
      </trkpt>
      <trkpt lat="43.92881" lon="2.30253">
        <ele>311.6</ele>
        <time>2020-05-23T10:56:48Z</time>
      </trkpt>
      <trkpt lat="43.9288" lon="2.30258">
        <ele>310.16</ele>
        <time>2020-05-23T10:56:56Z</time>
      </trkpt>
      <trkpt lat="43.92881" lon="2.30263">
        <ele>309.68</ele>
        <time>2020-05-23T10:57:00Z</time>
      </trkpt>
      <trkpt lat="43.92881" lon="2.3027">
        <ele>307.28</ele>
        <time>2020-05-23T10:57:07Z</time>
      </trkpt>
      <trkpt lat="43.92878" lon="2.30282">
        <ele>305.84</ele>
        <time>2020-05-23T10:57:15Z</time>
      </trkpt>
      <trkpt lat="43.92874" lon="2.30299">
        <ele>306.32</ele>
        <time>2020-05-23T10:57:24Z</time>
      </trkpt>
      <trkpt lat="43.92871" lon="2.30309">
        <ele>304.88</ele>
        <time>2020-05-23T10:57:32Z</time>
      </trkpt>
      <trkpt lat="43.92863" lon="2.30325">
        <ele>301.03</ele>
        <time>2020-05-23T10:57:41Z</time>
      </trkpt>
      <trkpt lat="43.92858" lon="2.30328">
        <ele>297.18</ele>
        <time>2020-05-23T10:57:49Z</time>
      </trkpt>
      <trkpt lat="43.9285" lon="2.30327">
        <ele>290.46</ele>
        <time>2020-05-23T10:57:58Z</time>
      </trkpt>
      <trkpt lat="43.92841" lon="2.30324">
        <ele>285.17</ele>
        <time>2020-05-23T10:58:07Z</time>
      </trkpt>
      <trkpt lat="43.92833" lon="2.30325">
        <ele>283.73</ele>
        <time>2020-05-23T10:58:14Z</time>
      </trkpt>
      <trkpt lat="43.92825" lon="2.3033">
        <ele>283.25</ele>
        <time>2020-05-23T10:58:22Z</time>
      </trkpt>
      <trkpt lat="43.92817" lon="2.30335">
        <ele>282.28</ele>
        <time>2020-05-23T10:58:30Z</time>
      </trkpt>
      <trkpt lat="43.92814" lon="2.30337">
        <ele>281.8</ele>
        <time>2020-05-23T10:58:33Z</time>
      </trkpt>
      <trkpt lat="43.92802" lon="2.30345">
        <ele>281.32</ele>
        <time>2020-05-23T10:58:43Z</time>
      </trkpt>
      <trkpt lat="43.92794" lon="2.30351">
        <ele>281.8</ele>
        <time>2020-05-23T10:58:50Z</time>
      </trkpt>
      <trkpt lat="43.92781" lon="2.30356">
        <ele>280.84</ele>
        <time>2020-05-23T10:59:00Z</time>
      </trkpt>
      <trkpt lat="43.92774" lon="2.30355">
        <ele>277.48</ele>
        <time>2020-05-23T10:59:07Z</time>
      </trkpt>
      <trkpt lat="43.92769" lon="2.30354">
        <ele>275.07</ele>
        <time>2020-05-23T10:59:15Z</time>
      </trkpt>
      <trkpt lat="43.92768" lon="2.30358">
        <ele>275.07</ele>
        <time>2020-05-23T10:59:18Z</time>
      </trkpt>
      <trkpt lat="43.9277" lon="2.30367">
        <ele>275.56</ele>
        <time>2020-05-23T10:59:25Z</time>
      </trkpt>
      <trkpt lat="43.92771" lon="2.30383">
        <ele>279.88</ele>
        <time>2020-05-23T10:59:35Z</time>
      </trkpt>
      <trkpt lat="43.92775" lon="2.30389">
        <ele>277</ele>
        <time>2020-05-23T10:59:43Z</time>
      </trkpt>
      <trkpt lat="43.9278" lon="2.30391">
        <ele>274.11</ele>
        <time>2020-05-23T10:59:50Z</time>
      </trkpt>
      <trkpt lat="43.92783" lon="2.30391">
        <ele>273.15</ele>
        <time>2020-05-23T10:59:54Z</time>
      </trkpt>
      <trkpt lat="43.92794" lon="2.30391">
        <ele>272.19</ele>
        <time>2020-05-23T11:00:03Z</time>
      </trkpt>
      <trkpt lat="43.92799" lon="2.3039">
        <ele>270.75</ele>
        <time>2020-05-23T11:00:10Z</time>
      </trkpt>
      <trkpt lat="43.92808" lon="2.30389">
        <ele>267.38</ele>
        <time>2020-05-23T11:00:18Z</time>
      </trkpt>
      <trkpt lat="43.92819" lon="2.30388">
        <ele>263.54</ele>
        <time>2020-05-23T11:00:27Z</time>
      </trkpt>
      <trkpt lat="43.92828" lon="2.30393">
        <ele>259.69</ele>
        <time>2020-05-23T11:00:36Z</time>
      </trkpt>
      <trkpt lat="43.92836" lon="2.304">
        <ele>259.21</ele>
        <time>2020-05-23T11:00:43Z</time>
      </trkpt>
      <trkpt lat="43.92847" lon="2.30415">
        <ele>259.21</ele>
        <time>2020-05-23T11:00:54Z</time>
      </trkpt>
      <trkpt lat="43.92849" lon="2.30417">
        <ele>258.73</ele>
        <time>2020-05-23T11:00:56Z</time>
      </trkpt>
      <trkpt lat="43.92856" lon="2.30422">
        <ele>257.29</ele>
        <time>2020-05-23T11:01:04Z</time>
      </trkpt>
      <trkpt lat="43.92862" lon="2.30428">
        <ele>256.81</ele>
        <time>2020-05-23T11:01:11Z</time>
      </trkpt>
      <trkpt lat="43.92867" lon="2.30429">
        <ele>254.41</ele>
        <time>2020-05-23T11:01:18Z</time>
      </trkpt>
      <trkpt lat="43.92868" lon="2.30429">
        <ele>253.93</ele>
        <time>2020-05-23T11:01:19Z</time>
      </trkpt>
      <trkpt lat="43.92876" lon="2.30428">
        <ele>250.56</ele>
        <time>2020-05-23T11:01:28Z</time>
      </trkpt>
      <trkpt lat="43.92885" lon="2.30427">
        <ele>246.72</ele>
        <time>2020-05-23T11:01:37Z</time>
      </trkpt>
      <trkpt lat="43.92893" lon="2.30425">
        <ele>244.31</ele>
        <time>2020-05-23T11:01:45Z</time>
      </trkpt>
      <trkpt lat="43.92902" lon="2.30427">
        <ele>242.87</ele>
        <time>2020-05-23T11:01:54Z</time>
      </trkpt>
      <trkpt lat="43.9291" lon="2.30429">
        <ele>241.91</ele>
        <time>2020-05-23T11:02:01Z</time>
      </trkpt>
      <trkpt lat="43.92916" lon="2.3043">
        <ele>240.95</ele>
        <time>2020-05-23T11:02:09Z</time>
      </trkpt>
      <trkpt lat="43.92925" lon="2.3043">
        <ele>238.06</ele>
        <time>2020-05-23T11:02:16Z</time>
      </trkpt>
      <trkpt lat="43.92931" lon="2.30429">
        <ele>236.14</ele>
        <time>2020-05-23T11:02:23Z</time>
      </trkpt>
      <trkpt lat="43.92941" lon="2.30429">
        <ele>233.74</ele>
        <time>2020-05-23T11:02:32Z</time>
      </trkpt>
      <trkpt lat="43.92951" lon="2.30431">
        <ele>233.26</ele>
        <time>2020-05-23T11:02:41Z</time>
      </trkpt>
      <trkpt lat="43.92957" lon="2.3043">
        <ele>232.3</ele>
        <time>2020-05-23T11:02:48Z</time>
      </trkpt>
      <trkpt lat="43.92963" lon="2.30431">
        <ele>230.85</ele>
        <time>2020-05-23T11:02:55Z</time>
      </trkpt>
      <trkpt lat="43.92971" lon="2.30433">
        <ele>230.37</ele>
        <time>2020-05-23T11:03:02Z</time>
      </trkpt>
      <trkpt lat="43.92979" lon="2.30435">
        <ele>229.41</ele>
        <time>2020-05-23T11:03:09Z</time>
      </trkpt>
      <trkpt lat="43.92986" lon="2.30439">
        <ele>230.85</ele>
        <time>2020-05-23T11:03:17Z</time>
      </trkpt>
      <trkpt lat="43.92991" lon="2.30439">
        <ele>229.89</ele>
        <time>2020-05-23T11:03:24Z</time>
      </trkpt>
      <trkpt lat="43.92998" lon="2.30441">
        <ele>228.45</ele>
        <time>2020-05-23T11:03:32Z</time>
      </trkpt>
      <trkpt lat="43.93007" lon="2.30441">
        <ele>225.57</ele>
        <time>2020-05-23T11:03:40Z</time>
      </trkpt>
      <trkpt lat="43.93017" lon="2.30448">
        <ele>226.53</ele>
        <time>2020-05-23T11:03:47Z</time>
      </trkpt>
      <trkpt lat="43.9302" lon="2.30449">
        <ele>226.05</ele>
        <time>2020-05-23T11:03:50Z</time>
      </trkpt>
      <trkpt lat="43.93032" lon="2.30453">
        <ele>224.61</ele>
        <time>2020-05-23T11:04:00Z</time>
      </trkpt>
      <trkpt lat="43.93041" lon="2.30448">
        <ele>224.12</ele>
        <time>2020-05-23T11:04:09Z</time>
      </trkpt>
      <trkpt lat="43.93048" lon="2.30441">
        <ele>223.16</ele>
        <time>2020-05-23T11:04:17Z</time>
      </trkpt>
      <trkpt lat="43.93055" lon="2.30434">
        <ele>221.72</ele>
        <time>2020-05-23T11:04:26Z</time>
      </trkpt>
      <trkpt lat="43.93059" lon="2.30426">
        <ele>218.84</ele>
        <time>2020-05-23T11:04:34Z</time>
      </trkpt>
      <trkpt lat="43.9306" lon="2.30418">
        <ele>216.43</ele>
        <time>2020-05-23T11:04:41Z</time>
      </trkpt>
      <trkpt lat="43.93062" lon="2.30409">
        <ele>213.55</ele>
        <time>2020-05-23T11:04:48Z</time>
      </trkpt>
      <trkpt lat="43.93065" lon="2.30396">
        <ele>210.19</ele>
        <time>2020-05-23T11:04:56Z</time>
      </trkpt>
      <trkpt lat="43.93071" lon="2.30384">
        <ele>207.3</ele>
        <time>2020-05-23T11:05:05Z</time>
      </trkpt>
      <trkpt lat="43.93082" lon="2.30375">
        <ele>206.82</ele>
        <time>2020-05-23T11:05:13Z</time>
      </trkpt>
      <trkpt lat="43.93086" lon="2.30371">
        <ele>207.3</ele>
        <time>2020-05-23T11:05:19Z</time>
      </trkpt>
      <trkpt lat="43.93091" lon="2.30365">
        <ele>205.38</ele>
        <time>2020-05-23T11:05:27Z</time>
      </trkpt>
      <trkpt lat="43.93096" lon="2.30359">
        <ele>204.9</ele>
        <time>2020-05-23T11:05:35Z</time>
      </trkpt>
      <trkpt lat="43.93104" lon="2.30355">
        <ele>204.9</ele>
        <time>2020-05-23T11:05:43Z</time>
      </trkpt>
      <trkpt lat="43.93109" lon="2.30349">
        <ele>203.46</ele>
        <time>2020-05-23T11:05:52Z</time>
      </trkpt>
      <trkpt lat="43.93114" lon="2.30347">
        <ele>202.98</ele>
        <time>2020-05-23T11:06:01Z</time>
      </trkpt>
      <trkpt lat="43.93116" lon="2.3035">
        <ele>201.05</ele>
        <time>2020-05-23T11:06:09Z</time>
      </trkpt>
      <trkpt lat="43.93117" lon="2.30358">
        <ele>200.09</ele>
        <time>2020-05-23T11:06:17Z</time>
      </trkpt>
      <trkpt lat="43.93117" lon="2.30364">
        <ele>198.17</ele>
        <time>2020-05-23T11:06:22Z</time>
      </trkpt>
      <trkpt lat="43.93122" lon="2.30375">
        <ele>193.36</ele>
        <time>2020-05-23T11:06:31Z</time>
      </trkpt>
      <trkpt lat="43.93123" lon="2.30383">
        <ele>191.92</ele>
        <time>2020-05-23T11:06:39Z</time>
      </trkpt>
      <trkpt lat="43.93124" lon="2.30394">
        <ele>191.44</ele>
        <time>2020-05-23T11:06:47Z</time>
      </trkpt>
      <trkpt lat="43.93123" lon="2.30397">
        <ele>191.44</ele>
        <time>2020-05-23T11:06:49Z</time>
      </trkpt>
      <trkpt lat="43.93125" lon="2.30408">
        <ele>190.96</ele>
        <time>2020-05-23T11:06:58Z</time>
      </trkpt>
      <trkpt lat="43.93127" lon="2.30416">
        <ele>189.52</ele>
        <time>2020-05-23T11:07:05Z</time>
      </trkpt>
      <trkpt lat="43.93128" lon="2.30421">
        <ele>188.56</ele>
        <time>2020-05-23T11:07:11Z</time>
      </trkpt>
      <trkpt lat="43.93131" lon="2.30428">
        <ele>186.63</ele>
        <time>2020-05-23T11:07:19Z</time>
      </trkpt>
      <trkpt lat="43.93136" lon="2.30435">
        <ele>182.31</ele>
        <time>2020-05-23T11:07:28Z</time>
      </trkpt>
      <trkpt lat="43.93143" lon="2.30442">
        <ele>179.9</ele>
        <time>2020-05-23T11:07:35Z</time>
      </trkpt>
      <trkpt lat="43.93144" lon="2.30446">
        <ele>179.9</ele>
        <time>2020-05-23T11:07:37Z</time>
      </trkpt>
      <trkpt lat="43.93144" lon="2.30459">
        <ele>181.83</ele>
        <time>2020-05-23T11:07:45Z</time>
      </trkpt>
      <trkpt lat="43.93141" lon="2.30468">
        <ele>183.27</ele>
        <time>2020-05-23T11:07:50Z</time>
      </trkpt>
      <trkpt lat="43.9314" lon="2.30472">
        <ele>184.23</ele>
        <time>2020-05-23T11:07:52Z</time>
      </trkpt>
      <trkpt lat="43.93136" lon="2.30491">
        <ele>184.23</ele>
        <time>2020-05-23T11:08:02Z</time>
      </trkpt>
      <trkpt lat="43.93136" lon="2.30504">
        <ele>185.67</ele>
        <time>2020-05-23T11:08:10Z</time>
      </trkpt>
      <trkpt lat="43.93134" lon="2.30505">
        <ele>186.15</ele>
        <time>2020-05-23T11:08:20Z</time>
      </trkpt>
      <trkpt lat="43.93136" lon="2.3051">
        <ele>185.67</ele>
        <time>2020-05-23T11:08:25Z</time>
      </trkpt>
      <trkpt lat="43.93142" lon="2.30526">
        <ele>185.19</ele>
        <time>2020-05-23T11:08:35Z</time>
      </trkpt>
      <trkpt lat="43.93146" lon="2.30542">
        <ele>187.11</ele>
        <time>2020-05-23T11:08:43Z</time>
      </trkpt>
      <trkpt lat="43.93149" lon="2.30565">
        <ele>188.56</ele>
        <time>2020-05-23T11:08:53Z</time>
      </trkpt>
      <trkpt lat="43.9315" lon="2.30581">
        <ele>189.52</ele>
        <time>2020-05-23T11:09:01Z</time>
      </trkpt>
      <trkpt lat="43.93151" lon="2.30601">
        <ele>191.44</ele>
        <time>2020-05-23T11:09:10Z</time>
      </trkpt>
      <trkpt lat="43.93152" lon="2.30617">
        <ele>192.88</ele>
        <time>2020-05-23T11:09:19Z</time>
      </trkpt>
      <trkpt lat="43.93154" lon="2.30638">
        <ele>194.32</ele>
        <time>2020-05-23T11:09:30Z</time>
      </trkpt>
      <trkpt lat="43.93155" lon="2.30656">
        <ele>193.36</ele>
        <time>2020-05-23T11:09:40Z</time>
      </trkpt>
      <trkpt lat="43.93155" lon="2.30675">
        <ele>193.36</ele>
        <time>2020-05-23T11:09:50Z</time>
      </trkpt>
      <trkpt lat="43.93156" lon="2.30691">
        <ele>193.84</ele>
        <time>2020-05-23T11:09:58Z</time>
      </trkpt>
      <trkpt lat="43.93159" lon="2.30711">
        <ele>193.84</ele>
        <time>2020-05-23T11:10:08Z</time>
      </trkpt>
      <trkpt lat="43.93161" lon="2.30728">
        <ele>193.36</ele>
        <time>2020-05-23T11:10:17Z</time>
      </trkpt>
      <trkpt lat="43.93164" lon="2.30748">
        <ele>193.36</ele>
        <time>2020-05-23T11:10:28Z</time>
      </trkpt>
      <trkpt lat="43.93167" lon="2.30761">
        <ele>193.84</ele>
        <time>2020-05-23T11:10:35Z</time>
      </trkpt>
      <trkpt lat="43.93169" lon="2.3078">
        <ele>194.8</ele>
        <time>2020-05-23T11:10:45Z</time>
      </trkpt>
      <trkpt lat="43.9317" lon="2.30795">
        <ele>193.84</ele>
        <time>2020-05-23T11:10:53Z</time>
      </trkpt>
      <trkpt lat="43.93169" lon="2.30814">
        <ele>194.32</ele>
        <time>2020-05-23T11:11:03Z</time>
      </trkpt>
      <trkpt lat="43.93172" lon="2.30833">
        <ele>193.84</ele>
        <time>2020-05-23T11:11:14Z</time>
      </trkpt>
      <trkpt lat="43.93173" lon="2.30845">
        <ele>193.36</ele>
        <time>2020-05-23T11:11:21Z</time>
      </trkpt>
      <trkpt lat="43.93174" lon="2.30855">
        <ele>191.92</ele>
        <time>2020-05-23T11:11:28Z</time>
      </trkpt>
      <trkpt lat="43.93175" lon="2.30873">
        <ele>190.96</ele>
        <time>2020-05-23T11:11:38Z</time>
      </trkpt>
      <trkpt lat="43.93177" lon="2.30894">
        <ele>190</ele>
        <time>2020-05-23T11:11:49Z</time>
      </trkpt>
      <trkpt lat="43.93178" lon="2.30912">
        <ele>188.08</ele>
        <time>2020-05-23T11:12:00Z</time>
      </trkpt>
      <trkpt lat="43.9318" lon="2.3093">
        <ele>185.67</ele>
        <time>2020-05-23T11:12:10Z</time>
      </trkpt>
      <trkpt lat="43.93182" lon="2.30947">
        <ele>183.75</ele>
        <time>2020-05-23T11:12:21Z</time>
      </trkpt>
      <trkpt lat="43.93183" lon="2.30967">
        <ele>183.75</ele>
        <time>2020-05-23T11:12:31Z</time>
      </trkpt>
      <trkpt lat="43.93185" lon="2.30983">
        <ele>185.19</ele>
        <time>2020-05-23T11:12:38Z</time>
      </trkpt>
      <trkpt lat="43.93187" lon="2.3101">
        <ele>186.63</ele>
        <time>2020-05-23T11:12:50Z</time>
      </trkpt>
      <trkpt lat="43.93187" lon="2.31026">
        <ele>187.11</ele>
        <time>2020-05-23T11:12:58Z</time>
      </trkpt>
      <trkpt lat="43.93188" lon="2.31045">
        <ele>187.11</ele>
        <time>2020-05-23T11:13:07Z</time>
      </trkpt>
      <trkpt lat="43.93189" lon="2.31065">
        <ele>186.63</ele>
        <time>2020-05-23T11:13:17Z</time>
      </trkpt>
      <trkpt lat="43.9319" lon="2.3108">
        <ele>186.15</ele>
        <time>2020-05-23T11:13:25Z</time>
      </trkpt>
      <trkpt lat="43.93191" lon="2.31085">
        <ele>185.67</ele>
        <time>2020-05-23T11:13:28Z</time>
      </trkpt>
      <trkpt lat="43.93192" lon="2.31093">
        <ele>186.15</ele>
        <time>2020-05-23T11:13:32Z</time>
      </trkpt>
      <trkpt lat="43.93192" lon="2.31106">
        <ele>187.11</ele>
        <time>2020-05-23T11:13:39Z</time>
      </trkpt>
      <trkpt lat="43.93189" lon="2.31122">
        <ele>187.11</ele>
        <time>2020-05-23T11:13:48Z</time>
      </trkpt>
      <trkpt lat="43.93185" lon="2.31133">
        <ele>188.08</ele>
        <time>2020-05-23T11:13:55Z</time>
      </trkpt>
      <trkpt lat="43.93174" lon="2.31148">
        <ele>190.96</ele>
        <time>2020-05-23T11:14:05Z</time>
      </trkpt>
      <trkpt lat="43.93173" lon="2.31149">
        <ele>191.44</ele>
        <time>2020-05-23T11:14:06Z</time>
      </trkpt>
      <trkpt lat="43.93166" lon="2.31156">
        <ele>191.44</ele>
        <time>2020-05-23T11:14:12Z</time>
      </trkpt>
      <trkpt lat="43.9316" lon="2.31165">
        <ele>191.44</ele>
        <time>2020-05-23T11:14:19Z</time>
      </trkpt>
      <trkpt lat="43.93152" lon="2.3118">
        <ele>190.96</ele>
        <time>2020-05-23T11:14:28Z</time>
      </trkpt>
      <trkpt lat="43.93149" lon="2.31193">
        <ele>190.48</ele>
        <time>2020-05-23T11:14:35Z</time>
      </trkpt>
      <trkpt lat="43.93149" lon="2.31212">
        <ele>189.04</ele>
        <time>2020-05-23T11:14:46Z</time>
      </trkpt>
      <trkpt lat="43.9315" lon="2.31231">
        <ele>188.08</ele>
        <time>2020-05-23T11:14:56Z</time>
      </trkpt>
      <trkpt lat="43.93152" lon="2.31243">
        <ele>187.59</ele>
        <time>2020-05-23T11:15:04Z</time>
      </trkpt>
      <trkpt lat="43.93152" lon="2.31246">
        <ele>186.63</ele>
        <time>2020-05-23T11:15:07Z</time>
      </trkpt>
      <trkpt lat="43.93153" lon="2.31259">
        <ele>186.15</ele>
        <time>2020-05-23T11:15:13Z</time>
      </trkpt>
      <trkpt lat="43.93155" lon="2.31281">
        <ele>185.67</ele>
        <time>2020-05-23T11:15:23Z</time>
      </trkpt>
      <trkpt lat="43.93156" lon="2.31301">
        <ele>187.59</ele>
        <time>2020-05-23T11:15:33Z</time>
      </trkpt>
      <trkpt lat="43.93157" lon="2.31321">
        <ele>187.59</ele>
        <time>2020-05-23T11:15:43Z</time>
      </trkpt>
      <trkpt lat="43.93159" lon="2.31339">
        <ele>184.23</ele>
        <time>2020-05-23T11:15:53Z</time>
      </trkpt>
      <trkpt lat="43.93161" lon="2.31355">
        <ele>183.75</ele>
        <time>2020-05-23T11:16:02Z</time>
      </trkpt>
      <trkpt lat="43.93161" lon="2.3136">
        <ele>185.19</ele>
        <time>2020-05-23T11:16:10Z</time>
      </trkpt>
      <trkpt lat="43.93162" lon="2.31361">
        <ele>187.11</ele>
        <time>2020-05-23T11:16:21Z</time>
      </trkpt>
      <trkpt lat="43.93163" lon="2.31364">
        <ele>187.11</ele>
        <time>2020-05-23T11:16:31Z</time>
      </trkpt>
      <trkpt lat="43.93165" lon="2.31367">
        <ele>187.11</ele>
        <time>2020-05-23T11:16:38Z</time>
      </trkpt>
      <trkpt lat="43.93165" lon="2.31366">
        <ele>186.15</ele>
        <time>2020-05-23T11:16:52Z</time>
      </trkpt>
      <trkpt lat="43.9316" lon="2.31365">
        <ele>186.15</ele>
        <time>2020-05-23T11:17:01Z</time>
      </trkpt>
      <trkpt lat="43.93158" lon="2.31363">
        <ele>185.67</ele>
        <time>2020-05-23T11:17:09Z</time>
      </trkpt>
      <trkpt lat="43.93157" lon="2.31364">
        <ele>184.23</ele>
        <time>2020-05-23T11:17:23Z</time>
      </trkpt>
      <trkpt lat="43.93158" lon="2.31362">
        <ele>184.23</ele>
        <time>2020-05-23T11:17:35Z</time>
      </trkpt>
      <trkpt lat="43.93155" lon="2.31363">
        <ele>184.71</ele>
        <time>2020-05-23T11:17:49Z</time>
      </trkpt>
      <trkpt lat="43.93158" lon="2.31366">
        <ele>190.96</ele>
        <time>2020-05-23T11:18:08Z</time>
      </trkpt>
      <trkpt lat="43.93158" lon="2.31367">
        <ele>193.36</ele>
        <time>2020-05-23T11:18:27Z</time>
      </trkpt>
      <trkpt lat="43.9316" lon="2.31365">
        <ele>193.36</ele>
        <time>2020-05-23T11:18:44Z</time>
      </trkpt>
      <trkpt lat="43.93159" lon="2.31366">
        <ele>190.96</ele>
        <time>2020-05-23T11:18:57Z</time>
      </trkpt>
      <trkpt lat="43.9316" lon="2.31363">
        <ele>189.52</ele>
        <time>2020-05-23T11:19:13Z</time>
      </trkpt>
      <trkpt lat="43.93161" lon="2.31364">
        <ele>190.96</ele>
        <time>2020-05-23T11:19:32Z</time>
      </trkpt>
      <trkpt lat="43.93161" lon="2.31363">
        <ele>191.44</ele>
        <time>2020-05-23T11:19:43Z</time>
      </trkpt>
      <trkpt lat="43.9316" lon="2.31363">
        <ele>191.44</ele>
        <time>2020-05-23T11:19:51Z</time>
      </trkpt>
      <trkpt lat="43.9316" lon="2.31363">
        <ele>190.96</ele>
        <time>2020-05-23T11:20:05Z</time>
      </trkpt>
      <trkpt lat="43.93162" lon="2.31366">
        <ele>190.96</ele>
        <time>2020-05-23T11:20:12Z</time>
      </trkpt>
      <trkpt lat="43.93162" lon="2.31364">
        <ele>188.56</ele>
        <time>2020-05-23T11:20:29Z</time>
      </trkpt>
      <trkpt lat="43.93163" lon="2.31365">
        <ele>190.48</ele>
        <time>2020-05-23T11:20:40Z</time>
      </trkpt>
      <trkpt lat="43.93159" lon="2.31366">
        <ele>190.96</ele>
        <time>2020-05-23T11:20:48Z</time>
      </trkpt>
      <trkpt lat="43.93159" lon="2.31367">
        <ele>192.4</ele>
        <time>2020-05-23T11:20:59Z</time>
      </trkpt>
      <trkpt lat="43.93161" lon="2.31368">
        <ele>193.36</ele>
        <time>2020-05-23T11:21:19Z</time>
      </trkpt>
      <trkpt lat="43.93161" lon="2.31367">
        <ele>190.96</ele>
        <time>2020-05-23T11:21:36Z</time>
      </trkpt>
      <trkpt lat="43.93162" lon="2.31369">
        <ele>192.4</ele>
        <time>2020-05-23T11:21:58Z</time>
      </trkpt>
      <trkpt lat="43.93163" lon="2.3137">
        <ele>193.84</ele>
        <time>2020-05-23T11:22:22Z</time>
      </trkpt>
      <trkpt lat="43.93162" lon="2.31368">
        <ele>190.48</ele>
        <time>2020-05-23T11:22:45Z</time>
      </trkpt>
      <trkpt lat="43.9316" lon="2.31369">
        <ele>190</ele>
        <time>2020-05-23T11:23:07Z</time>
      </trkpt>
      <trkpt lat="43.9316" lon="2.31369">
        <ele>190.96</ele>
        <time>2020-05-23T11:23:28Z</time>
      </trkpt>
      <trkpt lat="43.9316" lon="2.31367">
        <ele>191.44</ele>
        <time>2020-05-23T11:23:45Z</time>
      </trkpt>
      <trkpt lat="43.9316" lon="2.31366">
        <ele>191.44</ele>
        <time>2020-05-23T11:24:01Z</time>
      </trkpt>
      <trkpt lat="43.93161" lon="2.31369">
        <ele>191.44</ele>
        <time>2020-05-23T11:24:20Z</time>
      </trkpt>
      <trkpt lat="43.93163" lon="2.31367">
        <ele>190.48</ele>
        <time>2020-05-23T11:24:43Z</time>
      </trkpt>
      <trkpt lat="43.93163" lon="2.31369">
        <ele>191.92</ele>
        <time>2020-05-23T11:25:06Z</time>
      </trkpt>
      <trkpt lat="43.93163" lon="2.3137">
        <ele>194.32</ele>
        <time>2020-05-23T11:25:29Z</time>
      </trkpt>
      <trkpt lat="43.93161" lon="2.3137">
        <ele>195.77</ele>
        <time>2020-05-23T11:25:47Z</time>
      </trkpt>
      <trkpt lat="43.93163" lon="2.31371">
        <ele>199.13</ele>
        <time>2020-05-23T11:26:05Z</time>
      </trkpt>
      <trkpt lat="43.93164" lon="2.3137">
        <ele>197.21</ele>
        <time>2020-05-23T11:26:28Z</time>
      </trkpt>
      <trkpt lat="43.93163" lon="2.31369">
        <ele>193.36</ele>
        <time>2020-05-23T11:26:54Z</time>
      </trkpt>
      <trkpt lat="43.93163" lon="2.3137">
        <ele>194.32</ele>
        <time>2020-05-23T11:27:14Z</time>
      </trkpt>
      <trkpt lat="43.93162" lon="2.3137">
        <ele>196.25</ele>
        <time>2020-05-23T11:27:31Z</time>
      </trkpt>
      <trkpt lat="43.93163" lon="2.3137">
        <ele>197.69</ele>
        <time>2020-05-23T11:27:46Z</time>
      </trkpt>
      <trkpt lat="43.93162" lon="2.3137">
        <ele>192.88</ele>
        <time>2020-05-23T11:28:05Z</time>
      </trkpt>
      <trkpt lat="43.93161" lon="2.31369">
        <ele>193.84</ele>
        <time>2020-05-23T11:28:27Z</time>
      </trkpt>
      <trkpt lat="43.93159" lon="2.3137">
        <ele>194.32</ele>
        <time>2020-05-23T11:28:49Z</time>
      </trkpt>
      <trkpt lat="43.93159" lon="2.31369">
        <ele>193.36</ele>
        <time>2020-05-23T11:29:09Z</time>
      </trkpt>
      <trkpt lat="43.9316" lon="2.31369">
        <ele>193.36</ele>
        <time>2020-05-23T11:29:22Z</time>
      </trkpt>
      <trkpt lat="43.93161" lon="2.31369">
        <ele>193.36</ele>
        <time>2020-05-23T11:29:38Z</time>
      </trkpt>
      <trkpt lat="43.93162" lon="2.31369">
        <ele>192.88</ele>
        <time>2020-05-23T11:29:57Z</time>
      </trkpt>
      <trkpt lat="43.9316" lon="2.3137">
        <ele>193.36</ele>
        <time>2020-05-23T11:30:10Z</time>
      </trkpt>
      <trkpt lat="43.9316" lon="2.3137">
        <ele>193.36</ele>
        <time>2020-05-23T11:30:24Z</time>
      </trkpt>
      <trkpt lat="43.93159" lon="2.3137">
        <ele>191.92</ele>
        <time>2020-05-23T11:30:39Z</time>
      </trkpt>
      <trkpt lat="43.93159" lon="2.31369">
        <ele>190.48</ele>
        <time>2020-05-23T11:30:57Z</time>
      </trkpt>
      <trkpt lat="43.9316" lon="2.3137">
        <ele>190.96</ele>
        <time>2020-05-23T11:31:21Z</time>
      </trkpt>
      <trkpt lat="43.9316" lon="2.31369">
        <ele>192.4</ele>
        <time>2020-05-23T11:31:35Z</time>
      </trkpt>
      <trkpt lat="43.93161" lon="2.31368">
        <ele>193.36</ele>
        <time>2020-05-23T11:31:50Z</time>
      </trkpt>
      <trkpt lat="43.9316" lon="2.31367">
        <ele>192.4</ele>
        <time>2020-05-23T11:32:06Z</time>
      </trkpt>
      <trkpt lat="43.9316" lon="2.31367">
        <ele>193.36</ele>
        <time>2020-05-23T11:32:17Z</time>
      </trkpt>
      <trkpt lat="43.93159" lon="2.31365">
        <ele>192.4</ele>
        <time>2020-05-23T11:32:30Z</time>
      </trkpt>
      <trkpt lat="43.9316" lon="2.31366">
        <ele>193.36</ele>
        <time>2020-05-23T11:32:43Z</time>
      </trkpt>
      <trkpt lat="43.93158" lon="2.31366">
        <ele>193.36</ele>
        <time>2020-05-23T11:32:57Z</time>
      </trkpt>
      <trkpt lat="43.93157" lon="2.31367">
        <ele>192.4</ele>
        <time>2020-05-23T11:33:15Z</time>
      </trkpt>
      <trkpt lat="43.93156" lon="2.31368">
        <ele>192.4</ele>
        <time>2020-05-23T11:33:33Z</time>
      </trkpt>
      <trkpt lat="43.93158" lon="2.31366">
        <ele>190.96</ele>
        <time>2020-05-23T11:33:53Z</time>
      </trkpt>
      <trkpt lat="43.93159" lon="2.31366">
        <ele>191.92</ele>
        <time>2020-05-23T11:34:15Z</time>
      </trkpt>
      <trkpt lat="43.93158" lon="2.31366">
        <ele>191.44</ele>
        <time>2020-05-23T11:34:33Z</time>
      </trkpt>
      <trkpt lat="43.93157" lon="2.31367">
        <ele>190.48</ele>
        <time>2020-05-23T11:34:51Z</time>
      </trkpt>
      <trkpt lat="43.93158" lon="2.31366">
        <ele>190.96</ele>
        <time>2020-05-23T11:35:11Z</time>
      </trkpt>
      <trkpt lat="43.93156" lon="2.31367">
        <ele>190.96</ele>
        <time>2020-05-23T11:35:28Z</time>
      </trkpt>
      <trkpt lat="43.93158" lon="2.31368">
        <ele>193.36</ele>
        <time>2020-05-23T11:35:49Z</time>
      </trkpt>
      <trkpt lat="43.93159" lon="2.31366">
        <ele>192.88</ele>
        <time>2020-05-23T11:36:06Z</time>
      </trkpt>
      <trkpt lat="43.9316" lon="2.31367">
        <ele>190.48</ele>
        <time>2020-05-23T11:36:24Z</time>
      </trkpt>
      <trkpt lat="43.9316" lon="2.31367">
        <ele>190.48</ele>
        <time>2020-05-23T11:36:44Z</time>
      </trkpt>
      <trkpt lat="43.93159" lon="2.31368">
        <ele>191.44</ele>
        <time>2020-05-23T11:36:56Z</time>
      </trkpt>
      <trkpt lat="43.93158" lon="2.31368">
        <ele>191.92</ele>
        <time>2020-05-23T11:37:09Z</time>
      </trkpt>
      <trkpt lat="43.93158" lon="2.31368">
        <ele>193.36</ele>
        <time>2020-05-23T11:37:26Z</time>
      </trkpt>
      <trkpt lat="43.93157" lon="2.3137">
        <ele>192.88</ele>
        <time>2020-05-23T11:37:44Z</time>
      </trkpt>
      <trkpt lat="43.93158" lon="2.31369">
        <ele>193.36</ele>
        <time>2020-05-23T11:38:02Z</time>
      </trkpt>
      <trkpt lat="43.93158" lon="2.31369">
        <ele>190.48</ele>
        <time>2020-05-23T11:38:22Z</time>
      </trkpt>
      <trkpt lat="43.93159" lon="2.31367">
        <ele>189.52</ele>
        <time>2020-05-23T11:38:35Z</time>
      </trkpt>
      <trkpt lat="43.93158" lon="2.31367">
        <ele>189.04</ele>
        <time>2020-05-23T11:38:51Z</time>
      </trkpt>
      <trkpt lat="43.93157" lon="2.31369">
        <ele>190.48</ele>
        <time>2020-05-23T11:39:09Z</time>
      </trkpt>
      <trkpt lat="43.93157" lon="2.31371">
        <ele>192.4</ele>
        <time>2020-05-23T11:39:24Z</time>
      </trkpt>
      <trkpt lat="43.93157" lon="2.31371">
        <ele>194.32</ele>
        <time>2020-05-23T11:39:39Z</time>
      </trkpt>
      <trkpt lat="43.93158" lon="2.31369">
        <ele>192.4</ele>
        <time>2020-05-23T11:39:57Z</time>
      </trkpt>
      <trkpt lat="43.93157" lon="2.3137">
        <ele>193.36</ele>
        <time>2020-05-23T11:40:11Z</time>
      </trkpt>
      <trkpt lat="43.93159" lon="2.31369">
        <ele>194.32</ele>
        <time>2020-05-23T11:40:23Z</time>
      </trkpt>
      <trkpt lat="43.93159" lon="2.3137">
        <ele>194.8</ele>
        <time>2020-05-23T11:40:34Z</time>
      </trkpt>
      <trkpt lat="43.93163" lon="2.31368">
        <ele>194.32</ele>
        <time>2020-05-23T11:40:48Z</time>
      </trkpt>
      <trkpt lat="43.93164" lon="2.31369">
        <ele>195.77</ele>
        <time>2020-05-23T11:41:00Z</time>
      </trkpt>
      <trkpt lat="43.93162" lon="2.31368">
        <ele>195.77</ele>
        <time>2020-05-23T11:41:11Z</time>
      </trkpt>
      <trkpt lat="43.9316" lon="2.31369">
        <ele>194.8</ele>
        <time>2020-05-23T11:41:18Z</time>
      </trkpt>
      <trkpt lat="43.93158" lon="2.31368">
        <ele>191.92</ele>
        <time>2020-05-23T11:41:35Z</time>
      </trkpt>
      <trkpt lat="43.93159" lon="2.31368">
        <ele>192.4</ele>
        <time>2020-05-23T11:41:52Z</time>
      </trkpt>
      <trkpt lat="43.9316" lon="2.31368">
        <ele>192.4</ele>
        <time>2020-05-23T11:41:59Z</time>
      </trkpt>
      <trkpt lat="43.93159" lon="2.31367">
        <ele>191.44</ele>
        <time>2020-05-23T11:42:05Z</time>
      </trkpt>
      <trkpt lat="43.93159" lon="2.31366">
        <ele>192.4</ele>
        <time>2020-05-23T11:42:19Z</time>
      </trkpt>
      <trkpt lat="43.93162" lon="2.31364">
        <ele>192.4</ele>
        <time>2020-05-23T11:42:31Z</time>
      </trkpt>
      <trkpt lat="43.93164" lon="2.31362">
        <ele>191.92</ele>
        <time>2020-05-23T11:42:39Z</time>
      </trkpt>
      <trkpt lat="43.93163" lon="2.31364">
        <ele>191.92</ele>
        <time>2020-05-23T11:42:49Z</time>
      </trkpt>
      <trkpt lat="43.93166" lon="2.31367">
        <ele>191.92</ele>
        <time>2020-05-23T11:43:03Z</time>
      </trkpt>
      <trkpt lat="43.93167" lon="2.31368">
        <ele>193.36</ele>
        <time>2020-05-23T11:43:11Z</time>
      </trkpt>
      <trkpt lat="43.93166" lon="2.31367">
        <ele>193.84</ele>
        <time>2020-05-23T11:43:26Z</time>
      </trkpt>
      <trkpt lat="43.93162" lon="2.31364">
        <ele>193.36</ele>
        <time>2020-05-23T11:43:38Z</time>
      </trkpt>
      <trkpt lat="43.9316" lon="2.31366">
        <ele>193.36</ele>
        <time>2020-05-23T11:43:46Z</time>
      </trkpt>
      <trkpt lat="43.9316" lon="2.31363">
        <ele>193.84</ele>
        <time>2020-05-23T11:44:01Z</time>
      </trkpt>
      <trkpt lat="43.93159" lon="2.31361">
        <ele>193.36</ele>
        <time>2020-05-23T11:44:12Z</time>
      </trkpt>
      <trkpt lat="43.93162" lon="2.31364">
        <ele>192.4</ele>
        <time>2020-05-23T11:44:21Z</time>
      </trkpt>
      <trkpt lat="43.93159" lon="2.31363">
        <ele>191.92</ele>
        <time>2020-05-23T11:44:28Z</time>
      </trkpt>
      <trkpt lat="43.9316" lon="2.31365">
        <ele>191.44</ele>
        <time>2020-05-23T11:44:43Z</time>
      </trkpt>
      <trkpt lat="43.93159" lon="2.31364">
        <ele>190.96</ele>
        <time>2020-05-23T11:44:56Z</time>
      </trkpt>
      <trkpt lat="43.93159" lon="2.31361">
        <ele>187.11</ele>
        <time>2020-05-23T11:45:13Z</time>
      </trkpt>
      <trkpt lat="43.93162" lon="2.31362">
        <ele>187.59</ele>
        <time>2020-05-23T11:45:20Z</time>
      </trkpt>
      <trkpt lat="43.93159" lon="2.31362">
        <ele>188.08</ele>
        <time>2020-05-23T11:45:27Z</time>
      </trkpt>
      <trkpt lat="43.93157" lon="2.3136">
        <ele>187.59</ele>
        <time>2020-05-23T11:45:43Z</time>
      </trkpt>
      <trkpt lat="43.93161" lon="2.31364">
        <ele>188.56</ele>
        <time>2020-05-23T11:45:55Z</time>
      </trkpt>
      <trkpt lat="43.93159" lon="2.31364">
        <ele>188.08</ele>
        <time>2020-05-23T11:46:10Z</time>
      </trkpt>
      <trkpt lat="43.93163" lon="2.31365">
        <ele>188.56</ele>
        <time>2020-05-23T11:46:21Z</time>
      </trkpt>
      <trkpt lat="43.93164" lon="2.31366">
        <ele>189.04</ele>
        <time>2020-05-23T11:46:28Z</time>
      </trkpt>
      <trkpt lat="43.93164" lon="2.31366">
        <ele>188.08</ele>
        <time>2020-05-23T11:46:44Z</time>
      </trkpt>
      <trkpt lat="43.93166" lon="2.31366">
        <ele>189.04</ele>
        <time>2020-05-23T11:47:01Z</time>
      </trkpt>
      <trkpt lat="43.93164" lon="2.31367">
        <ele>187.59</ele>
        <time>2020-05-23T11:47:18Z</time>
      </trkpt>
      <trkpt lat="43.93164" lon="2.31368">
        <ele>187.59</ele>
        <time>2020-05-23T11:47:40Z</time>
      </trkpt>
      <trkpt lat="43.93165" lon="2.31368">
        <ele>186.63</ele>
        <time>2020-05-23T11:47:51Z</time>
      </trkpt>
      <trkpt lat="43.93165" lon="2.31366">
        <ele>187.59</ele>
        <time>2020-05-23T11:48:02Z</time>
      </trkpt>
      <trkpt lat="43.93161" lon="2.31364">
        <ele>187.59</ele>
        <time>2020-05-23T11:48:10Z</time>
      </trkpt>
      <trkpt lat="43.9316" lon="2.31362">
        <ele>188.08</ele>
        <time>2020-05-23T11:48:25Z</time>
      </trkpt>
      <trkpt lat="43.93159" lon="2.31359">
        <ele>187.11</ele>
        <time>2020-05-23T11:48:40Z</time>
      </trkpt>
      <trkpt lat="43.93159" lon="2.31358">
        <ele>186.15</ele>
        <time>2020-05-23T11:48:58Z</time>
      </trkpt>
      <trkpt lat="43.93157" lon="2.3136">
        <ele>186.15</ele>
        <time>2020-05-23T11:49:17Z</time>
      </trkpt>
      <trkpt lat="43.9316" lon="2.31363">
        <ele>186.15</ele>
        <time>2020-05-23T11:49:28Z</time>
      </trkpt>
      <trkpt lat="43.93163" lon="2.31364">
        <ele>187.11</ele>
        <time>2020-05-23T11:49:35Z</time>
      </trkpt>
      <trkpt lat="43.93164" lon="2.31366">
        <ele>187.59</ele>
        <time>2020-05-23T11:49:46Z</time>
      </trkpt>
      <trkpt lat="43.93164" lon="2.31368">
        <ele>188.08</ele>
        <time>2020-05-23T11:49:59Z</time>
      </trkpt>
      <trkpt lat="43.93163" lon="2.31368">
        <ele>188.08</ele>
        <time>2020-05-23T11:50:19Z</time>
      </trkpt>
      <trkpt lat="43.93163" lon="2.31367">
        <ele>184.23</ele>
        <time>2020-05-23T11:50:40Z</time>
      </trkpt>
      <trkpt lat="43.93163" lon="2.31367">
        <ele>183.27</ele>
        <time>2020-05-23T11:50:55Z</time>
      </trkpt>
      <trkpt lat="43.93163" lon="2.31366">
        <ele>182.79</ele>
        <time>2020-05-23T11:51:04Z</time>
      </trkpt>
      <trkpt lat="43.93164" lon="2.31364">
        <ele>183.27</ele>
        <time>2020-05-23T11:51:20Z</time>
      </trkpt>
      <trkpt lat="43.93163" lon="2.31362">
        <ele>183.75</ele>
        <time>2020-05-23T11:51:31Z</time>
      </trkpt>
      <trkpt lat="43.93162" lon="2.31362">
        <ele>184.71</ele>
        <time>2020-05-23T11:51:48Z</time>
      </trkpt>
      <trkpt lat="43.93164" lon="2.31363">
        <ele>185.67</ele>
        <time>2020-05-23T11:52:01Z</time>
      </trkpt>
      <trkpt lat="43.93162" lon="2.31366">
        <ele>184.71</ele>
        <time>2020-05-23T11:52:10Z</time>
      </trkpt>
      <trkpt lat="43.93162" lon="2.31371">
        <ele>184.23</ele>
        <time>2020-05-23T11:52:18Z</time>
      </trkpt>
      <trkpt lat="43.93161" lon="2.31374">
        <ele>184.71</ele>
        <time>2020-05-23T11:52:25Z</time>
      </trkpt>
      <trkpt lat="43.93161" lon="2.31376">
        <ele>184.71</ele>
        <time>2020-05-23T11:52:26Z</time>
      </trkpt>
      <trkpt lat="43.93162" lon="2.31385">
        <ele>184.71</ele>
        <time>2020-05-23T11:52:32Z</time>
      </trkpt>
      <trkpt lat="43.93164" lon="2.31391">
        <ele>184.71</ele>
        <time>2020-05-23T11:52:36Z</time>
      </trkpt>
      <trkpt lat="43.93164" lon="2.31394">
        <ele>184.23</ele>
        <time>2020-05-23T11:52:39Z</time>
      </trkpt>
      <trkpt lat="43.93165" lon="2.31408">
        <ele>184.23</ele>
        <time>2020-05-23T11:52:49Z</time>
      </trkpt>
      <trkpt lat="43.93166" lon="2.31422">
        <ele>182.79</ele>
        <time>2020-05-23T11:52:58Z</time>
      </trkpt>
      <trkpt lat="43.93166" lon="2.31423">
        <ele>182.79</ele>
        <time>2020-05-23T11:52:59Z</time>
      </trkpt>
      <trkpt lat="43.93168" lon="2.3144">
        <ele>182.79</ele>
        <time>2020-05-23T11:53:09Z</time>
      </trkpt>
      <trkpt lat="43.93171" lon="2.3145">
        <ele>181.83</ele>
        <time>2020-05-23T11:53:17Z</time>
      </trkpt>
      <trkpt lat="43.93172" lon="2.31466">
        <ele>180.87</ele>
        <time>2020-05-23T11:53:28Z</time>
      </trkpt>
      <trkpt lat="43.93172" lon="2.31476">
        <ele>182.31</ele>
        <time>2020-05-23T11:53:35Z</time>
      </trkpt>
      <trkpt lat="43.93175" lon="2.31493">
        <ele>181.83</ele>
        <time>2020-05-23T11:53:45Z</time>
      </trkpt>
      <trkpt lat="43.93178" lon="2.31504">
        <ele>180.87</ele>
        <time>2020-05-23T11:53:53Z</time>
      </trkpt>
      <trkpt lat="43.93182" lon="2.31517">
        <ele>179.9</ele>
        <time>2020-05-23T11:54:02Z</time>
      </trkpt>
      <trkpt lat="43.93185" lon="2.31527">
        <ele>179.9</ele>
        <time>2020-05-23T11:54:10Z</time>
      </trkpt>
      <trkpt lat="43.93191" lon="2.31539">
        <ele>180.87</ele>
        <time>2020-05-23T11:54:20Z</time>
      </trkpt>
      <trkpt lat="43.93194" lon="2.31541">
        <ele>180.38</ele>
        <time>2020-05-23T11:54:23Z</time>
      </trkpt>
      <trkpt lat="43.932" lon="2.31547">
        <ele>182.31</ele>
        <time>2020-05-23T11:54:33Z</time>
      </trkpt>
      <trkpt lat="43.932" lon="2.31551">
        <ele>185.19</ele>
        <time>2020-05-23T11:54:40Z</time>
      </trkpt>
      <trkpt lat="43.93197" lon="2.31557">
        <ele>188.56</ele>
        <time>2020-05-23T11:54:47Z</time>
      </trkpt>
      <trkpt lat="43.93195" lon="2.31558">
        <ele>189.52</ele>
        <time>2020-05-23T11:54:53Z</time>
      </trkpt>
      <trkpt lat="43.93191" lon="2.31558">
        <ele>190</ele>
        <time>2020-05-23T11:55:03Z</time>
      </trkpt>
      <trkpt lat="43.93185" lon="2.31561">
        <ele>190</ele>
        <time>2020-05-23T11:55:12Z</time>
      </trkpt>
      <trkpt lat="43.93183" lon="2.31564">
        <ele>190.96</ele>
        <time>2020-05-23T11:55:19Z</time>
      </trkpt>
      <trkpt lat="43.93175" lon="2.31571">
        <ele>193.36</ele>
        <time>2020-05-23T11:55:29Z</time>
      </trkpt>
      <trkpt lat="43.93173" lon="2.31573">
        <ele>194.32</ele>
        <time>2020-05-23T11:55:31Z</time>
      </trkpt>
      <trkpt lat="43.93166" lon="2.3158">
        <ele>197.21</ele>
        <time>2020-05-23T11:55:40Z</time>
      </trkpt>
      <trkpt lat="43.93159" lon="2.31586">
        <ele>199.13</ele>
        <time>2020-05-23T11:55:49Z</time>
      </trkpt>
      <trkpt lat="43.93155" lon="2.31591">
        <ele>200.09</ele>
        <time>2020-05-23T11:55:57Z</time>
      </trkpt>
      <trkpt lat="43.93149" lon="2.31601">
        <ele>203.46</ele>
        <time>2020-05-23T11:56:08Z</time>
      </trkpt>
      <trkpt lat="43.93145" lon="2.31607">
        <ele>203.94</ele>
        <time>2020-05-23T11:56:15Z</time>
      </trkpt>
      <trkpt lat="43.93141" lon="2.31616">
        <ele>203.94</ele>
        <time>2020-05-23T11:56:24Z</time>
      </trkpt>
      <trkpt lat="43.93137" lon="2.31625">
        <ele>202.98</ele>
        <time>2020-05-23T11:56:34Z</time>
      </trkpt>
      <trkpt lat="43.93135" lon="2.31635">
        <ele>201.53</ele>
        <time>2020-05-23T11:56:44Z</time>
      </trkpt>
      <trkpt lat="43.93134" lon="2.31646">
        <ele>202.49</ele>
        <time>2020-05-23T11:56:52Z</time>
      </trkpt>
      <trkpt lat="43.93133" lon="2.31656">
        <ele>204.9</ele>
        <time>2020-05-23T11:57:01Z</time>
      </trkpt>
      <trkpt lat="43.93132" lon="2.31668">
        <ele>206.34</ele>
        <time>2020-05-23T11:57:11Z</time>
      </trkpt>
      <trkpt lat="43.93131" lon="2.3168">
        <ele>207.78</ele>
        <time>2020-05-23T11:57:20Z</time>
      </trkpt>
      <trkpt lat="43.9313" lon="2.31688">
        <ele>208.74</ele>
        <time>2020-05-23T11:57:28Z</time>
      </trkpt>
      <trkpt lat="43.93129" lon="2.317">
        <ele>210.19</ele>
        <time>2020-05-23T11:57:38Z</time>
      </trkpt>
      <trkpt lat="43.93128" lon="2.31706">
        <ele>212.59</ele>
        <time>2020-05-23T11:57:48Z</time>
      </trkpt>
      <trkpt lat="43.93126" lon="2.31716">
        <ele>213.55</ele>
        <time>2020-05-23T11:57:57Z</time>
      </trkpt>
      <trkpt lat="43.93126" lon="2.31725">
        <ele>215.95</ele>
        <time>2020-05-23T11:58:06Z</time>
      </trkpt>
      <trkpt lat="43.93124" lon="2.31734">
        <ele>217.88</ele>
        <time>2020-05-23T11:58:15Z</time>
      </trkpt>
      <trkpt lat="43.93121" lon="2.31744">
        <ele>219.8</ele>
        <time>2020-05-23T11:58:23Z</time>
      </trkpt>
      <trkpt lat="43.93118" lon="2.31756">
        <ele>224.12</ele>
        <time>2020-05-23T11:58:34Z</time>
      </trkpt>
      <trkpt lat="43.93115" lon="2.31763">
        <ele>225.09</ele>
        <time>2020-05-23T11:58:41Z</time>
      </trkpt>
      <trkpt lat="43.93111" lon="2.3177">
        <ele>226.05</ele>
        <time>2020-05-23T11:58:48Z</time>
      </trkpt>
      <trkpt lat="43.93106" lon="2.31781">
        <ele>226.05</ele>
        <time>2020-05-23T11:58:58Z</time>
      </trkpt>
      <trkpt lat="43.93103" lon="2.3179">
        <ele>227.01</ele>
        <time>2020-05-23T11:59:07Z</time>
      </trkpt>
      <trkpt lat="43.93102" lon="2.31797">
        <ele>227.01</ele>
        <time>2020-05-23T11:59:14Z</time>
      </trkpt>
      <trkpt lat="43.93099" lon="2.31805">
        <ele>226.53</ele>
        <time>2020-05-23T11:59:23Z</time>
      </trkpt>
      <trkpt lat="43.93099" lon="2.31808">
        <ele>227.01</ele>
        <time>2020-05-23T11:59:33Z</time>
      </trkpt>
      <trkpt lat="43.93096" lon="2.31815">
        <ele>227.49</ele>
        <time>2020-05-23T11:59:46Z</time>
      </trkpt>
      <trkpt lat="43.93098" lon="2.31818">
        <ele>227.97</ele>
        <time>2020-05-23T11:59:54Z</time>
      </trkpt>
      <trkpt lat="43.93095" lon="2.31816">
        <ele>227.01</ele>
        <time>2020-05-23T12:00:05Z</time>
      </trkpt>
      <trkpt lat="43.93096" lon="2.31816">
        <ele>226.05</ele>
        <time>2020-05-23T12:00:19Z</time>
      </trkpt>
      <trkpt lat="43.93095" lon="2.31823">
        <ele>226.53</ele>
        <time>2020-05-23T12:00:27Z</time>
      </trkpt>
      <trkpt lat="43.93097" lon="2.3183">
        <ele>226.53</ele>
        <time>2020-05-23T12:00:35Z</time>
      </trkpt>
      <trkpt lat="43.93097" lon="2.31834">
        <ele>226.53</ele>
        <time>2020-05-23T12:00:37Z</time>
      </trkpt>
      <trkpt lat="43.93098" lon="2.31843">
        <ele>226.53</ele>
        <time>2020-05-23T12:00:42Z</time>
      </trkpt>
      <trkpt lat="43.93099" lon="2.31851">
        <ele>225.57</ele>
        <time>2020-05-23T12:00:48Z</time>
      </trkpt>
      <trkpt lat="43.931" lon="2.31864">
        <ele>225.57</ele>
        <time>2020-05-23T12:00:57Z</time>
      </trkpt>
      <trkpt lat="43.93101" lon="2.31878">
        <ele>225.09</ele>
        <time>2020-05-23T12:01:06Z</time>
      </trkpt>
      <trkpt lat="43.93102" lon="2.3189">
        <ele>227.49</ele>
        <time>2020-05-23T12:01:15Z</time>
      </trkpt>
      <trkpt lat="43.93104" lon="2.31903">
        <ele>227.97</ele>
        <time>2020-05-23T12:01:25Z</time>
      </trkpt>
      <trkpt lat="43.93106" lon="2.31914">
        <ele>228.45</ele>
        <time>2020-05-23T12:01:33Z</time>
      </trkpt>
      <trkpt lat="43.93106" lon="2.31928">
        <ele>229.41</ele>
        <time>2020-05-23T12:01:43Z</time>
      </trkpt>
      <trkpt lat="43.93106" lon="2.31938">
        <ele>230.37</ele>
        <time>2020-05-23T12:01:51Z</time>
      </trkpt>
      <trkpt lat="43.93102" lon="2.31947">
        <ele>231.33</ele>
        <time>2020-05-23T12:02:00Z</time>
      </trkpt>
      <trkpt lat="43.93101" lon="2.31955">
        <ele>237.58</ele>
        <time>2020-05-23T12:02:16Z</time>
      </trkpt>
      <trkpt lat="43.931" lon="2.31957">
        <ele>239.02</ele>
        <time>2020-05-23T12:02:22Z</time>
      </trkpt>
      <trkpt lat="43.931" lon="2.31956">
        <ele>240.47</ele>
        <time>2020-05-23T12:02:29Z</time>
      </trkpt>
      <trkpt lat="43.93101" lon="2.31959">
        <ele>244.31</ele>
        <time>2020-05-23T12:02:45Z</time>
      </trkpt>
      <trkpt lat="43.93102" lon="2.31959">
        <ele>243.83</ele>
        <time>2020-05-23T12:02:52Z</time>
      </trkpt>
      <trkpt lat="43.93102" lon="2.31959">
        <ele>243.83</ele>
        <time>2020-05-23T12:03:02Z</time>
      </trkpt>
      <trkpt lat="43.93101" lon="2.31964">
        <ele>244.31</ele>
        <time>2020-05-23T12:03:07Z</time>
      </trkpt>
      <trkpt lat="43.93097" lon="2.31971">
        <ele>243.83</ele>
        <time>2020-05-23T12:03:15Z</time>
      </trkpt>
      <trkpt lat="43.93093" lon="2.3198">
        <ele>244.31</ele>
        <time>2020-05-23T12:03:23Z</time>
      </trkpt>
      <trkpt lat="43.93086" lon="2.3199">
        <ele>245.27</ele>
        <time>2020-05-23T12:03:32Z</time>
      </trkpt>
      <trkpt lat="43.9308" lon="2.31994">
        <ele>245.75</ele>
        <time>2020-05-23T12:03:39Z</time>
      </trkpt>
      <trkpt lat="43.93075" lon="2.31993">
        <ele>247.68</ele>
        <time>2020-05-23T12:03:48Z</time>
      </trkpt>
      <trkpt lat="43.93074" lon="2.31989">
        <ele>249.12</ele>
        <time>2020-05-23T12:03:53Z</time>
      </trkpt>
      <trkpt lat="43.93074" lon="2.31983">
        <ele>251.04</ele>
        <time>2020-05-23T12:03:59Z</time>
      </trkpt>
      <trkpt lat="43.9307" lon="2.31975">
        <ele>250.08</ele>
        <time>2020-05-23T12:04:07Z</time>
      </trkpt>
      <trkpt lat="43.93066" lon="2.31972">
        <ele>249.6</ele>
        <time>2020-05-23T12:04:13Z</time>
      </trkpt>
      <trkpt lat="43.93062" lon="2.31975">
        <ele>249.6</ele>
        <time>2020-05-23T12:04:20Z</time>
      </trkpt>
      <trkpt lat="43.93057" lon="2.31982">
        <ele>250.08</ele>
        <time>2020-05-23T12:04:28Z</time>
      </trkpt>
      <trkpt lat="43.93052" lon="2.31986">
        <ele>251.04</ele>
        <time>2020-05-23T12:04:37Z</time>
      </trkpt>
      <trkpt lat="43.93043" lon="2.3199">
        <ele>251.52</ele>
        <time>2020-05-23T12:04:47Z</time>
      </trkpt>
      <trkpt lat="43.93036" lon="2.31993">
        <ele>253.93</ele>
        <time>2020-05-23T12:04:55Z</time>
      </trkpt>
      <trkpt lat="43.93028" lon="2.31993">
        <ele>256.81</ele>
        <time>2020-05-23T12:05:03Z</time>
      </trkpt>
      <trkpt lat="43.93021" lon="2.31993">
        <ele>260.17</ele>
        <time>2020-05-23T12:05:12Z</time>
      </trkpt>
      <trkpt lat="43.93015" lon="2.31993">
        <ele>263.54</ele>
        <time>2020-05-23T12:05:21Z</time>
      </trkpt>
      <trkpt lat="43.93006" lon="2.3199">
        <ele>265.94</ele>
        <time>2020-05-23T12:05:31Z</time>
      </trkpt>
      <trkpt lat="43.92999" lon="2.31988">
        <ele>267.86</ele>
        <time>2020-05-23T12:05:40Z</time>
      </trkpt>
      <trkpt lat="43.92994" lon="2.31985">
        <ele>270.27</ele>
        <time>2020-05-23T12:05:48Z</time>
      </trkpt>
      <trkpt lat="43.92992" lon="2.31985">
        <ele>270.27</ele>
        <time>2020-05-23T12:05:50Z</time>
      </trkpt>
      <trkpt lat="43.92986" lon="2.31975">
        <ele>271.71</ele>
        <time>2020-05-23T12:06:00Z</time>
      </trkpt>
      <trkpt lat="43.92986" lon="2.31966">
        <ele>270.27</ele>
        <time>2020-05-23T12:06:09Z</time>
      </trkpt>
      <trkpt lat="43.92986" lon="2.31958">
        <ele>270.27</ele>
        <time>2020-05-23T12:06:16Z</time>
      </trkpt>
      <trkpt lat="43.92985" lon="2.31949">
        <ele>270.27</ele>
        <time>2020-05-23T12:06:24Z</time>
      </trkpt>
      <trkpt lat="43.92981" lon="2.31938">
        <ele>269.79</ele>
        <time>2020-05-23T12:06:34Z</time>
      </trkpt>
      <trkpt lat="43.92978" lon="2.31927">
        <ele>269.31</ele>
        <time>2020-05-23T12:06:42Z</time>
      </trkpt>
      <trkpt lat="43.92975" lon="2.31918">
        <ele>269.31</ele>
        <time>2020-05-23T12:06:51Z</time>
      </trkpt>
      <trkpt lat="43.92972" lon="2.31909">
        <ele>271.71</ele>
        <time>2020-05-23T12:06:59Z</time>
      </trkpt>
      <trkpt lat="43.9297" lon="2.31902">
        <ele>273.63</ele>
        <time>2020-05-23T12:07:08Z</time>
      </trkpt>
      <trkpt lat="43.92963" lon="2.31889">
        <ele>274.59</ele>
        <time>2020-05-23T12:07:19Z</time>
      </trkpt>
      <trkpt lat="43.92956" lon="2.31878">
        <ele>274.59</ele>
        <time>2020-05-23T12:07:28Z</time>
      </trkpt>
      <trkpt lat="43.92949" lon="2.31864">
        <ele>275.56</ele>
        <time>2020-05-23T12:07:38Z</time>
      </trkpt>
      <trkpt lat="43.92947" lon="2.31861">
        <ele>280.36</ele>
        <time>2020-05-23T12:07:48Z</time>
      </trkpt>
      <trkpt lat="43.92944" lon="2.31864">
        <ele>282.28</ele>
        <time>2020-05-23T12:07:56Z</time>
      </trkpt>
      <trkpt lat="43.92939" lon="2.31868">
        <ele>281.8</ele>
        <time>2020-05-23T12:08:04Z</time>
      </trkpt>
      <trkpt lat="43.92933" lon="2.31873">
        <ele>281.32</ele>
        <time>2020-05-23T12:08:14Z</time>
      </trkpt>
      <trkpt lat="43.92926" lon="2.31878">
        <ele>282.77</ele>
        <time>2020-05-23T12:08:23Z</time>
      </trkpt>
      <trkpt lat="43.92923" lon="2.31883">
        <ele>286.13</ele>
        <time>2020-05-23T12:08:36Z</time>
      </trkpt>
      <trkpt lat="43.92916" lon="2.31887">
        <ele>288.05</ele>
        <time>2020-05-23T12:08:47Z</time>
      </trkpt>
      <trkpt lat="43.92905" lon="2.31892">
        <ele>294.78</ele>
        <time>2020-05-23T12:08:57Z</time>
      </trkpt>
      <trkpt lat="43.92897" lon="2.31897">
        <ele>296.22</ele>
        <time>2020-05-23T12:09:06Z</time>
      </trkpt>
      <trkpt lat="43.92893" lon="2.31895">
        <ele>299.59</ele>
        <time>2020-05-23T12:09:14Z</time>
      </trkpt>
      <trkpt lat="43.92892" lon="2.31893">
        <ele>302.47</ele>
        <time>2020-05-23T12:09:23Z</time>
      </trkpt>
      <trkpt lat="43.92894" lon="2.31884">
        <ele>302.95</ele>
        <time>2020-05-23T12:09:32Z</time>
      </trkpt>
      <trkpt lat="43.92895" lon="2.31876">
        <ele>302.95</ele>
        <time>2020-05-23T12:09:40Z</time>
      </trkpt>
      <trkpt lat="43.92895" lon="2.31867">
        <ele>301.51</ele>
        <time>2020-05-23T12:09:49Z</time>
      </trkpt>
      <trkpt lat="43.92893" lon="2.31856">
        <ele>300.07</ele>
        <time>2020-05-23T12:09:59Z</time>
      </trkpt>
      <trkpt lat="43.9289" lon="2.31846">
        <ele>297.67</ele>
        <time>2020-05-23T12:10:07Z</time>
      </trkpt>
      <trkpt lat="43.92887" lon="2.31841">
        <ele>295.74</ele>
        <time>2020-05-23T12:10:22Z</time>
      </trkpt>
      <trkpt lat="43.9288" lon="2.31831">
        <ele>296.7</ele>
        <time>2020-05-23T12:10:30Z</time>
      </trkpt>
      <trkpt lat="43.92874" lon="2.31824">
        <ele>298.15</ele>
        <time>2020-05-23T12:10:38Z</time>
      </trkpt>
      <trkpt lat="43.92868" lon="2.31821">
        <ele>297.67</ele>
        <time>2020-05-23T12:10:45Z</time>
      </trkpt>
      <trkpt lat="43.92867" lon="2.31821">
        <ele>298.15</ele>
        <time>2020-05-23T12:10:46Z</time>
      </trkpt>
      <trkpt lat="43.92856" lon="2.31822">
        <ele>298.63</ele>
        <time>2020-05-23T12:10:56Z</time>
      </trkpt>
      <trkpt lat="43.92849" lon="2.31824">
        <ele>302.47</ele>
        <time>2020-05-23T12:11:05Z</time>
      </trkpt>
      <trkpt lat="43.92844" lon="2.31829">
        <ele>304.88</ele>
        <time>2020-05-23T12:11:13Z</time>
      </trkpt>
      <trkpt lat="43.9284" lon="2.31836">
        <ele>307.76</ele>
        <time>2020-05-23T12:11:22Z</time>
      </trkpt>
      <trkpt lat="43.92839" lon="2.31843">
        <ele>309.68</ele>
        <time>2020-05-23T12:11:30Z</time>
      </trkpt>
      <trkpt lat="43.92838" lon="2.31849">
        <ele>311.12</ele>
        <time>2020-05-23T12:11:37Z</time>
      </trkpt>
      <trkpt lat="43.92837" lon="2.31861">
        <ele>313.53</ele>
        <time>2020-05-23T12:11:47Z</time>
      </trkpt>
      <trkpt lat="43.92835" lon="2.3187">
        <ele>314.97</ele>
        <time>2020-05-23T12:11:55Z</time>
      </trkpt>
      <trkpt lat="43.9283" lon="2.31881">
        <ele>315.93</ele>
        <time>2020-05-23T12:12:05Z</time>
      </trkpt>
      <trkpt lat="43.92825" lon="2.31893">
        <ele>317.85</ele>
        <time>2020-05-23T12:12:14Z</time>
      </trkpt>
      <trkpt lat="43.92821" lon="2.31902">
        <ele>320.26</ele>
        <time>2020-05-23T12:12:24Z</time>
      </trkpt>
      <trkpt lat="43.92816" lon="2.31904">
        <ele>322.66</ele>
        <time>2020-05-23T12:12:32Z</time>
      </trkpt>
      <trkpt lat="43.92813" lon="2.31906">
        <ele>326.02</ele>
        <time>2020-05-23T12:12:41Z</time>
      </trkpt>
      <trkpt lat="43.92813" lon="2.3191">
        <ele>326.02</ele>
        <time>2020-05-23T12:12:49Z</time>
      </trkpt>
      <trkpt lat="43.92811" lon="2.31915">
        <ele>325.54</ele>
        <time>2020-05-23T12:12:57Z</time>
      </trkpt>
      <trkpt lat="43.92806" lon="2.31925">
        <ele>326.5</ele>
        <time>2020-05-23T12:13:05Z</time>
      </trkpt>
      <trkpt lat="43.92802" lon="2.31931">
        <ele>327.95</ele>
        <time>2020-05-23T12:13:13Z</time>
      </trkpt>
      <trkpt lat="43.92796" lon="2.3194">
        <ele>328.43</ele>
        <time>2020-05-23T12:13:21Z</time>
      </trkpt>
      <trkpt lat="43.9279" lon="2.31949">
        <ele>329.39</ele>
        <time>2020-05-23T12:13:29Z</time>
      </trkpt>
      <trkpt lat="43.9278" lon="2.31962">
        <ele>332.75</ele>
        <time>2020-05-23T12:13:38Z</time>
      </trkpt>
      <trkpt lat="43.92775" lon="2.3197">
        <ele>333.71</ele>
        <time>2020-05-23T12:13:47Z</time>
      </trkpt>
      <trkpt lat="43.92769" lon="2.31979">
        <ele>334.68</ele>
        <time>2020-05-23T12:13:56Z</time>
      </trkpt>
      <trkpt lat="43.92768" lon="2.31984">
        <ele>336.12</ele>
        <time>2020-05-23T12:14:07Z</time>
      </trkpt>
      <trkpt lat="43.92767" lon="2.31987">
        <ele>339</ele>
        <time>2020-05-23T12:14:14Z</time>
      </trkpt>
      <trkpt lat="43.92768" lon="2.31989">
        <ele>341.41</ele>
        <time>2020-05-23T12:14:23Z</time>
      </trkpt>
      <trkpt lat="43.92769" lon="2.31993">
        <ele>342.85</ele>
        <time>2020-05-23T12:14:35Z</time>
      </trkpt>
      <trkpt lat="43.92767" lon="2.31998">
        <ele>343.81</ele>
        <time>2020-05-23T12:14:43Z</time>
      </trkpt>
      <trkpt lat="43.92764" lon="2.32005">
        <ele>344.29</ele>
        <time>2020-05-23T12:14:49Z</time>
      </trkpt>
      <trkpt lat="43.92763" lon="2.32013">
        <ele>345.73</ele>
        <time>2020-05-23T12:14:57Z</time>
      </trkpt>
      <trkpt lat="43.92762" lon="2.32022">
        <ele>348.13</ele>
        <time>2020-05-23T12:15:04Z</time>
      </trkpt>
      <trkpt lat="43.92761" lon="2.32031">
        <ele>349.58</ele>
        <time>2020-05-23T12:15:12Z</time>
      </trkpt>
      <trkpt lat="43.92762" lon="2.32044">
        <ele>351.5</ele>
        <time>2020-05-23T12:15:21Z</time>
      </trkpt>
      <trkpt lat="43.92763" lon="2.32052">
        <ele>352.46</ele>
        <time>2020-05-23T12:15:28Z</time>
      </trkpt>
      <trkpt lat="43.92763" lon="2.32056">
        <ele>352.94</ele>
        <time>2020-05-23T12:15:31Z</time>
      </trkpt>
      <trkpt lat="43.92764" lon="2.3207">
        <ele>355.83</ele>
        <time>2020-05-23T12:15:41Z</time>
      </trkpt>
      <trkpt lat="43.92765" lon="2.32077">
        <ele>357.27</ele>
        <time>2020-05-23T12:15:47Z</time>
      </trkpt>
      <trkpt lat="43.92765" lon="2.32086">
        <ele>359.67</ele>
        <time>2020-05-23T12:15:54Z</time>
      </trkpt>
      <trkpt lat="43.92767" lon="2.32095">
        <ele>363.04</ele>
        <time>2020-05-23T12:16:03Z</time>
      </trkpt>
      <trkpt lat="43.92768" lon="2.32102">
        <ele>364.48</ele>
        <time>2020-05-23T12:16:09Z</time>
      </trkpt>
      <trkpt lat="43.92768" lon="2.32114">
        <ele>365.92</ele>
        <time>2020-05-23T12:16:17Z</time>
      </trkpt>
      <trkpt lat="43.92768" lon="2.32127">
        <ele>368.32</ele>
        <time>2020-05-23T12:16:26Z</time>
      </trkpt>
      <trkpt lat="43.92768" lon="2.32134">
        <ele>368.8</ele>
        <time>2020-05-23T12:16:32Z</time>
      </trkpt>
      <trkpt lat="43.92767" lon="2.3215">
        <ele>369.76</ele>
        <time>2020-05-23T12:16:42Z</time>
      </trkpt>
      <trkpt lat="43.92768" lon="2.32165">
        <ele>370.73</ele>
        <time>2020-05-23T12:16:51Z</time>
      </trkpt>
      <trkpt lat="43.92767" lon="2.32173">
        <ele>371.69</ele>
        <time>2020-05-23T12:17:00Z</time>
      </trkpt>
      <trkpt lat="43.92766" lon="2.32188">
        <ele>372.65</ele>
        <time>2020-05-23T12:17:11Z</time>
      </trkpt>
      <trkpt lat="43.92762" lon="2.32203">
        <ele>373.61</ele>
        <time>2020-05-23T12:17:21Z</time>
      </trkpt>
      <trkpt lat="43.92759" lon="2.32217">
        <ele>375.05</ele>
        <time>2020-05-23T12:17:31Z</time>
      </trkpt>
      <trkpt lat="43.92753" lon="2.32233">
        <ele>377.45</ele>
        <time>2020-05-23T12:17:42Z</time>
      </trkpt>
      <trkpt lat="43.9275" lon="2.32244">
        <ele>377.45</ele>
        <time>2020-05-23T12:17:51Z</time>
      </trkpt>
      <trkpt lat="43.92746" lon="2.32257">
        <ele>377.94</ele>
        <time>2020-05-23T12:18:01Z</time>
      </trkpt>
      <trkpt lat="43.92745" lon="2.32266">
        <ele>377.94</ele>
        <time>2020-05-23T12:18:08Z</time>
      </trkpt>
      <trkpt lat="43.92743" lon="2.32284">
        <ele>377.45</ele>
        <time>2020-05-23T12:18:18Z</time>
      </trkpt>
      <trkpt lat="43.92743" lon="2.32302">
        <ele>377.94</ele>
        <time>2020-05-23T12:18:28Z</time>
      </trkpt>
      <trkpt lat="43.92744" lon="2.32326">
        <ele>377.94</ele>
        <time>2020-05-23T12:18:41Z</time>
      </trkpt>
      <trkpt lat="43.92746" lon="2.32344">
        <ele>377.94</ele>
        <time>2020-05-23T12:18:51Z</time>
      </trkpt>
      <trkpt lat="43.92746" lon="2.32362">
        <ele>378.42</ele>
        <time>2020-05-23T12:19:01Z</time>
      </trkpt>
      <trkpt lat="43.92747" lon="2.32378">
        <ele>379.86</ele>
        <time>2020-05-23T12:19:10Z</time>
      </trkpt>
      <trkpt lat="43.92748" lon="2.32397">
        <ele>380.82</ele>
        <time>2020-05-23T12:19:20Z</time>
      </trkpt>
      <trkpt lat="43.92747" lon="2.32417">
        <ele>380.82</ele>
        <time>2020-05-23T12:19:31Z</time>
      </trkpt>
      <trkpt lat="43.92748" lon="2.3242">
        <ele>381.3</ele>
        <time>2020-05-23T12:19:33Z</time>
      </trkpt>
      <trkpt lat="43.92747" lon="2.3244">
        <ele>382.26</ele>
        <time>2020-05-23T12:19:44Z</time>
      </trkpt>
      <trkpt lat="43.92745" lon="2.32458">
        <ele>383.22</ele>
        <time>2020-05-23T12:19:54Z</time>
      </trkpt>
      <trkpt lat="43.92743" lon="2.32472">
        <ele>383.22</ele>
        <time>2020-05-23T12:20:03Z</time>
      </trkpt>
      <trkpt lat="43.92738" lon="2.32495">
        <ele>384.18</ele>
        <time>2020-05-23T12:20:15Z</time>
      </trkpt>
      <trkpt lat="43.92738" lon="2.32498">
        <ele>384.18</ele>
        <time>2020-05-23T12:20:17Z</time>
      </trkpt>
      <trkpt lat="43.92735" lon="2.3251">
        <ele>384.18</ele>
        <time>2020-05-23T12:20:24Z</time>
      </trkpt>
      <trkpt lat="43.9273" lon="2.32529">
        <ele>384.18</ele>
        <time>2020-05-23T12:20:35Z</time>
      </trkpt>
      <trkpt lat="43.92724" lon="2.32545">
        <ele>384.66</ele>
        <time>2020-05-23T12:20:45Z</time>
      </trkpt>
      <trkpt lat="43.92721" lon="2.32556">
        <ele>384.66</ele>
        <time>2020-05-23T12:20:52Z</time>
      </trkpt>
      <trkpt lat="43.92714" lon="2.3257">
        <ele>386.11</ele>
        <time>2020-05-23T12:21:02Z</time>
      </trkpt>
      <trkpt lat="43.92709" lon="2.32586">
        <ele>386.11</ele>
        <time>2020-05-23T12:21:12Z</time>
      </trkpt>
      <trkpt lat="43.92705" lon="2.326">
        <ele>386.59</ele>
        <time>2020-05-23T12:21:21Z</time>
      </trkpt>
      <trkpt lat="43.92702" lon="2.32613">
        <ele>386.11</ele>
        <time>2020-05-23T12:21:29Z</time>
      </trkpt>
      <trkpt lat="43.927" lon="2.32623">
        <ele>386.59</ele>
        <time>2020-05-23T12:21:36Z</time>
      </trkpt>
      <trkpt lat="43.92695" lon="2.32644">
        <ele>387.55</ele>
        <time>2020-05-23T12:21:49Z</time>
      </trkpt>
      <trkpt lat="43.92691" lon="2.32661">
        <ele>388.51</ele>
        <time>2020-05-23T12:22:00Z</time>
      </trkpt>
      <trkpt lat="43.92688" lon="2.3267">
        <ele>389.47</ele>
        <time>2020-05-23T12:22:08Z</time>
      </trkpt>
      <trkpt lat="43.92688" lon="2.32674">
        <ele>389.95</ele>
        <time>2020-05-23T12:22:15Z</time>
      </trkpt>
      <trkpt lat="43.92688" lon="2.32676">
        <ele>390.43</ele>
        <time>2020-05-23T12:22:23Z</time>
      </trkpt>
      <trkpt lat="43.92688" lon="2.32678">
        <ele>391.39</ele>
        <time>2020-05-23T12:22:39Z</time>
      </trkpt>
      <trkpt lat="43.92686" lon="2.32685">
        <ele>391.87</ele>
        <time>2020-05-23T12:22:46Z</time>
      </trkpt>
      <trkpt lat="43.92681" lon="2.32699">
        <ele>392.84</ele>
        <time>2020-05-23T12:22:55Z</time>
      </trkpt>
      <trkpt lat="43.92676" lon="2.32716">
        <ele>393.32</ele>
        <time>2020-05-23T12:23:06Z</time>
      </trkpt>
      <trkpt lat="43.92673" lon="2.3273">
        <ele>392.84</ele>
        <time>2020-05-23T12:23:15Z</time>
      </trkpt>
      <trkpt lat="43.92669" lon="2.32742">
        <ele>392.36</ele>
        <time>2020-05-23T12:23:24Z</time>
      </trkpt>
      <trkpt lat="43.92666" lon="2.32756">
        <ele>391.87</ele>
        <time>2020-05-23T12:23:33Z</time>
      </trkpt>
      <trkpt lat="43.92661" lon="2.32771">
        <ele>391.39</ele>
        <time>2020-05-23T12:23:42Z</time>
      </trkpt>
      <trkpt lat="43.92655" lon="2.32796">
        <ele>391.87</ele>
        <time>2020-05-23T12:23:56Z</time>
      </trkpt>
      <trkpt lat="43.92648" lon="2.3282">
        <ele>391.87</ele>
        <time>2020-05-23T12:24:10Z</time>
      </trkpt>
      <trkpt lat="43.92644" lon="2.32838">
        <ele>392.84</ele>
        <time>2020-05-23T12:24:20Z</time>
      </trkpt>
      <trkpt lat="43.92637" lon="2.32862">
        <ele>394.28</ele>
        <time>2020-05-23T12:24:33Z</time>
      </trkpt>
      <trkpt lat="43.92632" lon="2.32883">
        <ele>395.24</ele>
        <time>2020-05-23T12:24:45Z</time>
      </trkpt>
      <trkpt lat="43.92626" lon="2.329">
        <ele>396.2</ele>
        <time>2020-05-23T12:24:55Z</time>
      </trkpt>
      <trkpt lat="43.92622" lon="2.3292">
        <ele>396.68</ele>
        <time>2020-05-23T12:25:06Z</time>
      </trkpt>
      <trkpt lat="43.92614" lon="2.32942">
        <ele>397.16</ele>
        <time>2020-05-23T12:25:20Z</time>
      </trkpt>
      <trkpt lat="43.92608" lon="2.32967">
        <ele>396.2</ele>
        <time>2020-05-23T12:25:34Z</time>
      </trkpt>
      <trkpt lat="43.92605" lon="2.32981">
        <ele>395.72</ele>
        <time>2020-05-23T12:25:44Z</time>
      </trkpt>
      <trkpt lat="43.92604" lon="2.32985">
        <ele>396.2</ele>
        <time>2020-05-23T12:25:53Z</time>
      </trkpt>
      <trkpt lat="43.926" lon="2.33001">
        <ele>394.76</ele>
        <time>2020-05-23T12:26:03Z</time>
      </trkpt>
      <trkpt lat="43.92596" lon="2.33018">
        <ele>393.32</ele>
        <time>2020-05-23T12:26:14Z</time>
      </trkpt>
      <trkpt lat="43.92593" lon="2.33034">
        <ele>392.36</ele>
        <time>2020-05-23T12:26:24Z</time>
      </trkpt>
      <trkpt lat="43.92589" lon="2.33052">
        <ele>393.32</ele>
        <time>2020-05-23T12:26:35Z</time>
      </trkpt>
      <trkpt lat="43.92584" lon="2.33066">
        <ele>392.84</ele>
        <time>2020-05-23T12:26:44Z</time>
      </trkpt>
      <trkpt lat="43.9258" lon="2.33076">
        <ele>391.87</ele>
        <time>2020-05-23T12:26:51Z</time>
      </trkpt>
      <trkpt lat="43.92577" lon="2.33081">
        <ele>391.39</ele>
        <time>2020-05-23T12:26:55Z</time>
      </trkpt>
      <trkpt lat="43.92573" lon="2.33092">
        <ele>390.91</ele>
        <time>2020-05-23T12:27:04Z</time>
      </trkpt>
      <trkpt lat="43.92567" lon="2.33106">
        <ele>390.91</ele>
        <time>2020-05-23T12:27:13Z</time>
      </trkpt>
      <trkpt lat="43.9256" lon="2.33124">
        <ele>391.39</ele>
        <time>2020-05-23T12:27:24Z</time>
      </trkpt>
      <trkpt lat="43.92555" lon="2.33134">
        <ele>390.43</ele>
        <time>2020-05-23T12:27:32Z</time>
      </trkpt>
      <trkpt lat="43.92549" lon="2.33149">
        <ele>388.51</ele>
        <time>2020-05-23T12:27:41Z</time>
      </trkpt>
      <trkpt lat="43.92541" lon="2.33164">
        <ele>386.11</ele>
        <time>2020-05-23T12:27:51Z</time>
      </trkpt>
      <trkpt lat="43.92539" lon="2.33171">
        <ele>384.18</ele>
        <time>2020-05-23T12:27:59Z</time>
      </trkpt>
      <trkpt lat="43.92539" lon="2.33171">
        <ele>384.18</ele>
        <time>2020-05-23T12:28:01Z</time>
      </trkpt>
      <trkpt lat="43.9253" lon="2.33187">
        <ele>383.7</ele>
        <time>2020-05-23T12:28:10Z</time>
      </trkpt>
      <trkpt lat="43.9252" lon="2.33204">
        <ele>387.07</ele>
        <time>2020-05-23T12:28:20Z</time>
      </trkpt>
      <trkpt lat="43.92509" lon="2.33217">
        <ele>387.55</ele>
        <time>2020-05-23T12:28:29Z</time>
      </trkpt>
      <trkpt lat="43.92501" lon="2.33232">
        <ele>387.07</ele>
        <time>2020-05-23T12:28:39Z</time>
      </trkpt>
      <trkpt lat="43.92495" lon="2.33248">
        <ele>388.99</ele>
        <time>2020-05-23T12:28:49Z</time>
      </trkpt>
      <trkpt lat="43.92491" lon="2.33262">
        <ele>389.95</ele>
        <time>2020-05-23T12:28:58Z</time>
      </trkpt>
      <trkpt lat="43.92487" lon="2.33278">
        <ele>390.91</ele>
        <time>2020-05-23T12:29:08Z</time>
      </trkpt>
      <trkpt lat="43.92483" lon="2.33289">
        <ele>391.87</ele>
        <time>2020-05-23T12:29:16Z</time>
      </trkpt>
      <trkpt lat="43.92482" lon="2.33295">
        <ele>392.36</ele>
        <time>2020-05-23T12:29:20Z</time>
      </trkpt>
      <trkpt lat="43.92477" lon="2.33312">
        <ele>393.32</ele>
        <time>2020-05-23T12:29:31Z</time>
      </trkpt>
      <trkpt lat="43.92471" lon="2.33328">
        <ele>394.28</ele>
        <time>2020-05-23T12:29:42Z</time>
      </trkpt>
      <trkpt lat="43.92465" lon="2.33343">
        <ele>395.24</ele>
        <time>2020-05-23T12:29:53Z</time>
      </trkpt>
      <trkpt lat="43.9246" lon="2.33353">
        <ele>395.72</ele>
        <time>2020-05-23T12:30:01Z</time>
      </trkpt>
      <trkpt lat="43.9246" lon="2.33354">
        <ele>395.72</ele>
        <time>2020-05-23T12:30:02Z</time>
      </trkpt>
      <trkpt lat="43.92454" lon="2.33364">
        <ele>396.68</ele>
        <time>2020-05-23T12:30:11Z</time>
      </trkpt>
      <trkpt lat="43.92449" lon="2.33376">
        <ele>398.12</ele>
        <time>2020-05-23T12:30:20Z</time>
      </trkpt>
      <trkpt lat="43.92443" lon="2.33389">
        <ele>399.57</ele>
        <time>2020-05-23T12:30:29Z</time>
      </trkpt>
      <trkpt lat="43.92437" lon="2.33403">
        <ele>401.01</ele>
        <time>2020-05-23T12:30:39Z</time>
      </trkpt>
      <trkpt lat="43.92428" lon="2.33422">
        <ele>402.45</ele>
        <time>2020-05-23T12:30:52Z</time>
      </trkpt>
      <trkpt lat="43.92423" lon="2.3344">
        <ele>403.41</ele>
        <time>2020-05-23T12:31:02Z</time>
      </trkpt>
      <trkpt lat="43.92417" lon="2.3346">
        <ele>403.89</ele>
        <time>2020-05-23T12:31:13Z</time>
      </trkpt>
      <trkpt lat="43.92415" lon="2.33477">
        <ele>404.37</ele>
        <time>2020-05-23T12:31:23Z</time>
      </trkpt>
      <trkpt lat="43.92413" lon="2.33494">
        <ele>404.85</ele>
        <time>2020-05-23T12:31:33Z</time>
      </trkpt>
      <trkpt lat="43.9241" lon="2.33513">
        <ele>406.29</ele>
        <time>2020-05-23T12:31:44Z</time>
      </trkpt>
      <trkpt lat="43.92408" lon="2.33524">
        <ele>407.26</ele>
        <time>2020-05-23T12:31:52Z</time>
      </trkpt>
      <trkpt lat="43.92408" lon="2.33527">
        <ele>407.26</ele>
        <time>2020-05-23T12:31:54Z</time>
      </trkpt>
      <trkpt lat="43.92405" lon="2.33549">
        <ele>407.26</ele>
        <time>2020-05-23T12:32:07Z</time>
      </trkpt>
      <trkpt lat="43.92405" lon="2.33572">
        <ele>408.22</ele>
        <time>2020-05-23T12:32:19Z</time>
      </trkpt>
      <trkpt lat="43.92404" lon="2.33599">
        <ele>409.18</ele>
        <time>2020-05-23T12:32:33Z</time>
      </trkpt>
      <trkpt lat="43.92403" lon="2.33619">
        <ele>410.14</ele>
        <time>2020-05-23T12:32:43Z</time>
      </trkpt>
      <trkpt lat="43.92402" lon="2.33642">
        <ele>410.62</ele>
        <time>2020-05-23T12:32:54Z</time>
      </trkpt>
      <trkpt lat="43.92403" lon="2.33656">
        <ele>411.1</ele>
        <time>2020-05-23T12:33:02Z</time>
      </trkpt>
      <trkpt lat="43.92402" lon="2.33676">
        <ele>411.1</ele>
        <time>2020-05-23T12:33:13Z</time>
      </trkpt>
      <trkpt lat="43.92402" lon="2.33694">
        <ele>411.1</ele>
        <time>2020-05-23T12:33:23Z</time>
      </trkpt>
      <trkpt lat="43.924" lon="2.33715">
        <ele>412.06</ele>
        <time>2020-05-23T12:33:34Z</time>
      </trkpt>
      <trkpt lat="43.92401" lon="2.33732">
        <ele>412.54</ele>
        <time>2020-05-23T12:33:43Z</time>
      </trkpt>
      <trkpt lat="43.924" lon="2.33749">
        <ele>413.5</ele>
        <time>2020-05-23T12:33:52Z</time>
      </trkpt>
      <trkpt lat="43.924" lon="2.33764">
        <ele>413.5</ele>
        <time>2020-05-23T12:34:02Z</time>
      </trkpt>
      <trkpt lat="43.924" lon="2.33777">
        <ele>413.5</ele>
        <time>2020-05-23T12:34:14Z</time>
      </trkpt>
      <trkpt lat="43.924" lon="2.33775">
        <ele>413.02</ele>
        <time>2020-05-23T12:34:25Z</time>
      </trkpt>
      <trkpt lat="43.924" lon="2.33774">
        <ele>413.02</ele>
        <time>2020-05-23T12:34:29Z</time>
      </trkpt>
      <trkpt lat="43.92401" lon="2.33758">
        <ele>413.5</ele>
        <time>2020-05-23T12:34:38Z</time>
      </trkpt>
      <trkpt lat="43.92401" lon="2.33756">
        <ele>413.02</ele>
        <time>2020-05-23T12:34:43Z</time>
      </trkpt>
      <trkpt lat="43.92401" lon="2.3374">
        <ele>413.5</ele>
        <time>2020-05-23T12:34:52Z</time>
      </trkpt>
      <trkpt lat="43.92401" lon="2.33722">
        <ele>413.5</ele>
        <time>2020-05-23T12:35:01Z</time>
      </trkpt>
      <trkpt lat="43.92402" lon="2.33702">
        <ele>413.98</ele>
        <time>2020-05-23T12:35:12Z</time>
      </trkpt>
      <trkpt lat="43.92401" lon="2.33689">
        <ele>413.98</ele>
        <time>2020-05-23T12:35:20Z</time>
      </trkpt>
      <trkpt lat="43.92401" lon="2.33673">
        <ele>413.5</ele>
        <time>2020-05-23T12:35:29Z</time>
      </trkpt>
      <trkpt lat="43.92401" lon="2.33655">
        <ele>413.5</ele>
        <time>2020-05-23T12:35:40Z</time>
      </trkpt>
      <trkpt lat="43.92402" lon="2.33647">
        <ele>412.54</ele>
        <time>2020-05-23T12:35:48Z</time>
      </trkpt>
      <trkpt lat="43.92403" lon="2.33647">
        <ele>412.54</ele>
        <time>2020-05-23T12:36:11Z</time>
      </trkpt>
      <trkpt lat="43.92403" lon="2.33647">
        <ele>413.02</ele>
        <time>2020-05-23T12:36:18Z</time>
      </trkpt>
      <trkpt lat="43.92403" lon="2.33636">
        <ele>413.5</ele>
        <time>2020-05-23T12:36:24Z</time>
      </trkpt>
      <trkpt lat="43.92404" lon="2.33615">
        <ele>412.54</ele>
        <time>2020-05-23T12:36:38Z</time>
      </trkpt>
      <trkpt lat="43.92403" lon="2.33603">
        <ele>412.06</ele>
        <time>2020-05-23T12:36:46Z</time>
      </trkpt>
      <trkpt lat="43.92403" lon="2.33586">
        <ele>411.58</ele>
        <time>2020-05-23T12:36:56Z</time>
      </trkpt>
      <trkpt lat="43.92403" lon="2.33576">
        <ele>411.1</ele>
        <time>2020-05-23T12:37:05Z</time>
      </trkpt>
      <trkpt lat="43.92403" lon="2.33575">
        <ele>411.1</ele>
        <time>2020-05-23T12:37:13Z</time>
      </trkpt>
      <trkpt lat="43.92402" lon="2.33573">
        <ele>411.1</ele>
        <time>2020-05-23T12:37:29Z</time>
      </trkpt>
      <trkpt lat="43.92403" lon="2.3357">
        <ele>410.62</ele>
        <time>2020-05-23T12:37:36Z</time>
      </trkpt>
      <trkpt lat="43.92405" lon="2.33566">
        <ele>411.1</ele>
        <time>2020-05-23T12:37:51Z</time>
      </trkpt>
      <trkpt lat="43.92405" lon="2.33568">
        <ele>411.1</ele>
        <time>2020-05-23T12:37:55Z</time>
      </trkpt>
      <trkpt lat="43.92405" lon="2.33573">
        <ele>411.58</ele>
        <time>2020-05-23T12:38:03Z</time>
      </trkpt>
      <trkpt lat="43.92406" lon="2.33572">
        <ele>411.58</ele>
        <time>2020-05-23T12:38:19Z</time>
      </trkpt>
      <trkpt lat="43.92405" lon="2.33556">
        <ele>410.14</ele>
        <time>2020-05-23T12:38:30Z</time>
      </trkpt>
      <trkpt lat="43.92406" lon="2.3354">
        <ele>408.7</ele>
        <time>2020-05-23T12:38:39Z</time>
      </trkpt>
      <trkpt lat="43.92409" lon="2.33514">
        <ele>409.18</ele>
        <time>2020-05-23T12:38:52Z</time>
      </trkpt>
      <trkpt lat="43.92412" lon="2.33494">
        <ele>409.18</ele>
        <time>2020-05-23T12:39:02Z</time>
      </trkpt>
      <trkpt lat="43.92414" lon="2.33472">
        <ele>408.22</ele>
        <time>2020-05-23T12:39:13Z</time>
      </trkpt>
      <trkpt lat="43.92414" lon="2.33469">
        <ele>408.22</ele>
        <time>2020-05-23T12:39:15Z</time>
      </trkpt>
      <trkpt lat="43.92417" lon="2.33455">
        <ele>406.29</ele>
        <time>2020-05-23T12:39:23Z</time>
      </trkpt>
      <trkpt lat="43.92422" lon="2.33435">
        <ele>405.81</ele>
        <time>2020-05-23T12:39:34Z</time>
      </trkpt>
      <trkpt lat="43.92431" lon="2.33413">
        <ele>404.85</ele>
        <time>2020-05-23T12:39:46Z</time>
      </trkpt>
      <trkpt lat="43.9244" lon="2.3339">
        <ele>403.89</ele>
        <time>2020-05-23T12:39:59Z</time>
      </trkpt>
      <trkpt lat="43.92448" lon="2.33375">
        <ele>401.49</ele>
        <time>2020-05-23T12:40:08Z</time>
      </trkpt>
      <trkpt lat="43.92458" lon="2.33357">
        <ele>398.12</ele>
        <time>2020-05-23T12:40:20Z</time>
      </trkpt>
      <trkpt lat="43.9246" lon="2.33351">
        <ele>397.16</ele>
        <time>2020-05-23T12:40:25Z</time>
      </trkpt>
      <trkpt lat="43.92465" lon="2.33338">
        <ele>396.68</ele>
        <time>2020-05-23T12:40:34Z</time>
      </trkpt>
      <trkpt lat="43.92472" lon="2.33323">
        <ele>396.2</ele>
        <time>2020-05-23T12:40:44Z</time>
      </trkpt>
      <trkpt lat="43.92477" lon="2.33303">
        <ele>394.28</ele>
        <time>2020-05-23T12:40:55Z</time>
      </trkpt>
      <trkpt lat="43.92482" lon="2.33284">
        <ele>394.28</ele>
        <time>2020-05-23T12:41:06Z</time>
      </trkpt>
      <trkpt lat="43.92487" lon="2.33265">
        <ele>393.32</ele>
        <time>2020-05-23T12:41:16Z</time>
      </trkpt>
      <trkpt lat="43.92493" lon="2.3325">
        <ele>391.39</ele>
        <time>2020-05-23T12:41:25Z</time>
      </trkpt>
      <trkpt lat="43.92499" lon="2.33233">
        <ele>390.43</ele>
        <time>2020-05-23T12:41:35Z</time>
      </trkpt>
      <trkpt lat="43.92507" lon="2.33221">
        <ele>391.39</ele>
        <time>2020-05-23T12:41:43Z</time>
      </trkpt>
      <trkpt lat="43.92517" lon="2.33208">
        <ele>390.91</ele>
        <time>2020-05-23T12:41:54Z</time>
      </trkpt>
      <trkpt lat="43.92519" lon="2.33207">
        <ele>390.43</ele>
        <time>2020-05-23T12:42:03Z</time>
      </trkpt>
      <trkpt lat="43.92528" lon="2.33194">
        <ele>388.51</ele>
        <time>2020-05-23T12:42:13Z</time>
      </trkpt>
      <trkpt lat="43.92538" lon="2.33182">
        <ele>390.43</ele>
        <time>2020-05-23T12:42:23Z</time>
      </trkpt>
      <trkpt lat="43.92538" lon="2.33182">
        <ele>390.91</ele>
        <time>2020-05-23T12:42:35Z</time>
      </trkpt>
      <trkpt lat="43.92528" lon="2.33194">
        <ele>389.47</ele>
        <time>2020-05-23T12:42:45Z</time>
      </trkpt>
      <trkpt lat="43.92519" lon="2.33211">
        <ele>388.51</ele>
        <time>2020-05-23T12:42:55Z</time>
      </trkpt>
      <trkpt lat="43.92519" lon="2.33231">
        <ele>387.55</ele>
        <time>2020-05-23T12:43:05Z</time>
      </trkpt>
      <trkpt lat="43.9252" lon="2.33258">
        <ele>386.11</ele>
        <time>2020-05-23T12:43:17Z</time>
      </trkpt>
      <trkpt lat="43.92522" lon="2.3328">
        <ele>386.59</ele>
        <time>2020-05-23T12:43:27Z</time>
      </trkpt>
      <trkpt lat="43.92522" lon="2.33306">
        <ele>385.15</ele>
        <time>2020-05-23T12:43:38Z</time>
      </trkpt>
      <trkpt lat="43.92523" lon="2.33326">
        <ele>385.63</ele>
        <time>2020-05-23T12:43:47Z</time>
      </trkpt>
      <trkpt lat="43.92522" lon="2.33352">
        <ele>387.07</ele>
        <time>2020-05-23T12:43:59Z</time>
      </trkpt>
      <trkpt lat="43.92522" lon="2.33372">
        <ele>386.11</ele>
        <time>2020-05-23T12:44:08Z</time>
      </trkpt>
      <trkpt lat="43.9252" lon="2.33403">
        <ele>386.59</ele>
        <time>2020-05-23T12:44:22Z</time>
      </trkpt>
      <trkpt lat="43.9252" lon="2.33422">
        <ele>386.11</ele>
        <time>2020-05-23T12:44:32Z</time>
      </trkpt>
      <trkpt lat="43.92523" lon="2.33442">
        <ele>386.59</ele>
        <time>2020-05-23T12:44:42Z</time>
      </trkpt>
      <trkpt lat="43.92526" lon="2.33459">
        <ele>386.59</ele>
        <time>2020-05-23T12:44:51Z</time>
      </trkpt>
      <trkpt lat="43.92531" lon="2.33475">
        <ele>387.55</ele>
        <time>2020-05-23T12:45:00Z</time>
      </trkpt>
      <trkpt lat="43.9254" lon="2.33489">
        <ele>388.99</ele>
        <time>2020-05-23T12:45:10Z</time>
      </trkpt>
      <trkpt lat="43.92552" lon="2.33501">
        <ele>388.03</ele>
        <time>2020-05-23T12:45:20Z</time>
      </trkpt>
      <trkpt lat="43.92563" lon="2.33512">
        <ele>384.66</ele>
        <time>2020-05-23T12:45:30Z</time>
      </trkpt>
      <trkpt lat="43.92581" lon="2.33521">
        <ele>381.78</ele>
        <time>2020-05-23T12:45:44Z</time>
      </trkpt>
      <trkpt lat="43.92594" lon="2.33524">
        <ele>379.38</ele>
        <time>2020-05-23T12:45:54Z</time>
      </trkpt>
      <trkpt lat="43.92608" lon="2.33529">
        <ele>377.45</ele>
        <time>2020-05-23T12:46:04Z</time>
      </trkpt>
      <trkpt lat="43.92621" lon="2.33531">
        <ele>374.57</ele>
        <time>2020-05-23T12:46:14Z</time>
      </trkpt>
      <trkpt lat="43.9263" lon="2.33533">
        <ele>373.13</ele>
        <time>2020-05-23T12:46:23Z</time>
      </trkpt>
      <trkpt lat="43.92639" lon="2.33539">
        <ele>369.76</ele>
        <time>2020-05-23T12:46:32Z</time>
      </trkpt>
      <trkpt lat="43.92646" lon="2.33546">
        <ele>366.88</ele>
        <time>2020-05-23T12:46:40Z</time>
      </trkpt>
      <trkpt lat="43.92654" lon="2.33552">
        <ele>364</ele>
        <time>2020-05-23T12:46:49Z</time>
      </trkpt>
      <trkpt lat="43.92662" lon="2.33559">
        <ele>361.59</ele>
        <time>2020-05-23T12:46:59Z</time>
      </trkpt>
      <trkpt lat="43.92673" lon="2.33563">
        <ele>359.67</ele>
        <time>2020-05-23T12:47:07Z</time>
      </trkpt>
      <trkpt lat="43.92684" lon="2.33569">
        <ele>358.23</ele>
        <time>2020-05-23T12:47:16Z</time>
      </trkpt>
      <trkpt lat="43.92695" lon="2.33575">
        <ele>357.27</ele>
        <time>2020-05-23T12:47:24Z</time>
      </trkpt>
      <trkpt lat="43.92708" lon="2.33584">
        <ele>357.75</ele>
        <time>2020-05-23T12:47:33Z</time>
      </trkpt>
      <trkpt lat="43.92716" lon="2.33591">
        <ele>356.79</ele>
        <time>2020-05-23T12:47:40Z</time>
      </trkpt>
      <trkpt lat="43.92727" lon="2.33604">
        <ele>355.34</ele>
        <time>2020-05-23T12:47:50Z</time>
      </trkpt>
      <trkpt lat="43.92734" lon="2.33613">
        <ele>352.46</ele>
        <time>2020-05-23T12:47:59Z</time>
      </trkpt>
      <trkpt lat="43.92739" lon="2.3362">
        <ele>348.62</ele>
        <time>2020-05-23T12:48:08Z</time>
      </trkpt>
      <trkpt lat="43.92751" lon="2.33628">
        <ele>344.77</ele>
        <time>2020-05-23T12:48:19Z</time>
      </trkpt>
      <trkpt lat="43.92763" lon="2.33635">
        <ele>340.92</ele>
        <time>2020-05-23T12:48:29Z</time>
      </trkpt>
      <trkpt lat="43.92769" lon="2.3364">
        <ele>338.04</ele>
        <time>2020-05-23T12:48:36Z</time>
      </trkpt>
      <trkpt lat="43.92778" lon="2.33648">
        <ele>335.16</ele>
        <time>2020-05-23T12:48:45Z</time>
      </trkpt>
      <trkpt lat="43.9279" lon="2.33662">
        <ele>336.12</ele>
        <time>2020-05-23T12:48:55Z</time>
      </trkpt>
      <trkpt lat="43.92791" lon="2.33666">
        <ele>336.6</ele>
        <time>2020-05-23T12:48:58Z</time>
      </trkpt>
      <trkpt lat="43.928" lon="2.33682">
        <ele>341.41</ele>
        <time>2020-05-23T12:49:08Z</time>
      </trkpt>
      <trkpt lat="43.92802" lon="2.3369">
        <ele>342.37</ele>
        <time>2020-05-23T12:49:15Z</time>
      </trkpt>
      <trkpt lat="43.92802" lon="2.33702">
        <ele>341.41</ele>
        <time>2020-05-23T12:49:23Z</time>
      </trkpt>
      <trkpt lat="43.92799" lon="2.33715">
        <ele>339.96</ele>
        <time>2020-05-23T12:49:31Z</time>
      </trkpt>
      <trkpt lat="43.92795" lon="2.3373">
        <ele>340.44</ele>
        <time>2020-05-23T12:49:38Z</time>
      </trkpt>
      <trkpt lat="43.92786" lon="2.3375">
        <ele>340.92</ele>
        <time>2020-05-23T12:49:49Z</time>
      </trkpt>
      <trkpt lat="43.92775" lon="2.33761">
        <ele>339.48</ele>
        <time>2020-05-23T12:49:58Z</time>
      </trkpt>
      <trkpt lat="43.92764" lon="2.33768">
        <ele>338.52</ele>
        <time>2020-05-23T12:50:08Z</time>
      </trkpt>
      <trkpt lat="43.92756" lon="2.33774">
        <ele>339.48</ele>
        <time>2020-05-23T12:50:15Z</time>
      </trkpt>
      <trkpt lat="43.92743" lon="2.33783">
        <ele>339.48</ele>
        <time>2020-05-23T12:50:25Z</time>
      </trkpt>
      <trkpt lat="43.92728" lon="2.33792">
        <ele>338.04</ele>
        <time>2020-05-23T12:50:36Z</time>
      </trkpt>
      <trkpt lat="43.92719" lon="2.33799">
        <ele>336.6</ele>
        <time>2020-05-23T12:50:44Z</time>
      </trkpt>
      <trkpt lat="43.92713" lon="2.33805">
        <ele>335.64</ele>
        <time>2020-05-23T12:50:54Z</time>
      </trkpt>
      <trkpt lat="43.92711" lon="2.33819">
        <ele>332.75</ele>
        <time>2020-05-23T12:51:03Z</time>
      </trkpt>
      <trkpt lat="43.92713" lon="2.33831">
        <ele>329.87</ele>
        <time>2020-05-23T12:51:11Z</time>
      </trkpt>
      <trkpt lat="43.92716" lon="2.33845">
        <ele>328.43</ele>
        <time>2020-05-23T12:51:19Z</time>
      </trkpt>
      <trkpt lat="43.92724" lon="2.33843">
        <ele>327.47</ele>
        <time>2020-05-23T12:51:28Z</time>
      </trkpt>
      <trkpt lat="43.92733" lon="2.33844">
        <ele>327.95</ele>
        <time>2020-05-23T12:51:36Z</time>
      </trkpt>
      <trkpt lat="43.92735" lon="2.3385">
        <ele>328.43</ele>
        <time>2020-05-23T12:51:41Z</time>
      </trkpt>
      <trkpt lat="43.92727" lon="2.33862">
        <ele>328.91</ele>
        <time>2020-05-23T12:51:53Z</time>
      </trkpt>
      <trkpt lat="43.92723" lon="2.33869">
        <ele>327.47</ele>
        <time>2020-05-23T12:52:02Z</time>
      </trkpt>
      <trkpt lat="43.92717" lon="2.33878">
        <ele>326.02</ele>
        <time>2020-05-23T12:52:11Z</time>
      </trkpt>
      <trkpt lat="43.92711" lon="2.33884">
        <ele>325.54</ele>
        <time>2020-05-23T12:52:21Z</time>
      </trkpt>
      <trkpt lat="43.92705" lon="2.33895">
        <ele>325.06</ele>
        <time>2020-05-23T12:52:31Z</time>
      </trkpt>
      <trkpt lat="43.92707" lon="2.33908">
        <ele>324.58</ele>
        <time>2020-05-23T12:52:40Z</time>
      </trkpt>
      <trkpt lat="43.92704" lon="2.33922">
        <ele>323.62</ele>
        <time>2020-05-23T12:52:49Z</time>
      </trkpt>
      <trkpt lat="43.92706" lon="2.33937">
        <ele>323.62</ele>
        <time>2020-05-23T12:52:59Z</time>
      </trkpt>
      <trkpt lat="43.92706" lon="2.33945">
        <ele>324.58</ele>
        <time>2020-05-23T12:53:10Z</time>
      </trkpt>
      <trkpt lat="43.92714" lon="2.33954">
        <ele>325.54</ele>
        <time>2020-05-23T12:53:18Z</time>
      </trkpt>
      <trkpt lat="43.92718" lon="2.33964">
        <ele>327.95</ele>
        <time>2020-05-23T12:53:26Z</time>
      </trkpt>
      <trkpt lat="43.92719" lon="2.33966">
        <ele>327.47</ele>
        <time>2020-05-23T12:53:28Z</time>
      </trkpt>
      <trkpt lat="43.92724" lon="2.33979">
        <ele>327.47</ele>
        <time>2020-05-23T12:53:37Z</time>
      </trkpt>
      <trkpt lat="43.92727" lon="2.33989">
        <ele>325.54</ele>
        <time>2020-05-23T12:53:46Z</time>
      </trkpt>
      <trkpt lat="43.92731" lon="2.33997">
        <ele>324.1</ele>
        <time>2020-05-23T12:53:54Z</time>
      </trkpt>
      <trkpt lat="43.92739" lon="2.34017">
        <ele>324.58</ele>
        <time>2020-05-23T12:54:05Z</time>
      </trkpt>
      <trkpt lat="43.92744" lon="2.34028">
        <ele>324.58</ele>
        <time>2020-05-23T12:54:13Z</time>
      </trkpt>
      <trkpt lat="43.92744" lon="2.34031">
        <ele>324.58</ele>
        <time>2020-05-23T12:54:14Z</time>
      </trkpt>
      <trkpt lat="43.92748" lon="2.34049">
        <ele>326.5</ele>
        <time>2020-05-23T12:54:22Z</time>
      </trkpt>
      <trkpt lat="43.92752" lon="2.3406">
        <ele>325.06</ele>
        <time>2020-05-23T12:54:31Z</time>
      </trkpt>
      <trkpt lat="43.92754" lon="2.34076">
        <ele>324.1</ele>
        <time>2020-05-23T12:54:41Z</time>
      </trkpt>
      <trkpt lat="43.92755" lon="2.34086">
        <ele>323.14</ele>
        <time>2020-05-23T12:54:49Z</time>
      </trkpt>
      <trkpt lat="43.92758" lon="2.34097">
        <ele>322.66</ele>
        <time>2020-05-23T12:54:58Z</time>
      </trkpt>
      <trkpt lat="43.92758" lon="2.34106">
        <ele>323.14</ele>
        <time>2020-05-23T12:55:06Z</time>
      </trkpt>
      <trkpt lat="43.9276" lon="2.34116">
        <ele>322.18</ele>
        <time>2020-05-23T12:55:13Z</time>
      </trkpt>
      <trkpt lat="43.92764" lon="2.34127">
        <ele>321.22</ele>
        <time>2020-05-23T12:55:20Z</time>
      </trkpt>
      <trkpt lat="43.92775" lon="2.34133">
        <ele>321.7</ele>
        <time>2020-05-23T12:55:28Z</time>
      </trkpt>
      <trkpt lat="43.92786" lon="2.34137">
        <ele>322.66</ele>
        <time>2020-05-23T12:55:36Z</time>
      </trkpt>
      <trkpt lat="43.92799" lon="2.34142">
        <ele>327.47</ele>
        <time>2020-05-23T12:55:43Z</time>
      </trkpt>
      <trkpt lat="43.92805" lon="2.34142">
        <ele>327.95</ele>
        <time>2020-05-23T12:55:52Z</time>
      </trkpt>
      <trkpt lat="43.9281" lon="2.34137">
        <ele>324.58</ele>
        <time>2020-05-23T12:56:04Z</time>
      </trkpt>
      <trkpt lat="43.92818" lon="2.34136">
        <ele>321.7</ele>
        <time>2020-05-23T12:56:13Z</time>
      </trkpt>
      <trkpt lat="43.92825" lon="2.34136">
        <ele>317.85</ele>
        <time>2020-05-23T12:56:21Z</time>
      </trkpt>
      <trkpt lat="43.92831" lon="2.34138">
        <ele>314.01</ele>
        <time>2020-05-23T12:56:28Z</time>
      </trkpt>
      <trkpt lat="43.92839" lon="2.34139">
        <ele>309.2</ele>
        <time>2020-05-23T12:56:36Z</time>
      </trkpt>
      <trkpt lat="43.92846" lon="2.3414">
        <ele>305.36</ele>
        <time>2020-05-23T12:56:44Z</time>
      </trkpt>
      <trkpt lat="43.92854" lon="2.3414">
        <ele>300.55</ele>
        <time>2020-05-23T12:56:53Z</time>
      </trkpt>
      <trkpt lat="43.92862" lon="2.34142">
        <ele>297.67</ele>
        <time>2020-05-23T12:57:00Z</time>
      </trkpt>
      <trkpt lat="43.92871" lon="2.34146">
        <ele>294.78</ele>
        <time>2020-05-23T12:57:09Z</time>
      </trkpt>
      <trkpt lat="43.92884" lon="2.34153">
        <ele>294.78</ele>
        <time>2020-05-23T12:57:19Z</time>
      </trkpt>
      <trkpt lat="43.92895" lon="2.34161">
        <ele>295.26</ele>
        <time>2020-05-23T12:57:26Z</time>
      </trkpt>
      <trkpt lat="43.92903" lon="2.34165">
        <ele>296.22</ele>
        <time>2020-05-23T12:57:31Z</time>
      </trkpt>
      <trkpt lat="43.92912" lon="2.34173">
        <ele>297.18</ele>
        <time>2020-05-23T12:57:40Z</time>
      </trkpt>
      <trkpt lat="43.92917" lon="2.34177">
        <ele>296.22</ele>
        <time>2020-05-23T12:57:48Z</time>
      </trkpt>
      <trkpt lat="43.92921" lon="2.34188">
        <ele>291.42</ele>
        <time>2020-05-23T12:57:56Z</time>
      </trkpt>
      <trkpt lat="43.92927" lon="2.34194">
        <ele>288.53</ele>
        <time>2020-05-23T12:58:03Z</time>
      </trkpt>
      <trkpt lat="43.92929" lon="2.34202">
        <ele>284.69</ele>
        <time>2020-05-23T12:58:14Z</time>
      </trkpt>
      <trkpt lat="43.92927" lon="2.34211">
        <ele>280.36</ele>
        <time>2020-05-23T12:58:23Z</time>
      </trkpt>
      <trkpt lat="43.92926" lon="2.34222">
        <ele>276.52</ele>
        <time>2020-05-23T12:58:32Z</time>
      </trkpt>
      <trkpt lat="43.92925" lon="2.34232">
        <ele>273.63</ele>
        <time>2020-05-23T12:58:40Z</time>
      </trkpt>
      <trkpt lat="43.92922" lon="2.34244">
        <ele>269.79</ele>
        <time>2020-05-23T12:58:51Z</time>
      </trkpt>
      <trkpt lat="43.92918" lon="2.34261">
        <ele>266.42</ele>
        <time>2020-05-23T12:59:02Z</time>
      </trkpt>
      <trkpt lat="43.92914" lon="2.34273">
        <ele>265.46</ele>
        <time>2020-05-23T12:59:09Z</time>
      </trkpt>
      <trkpt lat="43.92913" lon="2.34293">
        <ele>261.62</ele>
        <time>2020-05-23T12:59:20Z</time>
      </trkpt>
      <trkpt lat="43.92912" lon="2.34309">
        <ele>258.73</ele>
        <time>2020-05-23T12:59:28Z</time>
      </trkpt>
      <trkpt lat="43.92912" lon="2.34322">
        <ele>255.85</ele>
        <time>2020-05-23T12:59:36Z</time>
      </trkpt>
      <trkpt lat="43.92912" lon="2.34341">
        <ele>255.37</ele>
        <time>2020-05-23T12:59:45Z</time>
      </trkpt>
      <trkpt lat="43.92918" lon="2.34358">
        <ele>252.48</ele>
        <time>2020-05-23T12:59:56Z</time>
      </trkpt>
      <trkpt lat="43.9292" lon="2.34372">
        <ele>252</ele>
        <time>2020-05-23T13:00:04Z</time>
      </trkpt>
      <trkpt lat="43.92923" lon="2.34379">
        <ele>251.52</ele>
        <time>2020-05-23T13:00:12Z</time>
      </trkpt>
      <trkpt lat="43.92927" lon="2.34397">
        <ele>250.56</ele>
        <time>2020-05-23T13:00:23Z</time>
      </trkpt>
      <trkpt lat="43.92934" lon="2.34428">
        <ele>258.73</ele>
        <time>2020-05-23T13:00:34Z</time>
      </trkpt>
      <trkpt lat="43.92944" lon="2.34441">
        <ele>260.65</ele>
        <time>2020-05-23T13:00:43Z</time>
      </trkpt>
      <trkpt lat="43.92953" lon="2.34456">
        <ele>260.65</ele>
        <time>2020-05-23T13:00:54Z</time>
      </trkpt>
      <trkpt lat="43.92962" lon="2.34471">
        <ele>257.29</ele>
        <time>2020-05-23T13:01:05Z</time>
      </trkpt>
      <trkpt lat="43.92971" lon="2.34481">
        <ele>255.37</ele>
        <time>2020-05-23T13:01:14Z</time>
      </trkpt>
      <trkpt lat="43.92982" lon="2.34493">
        <ele>257.29</ele>
        <time>2020-05-23T13:01:24Z</time>
      </trkpt>
      <trkpt lat="43.92985" lon="2.34497">
        <ele>252.96</ele>
        <time>2020-05-23T13:01:35Z</time>
      </trkpt>
      <trkpt lat="43.92991" lon="2.34503">
        <ele>251.04</ele>
        <time>2020-05-23T13:01:44Z</time>
      </trkpt>
      <trkpt lat="43.93002" lon="2.3451">
        <ele>253.44</ele>
        <time>2020-05-23T13:01:53Z</time>
      </trkpt>
      <trkpt lat="43.93007" lon="2.34511">
        <ele>253.93</ele>
        <time>2020-05-23T13:02:00Z</time>
      </trkpt>
      <trkpt lat="43.93011" lon="2.34516">
        <ele>252</ele>
        <time>2020-05-23T13:02:07Z</time>
      </trkpt>
      <trkpt lat="43.93017" lon="2.34521">
        <ele>250.08</ele>
        <time>2020-05-23T13:02:15Z</time>
      </trkpt>
      <trkpt lat="43.93021" lon="2.34526">
        <ele>248.16</ele>
        <time>2020-05-23T13:02:23Z</time>
      </trkpt>
      <trkpt lat="43.93025" lon="2.34534">
        <ele>245.75</ele>
        <time>2020-05-23T13:02:31Z</time>
      </trkpt>
      <trkpt lat="43.9303" lon="2.3454">
        <ele>245.75</ele>
        <time>2020-05-23T13:02:42Z</time>
      </trkpt>
      <trkpt lat="43.93033" lon="2.34549">
        <ele>245.27</ele>
        <time>2020-05-23T13:02:49Z</time>
      </trkpt>
      <trkpt lat="43.93042" lon="2.34564">
        <ele>247.68</ele>
        <time>2020-05-23T13:02:57Z</time>
      </trkpt>
      <trkpt lat="43.9305" lon="2.34578">
        <ele>248.64</ele>
        <time>2020-05-23T13:03:05Z</time>
      </trkpt>
      <trkpt lat="43.93057" lon="2.34586">
        <ele>245.75</ele>
        <time>2020-05-23T13:03:13Z</time>
      </trkpt>
      <trkpt lat="43.93066" lon="2.34595">
        <ele>242.39</ele>
        <time>2020-05-23T13:03:23Z</time>
      </trkpt>
      <trkpt lat="43.93071" lon="2.34608">
        <ele>241.43</ele>
        <time>2020-05-23T13:03:31Z</time>
      </trkpt>
      <trkpt lat="43.93078" lon="2.34623">
        <ele>239.02</ele>
        <time>2020-05-23T13:03:42Z</time>
      </trkpt>
      <trkpt lat="43.93086" lon="2.34633">
        <ele>237.1</ele>
        <time>2020-05-23T13:03:50Z</time>
      </trkpt>
      <trkpt lat="43.93092" lon="2.3465">
        <ele>237.58</ele>
        <time>2020-05-23T13:04:01Z</time>
      </trkpt>
      <trkpt lat="43.93098" lon="2.34666">
        <ele>237.1</ele>
        <time>2020-05-23T13:04:10Z</time>
      </trkpt>
      <trkpt lat="43.93105" lon="2.34679">
        <ele>235.66</ele>
        <time>2020-05-23T13:04:19Z</time>
      </trkpt>
      <trkpt lat="43.93113" lon="2.34692">
        <ele>235.18</ele>
        <time>2020-05-23T13:04:29Z</time>
      </trkpt>
      <trkpt lat="43.93122" lon="2.34702">
        <ele>232.3</ele>
        <time>2020-05-23T13:04:38Z</time>
      </trkpt>
      <trkpt lat="43.9313" lon="2.34713">
        <ele>230.85</ele>
        <time>2020-05-23T13:04:47Z</time>
      </trkpt>
      <trkpt lat="43.93133" lon="2.34727">
        <ele>230.37</ele>
        <time>2020-05-23T13:04:55Z</time>
      </trkpt>
      <trkpt lat="43.93139" lon="2.34738">
        <ele>231.81</ele>
        <time>2020-05-23T13:05:03Z</time>
      </trkpt>
      <trkpt lat="43.93147" lon="2.34749">
        <ele>234.22</ele>
        <time>2020-05-23T13:05:09Z</time>
      </trkpt>
      <trkpt lat="43.93155" lon="2.34759">
        <ele>233.74</ele>
        <time>2020-05-23T13:05:18Z</time>
      </trkpt>
      <trkpt lat="43.9316" lon="2.34764">
        <ele>232.3</ele>
        <time>2020-05-23T13:05:24Z</time>
      </trkpt>
      <trkpt lat="43.93167" lon="2.34774">
        <ele>229.41</ele>
        <time>2020-05-23T13:05:35Z</time>
      </trkpt>
      <trkpt lat="43.93172" lon="2.3478">
        <ele>227.49</ele>
        <time>2020-05-23T13:05:42Z</time>
      </trkpt>
      <trkpt lat="43.93179" lon="2.34785">
        <ele>225.09</ele>
        <time>2020-05-23T13:05:48Z</time>
      </trkpt>
      <trkpt lat="43.93188" lon="2.34786">
        <ele>224.12</ele>
        <time>2020-05-23T13:05:55Z</time>
      </trkpt>
      <trkpt lat="43.93195" lon="2.34788">
        <ele>223.16</ele>
        <time>2020-05-23T13:06:03Z</time>
      </trkpt>
      <trkpt lat="43.93204" lon="2.3479">
        <ele>221.72</ele>
        <time>2020-05-23T13:06:10Z</time>
      </trkpt>
      <trkpt lat="43.93218" lon="2.34796">
        <ele>219.32</ele>
        <time>2020-05-23T13:06:19Z</time>
      </trkpt>
      <trkpt lat="43.93225" lon="2.34804">
        <ele>215.47</ele>
        <time>2020-05-23T13:06:26Z</time>
      </trkpt>
      <trkpt lat="43.9323" lon="2.34815">
        <ele>212.11</ele>
        <time>2020-05-23T13:06:35Z</time>
      </trkpt>
      <trkpt lat="43.93238" lon="2.34826">
        <ele>208.26</ele>
        <time>2020-05-23T13:06:44Z</time>
      </trkpt>
      <trkpt lat="43.93241" lon="2.34839">
        <ele>203.46</ele>
        <time>2020-05-23T13:06:54Z</time>
      </trkpt>
      <trkpt lat="43.9324" lon="2.34846">
        <ele>200.09</ele>
        <time>2020-05-23T13:07:02Z</time>
      </trkpt>
      <trkpt lat="43.93236" lon="2.3485">
        <ele>196.25</ele>
        <time>2020-05-23T13:07:10Z</time>
      </trkpt>
      <trkpt lat="43.93231" lon="2.3486">
        <ele>192.4</ele>
        <time>2020-05-23T13:07:19Z</time>
      </trkpt>
      <trkpt lat="43.93226" lon="2.34868">
        <ele>188.08</ele>
        <time>2020-05-23T13:07:28Z</time>
      </trkpt>
      <trkpt lat="43.93223" lon="2.34876">
        <ele>183.75</ele>
        <time>2020-05-23T13:07:38Z</time>
      </trkpt>
      <trkpt lat="43.93224" lon="2.34898">
        <ele>183.27</ele>
        <time>2020-05-23T13:07:45Z</time>
      </trkpt>
      <trkpt lat="43.93225" lon="2.3491">
        <ele>185.19</ele>
        <time>2020-05-23T13:07:54Z</time>
      </trkpt>
      <trkpt lat="43.93223" lon="2.34916">
        <ele>191.92</ele>
        <time>2020-05-23T13:08:03Z</time>
      </trkpt>
      <trkpt lat="43.93223" lon="2.34914">
        <ele>196.25</ele>
        <time>2020-05-23T13:08:11Z</time>
      </trkpt>
      <trkpt lat="43.93223" lon="2.34912">
        <ele>200.09</ele>
        <time>2020-05-23T13:08:19Z</time>
      </trkpt>
      <trkpt lat="43.93229" lon="2.34911">
        <ele>199.61</ele>
        <time>2020-05-23T13:08:27Z</time>
      </trkpt>
      <trkpt lat="43.93236" lon="2.34912">
        <ele>199.61</ele>
        <time>2020-05-23T13:08:36Z</time>
      </trkpt>
      <trkpt lat="43.93244" lon="2.34911">
        <ele>200.09</ele>
        <time>2020-05-23T13:08:43Z</time>
      </trkpt>
      <trkpt lat="43.93257" lon="2.34911">
        <ele>200.57</ele>
        <time>2020-05-23T13:08:50Z</time>
      </trkpt>
      <trkpt lat="43.93264" lon="2.34909">
        <ele>202.98</ele>
        <time>2020-05-23T13:08:56Z</time>
      </trkpt>
      <trkpt lat="43.93271" lon="2.34913">
        <ele>206.82</ele>
        <time>2020-05-23T13:09:03Z</time>
      </trkpt>
      <trkpt lat="43.93283" lon="2.34917">
        <ele>207.78</ele>
        <time>2020-05-23T13:09:12Z</time>
      </trkpt>
      <trkpt lat="43.93291" lon="2.34924">
        <ele>207.3</ele>
        <time>2020-05-23T13:09:21Z</time>
      </trkpt>
      <trkpt lat="43.93296" lon="2.34931">
        <ele>206.82</ele>
        <time>2020-05-23T13:09:30Z</time>
      </trkpt>
      <trkpt lat="43.93302" lon="2.3494">
        <ele>206.34</ele>
        <time>2020-05-23T13:09:39Z</time>
      </trkpt>
      <trkpt lat="43.93305" lon="2.34954">
        <ele>204.42</ele>
        <time>2020-05-23T13:09:51Z</time>
      </trkpt>
      <trkpt lat="43.93306" lon="2.34967">
        <ele>202.01</ele>
        <time>2020-05-23T13:10:02Z</time>
      </trkpt>
      <trkpt lat="43.9331" lon="2.34982">
        <ele>200.09</ele>
        <time>2020-05-23T13:10:13Z</time>
      </trkpt>
      <trkpt lat="43.93312" lon="2.34999">
        <ele>198.17</ele>
        <time>2020-05-23T13:10:24Z</time>
      </trkpt>
      <trkpt lat="43.93314" lon="2.35016">
        <ele>197.69</ele>
        <time>2020-05-23T13:10:34Z</time>
      </trkpt>
      <trkpt lat="43.93318" lon="2.3503">
        <ele>197.21</ele>
        <time>2020-05-23T13:10:43Z</time>
      </trkpt>
      <trkpt lat="43.93323" lon="2.35042">
        <ele>195.28</ele>
        <time>2020-05-23T13:10:53Z</time>
      </trkpt>
      <trkpt lat="43.93327" lon="2.35054">
        <ele>194.8</ele>
        <time>2020-05-23T13:11:02Z</time>
      </trkpt>
      <trkpt lat="43.9333" lon="2.35071">
        <ele>195.28</ele>
        <time>2020-05-23T13:11:12Z</time>
      </trkpt>
      <trkpt lat="43.93333" lon="2.35088">
        <ele>194.32</ele>
        <time>2020-05-23T13:11:22Z</time>
      </trkpt>
      <trkpt lat="43.93334" lon="2.35109">
        <ele>195.28</ele>
        <time>2020-05-23T13:11:33Z</time>
      </trkpt>
      <trkpt lat="43.9334" lon="2.35125">
        <ele>197.21</ele>
        <time>2020-05-23T13:11:42Z</time>
      </trkpt>
      <trkpt lat="43.93341" lon="2.35146">
        <ele>203.94</ele>
        <time>2020-05-23T13:11:49Z</time>
      </trkpt>
      <trkpt lat="43.93356" lon="2.35163">
        <ele>208.26</ele>
        <time>2020-05-23T13:12:00Z</time>
      </trkpt>
      <trkpt lat="43.93362" lon="2.35176">
        <ele>214.51</ele>
        <time>2020-05-23T13:12:07Z</time>
      </trkpt>
      <trkpt lat="43.93369" lon="2.35179">
        <ele>217.88</ele>
        <time>2020-05-23T13:12:14Z</time>
      </trkpt>
      <trkpt lat="43.93386" lon="2.35185">
        <ele>221.72</ele>
        <time>2020-05-23T13:12:25Z</time>
      </trkpt>
      <trkpt lat="43.93402" lon="2.35191">
        <ele>224.61</ele>
        <time>2020-05-23T13:12:36Z</time>
      </trkpt>
      <trkpt lat="43.93413" lon="2.35199">
        <ele>228.93</ele>
        <time>2020-05-23T13:12:45Z</time>
      </trkpt>
      <trkpt lat="43.93424" lon="2.3521">
        <ele>233.26</ele>
        <time>2020-05-23T13:12:55Z</time>
      </trkpt>
      <trkpt lat="43.93433" lon="2.35222">
        <ele>234.7</ele>
        <time>2020-05-23T13:13:05Z</time>
      </trkpt>
      <trkpt lat="43.93436" lon="2.35227">
        <ele>234.7</ele>
        <time>2020-05-23T13:13:08Z</time>
      </trkpt>
      <trkpt lat="43.93441" lon="2.3523">
        <ele>235.18</ele>
        <time>2020-05-23T13:13:12Z</time>
      </trkpt>
      <trkpt lat="43.93452" lon="2.35244">
        <ele>237.1</ele>
        <time>2020-05-23T13:13:22Z</time>
      </trkpt>
      <trkpt lat="43.93455" lon="2.3525">
        <ele>238.06</ele>
        <time>2020-05-23T13:13:27Z</time>
      </trkpt>
      <trkpt lat="43.93455" lon="2.35262">
        <ele>239.02</ele>
        <time>2020-05-23T13:13:34Z</time>
      </trkpt>
      <trkpt lat="43.9345" lon="2.35275">
        <ele>241.43</ele>
        <time>2020-05-23T13:13:43Z</time>
      </trkpt>
      <trkpt lat="43.93443" lon="2.35275">
        <ele>242.87</ele>
        <time>2020-05-23T13:13:51Z</time>
      </trkpt>
      <trkpt lat="43.93442" lon="2.35276">
        <ele>242.87</ele>
        <time>2020-05-23T13:13:52Z</time>
      </trkpt>
      <trkpt lat="43.93436" lon="2.35288">
        <ele>242.39</ele>
        <time>2020-05-23T13:14:01Z</time>
      </trkpt>
      <trkpt lat="43.93433" lon="2.35292">
        <ele>242.39</ele>
        <time>2020-05-23T13:14:10Z</time>
      </trkpt>
      <trkpt lat="43.93423" lon="2.35305">
        <ele>243.35</ele>
        <time>2020-05-23T13:14:19Z</time>
      </trkpt>
      <trkpt lat="43.93417" lon="2.35313">
        <ele>242.87</ele>
        <time>2020-05-23T13:14:26Z</time>
      </trkpt>
      <trkpt lat="43.93407" lon="2.35325">
        <ele>242.87</ele>
        <time>2020-05-23T13:14:36Z</time>
      </trkpt>
      <trkpt lat="43.93396" lon="2.35342">
        <ele>243.83</ele>
        <time>2020-05-23T13:14:47Z</time>
      </trkpt>
      <trkpt lat="43.93388" lon="2.35353">
        <ele>243.35</ele>
        <time>2020-05-23T13:14:56Z</time>
      </trkpt>
      <trkpt lat="43.93383" lon="2.35366">
        <ele>246.72</ele>
        <time>2020-05-23T13:15:05Z</time>
      </trkpt>
      <trkpt lat="43.93385" lon="2.35372">
        <ele>249.12</ele>
        <time>2020-05-23T13:15:15Z</time>
      </trkpt>
      <trkpt lat="43.93386" lon="2.35374">
        <ele>249.12</ele>
        <time>2020-05-23T13:15:18Z</time>
      </trkpt>
      <trkpt lat="43.93386" lon="2.3538">
        <ele>248.64</ele>
        <time>2020-05-23T13:15:25Z</time>
      </trkpt>
      <trkpt lat="43.93391" lon="2.35388">
        <ele>248.64</ele>
        <time>2020-05-23T13:15:33Z</time>
      </trkpt>
      <trkpt lat="43.93395" lon="2.35395">
        <ele>248.64</ele>
        <time>2020-05-23T13:15:41Z</time>
      </trkpt>
      <trkpt lat="43.934" lon="2.354">
        <ele>248.16</ele>
        <time>2020-05-23T13:15:47Z</time>
      </trkpt>
      <trkpt lat="43.93409" lon="2.35404">
        <ele>246.72</ele>
        <time>2020-05-23T13:15:56Z</time>
      </trkpt>
      <trkpt lat="43.93426" lon="2.35408">
        <ele>249.12</ele>
        <time>2020-05-23T13:16:06Z</time>
      </trkpt>
      <trkpt lat="43.93436" lon="2.35409">
        <ele>248.64</ele>
        <time>2020-05-23T13:16:14Z</time>
      </trkpt>
      <trkpt lat="43.93443" lon="2.35409">
        <ele>248.64</ele>
        <time>2020-05-23T13:16:20Z</time>
      </trkpt>
      <trkpt lat="43.93453" lon="2.35411">
        <ele>249.6</ele>
        <time>2020-05-23T13:16:28Z</time>
      </trkpt>
      <trkpt lat="43.93463" lon="2.35415">
        <ele>250.56</ele>
        <time>2020-05-23T13:16:36Z</time>
      </trkpt>
      <trkpt lat="43.93471" lon="2.35419">
        <ele>251.52</ele>
        <time>2020-05-23T13:16:45Z</time>
      </trkpt>
      <trkpt lat="43.93483" lon="2.35423">
        <ele>252</ele>
        <time>2020-05-23T13:16:56Z</time>
      </trkpt>
      <trkpt lat="43.93488" lon="2.35429">
        <ele>252</ele>
        <time>2020-05-23T13:17:04Z</time>
      </trkpt>
      <trkpt lat="43.93498" lon="2.35433">
        <ele>252</ele>
        <time>2020-05-23T13:17:14Z</time>
      </trkpt>
      <trkpt lat="43.93514" lon="2.35442">
        <ele>252.48</ele>
        <time>2020-05-23T13:17:25Z</time>
      </trkpt>
      <trkpt lat="43.93527" lon="2.35446">
        <ele>253.44</ele>
        <time>2020-05-23T13:17:33Z</time>
      </trkpt>
      <trkpt lat="43.93537" lon="2.35449">
        <ele>254.41</ele>
        <time>2020-05-23T13:17:42Z</time>
      </trkpt>
      <trkpt lat="43.93549" lon="2.35454">
        <ele>255.37</ele>
        <time>2020-05-23T13:17:51Z</time>
      </trkpt>
      <trkpt lat="43.9356" lon="2.35459">
        <ele>256.81</ele>
        <time>2020-05-23T13:18:01Z</time>
      </trkpt>
      <trkpt lat="43.93568" lon="2.35462">
        <ele>258.25</ele>
        <time>2020-05-23T13:18:08Z</time>
      </trkpt>
      <trkpt lat="43.93572" lon="2.35465">
        <ele>257.77</ele>
        <time>2020-05-23T13:18:11Z</time>
      </trkpt>
      <trkpt lat="43.93581" lon="2.3547">
        <ele>256.33</ele>
        <time>2020-05-23T13:18:18Z</time>
      </trkpt>
      <trkpt lat="43.93585" lon="2.35472">
        <ele>253.93</ele>
        <time>2020-05-23T13:18:31Z</time>
      </trkpt>
      <trkpt lat="43.93592" lon="2.35471">
        <ele>252</ele>
        <time>2020-05-23T13:18:39Z</time>
      </trkpt>
      <trkpt lat="43.936" lon="2.35478">
        <ele>249.6</ele>
        <time>2020-05-23T13:18:48Z</time>
      </trkpt>
      <trkpt lat="43.93612" lon="2.35484">
        <ele>248.16</ele>
        <time>2020-05-23T13:18:56Z</time>
      </trkpt>
      <trkpt lat="43.93625" lon="2.355">
        <ele>247.68</ele>
        <time>2020-05-23T13:19:05Z</time>
      </trkpt>
      <trkpt lat="43.93634" lon="2.35509">
        <ele>247.2</ele>
        <time>2020-05-23T13:19:12Z</time>
      </trkpt>
      <trkpt lat="43.93642" lon="2.35522">
        <ele>245.27</ele>
        <time>2020-05-23T13:19:19Z</time>
      </trkpt>
      <trkpt lat="43.93649" lon="2.3553">
        <ele>241.91</ele>
        <time>2020-05-23T13:19:26Z</time>
      </trkpt>
      <trkpt lat="43.93659" lon="2.35545">
        <ele>240.47</ele>
        <time>2020-05-23T13:19:35Z</time>
      </trkpt>
      <trkpt lat="43.93666" lon="2.35555">
        <ele>238.06</ele>
        <time>2020-05-23T13:19:43Z</time>
      </trkpt>
      <trkpt lat="43.93675" lon="2.35566">
        <ele>235.66</ele>
        <time>2020-05-23T13:19:52Z</time>
      </trkpt>
      <trkpt lat="43.93683" lon="2.35574">
        <ele>235.66</ele>
        <time>2020-05-23T13:20:00Z</time>
      </trkpt>
      <trkpt lat="43.93694" lon="2.35584">
        <ele>233.74</ele>
        <time>2020-05-23T13:20:09Z</time>
      </trkpt>
      <trkpt lat="43.93704" lon="2.3559">
        <ele>231.81</ele>
        <time>2020-05-23T13:20:17Z</time>
      </trkpt>
      <trkpt lat="43.93717" lon="2.35598">
        <ele>231.33</ele>
        <time>2020-05-23T13:20:27Z</time>
      </trkpt>
      <trkpt lat="43.93729" lon="2.35601">
        <ele>229.89</ele>
        <time>2020-05-23T13:20:37Z</time>
      </trkpt>
      <trkpt lat="43.93741" lon="2.35603">
        <ele>228.45</ele>
        <time>2020-05-23T13:20:46Z</time>
      </trkpt>
      <trkpt lat="43.93751" lon="2.35606">
        <ele>226.05</ele>
        <time>2020-05-23T13:20:54Z</time>
      </trkpt>
      <trkpt lat="43.93763" lon="2.35606">
        <ele>223.16</ele>
        <time>2020-05-23T13:21:03Z</time>
      </trkpt>
      <trkpt lat="43.93769" lon="2.35607">
        <ele>221.24</ele>
        <time>2020-05-23T13:21:09Z</time>
      </trkpt>
      <trkpt lat="43.93776" lon="2.35611">
        <ele>218.36</ele>
        <time>2020-05-23T13:21:15Z</time>
      </trkpt>
      <trkpt lat="43.93785" lon="2.35617">
        <ele>214.99</ele>
        <time>2020-05-23T13:21:22Z</time>
      </trkpt>
      <trkpt lat="43.93793" lon="2.35622">
        <ele>210.67</ele>
        <time>2020-05-23T13:21:30Z</time>
      </trkpt>
      <trkpt lat="43.93804" lon="2.35625">
        <ele>208.26</ele>
        <time>2020-05-23T13:21:38Z</time>
      </trkpt>
      <trkpt lat="43.93808" lon="2.35628">
        <ele>207.78</ele>
        <time>2020-05-23T13:21:41Z</time>
      </trkpt>
      <trkpt lat="43.93824" lon="2.35635">
        <ele>207.3</ele>
        <time>2020-05-23T13:21:51Z</time>
      </trkpt>
      <trkpt lat="43.93835" lon="2.35643">
        <ele>205.86</ele>
        <time>2020-05-23T13:22:00Z</time>
      </trkpt>
      <trkpt lat="43.93844" lon="2.35651">
        <ele>202.49</ele>
        <time>2020-05-23T13:22:09Z</time>
      </trkpt>
      <trkpt lat="43.93854" lon="2.35658">
        <ele>199.13</ele>
        <time>2020-05-23T13:22:17Z</time>
      </trkpt>
      <trkpt lat="43.93863" lon="2.35668">
        <ele>197.21</ele>
        <time>2020-05-23T13:22:26Z</time>
      </trkpt>
      <trkpt lat="43.93864" lon="2.35671">
        <ele>195.77</ele>
        <time>2020-05-23T13:22:30Z</time>
      </trkpt>
      <trkpt lat="43.93864" lon="2.35683">
        <ele>192.88</ele>
        <time>2020-05-23T13:22:39Z</time>
      </trkpt>
      <trkpt lat="43.93864" lon="2.35687">
        <ele>191.44</ele>
        <time>2020-05-23T13:22:46Z</time>
      </trkpt>
      <trkpt lat="43.93865" lon="2.35694">
        <ele>193.84</ele>
        <time>2020-05-23T13:23:00Z</time>
      </trkpt>
      <trkpt lat="43.93864" lon="2.35697">
        <ele>195.28</ele>
        <time>2020-05-23T13:23:15Z</time>
      </trkpt>
      <trkpt lat="43.93863" lon="2.35699">
        <ele>196.73</ele>
        <time>2020-05-23T13:23:27Z</time>
      </trkpt>
      <trkpt lat="43.93867" lon="2.35694">
        <ele>194.32</ele>
        <time>2020-05-23T13:24:02Z</time>
      </trkpt>
      <trkpt lat="43.93877" lon="2.35692">
        <ele>195.77</ele>
        <time>2020-05-23T13:24:23Z</time>
      </trkpt>
      <trkpt lat="43.93867" lon="2.35698">
        <ele>201.53</ele>
        <time>2020-05-23T13:24:36Z</time>
      </trkpt>
      <trkpt lat="43.93868" lon="2.35697">
        <ele>205.86</ele>
        <time>2020-05-23T13:24:48Z</time>
      </trkpt>
      <trkpt lat="43.93869" lon="2.35697">
        <ele>205.86</ele>
        <time>2020-05-23T13:25:01Z</time>
      </trkpt>
      <trkpt lat="43.93868" lon="2.35696">
        <ele>203.94</ele>
        <time>2020-05-23T13:25:14Z</time>
      </trkpt>
      <trkpt lat="43.93867" lon="2.35697">
        <ele>206.82</ele>
        <time>2020-05-23T13:25:32Z</time>
      </trkpt>
      <trkpt lat="43.93866" lon="2.35701">
        <ele>206.82</ele>
        <time>2020-05-23T13:25:43Z</time>
      </trkpt>
      <trkpt lat="43.93858" lon="2.35707">
        <ele>207.3</ele>
        <time>2020-05-23T13:25:51Z</time>
      </trkpt>
      <trkpt lat="43.93847" lon="2.35713">
        <ele>206.34</ele>
        <time>2020-05-23T13:26:01Z</time>
      </trkpt>
      <trkpt lat="43.93841" lon="2.35723">
        <ele>204.9</ele>
        <time>2020-05-23T13:26:10Z</time>
      </trkpt>
      <trkpt lat="43.93838" lon="2.35736">
        <ele>203.46</ele>
        <time>2020-05-23T13:26:18Z</time>
      </trkpt>
      <trkpt lat="43.93837" lon="2.35744">
        <ele>203.94</ele>
        <time>2020-05-23T13:26:22Z</time>
      </trkpt>
      <trkpt lat="43.93843" lon="2.35759">
        <ele>202.49</ele>
        <time>2020-05-23T13:26:32Z</time>
      </trkpt>
      <trkpt lat="43.93841" lon="2.35771">
        <ele>202.01</ele>
        <time>2020-05-23T13:26:40Z</time>
      </trkpt>
      <trkpt lat="43.93831" lon="2.35782">
        <ele>206.82</ele>
        <time>2020-05-23T13:26:50Z</time>
      </trkpt>
      <trkpt lat="43.93822" lon="2.3579">
        <ele>208.26</ele>
        <time>2020-05-23T13:26:59Z</time>
      </trkpt>
      <trkpt lat="43.93813" lon="2.358">
        <ele>211.15</ele>
        <time>2020-05-23T13:27:10Z</time>
      </trkpt>
      <trkpt lat="43.938" lon="2.35806">
        <ele>215.95</ele>
        <time>2020-05-23T13:27:20Z</time>
      </trkpt>
      <trkpt lat="43.9379" lon="2.35811">
        <ele>218.36</ele>
        <time>2020-05-23T13:27:28Z</time>
      </trkpt>
      <trkpt lat="43.93783" lon="2.35818">
        <ele>219.32</ele>
        <time>2020-05-23T13:27:38Z</time>
      </trkpt>
      <trkpt lat="43.93783" lon="2.3582">
        <ele>220.28</ele>
        <time>2020-05-23T13:27:47Z</time>
      </trkpt>
      <trkpt lat="43.93774" lon="2.35825">
        <ele>221.72</ele>
        <time>2020-05-23T13:27:56Z</time>
      </trkpt>
      <trkpt lat="43.93761" lon="2.35832">
        <ele>224.12</ele>
        <time>2020-05-23T13:28:06Z</time>
      </trkpt>
      <trkpt lat="43.93751" lon="2.35834">
        <ele>227.01</ele>
        <time>2020-05-23T13:28:13Z</time>
      </trkpt>
      <trkpt lat="43.93738" lon="2.35841">
        <ele>230.85</ele>
        <time>2020-05-23T13:28:24Z</time>
      </trkpt>
      <trkpt lat="43.93737" lon="2.35848">
        <ele>231.33</ele>
        <time>2020-05-23T13:28:35Z</time>
      </trkpt>
      <trkpt lat="43.93741" lon="2.35852">
        <ele>232.78</ele>
        <time>2020-05-23T13:28:54Z</time>
      </trkpt>
      <trkpt lat="43.9374" lon="2.35854">
        <ele>232.3</ele>
        <time>2020-05-23T13:29:13Z</time>
      </trkpt>
      <trkpt lat="43.93744" lon="2.35855">
        <ele>234.7</ele>
        <time>2020-05-23T13:29:28Z</time>
      </trkpt>
      <trkpt lat="43.9375" lon="2.35854">
        <ele>239.02</ele>
        <time>2020-05-23T13:29:47Z</time>
      </trkpt>
      <trkpt lat="43.93753" lon="2.35844">
        <ele>241.91</ele>
        <time>2020-05-23T13:30:06Z</time>
      </trkpt>
      <trkpt lat="43.93758" lon="2.3584">
        <ele>243.83</ele>
        <time>2020-05-23T13:30:15Z</time>
      </trkpt>
      <trkpt lat="43.93758" lon="2.35843">
        <ele>243.83</ele>
        <time>2020-05-23T13:30:26Z</time>
      </trkpt>
      <trkpt lat="43.93754" lon="2.35844">
        <ele>244.31</ele>
        <time>2020-05-23T13:30:44Z</time>
      </trkpt>
      <trkpt lat="43.93747" lon="2.35846">
        <ele>243.83</ele>
        <time>2020-05-23T13:30:52Z</time>
      </trkpt>
      <trkpt lat="43.93739" lon="2.35847">
        <ele>244.31</ele>
        <time>2020-05-23T13:31:00Z</time>
      </trkpt>
      <trkpt lat="43.93726" lon="2.35853">
        <ele>245.75</ele>
        <time>2020-05-23T13:31:09Z</time>
      </trkpt>
      <trkpt lat="43.93712" lon="2.35857">
        <ele>249.12</ele>
        <time>2020-05-23T13:31:20Z</time>
      </trkpt>
      <trkpt lat="43.93701" lon="2.35862">
        <ele>249.6</ele>
        <time>2020-05-23T13:31:29Z</time>
      </trkpt>
      <trkpt lat="43.93693" lon="2.35868">
        <ele>251.52</ele>
        <time>2020-05-23T13:31:38Z</time>
      </trkpt>
      <trkpt lat="43.93685" lon="2.35873">
        <ele>252.96</ele>
        <time>2020-05-23T13:31:47Z</time>
      </trkpt>
      <trkpt lat="43.93677" lon="2.35876">
        <ele>255.85</ele>
        <time>2020-05-23T13:31:54Z</time>
      </trkpt>
      <trkpt lat="43.93667" lon="2.35881">
        <ele>258.73</ele>
        <time>2020-05-23T13:32:03Z</time>
      </trkpt>
      <trkpt lat="43.93661" lon="2.35885">
        <ele>260.17</ele>
        <time>2020-05-23T13:32:12Z</time>
      </trkpt>
      <trkpt lat="43.93655" lon="2.35886">
        <ele>260.65</ele>
        <time>2020-05-23T13:32:20Z</time>
      </trkpt>
      <trkpt lat="43.93646" lon="2.35888">
        <ele>260.65</ele>
        <time>2020-05-23T13:32:28Z</time>
      </trkpt>
      <trkpt lat="43.93637" lon="2.35889">
        <ele>262.1</ele>
        <time>2020-05-23T13:32:36Z</time>
      </trkpt>
      <trkpt lat="43.93629" lon="2.3589">
        <ele>262.58</ele>
        <time>2020-05-23T13:32:45Z</time>
      </trkpt>
      <trkpt lat="43.93619" lon="2.35892">
        <ele>264.98</ele>
        <time>2020-05-23T13:32:54Z</time>
      </trkpt>
      <trkpt lat="43.93614" lon="2.35896">
        <ele>265.94</ele>
        <time>2020-05-23T13:33:02Z</time>
      </trkpt>
      <trkpt lat="43.93604" lon="2.359">
        <ele>269.31</ele>
        <time>2020-05-23T13:33:12Z</time>
      </trkpt>
      <trkpt lat="43.93593" lon="2.35907">
        <ele>273.63</ele>
        <time>2020-05-23T13:33:20Z</time>
      </trkpt>
      <trkpt lat="43.93596" lon="2.35917">
        <ele>275.07</ele>
        <time>2020-05-23T13:33:28Z</time>
      </trkpt>
      <trkpt lat="43.93596" lon="2.35918">
        <ele>278.44</ele>
        <time>2020-05-23T13:33:43Z</time>
      </trkpt>
      <trkpt lat="43.936" lon="2.35923">
        <ele>278.92</ele>
        <time>2020-05-23T13:33:54Z</time>
      </trkpt>
      <trkpt lat="43.93603" lon="2.35935">
        <ele>279.88</ele>
        <time>2020-05-23T13:34:03Z</time>
      </trkpt>
      <trkpt lat="43.93606" lon="2.35942">
        <ele>277.48</ele>
        <time>2020-05-23T13:34:10Z</time>
      </trkpt>
      <trkpt lat="43.93612" lon="2.3595">
        <ele>275.56</ele>
        <time>2020-05-23T13:34:20Z</time>
      </trkpt>
      <trkpt lat="43.93617" lon="2.35957">
        <ele>276.52</ele>
        <time>2020-05-23T13:34:29Z</time>
      </trkpt>
      <trkpt lat="43.93623" lon="2.35965">
        <ele>279.88</ele>
        <time>2020-05-23T13:34:37Z</time>
      </trkpt>
      <trkpt lat="43.93628" lon="2.35976">
        <ele>279.4</ele>
        <time>2020-05-23T13:34:46Z</time>
      </trkpt>
      <trkpt lat="43.9363" lon="2.35986">
        <ele>278.92</ele>
        <time>2020-05-23T13:34:53Z</time>
      </trkpt>
      <trkpt lat="43.93631" lon="2.3599">
        <ele>277.96</ele>
        <time>2020-05-23T13:35:02Z</time>
      </trkpt>
      <trkpt lat="43.93631" lon="2.35991">
        <ele>278.44</ele>
        <time>2020-05-23T13:35:12Z</time>
      </trkpt>
      <trkpt lat="43.93626" lon="2.35993">
        <ele>278.92</ele>
        <time>2020-05-23T13:35:18Z</time>
      </trkpt>
      <trkpt lat="43.93618" lon="2.35995">
        <ele>279.4</ele>
        <time>2020-05-23T13:35:25Z</time>
      </trkpt>
      <trkpt lat="43.93608" lon="2.35997">
        <ele>280.84</ele>
        <time>2020-05-23T13:35:33Z</time>
      </trkpt>
      <trkpt lat="43.936" lon="2.36">
        <ele>279.4</ele>
        <time>2020-05-23T13:35:42Z</time>
      </trkpt>
      <trkpt lat="43.93595" lon="2.36005">
        <ele>279.4</ele>
        <time>2020-05-23T13:35:50Z</time>
      </trkpt>
      <trkpt lat="43.93588" lon="2.36008">
        <ele>281.32</ele>
        <time>2020-05-23T13:35:58Z</time>
      </trkpt>
      <trkpt lat="43.93579" lon="2.36009">
        <ele>285.17</ele>
        <time>2020-05-23T13:36:07Z</time>
      </trkpt>
      <trkpt lat="43.93569" lon="2.3601">
        <ele>288.05</ele>
        <time>2020-05-23T13:36:15Z</time>
      </trkpt>
      <trkpt lat="43.93557" lon="2.36007">
        <ele>291.9</ele>
        <time>2020-05-23T13:36:25Z</time>
      </trkpt>
      <trkpt lat="43.93546" lon="2.36009">
        <ele>294.78</ele>
        <time>2020-05-23T13:36:33Z</time>
      </trkpt>
      <trkpt lat="43.9354" lon="2.36007">
        <ele>297.18</ele>
        <time>2020-05-23T13:36:39Z</time>
      </trkpt>
      <trkpt lat="43.93529" lon="2.36005">
        <ele>299.11</ele>
        <time>2020-05-23T13:36:47Z</time>
      </trkpt>
      <trkpt lat="43.93522" lon="2.36005">
        <ele>300.07</ele>
        <time>2020-05-23T13:36:54Z</time>
      </trkpt>
      <trkpt lat="43.93511" lon="2.36004">
        <ele>301.51</ele>
        <time>2020-05-23T13:37:04Z</time>
      </trkpt>
      <trkpt lat="43.93504" lon="2.36003">
        <ele>301.99</ele>
        <time>2020-05-23T13:37:10Z</time>
      </trkpt>
      <trkpt lat="43.93504" lon="2.3601">
        <ele>302.95</ele>
        <time>2020-05-23T13:37:16Z</time>
      </trkpt>
      <trkpt lat="43.93513" lon="2.36021">
        <ele>303.91</ele>
        <time>2020-05-23T13:37:25Z</time>
      </trkpt>
      <trkpt lat="43.93514" lon="2.36033">
        <ele>301.51</ele>
        <time>2020-05-23T13:37:34Z</time>
      </trkpt>
      <trkpt lat="43.93507" lon="2.36038">
        <ele>302.47</ele>
        <time>2020-05-23T13:37:41Z</time>
      </trkpt>
      <trkpt lat="43.93497" lon="2.3604">
        <ele>305.84</ele>
        <time>2020-05-23T13:37:50Z</time>
      </trkpt>
      <trkpt lat="43.93493" lon="2.36039">
        <ele>306.8</ele>
        <time>2020-05-23T13:37:54Z</time>
      </trkpt>
      <trkpt lat="43.93486" lon="2.36037">
        <ele>309.68</ele>
        <time>2020-05-23T13:38:01Z</time>
      </trkpt>
      <trkpt lat="43.93478" lon="2.36036">
        <ele>313.05</ele>
        <time>2020-05-23T13:38:10Z</time>
      </trkpt>
      <trkpt lat="43.93477" lon="2.36038">
        <ele>314.01</ele>
        <time>2020-05-23T13:38:20Z</time>
      </trkpt>
      <trkpt lat="43.93473" lon="2.36035">
        <ele>314.01</ele>
        <time>2020-05-23T13:38:27Z</time>
      </trkpt>
      <trkpt lat="43.93472" lon="2.36031">
        <ele>313.53</ele>
        <time>2020-05-23T13:38:33Z</time>
      </trkpt>
      <trkpt lat="43.93465" lon="2.3603">
        <ele>313.05</ele>
        <time>2020-05-23T13:38:41Z</time>
      </trkpt>
      <trkpt lat="43.93464" lon="2.36029">
        <ele>312.57</ele>
        <time>2020-05-23T13:38:50Z</time>
      </trkpt>
      <trkpt lat="43.93467" lon="2.36032">
        <ele>313.05</ele>
        <time>2020-05-23T13:38:58Z</time>
      </trkpt>
      <trkpt lat="43.93475" lon="2.36037">
        <ele>314.49</ele>
        <time>2020-05-23T13:39:07Z</time>
      </trkpt>
      <trkpt lat="43.93473" lon="2.3604">
        <ele>314.97</ele>
        <time>2020-05-23T13:39:15Z</time>
      </trkpt>
      <trkpt lat="43.93469" lon="2.36042">
        <ele>316.41</ele>
        <time>2020-05-23T13:39:25Z</time>
      </trkpt>
      <trkpt lat="43.93465" lon="2.36045">
        <ele>316.89</ele>
        <time>2020-05-23T13:39:35Z</time>
      </trkpt>
      <trkpt lat="43.93458" lon="2.36046">
        <ele>318.81</ele>
        <time>2020-05-23T13:39:43Z</time>
      </trkpt>
      <trkpt lat="43.9345" lon="2.36048">
        <ele>319.78</ele>
        <time>2020-05-23T13:39:52Z</time>
      </trkpt>
      <trkpt lat="43.93441" lon="2.36051">
        <ele>320.26</ele>
        <time>2020-05-23T13:40:01Z</time>
      </trkpt>
      <trkpt lat="43.93433" lon="2.36055">
        <ele>320.74</ele>
        <time>2020-05-23T13:40:10Z</time>
      </trkpt>
      <trkpt lat="43.93428" lon="2.36059">
        <ele>321.22</ele>
        <time>2020-05-23T13:40:18Z</time>
      </trkpt>
      <trkpt lat="43.93415" lon="2.3606">
        <ele>325.54</ele>
        <time>2020-05-23T13:40:32Z</time>
      </trkpt>
      <trkpt lat="43.93409" lon="2.36061">
        <ele>327.47</ele>
        <time>2020-05-23T13:40:40Z</time>
      </trkpt>
      <trkpt lat="43.93403" lon="2.36062">
        <ele>328.91</ele>
        <time>2020-05-23T13:40:53Z</time>
      </trkpt>
      <trkpt lat="43.93391" lon="2.36063">
        <ele>327.95</ele>
        <time>2020-05-23T13:41:04Z</time>
      </trkpt>
      <trkpt lat="43.93382" lon="2.36063">
        <ele>327.47</ele>
        <time>2020-05-23T13:41:12Z</time>
      </trkpt>
      <trkpt lat="43.93371" lon="2.36063">
        <ele>327.47</ele>
        <time>2020-05-23T13:41:21Z</time>
      </trkpt>
      <trkpt lat="43.93361" lon="2.36061">
        <ele>329.87</ele>
        <time>2020-05-23T13:41:31Z</time>
      </trkpt>
      <trkpt lat="43.93358" lon="2.36062">
        <ele>330.35</ele>
        <time>2020-05-23T13:41:38Z</time>
      </trkpt>
      <trkpt lat="43.93354" lon="2.36062">
        <ele>328.43</ele>
        <time>2020-05-23T13:41:47Z</time>
      </trkpt>
      <trkpt lat="43.93344" lon="2.36064">
        <ele>329.87</ele>
        <time>2020-05-23T13:41:57Z</time>
      </trkpt>
      <trkpt lat="43.93336" lon="2.36065">
        <ele>333.71</ele>
        <time>2020-05-23T13:42:05Z</time>
      </trkpt>
      <trkpt lat="43.93328" lon="2.36064">
        <ele>335.64</ele>
        <time>2020-05-23T13:42:13Z</time>
      </trkpt>
      <trkpt lat="43.93321" lon="2.36063">
        <ele>338.52</ele>
        <time>2020-05-23T13:42:21Z</time>
      </trkpt>
      <trkpt lat="43.93311" lon="2.3606">
        <ele>341.89</ele>
        <time>2020-05-23T13:42:30Z</time>
      </trkpt>
      <trkpt lat="43.933" lon="2.36057">
        <ele>349.58</ele>
        <time>2020-05-23T13:42:41Z</time>
      </trkpt>
      <trkpt lat="43.93296" lon="2.36056">
        <ele>352.46</ele>
        <time>2020-05-23T13:42:48Z</time>
      </trkpt>
      <trkpt lat="43.93292" lon="2.36054">
        <ele>353.42</ele>
        <time>2020-05-23T13:42:55Z</time>
      </trkpt>
      <trkpt lat="43.93283" lon="2.3605">
        <ele>351.98</ele>
        <time>2020-05-23T13:43:04Z</time>
      </trkpt>
      <trkpt lat="43.93274" lon="2.36052">
        <ele>350.06</ele>
        <time>2020-05-23T13:43:14Z</time>
      </trkpt>
      <trkpt lat="43.9327" lon="2.36054">
        <ele>350.06</ele>
        <time>2020-05-23T13:43:18Z</time>
      </trkpt>
      <trkpt lat="43.93257" lon="2.36056">
        <ele>351.5</ele>
        <time>2020-05-23T13:43:29Z</time>
      </trkpt>
      <trkpt lat="43.93241" lon="2.36059">
        <ele>366.4</ele>
        <time>2020-05-23T13:43:39Z</time>
      </trkpt>
      <trkpt lat="43.9323" lon="2.36061">
        <ele>370.73</ele>
        <time>2020-05-23T13:43:49Z</time>
      </trkpt>
      <trkpt lat="43.93219" lon="2.36064">
        <ele>373.61</ele>
        <time>2020-05-23T13:43:59Z</time>
      </trkpt>
      <trkpt lat="43.93211" lon="2.36066">
        <ele>376.01</ele>
        <time>2020-05-23T13:44:07Z</time>
      </trkpt>
      <trkpt lat="43.93204" lon="2.36068">
        <ele>376.97</ele>
        <time>2020-05-23T13:44:16Z</time>
      </trkpt>
      <trkpt lat="43.93198" lon="2.3607">
        <ele>377.45</ele>
        <time>2020-05-23T13:44:24Z</time>
      </trkpt>
      <trkpt lat="43.93189" lon="2.36071">
        <ele>378.42</ele>
        <time>2020-05-23T13:44:32Z</time>
      </trkpt>
      <trkpt lat="43.93184" lon="2.36072">
        <ele>378.9</ele>
        <time>2020-05-23T13:44:38Z</time>
      </trkpt>
      <trkpt lat="43.93177" lon="2.36073">
        <ele>379.86</ele>
        <time>2020-05-23T13:44:45Z</time>
      </trkpt>
      <trkpt lat="43.93166" lon="2.36074">
        <ele>378.9</ele>
        <time>2020-05-23T13:44:55Z</time>
      </trkpt>
      <trkpt lat="43.93155" lon="2.36077">
        <ele>379.38</ele>
        <time>2020-05-23T13:45:05Z</time>
      </trkpt>
      <trkpt lat="43.93144" lon="2.36077">
        <ele>382.26</ele>
        <time>2020-05-23T13:45:14Z</time>
      </trkpt>
      <trkpt lat="43.93131" lon="2.36076">
        <ele>385.15</ele>
        <time>2020-05-23T13:45:24Z</time>
      </trkpt>
      <trkpt lat="43.93117" lon="2.36077">
        <ele>388.51</ele>
        <time>2020-05-23T13:45:35Z</time>
      </trkpt>
      <trkpt lat="43.93108" lon="2.36077">
        <ele>392.84</ele>
        <time>2020-05-23T13:45:42Z</time>
      </trkpt>
      <trkpt lat="43.93101" lon="2.36079">
        <ele>394.76</ele>
        <time>2020-05-23T13:45:49Z</time>
      </trkpt>
      <trkpt lat="43.93098" lon="2.3608">
        <ele>394.76</ele>
        <time>2020-05-23T13:45:51Z</time>
      </trkpt>
      <trkpt lat="43.93088" lon="2.36082">
        <ele>395.24</ele>
        <time>2020-05-23T13:46:01Z</time>
      </trkpt>
      <trkpt lat="43.93079" lon="2.36084">
        <ele>395.72</ele>
        <time>2020-05-23T13:46:10Z</time>
      </trkpt>
      <trkpt lat="43.93069" lon="2.36088">
        <ele>395.72</ele>
        <time>2020-05-23T13:46:19Z</time>
      </trkpt>
      <trkpt lat="43.93059" lon="2.36092">
        <ele>397.64</ele>
        <time>2020-05-23T13:46:27Z</time>
      </trkpt>
      <trkpt lat="43.93052" lon="2.36095">
        <ele>399.08</ele>
        <time>2020-05-23T13:46:35Z</time>
      </trkpt>
      <trkpt lat="43.93042" lon="2.36094">
        <ele>400.53</ele>
        <time>2020-05-23T13:46:43Z</time>
      </trkpt>
      <trkpt lat="43.93034" lon="2.36094">
        <ele>401.49</ele>
        <time>2020-05-23T13:46:50Z</time>
      </trkpt>
      <trkpt lat="43.93022" lon="2.36093">
        <ele>403.41</ele>
        <time>2020-05-23T13:46:59Z</time>
      </trkpt>
      <trkpt lat="43.93011" lon="2.36093">
        <ele>403.41</ele>
        <time>2020-05-23T13:47:09Z</time>
      </trkpt>
      <trkpt lat="43.93" lon="2.3609">
        <ele>405.33</ele>
        <time>2020-05-23T13:47:18Z</time>
      </trkpt>
      <trkpt lat="43.92991" lon="2.3608">
        <ele>406.77</ele>
        <time>2020-05-23T13:47:28Z</time>
      </trkpt>
      <trkpt lat="43.92987" lon="2.36072">
        <ele>406.77</ele>
        <time>2020-05-23T13:47:35Z</time>
      </trkpt>
      <trkpt lat="43.92982" lon="2.36062">
        <ele>407.26</ele>
        <time>2020-05-23T13:47:45Z</time>
      </trkpt>
      <trkpt lat="43.92978" lon="2.36054">
        <ele>407.74</ele>
        <time>2020-05-23T13:47:51Z</time>
      </trkpt>
      <trkpt lat="43.92974" lon="2.36041">
        <ele>409.66</ele>
        <time>2020-05-23T13:48:00Z</time>
      </trkpt>
      <trkpt lat="43.92967" lon="2.36027">
        <ele>410.62</ele>
        <time>2020-05-23T13:48:12Z</time>
      </trkpt>
      <trkpt lat="43.92964" lon="2.36019">
        <ele>411.1</ele>
        <time>2020-05-23T13:48:19Z</time>
      </trkpt>
      <trkpt lat="43.9296" lon="2.36009">
        <ele>411.58</ele>
        <time>2020-05-23T13:48:27Z</time>
      </trkpt>
      <trkpt lat="43.92957" lon="2.35997">
        <ele>412.54</ele>
        <time>2020-05-23T13:48:37Z</time>
      </trkpt>
      <trkpt lat="43.92953" lon="2.3598">
        <ele>414.47</ele>
        <time>2020-05-23T13:48:48Z</time>
      </trkpt>
      <trkpt lat="43.92953" lon="2.35979">
        <ele>414.95</ele>
        <time>2020-05-23T13:48:49Z</time>
      </trkpt>
      <trkpt lat="43.9295" lon="2.3596">
        <ele>418.31</ele>
        <time>2020-05-23T13:49:01Z</time>
      </trkpt>
      <trkpt lat="43.92947" lon="2.35948">
        <ele>419.27</ele>
        <time>2020-05-23T13:49:08Z</time>
      </trkpt>
      <trkpt lat="43.92942" lon="2.35937">
        <ele>420.71</ele>
        <time>2020-05-23T13:49:16Z</time>
      </trkpt>
      <trkpt lat="43.92937" lon="2.35931">
        <ele>421.68</ele>
        <time>2020-05-23T13:49:23Z</time>
      </trkpt>
      <trkpt lat="43.92938" lon="2.35932">
        <ele>420.71</ele>
        <time>2020-05-23T13:49:38Z</time>
      </trkpt>
      <trkpt lat="43.92937" lon="2.35932">
        <ele>421.68</ele>
        <time>2020-05-23T13:49:54Z</time>
      </trkpt>
      <trkpt lat="43.92937" lon="2.35932">
        <ele>421.68</ele>
        <time>2020-05-23T13:50:07Z</time>
      </trkpt>
      <trkpt lat="43.92927" lon="2.35927">
        <ele>422.16</ele>
        <time>2020-05-23T13:50:16Z</time>
      </trkpt>
      <trkpt lat="43.9291" lon="2.35926">
        <ele>423.12</ele>
        <time>2020-05-23T13:50:28Z</time>
      </trkpt>
      <trkpt lat="43.92897" lon="2.35924">
        <ele>423.12</ele>
        <time>2020-05-23T13:50:37Z</time>
      </trkpt>
      <trkpt lat="43.92883" lon="2.3593">
        <ele>421.68</ele>
        <time>2020-05-23T13:50:48Z</time>
      </trkpt>
      <trkpt lat="43.92864" lon="2.35932">
        <ele>422.16</ele>
        <time>2020-05-23T13:51:00Z</time>
      </trkpt>
      <trkpt lat="43.9285" lon="2.35934">
        <ele>424.08</ele>
        <time>2020-05-23T13:51:10Z</time>
      </trkpt>
      <trkpt lat="43.92837" lon="2.35934">
        <ele>426</ele>
        <time>2020-05-23T13:51:19Z</time>
      </trkpt>
      <trkpt lat="43.92825" lon="2.35936">
        <ele>426.96</ele>
        <time>2020-05-23T13:51:28Z</time>
      </trkpt>
      <trkpt lat="43.92814" lon="2.35936">
        <ele>428.4</ele>
        <time>2020-05-23T13:51:36Z</time>
      </trkpt>
      <trkpt lat="43.92813" lon="2.35937">
        <ele>427.92</ele>
        <time>2020-05-23T13:51:37Z</time>
      </trkpt>
      <trkpt lat="43.92812" lon="2.35937">
        <ele>427.92</ele>
        <time>2020-05-23T13:51:38Z</time>
      </trkpt>
      <trkpt lat="43.92794" lon="2.35939">
        <ele>428.89</ele>
        <time>2020-05-23T13:51:50Z</time>
      </trkpt>
      <trkpt lat="43.92782" lon="2.35939">
        <ele>428.4</ele>
        <time>2020-05-23T13:51:59Z</time>
      </trkpt>
      <trkpt lat="43.92773" lon="2.3594">
        <ele>428.4</ele>
        <time>2020-05-23T13:52:07Z</time>
      </trkpt>
      <trkpt lat="43.92767" lon="2.35941">
        <ele>428.89</ele>
        <time>2020-05-23T13:52:11Z</time>
      </trkpt>
      <trkpt lat="43.92766" lon="2.35941">
        <ele>428.89</ele>
        <time>2020-05-23T13:52:12Z</time>
      </trkpt>
      <trkpt lat="43.92765" lon="2.35941">
        <ele>428.89</ele>
        <time>2020-05-23T13:52:13Z</time>
      </trkpt>
      <trkpt lat="43.92755" lon="2.35943">
        <ele>429.85</ele>
        <time>2020-05-23T13:52:21Z</time>
      </trkpt>
      <trkpt lat="43.92754" lon="2.35942">
        <ele>429.85</ele>
        <time>2020-05-23T13:52:22Z</time>
      </trkpt>
      <trkpt lat="43.92753" lon="2.35942">
        <ele>429.85</ele>
        <time>2020-05-23T13:52:23Z</time>
      </trkpt>
      <trkpt lat="43.92742" lon="2.35942">
        <ele>430.81</ele>
        <time>2020-05-23T13:52:31Z</time>
      </trkpt>
      <trkpt lat="43.92741" lon="2.35942">
        <ele>430.81</ele>
        <time>2020-05-23T13:52:32Z</time>
      </trkpt>
      <trkpt lat="43.92739" lon="2.35942">
        <ele>430.81</ele>
        <time>2020-05-23T13:52:33Z</time>
      </trkpt>
      <trkpt lat="43.92738" lon="2.35943">
        <ele>430.81</ele>
        <time>2020-05-23T13:52:34Z</time>
      </trkpt>
      <trkpt lat="43.92736" lon="2.35943">
        <ele>430.81</ele>
        <time>2020-05-23T13:52:35Z</time>
      </trkpt>
      <trkpt lat="43.92731" lon="2.35943">
        <ele>430.33</ele>
        <time>2020-05-23T13:52:39Z</time>
      </trkpt>
      <trkpt lat="43.9273" lon="2.35943">
        <ele>430.33</ele>
        <time>2020-05-23T13:52:40Z</time>
      </trkpt>
      <trkpt lat="43.92718" lon="2.35946">
        <ele>430.81</ele>
        <time>2020-05-23T13:52:49Z</time>
      </trkpt>
      <trkpt lat="43.92697" lon="2.35946">
        <ele>428.89</ele>
        <time>2020-05-23T13:53:03Z</time>
      </trkpt>
      <trkpt lat="43.92679" lon="2.35945">
        <ele>428.89</ele>
        <time>2020-05-23T13:53:15Z</time>
      </trkpt>
      <trkpt lat="43.92662" lon="2.35944">
        <ele>428.89</ele>
        <time>2020-05-23T13:53:26Z</time>
      </trkpt>
      <trkpt lat="43.92661" lon="2.35946">
        <ele>428.89</ele>
        <time>2020-05-23T13:53:27Z</time>
      </trkpt>
      <trkpt lat="43.9266" lon="2.35948">
        <ele>428.89</ele>
        <time>2020-05-23T13:53:28Z</time>
      </trkpt>
      <trkpt lat="43.9266" lon="2.3595">
        <ele>428.4</ele>
        <time>2020-05-23T13:53:29Z</time>
      </trkpt>
      <trkpt lat="43.9266" lon="2.35953">
        <ele>427.92</ele>
        <time>2020-05-23T13:53:30Z</time>
      </trkpt>
      <trkpt lat="43.9266" lon="2.35955">
        <ele>427.92</ele>
        <time>2020-05-23T13:53:31Z</time>
      </trkpt>
      <trkpt lat="43.92661" lon="2.35957">
        <ele>427.92</ele>
        <time>2020-05-23T13:53:32Z</time>
      </trkpt>
      <trkpt lat="43.92662" lon="2.3596">
        <ele>427.44</ele>
        <time>2020-05-23T13:53:33Z</time>
      </trkpt>
      <trkpt lat="43.92663" lon="2.35962">
        <ele>427.44</ele>
        <time>2020-05-23T13:53:34Z</time>
      </trkpt>
      <trkpt lat="43.9267" lon="2.35976">
        <ele>426.96</ele>
        <time>2020-05-23T13:53:42Z</time>
      </trkpt>
      <trkpt lat="43.92675" lon="2.35985">
        <ele>426.48</ele>
        <time>2020-05-23T13:53:48Z</time>
      </trkpt>
      <trkpt lat="43.92686" lon="2.36006">
        <ele>426</ele>
        <time>2020-05-23T13:54:00Z</time>
      </trkpt>
      <trkpt lat="43.92695" lon="2.36027">
        <ele>426.48</ele>
        <time>2020-05-23T13:54:12Z</time>
      </trkpt>
      <trkpt lat="43.92704" lon="2.36045">
        <ele>424.56</ele>
        <time>2020-05-23T13:54:22Z</time>
      </trkpt>
      <trkpt lat="43.9271" lon="2.36058">
        <ele>426</ele>
        <time>2020-05-23T13:54:29Z</time>
      </trkpt>
      <trkpt lat="43.92719" lon="2.36078">
        <ele>426</ele>
        <time>2020-05-23T13:54:41Z</time>
      </trkpt>
      <trkpt lat="43.92725" lon="2.3609">
        <ele>425.52</ele>
        <time>2020-05-23T13:54:49Z</time>
      </trkpt>
      <trkpt lat="43.92737" lon="2.36105">
        <ele>426.96</ele>
        <time>2020-05-23T13:55:00Z</time>
      </trkpt>
      <trkpt lat="43.92749" lon="2.36121">
        <ele>427.92</ele>
        <time>2020-05-23T13:55:11Z</time>
      </trkpt>
      <trkpt lat="43.92759" lon="2.36138">
        <ele>429.37</ele>
        <time>2020-05-23T13:55:22Z</time>
      </trkpt>
      <trkpt lat="43.92771" lon="2.36151">
        <ele>429.37</ele>
        <time>2020-05-23T13:55:33Z</time>
      </trkpt>
      <trkpt lat="43.92783" lon="2.36164">
        <ele>428.89</ele>
        <time>2020-05-23T13:55:44Z</time>
      </trkpt>
      <trkpt lat="43.92798" lon="2.36179">
        <ele>428.89</ele>
        <time>2020-05-23T13:55:56Z</time>
      </trkpt>
      <trkpt lat="43.92812" lon="2.36191">
        <ele>431.29</ele>
        <time>2020-05-23T13:56:07Z</time>
      </trkpt>
      <trkpt lat="43.92829" lon="2.36202">
        <ele>430.33</ele>
        <time>2020-05-23T13:56:20Z</time>
      </trkpt>
      <trkpt lat="43.92843" lon="2.36213">
        <ele>431.29</ele>
        <time>2020-05-23T13:56:31Z</time>
      </trkpt>
      <trkpt lat="43.92852" lon="2.36219">
        <ele>430.33</ele>
        <time>2020-05-23T13:56:40Z</time>
      </trkpt>
      <trkpt lat="43.92857" lon="2.36222">
        <ele>431.29</ele>
        <time>2020-05-23T13:56:45Z</time>
      </trkpt>
      <trkpt lat="43.92858" lon="2.36222">
        <ele>431.77</ele>
        <time>2020-05-23T13:56:46Z</time>
      </trkpt>
      <trkpt lat="43.92859" lon="2.36223">
        <ele>431.77</ele>
        <time>2020-05-23T13:56:47Z</time>
      </trkpt>
      <trkpt lat="43.9286" lon="2.36224">
        <ele>431.77</ele>
        <time>2020-05-23T13:56:48Z</time>
      </trkpt>
      <trkpt lat="43.92861" lon="2.36225">
        <ele>432.25</ele>
        <time>2020-05-23T13:56:49Z</time>
      </trkpt>
      <trkpt lat="43.9287" lon="2.36231">
        <ele>432.25</ele>
        <time>2020-05-23T13:56:56Z</time>
      </trkpt>
      <trkpt lat="43.92871" lon="2.36232">
        <ele>432.25</ele>
        <time>2020-05-23T13:56:57Z</time>
      </trkpt>
      <trkpt lat="43.92881" lon="2.36244">
        <ele>431.29</ele>
        <time>2020-05-23T13:57:07Z</time>
      </trkpt>
      <trkpt lat="43.92889" lon="2.36254">
        <ele>432.25</ele>
        <time>2020-05-23T13:57:16Z</time>
      </trkpt>
      <trkpt lat="43.92896" lon="2.36262">
        <ele>432.73</ele>
        <time>2020-05-23T13:57:23Z</time>
      </trkpt>
      <trkpt lat="43.92901" lon="2.36275">
        <ele>433.21</ele>
        <time>2020-05-23T13:57:30Z</time>
      </trkpt>
      <trkpt lat="43.92907" lon="2.36283">
        <ele>432.25</ele>
        <time>2020-05-23T13:57:39Z</time>
      </trkpt>
      <trkpt lat="43.9291" lon="2.36288">
        <ele>432.25</ele>
        <time>2020-05-23T13:57:46Z</time>
      </trkpt>
      <trkpt lat="43.92916" lon="2.36301">
        <ele>432.25</ele>
        <time>2020-05-23T13:57:55Z</time>
      </trkpt>
      <trkpt lat="43.92928" lon="2.36322">
        <ele>433.69</ele>
        <time>2020-05-23T13:58:08Z</time>
      </trkpt>
      <trkpt lat="43.92935" lon="2.3633">
        <ele>434.17</ele>
        <time>2020-05-23T13:58:16Z</time>
      </trkpt>
      <trkpt lat="43.92935" lon="2.36331">
        <ele>434.17</ele>
        <time>2020-05-23T13:58:17Z</time>
      </trkpt>
      <trkpt lat="43.92944" lon="2.36346">
        <ele>434.65</ele>
        <time>2020-05-23T13:58:28Z</time>
      </trkpt>
      <trkpt lat="43.92946" lon="2.36347">
        <ele>434.65</ele>
        <time>2020-05-23T13:58:29Z</time>
      </trkpt>
      <trkpt lat="43.92947" lon="2.36348">
        <ele>434.17</ele>
        <time>2020-05-23T13:58:30Z</time>
      </trkpt>
      <trkpt lat="43.92948" lon="2.3635">
        <ele>434.17</ele>
        <time>2020-05-23T13:58:31Z</time>
      </trkpt>
      <trkpt lat="43.92949" lon="2.3635">
        <ele>434.17</ele>
        <time>2020-05-23T13:58:32Z</time>
      </trkpt>
      <trkpt lat="43.92955" lon="2.36357">
        <ele>434.17</ele>
        <time>2020-05-23T13:58:38Z</time>
      </trkpt>
      <trkpt lat="43.92958" lon="2.36363">
        <ele>434.17</ele>
        <time>2020-05-23T13:58:42Z</time>
      </trkpt>
      <trkpt lat="43.92968" lon="2.36382">
        <ele>433.69</ele>
        <time>2020-05-23T13:58:55Z</time>
      </trkpt>
      <trkpt lat="43.92975" lon="2.36392">
        <ele>432.73</ele>
        <time>2020-05-23T13:59:03Z</time>
      </trkpt>
      <trkpt lat="43.9298" lon="2.36404">
        <ele>430.33</ele>
        <time>2020-05-23T13:59:11Z</time>
      </trkpt>
      <trkpt lat="43.92981" lon="2.36411">
        <ele>428.4</ele>
        <time>2020-05-23T13:59:15Z</time>
      </trkpt>
      <trkpt lat="43.92984" lon="2.36428">
        <ele>423.6</ele>
        <time>2020-05-23T13:59:26Z</time>
      </trkpt>
      <trkpt lat="43.9299" lon="2.3644">
        <ele>419.27</ele>
        <time>2020-05-23T13:59:35Z</time>
      </trkpt>
      <trkpt lat="43.92989" lon="2.36444">
        <ele>418.31</ele>
        <time>2020-05-23T13:59:49Z</time>
      </trkpt>
      <trkpt lat="43.92989" lon="2.36445">
        <ele>418.79</ele>
        <time>2020-05-23T13:59:58Z</time>
      </trkpt>
      <trkpt lat="43.92995" lon="2.36454">
        <ele>418.79</ele>
        <time>2020-05-23T14:00:06Z</time>
      </trkpt>
      <trkpt lat="43.93003" lon="2.36466">
        <ele>415.43</ele>
        <time>2020-05-23T14:00:15Z</time>
      </trkpt>
      <trkpt lat="43.93016" lon="2.36478">
        <ele>415.43</ele>
        <time>2020-05-23T14:00:25Z</time>
      </trkpt>
      <trkpt lat="43.93017" lon="2.3648">
        <ele>414.47</ele>
        <time>2020-05-23T14:00:27Z</time>
      </trkpt>
      <trkpt lat="43.93025" lon="2.36488">
        <ele>411.1</ele>
        <time>2020-05-23T14:00:36Z</time>
      </trkpt>
      <trkpt lat="43.93029" lon="2.36495">
        <ele>410.14</ele>
        <time>2020-05-23T14:00:41Z</time>
      </trkpt>
      <trkpt lat="43.9304" lon="2.36503">
        <ele>406.77</ele>
        <time>2020-05-23T14:00:50Z</time>
      </trkpt>
      <trkpt lat="43.93048" lon="2.36508">
        <ele>405.33</ele>
        <time>2020-05-23T14:00:56Z</time>
      </trkpt>
      <trkpt lat="43.93056" lon="2.36517">
        <ele>404.37</ele>
        <time>2020-05-23T14:01:05Z</time>
      </trkpt>
      <trkpt lat="43.93064" lon="2.36526">
        <ele>405.33</ele>
        <time>2020-05-23T14:01:13Z</time>
      </trkpt>
      <trkpt lat="43.9308" lon="2.36536">
        <ele>406.77</ele>
        <time>2020-05-23T14:01:26Z</time>
      </trkpt>
      <trkpt lat="43.93092" lon="2.36544">
        <ele>405.81</ele>
        <time>2020-05-23T14:01:36Z</time>
      </trkpt>
      <trkpt lat="43.93105" lon="2.36553">
        <ele>403.89</ele>
        <time>2020-05-23T14:01:47Z</time>
      </trkpt>
      <trkpt lat="43.93116" lon="2.36558">
        <ele>403.89</ele>
        <time>2020-05-23T14:01:56Z</time>
      </trkpt>
      <trkpt lat="43.93125" lon="2.36563">
        <ele>401.01</ele>
        <time>2020-05-23T14:02:04Z</time>
      </trkpt>
      <trkpt lat="43.93136" lon="2.36574">
        <ele>397.16</ele>
        <time>2020-05-23T14:02:13Z</time>
      </trkpt>
      <trkpt lat="43.93145" lon="2.36583">
        <ele>392.84</ele>
        <time>2020-05-23T14:02:22Z</time>
      </trkpt>
      <trkpt lat="43.93153" lon="2.36598">
        <ele>391.39</ele>
        <time>2020-05-23T14:02:32Z</time>
      </trkpt>
      <trkpt lat="43.93155" lon="2.36605">
        <ele>392.84</ele>
        <time>2020-05-23T14:02:40Z</time>
      </trkpt>
      <trkpt lat="43.93155" lon="2.36606">
        <ele>396.2</ele>
        <time>2020-05-23T14:02:52Z</time>
      </trkpt>
      <trkpt lat="43.9316" lon="2.36612">
        <ele>396.2</ele>
        <time>2020-05-23T14:02:59Z</time>
      </trkpt>
      <trkpt lat="43.93168" lon="2.36624">
        <ele>394.28</ele>
        <time>2020-05-23T14:03:08Z</time>
      </trkpt>
      <trkpt lat="43.93173" lon="2.36637">
        <ele>392.36</ele>
        <time>2020-05-23T14:03:16Z</time>
      </trkpt>
      <trkpt lat="43.93179" lon="2.3665">
        <ele>390.43</ele>
        <time>2020-05-23T14:03:24Z</time>
      </trkpt>
      <trkpt lat="43.93187" lon="2.3667">
        <ele>388.51</ele>
        <time>2020-05-23T14:03:35Z</time>
      </trkpt>
      <trkpt lat="43.93192" lon="2.36685">
        <ele>385.15</ele>
        <time>2020-05-23T14:03:44Z</time>
      </trkpt>
      <trkpt lat="43.93196" lon="2.36697">
        <ele>381.3</ele>
        <time>2020-05-23T14:03:53Z</time>
      </trkpt>
      <trkpt lat="43.932" lon="2.36708">
        <ele>378.42</ele>
        <time>2020-05-23T14:04:00Z</time>
      </trkpt>
      <trkpt lat="43.93203" lon="2.36718">
        <ele>374.57</ele>
        <time>2020-05-23T14:04:07Z</time>
      </trkpt>
      <trkpt lat="43.93204" lon="2.36721">
        <ele>373.61</ele>
        <time>2020-05-23T14:04:09Z</time>
      </trkpt>
      <trkpt lat="43.9321" lon="2.36734">
        <ele>370.73</ele>
        <time>2020-05-23T14:04:17Z</time>
      </trkpt>
      <trkpt lat="43.93218" lon="2.36748">
        <ele>368.8</ele>
        <time>2020-05-23T14:04:27Z</time>
      </trkpt>
      <trkpt lat="43.93224" lon="2.36756">
        <ele>368.8</ele>
        <time>2020-05-23T14:04:34Z</time>
      </trkpt>
      <trkpt lat="43.93232" lon="2.36766">
        <ele>368.8</ele>
        <time>2020-05-23T14:04:42Z</time>
      </trkpt>
      <trkpt lat="43.93247" lon="2.36777">
        <ele>371.21</ele>
        <time>2020-05-23T14:04:52Z</time>
      </trkpt>
      <trkpt lat="43.93256" lon="2.36789">
        <ele>372.17</ele>
        <time>2020-05-23T14:05:00Z</time>
      </trkpt>
      <trkpt lat="43.9326" lon="2.36792">
        <ele>371.69</ele>
        <time>2020-05-23T14:05:04Z</time>
      </trkpt>
      <trkpt lat="43.93265" lon="2.36793">
        <ele>370.73</ele>
        <time>2020-05-23T14:05:08Z</time>
      </trkpt>
      <trkpt lat="43.93278" lon="2.368">
        <ele>370.24</ele>
        <time>2020-05-23T14:05:18Z</time>
      </trkpt>
      <trkpt lat="43.93293" lon="2.36809">
        <ele>371.21</ele>
        <time>2020-05-23T14:05:30Z</time>
      </trkpt>
      <trkpt lat="43.93304" lon="2.36818">
        <ele>372.17</ele>
        <time>2020-05-23T14:05:39Z</time>
      </trkpt>
      <trkpt lat="43.93306" lon="2.36819">
        <ele>372.65</ele>
        <time>2020-05-23T14:05:41Z</time>
      </trkpt>
      <trkpt lat="43.93311" lon="2.36821">
        <ele>372.65</ele>
        <time>2020-05-23T14:05:45Z</time>
      </trkpt>
      <trkpt lat="43.93316" lon="2.36826">
        <ele>372.17</ele>
        <time>2020-05-23T14:05:52Z</time>
      </trkpt>
      <trkpt lat="43.9332" lon="2.36828">
        <ele>371.69</ele>
        <time>2020-05-23T14:05:56Z</time>
      </trkpt>
      <trkpt lat="43.93324" lon="2.36831">
        <ele>371.21</ele>
        <time>2020-05-23T14:06:00Z</time>
      </trkpt>
      <trkpt lat="43.93338" lon="2.36843">
        <ele>369.76</ele>
        <time>2020-05-23T14:06:11Z</time>
      </trkpt>
      <trkpt lat="43.93353" lon="2.36855">
        <ele>367.84</ele>
        <time>2020-05-23T14:06:23Z</time>
      </trkpt>
      <trkpt lat="43.93362" lon="2.36862">
        <ele>367.84</ele>
        <time>2020-05-23T14:06:31Z</time>
      </trkpt>
      <trkpt lat="43.93374" lon="2.3687">
        <ele>369.76</ele>
        <time>2020-05-23T14:06:41Z</time>
      </trkpt>
      <trkpt lat="43.93387" lon="2.36881">
        <ele>370.24</ele>
        <time>2020-05-23T14:06:52Z</time>
      </trkpt>
      <trkpt lat="43.93397" lon="2.3689">
        <ele>370.73</ele>
        <time>2020-05-23T14:07:00Z</time>
      </trkpt>
      <trkpt lat="43.9341" lon="2.36899">
        <ele>369.28</ele>
        <time>2020-05-23T14:07:11Z</time>
      </trkpt>
      <trkpt lat="43.93425" lon="2.3691">
        <ele>368.8</ele>
        <time>2020-05-23T14:07:23Z</time>
      </trkpt>
      <trkpt lat="43.93439" lon="2.36919">
        <ele>366.88</ele>
        <time>2020-05-23T14:07:33Z</time>
      </trkpt>
      <trkpt lat="43.93449" lon="2.36931">
        <ele>365.92</ele>
        <time>2020-05-23T14:07:43Z</time>
      </trkpt>
      <trkpt lat="43.93461" lon="2.36946">
        <ele>362.55</ele>
        <time>2020-05-23T14:07:54Z</time>
      </trkpt>
      <trkpt lat="43.93471" lon="2.36962">
        <ele>360.63</ele>
        <time>2020-05-23T14:08:05Z</time>
      </trkpt>
      <trkpt lat="43.93481" lon="2.36978">
        <ele>358.23</ele>
        <time>2020-05-23T14:08:16Z</time>
      </trkpt>
      <trkpt lat="43.93489" lon="2.36997">
        <ele>357.27</ele>
        <time>2020-05-23T14:08:27Z</time>
      </trkpt>
      <trkpt lat="43.93497" lon="2.37011">
        <ele>356.31</ele>
        <time>2020-05-23T14:08:36Z</time>
      </trkpt>
      <trkpt lat="43.93506" lon="2.37025">
        <ele>357.75</ele>
        <time>2020-05-23T14:08:46Z</time>
      </trkpt>
      <trkpt lat="43.93514" lon="2.37041">
        <ele>358.71</ele>
        <time>2020-05-23T14:08:56Z</time>
      </trkpt>
      <trkpt lat="43.9352" lon="2.37049">
        <ele>357.75</ele>
        <time>2020-05-23T14:09:02Z</time>
      </trkpt>
      <trkpt lat="43.93528" lon="2.37064">
        <ele>357.27</ele>
        <time>2020-05-23T14:09:11Z</time>
      </trkpt>
      <trkpt lat="43.93537" lon="2.37079">
        <ele>356.79</ele>
        <time>2020-05-23T14:09:21Z</time>
      </trkpt>
      <trkpt lat="43.93543" lon="2.37089">
        <ele>356.31</ele>
        <time>2020-05-23T14:09:28Z</time>
      </trkpt>
      <trkpt lat="43.93552" lon="2.37104">
        <ele>357.27</ele>
        <time>2020-05-23T14:09:37Z</time>
      </trkpt>
      <trkpt lat="43.93559" lon="2.37113">
        <ele>355.34</ele>
        <time>2020-05-23T14:09:44Z</time>
      </trkpt>
      <trkpt lat="43.93569" lon="2.37122">
        <ele>355.83</ele>
        <time>2020-05-23T14:09:53Z</time>
      </trkpt>
      <trkpt lat="43.9358" lon="2.37132">
        <ele>355.34</ele>
        <time>2020-05-23T14:10:03Z</time>
      </trkpt>
      <trkpt lat="43.93584" lon="2.37136">
        <ele>355.83</ele>
        <time>2020-05-23T14:10:09Z</time>
      </trkpt>
      <trkpt lat="43.9359" lon="2.37145">
        <ele>354.86</ele>
        <time>2020-05-23T14:10:17Z</time>
      </trkpt>
      <trkpt lat="43.93598" lon="2.37152">
        <ele>355.34</ele>
        <time>2020-05-23T14:10:25Z</time>
      </trkpt>
      <trkpt lat="43.93608" lon="2.37162">
        <ele>355.34</ele>
        <time>2020-05-23T14:10:35Z</time>
      </trkpt>
      <trkpt lat="43.93612" lon="2.3717">
        <ele>355.83</ele>
        <time>2020-05-23T14:10:41Z</time>
      </trkpt>
      <trkpt lat="43.93616" lon="2.37181">
        <ele>358.23</ele>
        <time>2020-05-23T14:10:47Z</time>
      </trkpt>
      <trkpt lat="43.93619" lon="2.37187">
        <ele>359.67</ele>
        <time>2020-05-23T14:10:51Z</time>
      </trkpt>
      <trkpt lat="43.93623" lon="2.37197">
        <ele>360.63</ele>
        <time>2020-05-23T14:10:59Z</time>
      </trkpt>
      <trkpt lat="43.93631" lon="2.37209">
        <ele>361.59</ele>
        <time>2020-05-23T14:11:09Z</time>
      </trkpt>
      <trkpt lat="43.93641" lon="2.37221">
        <ele>364.48</ele>
        <time>2020-05-23T14:11:19Z</time>
      </trkpt>
      <trkpt lat="43.93654" lon="2.37226">
        <ele>364.48</ele>
        <time>2020-05-23T14:11:30Z</time>
      </trkpt>
      <trkpt lat="43.93663" lon="2.37219">
        <ele>366.88</ele>
        <time>2020-05-23T14:11:39Z</time>
      </trkpt>
      <trkpt lat="43.93668" lon="2.37215">
        <ele>367.36</ele>
        <time>2020-05-23T14:11:47Z</time>
      </trkpt>
      <trkpt lat="43.93672" lon="2.37214">
        <ele>367.84</ele>
        <time>2020-05-23T14:11:57Z</time>
      </trkpt>
      <trkpt lat="43.93674" lon="2.37214">
        <ele>367.84</ele>
        <time>2020-05-23T14:11:59Z</time>
      </trkpt>
      <trkpt lat="43.93683" lon="2.37211">
        <ele>368.8</ele>
        <time>2020-05-23T14:12:06Z</time>
      </trkpt>
      <trkpt lat="43.93697" lon="2.37208">
        <ele>370.73</ele>
        <time>2020-05-23T14:12:17Z</time>
      </trkpt>
      <trkpt lat="43.93705" lon="2.3721">
        <ele>372.17</ele>
        <time>2020-05-23T14:12:24Z</time>
      </trkpt>
      <trkpt lat="43.93718" lon="2.37211">
        <ele>373.13</ele>
        <time>2020-05-23T14:12:34Z</time>
      </trkpt>
      <trkpt lat="43.93734" lon="2.37211">
        <ele>374.57</ele>
        <time>2020-05-23T14:12:46Z</time>
      </trkpt>
      <trkpt lat="43.93748" lon="2.37211">
        <ele>375.05</ele>
        <time>2020-05-23T14:12:57Z</time>
      </trkpt>
      <trkpt lat="43.9376" lon="2.3721">
        <ele>375.53</ele>
        <time>2020-05-23T14:13:07Z</time>
      </trkpt>
      <trkpt lat="43.93769" lon="2.37209">
        <ele>376.49</ele>
        <time>2020-05-23T14:13:16Z</time>
      </trkpt>
      <trkpt lat="43.93779" lon="2.37209">
        <ele>377.94</ele>
        <time>2020-05-23T14:13:24Z</time>
      </trkpt>
      <trkpt lat="43.93791" lon="2.37208">
        <ele>378.9</ele>
        <time>2020-05-23T14:13:33Z</time>
      </trkpt>
      <trkpt lat="43.93797" lon="2.37206">
        <ele>379.38</ele>
        <time>2020-05-23T14:13:38Z</time>
      </trkpt>
      <trkpt lat="43.9381" lon="2.37205">
        <ele>380.34</ele>
        <time>2020-05-23T14:13:48Z</time>
      </trkpt>
      <trkpt lat="43.93824" lon="2.37204">
        <ele>381.3</ele>
        <time>2020-05-23T14:13:57Z</time>
      </trkpt>
      <trkpt lat="43.93832" lon="2.37203">
        <ele>381.78</ele>
        <time>2020-05-23T14:14:05Z</time>
      </trkpt>
      <trkpt lat="43.93844" lon="2.37201">
        <ele>382.74</ele>
        <time>2020-05-23T14:14:14Z</time>
      </trkpt>
      <trkpt lat="43.93862" lon="2.37203">
        <ele>384.66</ele>
        <time>2020-05-23T14:14:26Z</time>
      </trkpt>
      <trkpt lat="43.93879" lon="2.37201">
        <ele>384.18</ele>
        <time>2020-05-23T14:14:38Z</time>
      </trkpt>
      <trkpt lat="43.93892" lon="2.372">
        <ele>381.78</ele>
        <time>2020-05-23T14:14:47Z</time>
      </trkpt>
      <trkpt lat="43.93905" lon="2.37198">
        <ele>381.3</ele>
        <time>2020-05-23T14:14:58Z</time>
      </trkpt>
      <trkpt lat="43.93909" lon="2.37197">
        <ele>380.82</ele>
        <time>2020-05-23T14:15:04Z</time>
      </trkpt>
      <trkpt lat="43.93924" lon="2.37194">
        <ele>381.78</ele>
        <time>2020-05-23T14:15:16Z</time>
      </trkpt>
      <trkpt lat="43.93936" lon="2.3719">
        <ele>383.22</ele>
        <time>2020-05-23T14:15:25Z</time>
      </trkpt>
      <trkpt lat="43.9395" lon="2.37184">
        <ele>384.66</ele>
        <time>2020-05-23T14:15:36Z</time>
      </trkpt>
      <trkpt lat="43.93964" lon="2.37178">
        <ele>386.11</ele>
        <time>2020-05-23T14:15:46Z</time>
      </trkpt>
      <trkpt lat="43.93976" lon="2.37176">
        <ele>388.03</ele>
        <time>2020-05-23T14:15:55Z</time>
      </trkpt>
      <trkpt lat="43.93988" lon="2.37176">
        <ele>389.95</ele>
        <time>2020-05-23T14:16:05Z</time>
      </trkpt>
      <trkpt lat="43.93999" lon="2.37175">
        <ele>390.43</ele>
        <time>2020-05-23T14:16:14Z</time>
      </trkpt>
      <trkpt lat="43.94011" lon="2.37173">
        <ele>390.43</ele>
        <time>2020-05-23T14:16:25Z</time>
      </trkpt>
      <trkpt lat="43.94022" lon="2.37173">
        <ele>390.91</ele>
        <time>2020-05-23T14:16:34Z</time>
      </trkpt>
      <trkpt lat="43.94035" lon="2.37176">
        <ele>392.36</ele>
        <time>2020-05-23T14:16:43Z</time>
      </trkpt>
      <trkpt lat="43.94046" lon="2.37183">
        <ele>394.28</ele>
        <time>2020-05-23T14:16:53Z</time>
      </trkpt>
      <trkpt lat="43.94049" lon="2.37184">
        <ele>395.72</ele>
        <time>2020-05-23T14:16:59Z</time>
      </trkpt>
      <trkpt lat="43.94051" lon="2.37186">
        <ele>396.68</ele>
        <time>2020-05-23T14:17:06Z</time>
      </trkpt>
      <trkpt lat="43.9405" lon="2.37185">
        <ele>396.68</ele>
        <time>2020-05-23T14:17:17Z</time>
      </trkpt>
      <trkpt lat="43.94058" lon="2.37198">
        <ele>396.68</ele>
        <time>2020-05-23T14:17:27Z</time>
      </trkpt>
      <trkpt lat="43.94065" lon="2.3721">
        <ele>397.16</ele>
        <time>2020-05-23T14:17:36Z</time>
      </trkpt>
      <trkpt lat="43.94068" lon="2.37214">
        <ele>396.2</ele>
        <time>2020-05-23T14:17:40Z</time>
      </trkpt>
      <trkpt lat="43.9407" lon="2.37216">
        <ele>396.2</ele>
        <time>2020-05-23T14:17:42Z</time>
      </trkpt>
      <trkpt lat="43.94075" lon="2.37221">
        <ele>395.72</ele>
        <time>2020-05-23T14:17:46Z</time>
      </trkpt>
      <trkpt lat="43.94083" lon="2.37235">
        <ele>394.28</ele>
        <time>2020-05-23T14:17:56Z</time>
      </trkpt>
      <trkpt lat="43.94084" lon="2.37238">
        <ele>393.8</ele>
        <time>2020-05-23T14:17:58Z</time>
      </trkpt>
      <trkpt lat="43.94089" lon="2.3725">
        <ele>393.32</ele>
        <time>2020-05-23T14:18:07Z</time>
      </trkpt>
      <trkpt lat="43.9409" lon="2.37267">
        <ele>394.76</ele>
        <time>2020-05-23T14:18:17Z</time>
      </trkpt>
      <trkpt lat="43.94091" lon="2.37282">
        <ele>397.64</ele>
        <time>2020-05-23T14:18:26Z</time>
      </trkpt>
      <trkpt lat="43.94092" lon="2.37292">
        <ele>399.57</ele>
        <time>2020-05-23T14:18:34Z</time>
      </trkpt>
      <trkpt lat="43.94093" lon="2.37306">
        <ele>401.97</ele>
        <time>2020-05-23T14:18:43Z</time>
      </trkpt>
      <trkpt lat="43.94093" lon="2.37317">
        <ele>402.93</ele>
        <time>2020-05-23T14:18:51Z</time>
      </trkpt>
      <trkpt lat="43.94092" lon="2.37336">
        <ele>405.81</ele>
        <time>2020-05-23T14:19:01Z</time>
      </trkpt>
      <trkpt lat="43.9409" lon="2.3735">
        <ele>407.74</ele>
        <time>2020-05-23T14:19:10Z</time>
      </trkpt>
      <trkpt lat="43.94089" lon="2.37353">
        <ele>409.18</ele>
        <time>2020-05-23T14:19:16Z</time>
      </trkpt>
      <trkpt lat="43.94087" lon="2.37361">
        <ele>410.14</ele>
        <time>2020-05-23T14:19:25Z</time>
      </trkpt>
      <trkpt lat="43.94086" lon="2.3737">
        <ele>411.1</ele>
        <time>2020-05-23T14:19:35Z</time>
      </trkpt>
      <trkpt lat="43.94086" lon="2.37371">
        <ele>412.06</ele>
        <time>2020-05-23T14:19:44Z</time>
      </trkpt>
      <trkpt lat="43.94085" lon="2.3737">
        <ele>412.54</ele>
        <time>2020-05-23T14:19:54Z</time>
      </trkpt>
      <trkpt lat="43.94085" lon="2.37371">
        <ele>413.5</ele>
        <time>2020-05-23T14:20:03Z</time>
      </trkpt>
      <trkpt lat="43.94084" lon="2.37373">
        <ele>413.5</ele>
        <time>2020-05-23T14:20:12Z</time>
      </trkpt>
      <trkpt lat="43.94084" lon="2.37373">
        <ele>413.5</ele>
        <time>2020-05-23T14:20:22Z</time>
      </trkpt>
      <trkpt lat="43.94084" lon="2.37372">
        <ele>414.95</ele>
        <time>2020-05-23T14:20:29Z</time>
      </trkpt>
      <trkpt lat="43.94085" lon="2.37372">
        <ele>414.95</ele>
        <time>2020-05-23T14:20:39Z</time>
      </trkpt>
      <trkpt lat="43.94085" lon="2.37372">
        <ele>415.43</ele>
        <time>2020-05-23T14:20:50Z</time>
      </trkpt>
      <trkpt lat="43.94086" lon="2.37372">
        <ele>414.95</ele>
        <time>2020-05-23T14:21:00Z</time>
      </trkpt>
      <trkpt lat="43.94087" lon="2.37369">
        <ele>414.95</ele>
        <time>2020-05-23T14:21:07Z</time>
      </trkpt>
      <trkpt lat="43.9409" lon="2.37356">
        <ele>413.02</ele>
        <time>2020-05-23T14:21:17Z</time>
      </trkpt>
      <trkpt lat="43.94091" lon="2.37357">
        <ele>412.06</ele>
        <time>2020-05-23T14:21:20Z</time>
      </trkpt>
      <trkpt lat="43.94097" lon="2.37373">
        <ele>411.1</ele>
        <time>2020-05-23T14:21:30Z</time>
      </trkpt>
      <trkpt lat="43.94099" lon="2.3738">
        <ele>411.1</ele>
        <time>2020-05-23T14:21:36Z</time>
      </trkpt>
      <trkpt lat="43.941" lon="2.37389">
        <ele>411.58</ele>
        <time>2020-05-23T14:21:42Z</time>
      </trkpt>
      <trkpt lat="43.94102" lon="2.37391">
        <ele>411.1</ele>
        <time>2020-05-23T14:21:49Z</time>
      </trkpt>
      <trkpt lat="43.94101" lon="2.37389">
        <ele>411.1</ele>
        <time>2020-05-23T14:22:05Z</time>
      </trkpt>
      <trkpt lat="43.94102" lon="2.37395">
        <ele>410.62</ele>
        <time>2020-05-23T14:22:13Z</time>
      </trkpt>
      <trkpt lat="43.94103" lon="2.37399">
        <ele>410.62</ele>
        <time>2020-05-23T14:22:16Z</time>
      </trkpt>
      <trkpt lat="43.94107" lon="2.37395">
        <ele>408.7</ele>
        <time>2020-05-23T14:22:21Z</time>
      </trkpt>
      <trkpt lat="43.94113" lon="2.37379">
        <ele>406.29</ele>
        <time>2020-05-23T14:22:26Z</time>
      </trkpt>
      <trkpt lat="43.94115" lon="2.3737">
        <ele>403.89</ele>
        <time>2020-05-23T14:22:30Z</time>
      </trkpt>
      <trkpt lat="43.94116" lon="2.37359">
        <ele>401.49</ele>
        <time>2020-05-23T14:22:37Z</time>
      </trkpt>
      <trkpt lat="43.94118" lon="2.37348">
        <ele>400.05</ele>
        <time>2020-05-23T14:22:44Z</time>
      </trkpt>
      <trkpt lat="43.9412" lon="2.37349">
        <ele>399.08</ele>
        <time>2020-05-23T14:22:50Z</time>
      </trkpt>
      <trkpt lat="43.9412" lon="2.3735">
        <ele>398.12</ele>
        <time>2020-05-23T14:22:58Z</time>
      </trkpt>
      <trkpt lat="43.94123" lon="2.37353">
        <ele>396.2</ele>
        <time>2020-05-23T14:23:10Z</time>
      </trkpt>
      <trkpt lat="43.94125" lon="2.37357">
        <ele>394.76</ele>
        <time>2020-05-23T14:23:16Z</time>
      </trkpt>
      <trkpt lat="43.94128" lon="2.37366">
        <ele>394.28</ele>
        <time>2020-05-23T14:23:24Z</time>
      </trkpt>
      <trkpt lat="43.9413" lon="2.37375">
        <ele>392.36</ele>
        <time>2020-05-23T14:23:30Z</time>
      </trkpt>
      <trkpt lat="43.94135" lon="2.37389">
        <ele>390.91</ele>
        <time>2020-05-23T14:23:39Z</time>
      </trkpt>
      <trkpt lat="43.94135" lon="2.3739">
        <ele>390.43</ele>
        <time>2020-05-23T14:23:40Z</time>
      </trkpt>
      <trkpt lat="43.94136" lon="2.37392">
        <ele>390.43</ele>
        <time>2020-05-23T14:23:41Z</time>
      </trkpt>
      <trkpt lat="43.94137" lon="2.37393">
        <ele>389.95</ele>
        <time>2020-05-23T14:23:42Z</time>
      </trkpt>
      <trkpt lat="43.94138" lon="2.37394">
        <ele>389.95</ele>
        <time>2020-05-23T14:23:43Z</time>
      </trkpt>
      <trkpt lat="43.94139" lon="2.37395">
        <ele>389.47</ele>
        <time>2020-05-23T14:23:44Z</time>
      </trkpt>
      <trkpt lat="43.94143" lon="2.37404">
        <ele>387.07</ele>
        <time>2020-05-23T14:23:51Z</time>
      </trkpt>
      <trkpt lat="43.94144" lon="2.37405">
        <ele>386.59</ele>
        <time>2020-05-23T14:23:52Z</time>
      </trkpt>
      <trkpt lat="43.94145" lon="2.37406">
        <ele>386.59</ele>
        <time>2020-05-23T14:23:53Z</time>
      </trkpt>
      <trkpt lat="43.94152" lon="2.37418">
        <ele>384.66</ele>
        <time>2020-05-23T14:24:03Z</time>
      </trkpt>
      <trkpt lat="43.94157" lon="2.37425">
        <ele>383.7</ele>
        <time>2020-05-23T14:24:10Z</time>
      </trkpt>
      <trkpt lat="43.9416" lon="2.37434">
        <ele>381.3</ele>
        <time>2020-05-23T14:24:17Z</time>
      </trkpt>
      <trkpt lat="43.94162" lon="2.3744">
        <ele>380.82</ele>
        <time>2020-05-23T14:24:24Z</time>
      </trkpt>
      <trkpt lat="43.94165" lon="2.37444">
        <ele>379.38</ele>
        <time>2020-05-23T14:24:28Z</time>
      </trkpt>
      <trkpt lat="43.94167" lon="2.37443">
        <ele>376.97</ele>
        <time>2020-05-23T14:24:33Z</time>
      </trkpt>
      <trkpt lat="43.94168" lon="2.37439">
        <ele>376.01</ele>
        <time>2020-05-23T14:24:36Z</time>
      </trkpt>
      <trkpt lat="43.94171" lon="2.37439">
        <ele>375.05</ele>
        <time>2020-05-23T14:24:41Z</time>
      </trkpt>
      <trkpt lat="43.94174" lon="2.37444">
        <ele>373.13</ele>
        <time>2020-05-23T14:24:47Z</time>
      </trkpt>
      <trkpt lat="43.94178" lon="2.3745">
        <ele>371.69</ele>
        <time>2020-05-23T14:24:52Z</time>
      </trkpt>
      <trkpt lat="43.94178" lon="2.37453">
        <ele>371.69</ele>
        <time>2020-05-23T14:24:54Z</time>
      </trkpt>
      <trkpt lat="43.94186" lon="2.37463">
        <ele>369.76</ele>
        <time>2020-05-23T14:25:02Z</time>
      </trkpt>
      <trkpt lat="43.9419" lon="2.37471">
        <ele>368.32</ele>
        <time>2020-05-23T14:25:11Z</time>
      </trkpt>
      <trkpt lat="43.94192" lon="2.37473">
        <ele>367.36</ele>
        <time>2020-05-23T14:25:18Z</time>
      </trkpt>
      <trkpt lat="43.94195" lon="2.37476">
        <ele>364.48</ele>
        <time>2020-05-23T14:25:25Z</time>
      </trkpt>
      <trkpt lat="43.94197" lon="2.37477">
        <ele>363.52</ele>
        <time>2020-05-23T14:25:29Z</time>
      </trkpt>
      <trkpt lat="43.94198" lon="2.37478">
        <ele>363.04</ele>
        <time>2020-05-23T14:25:30Z</time>
      </trkpt>
      <trkpt lat="43.94199" lon="2.37479">
        <ele>363.04</ele>
        <time>2020-05-23T14:25:31Z</time>
      </trkpt>
      <trkpt lat="43.94204" lon="2.37484">
        <ele>362.55</ele>
        <time>2020-05-23T14:25:38Z</time>
      </trkpt>
      <trkpt lat="43.94206" lon="2.37488">
        <ele>362.55</ele>
        <time>2020-05-23T14:25:46Z</time>
      </trkpt>
      <trkpt lat="43.94206" lon="2.37487">
        <ele>365.44</ele>
        <time>2020-05-23T14:25:55Z</time>
      </trkpt>
      <trkpt lat="43.94206" lon="2.37486">
        <ele>367.84</ele>
        <time>2020-05-23T14:26:07Z</time>
      </trkpt>
      <trkpt lat="43.94206" lon="2.37486">
        <ele>369.28</ele>
        <time>2020-05-23T14:26:22Z</time>
      </trkpt>
      <trkpt lat="43.94205" lon="2.37486">
        <ele>368.8</ele>
        <time>2020-05-23T14:26:31Z</time>
      </trkpt>
      <trkpt lat="43.94205" lon="2.37485">
        <ele>368.32</ele>
        <time>2020-05-23T14:26:50Z</time>
      </trkpt>
      <trkpt lat="43.94205" lon="2.37484">
        <ele>368.32</ele>
        <time>2020-05-23T14:27:11Z</time>
      </trkpt>
      <trkpt lat="43.94204" lon="2.37483">
        <ele>369.28</ele>
        <time>2020-05-23T14:27:30Z</time>
      </trkpt>
      <trkpt lat="43.94204" lon="2.37483">
        <ele>367.36</ele>
        <time>2020-05-23T14:27:36Z</time>
      </trkpt>
      <trkpt lat="43.94206" lon="2.37483">
        <ele>367.84</ele>
        <time>2020-05-23T14:27:49Z</time>
      </trkpt>
      <trkpt lat="43.94207" lon="2.37483">
        <ele>367.36</ele>
        <time>2020-05-23T14:27:56Z</time>
      </trkpt>
      <trkpt lat="43.94206" lon="2.37482">
        <ele>367.84</ele>
        <time>2020-05-23T14:28:06Z</time>
      </trkpt>
      <trkpt lat="43.94205" lon="2.37486">
        <ele>368.32</ele>
        <time>2020-05-23T14:28:13Z</time>
      </trkpt>
      <trkpt lat="43.94206" lon="2.37486">
        <ele>368.8</ele>
        <time>2020-05-23T14:28:21Z</time>
      </trkpt>
      <trkpt lat="43.94207" lon="2.37482">
        <ele>369.28</ele>
        <time>2020-05-23T14:28:33Z</time>
      </trkpt>
      <trkpt lat="43.94208" lon="2.37483">
        <ele>368.32</ele>
        <time>2020-05-23T14:28:39Z</time>
      </trkpt>
      <trkpt lat="43.9421" lon="2.37484">
        <ele>366.4</ele>
        <time>2020-05-23T14:28:47Z</time>
      </trkpt>
      <trkpt lat="43.94213" lon="2.37485">
        <ele>363.52</ele>
        <time>2020-05-23T14:28:53Z</time>
      </trkpt>
      <trkpt lat="43.94215" lon="2.37483">
        <ele>360.63</ele>
        <time>2020-05-23T14:28:59Z</time>
      </trkpt>
      <trkpt lat="43.94218" lon="2.37485">
        <ele>358.71</ele>
        <time>2020-05-23T14:29:06Z</time>
      </trkpt>
      <trkpt lat="43.94218" lon="2.37486">
        <ele>358.71</ele>
        <time>2020-05-23T14:29:14Z</time>
      </trkpt>
      <trkpt lat="43.94218" lon="2.37484">
        <ele>359.67</ele>
        <time>2020-05-23T14:29:23Z</time>
      </trkpt>
      <trkpt lat="43.94218" lon="2.37485">
        <ele>361.11</ele>
        <time>2020-05-23T14:29:34Z</time>
      </trkpt>
      <trkpt lat="43.94218" lon="2.37488">
        <ele>361.11</ele>
        <time>2020-05-23T14:29:50Z</time>
      </trkpt>
      <trkpt lat="43.94219" lon="2.37491">
        <ele>359.67</ele>
        <time>2020-05-23T14:29:58Z</time>
      </trkpt>
      <trkpt lat="43.94218" lon="2.37493">
        <ele>359.19</ele>
        <time>2020-05-23T14:30:01Z</time>
      </trkpt>
      <trkpt lat="43.94215" lon="2.37503">
        <ele>355.83</ele>
        <time>2020-05-23T14:30:10Z</time>
      </trkpt>
      <trkpt lat="43.94214" lon="2.37507">
        <ele>353.9</ele>
        <time>2020-05-23T14:30:16Z</time>
      </trkpt>
      <trkpt lat="43.94216" lon="2.37511">
        <ele>352.94</ele>
        <time>2020-05-23T14:30:21Z</time>
      </trkpt>
      <trkpt lat="43.9422" lon="2.37513">
        <ele>350.06</ele>
        <time>2020-05-23T14:30:28Z</time>
      </trkpt>
      <trkpt lat="43.94224" lon="2.37505">
        <ele>348.13</ele>
        <time>2020-05-23T14:30:37Z</time>
      </trkpt>
      <trkpt lat="43.94228" lon="2.37509">
        <ele>345.25</ele>
        <time>2020-05-23T14:30:44Z</time>
      </trkpt>
      <trkpt lat="43.9423" lon="2.3752">
        <ele>343.33</ele>
        <time>2020-05-23T14:30:52Z</time>
      </trkpt>
      <trkpt lat="43.94227" lon="2.37523">
        <ele>342.85</ele>
        <time>2020-05-23T14:30:59Z</time>
      </trkpt>
      <trkpt lat="43.94228" lon="2.37526">
        <ele>339.96</ele>
        <time>2020-05-23T14:31:07Z</time>
      </trkpt>
      <trkpt lat="43.94232" lon="2.3753">
        <ele>336.6</ele>
        <time>2020-05-23T14:31:15Z</time>
      </trkpt>
      <trkpt lat="43.94236" lon="2.37531">
        <ele>334.2</ele>
        <time>2020-05-23T14:31:22Z</time>
      </trkpt>
      <trkpt lat="43.94235" lon="2.37536">
        <ele>331.31</ele>
        <time>2020-05-23T14:31:30Z</time>
      </trkpt>
      <trkpt lat="43.94234" lon="2.37538">
        <ele>328.91</ele>
        <time>2020-05-23T14:31:37Z</time>
      </trkpt>
      <trkpt lat="43.94233" lon="2.37544">
        <ele>327.95</ele>
        <time>2020-05-23T14:31:50Z</time>
      </trkpt>
      <trkpt lat="43.94232" lon="2.37546">
        <ele>326.99</ele>
        <time>2020-05-23T14:31:57Z</time>
      </trkpt>
      <trkpt lat="43.94232" lon="2.37547">
        <ele>328.91</ele>
        <time>2020-05-23T14:32:10Z</time>
      </trkpt>
      <trkpt lat="43.94231" lon="2.3755">
        <ele>327.47</ele>
        <time>2020-05-23T14:32:18Z</time>
      </trkpt>
      <trkpt lat="43.94231" lon="2.37553">
        <ele>327.47</ele>
        <time>2020-05-23T14:32:24Z</time>
      </trkpt>
      <trkpt lat="43.94235" lon="2.37553">
        <ele>326.5</ele>
        <time>2020-05-23T14:32:32Z</time>
      </trkpt>
      <trkpt lat="43.94238" lon="2.37552">
        <ele>325.54</ele>
        <time>2020-05-23T14:32:39Z</time>
      </trkpt>
      <trkpt lat="43.94241" lon="2.37551">
        <ele>324.58</ele>
        <time>2020-05-23T14:32:46Z</time>
      </trkpt>
      <trkpt lat="43.9424" lon="2.37554">
        <ele>322.66</ele>
        <time>2020-05-23T14:32:52Z</time>
      </trkpt>
      <trkpt lat="43.94236" lon="2.37555">
        <ele>318.81</ele>
        <time>2020-05-23T14:33:00Z</time>
      </trkpt>
      <trkpt lat="43.94236" lon="2.3756">
        <ele>317.37</ele>
        <time>2020-05-23T14:33:08Z</time>
      </trkpt>
      <trkpt lat="43.94239" lon="2.37562">
        <ele>319.78</ele>
        <time>2020-05-23T14:33:15Z</time>
      </trkpt>
      <trkpt lat="43.94242" lon="2.37563">
        <ele>319.78</ele>
        <time>2020-05-23T14:33:18Z</time>
      </trkpt>
      <trkpt lat="43.94246" lon="2.37563">
        <ele>317.37</ele>
        <time>2020-05-23T14:33:24Z</time>
      </trkpt>
      <trkpt lat="43.94247" lon="2.37564">
        <ele>316.89</ele>
        <time>2020-05-23T14:33:31Z</time>
      </trkpt>
      <trkpt lat="43.94246" lon="2.37568">
        <ele>316.89</ele>
        <time>2020-05-23T14:33:39Z</time>
      </trkpt>
      <trkpt lat="43.9425" lon="2.37568">
        <ele>315.45</ele>
        <time>2020-05-23T14:33:47Z</time>
      </trkpt>
      <trkpt lat="43.94248" lon="2.37572">
        <ele>313.05</ele>
        <time>2020-05-23T14:33:54Z</time>
      </trkpt>
      <trkpt lat="43.94245" lon="2.3758">
        <ele>309.2</ele>
        <time>2020-05-23T14:34:02Z</time>
      </trkpt>
      <trkpt lat="43.94242" lon="2.37592">
        <ele>307.28</ele>
        <time>2020-05-23T14:34:10Z</time>
      </trkpt>
      <trkpt lat="43.94242" lon="2.37594">
        <ele>307.28</ele>
        <time>2020-05-23T14:34:11Z</time>
      </trkpt>
      <trkpt lat="43.94242" lon="2.376">
        <ele>307.28</ele>
        <time>2020-05-23T14:34:13Z</time>
      </trkpt>
      <trkpt lat="43.94244" lon="2.37617">
        <ele>310.16</ele>
        <time>2020-05-23T14:34:22Z</time>
      </trkpt>
      <trkpt lat="43.94245" lon="2.37622">
        <ele>310.16</ele>
        <time>2020-05-23T14:34:29Z</time>
      </trkpt>
      <trkpt lat="43.94249" lon="2.37629">
        <ele>309.68</ele>
        <time>2020-05-23T14:34:36Z</time>
      </trkpt>
      <trkpt lat="43.94254" lon="2.37641">
        <ele>306.8</ele>
        <time>2020-05-23T14:34:44Z</time>
      </trkpt>
      <trkpt lat="43.94255" lon="2.37651">
        <ele>304.39</ele>
        <time>2020-05-23T14:34:52Z</time>
      </trkpt>
      <trkpt lat="43.94259" lon="2.37657">
        <ele>303.43</ele>
        <time>2020-05-23T14:34:58Z</time>
      </trkpt>
      <trkpt lat="43.9426" lon="2.37655">
        <ele>301.03</ele>
        <time>2020-05-23T14:35:02Z</time>
      </trkpt>
      <trkpt lat="43.94258" lon="2.37652">
        <ele>300.55</ele>
        <time>2020-05-23T14:35:05Z</time>
      </trkpt>
      <trkpt lat="43.94265" lon="2.37654">
        <ele>299.59</ele>
        <time>2020-05-23T14:35:12Z</time>
      </trkpt>
      <trkpt lat="43.9427" lon="2.37657">
        <ele>296.22</ele>
        <time>2020-05-23T14:35:19Z</time>
      </trkpt>
      <trkpt lat="43.94272" lon="2.37664">
        <ele>293.34</ele>
        <time>2020-05-23T14:35:27Z</time>
      </trkpt>
      <trkpt lat="43.94279" lon="2.37669">
        <ele>290.46</ele>
        <time>2020-05-23T14:35:36Z</time>
      </trkpt>
      <trkpt lat="43.94282" lon="2.37671">
        <ele>288.05</ele>
        <time>2020-05-23T14:35:44Z</time>
      </trkpt>
      <trkpt lat="43.94286" lon="2.37673">
        <ele>287.09</ele>
        <time>2020-05-23T14:35:50Z</time>
      </trkpt>
      <trkpt lat="43.94293" lon="2.37674">
        <ele>287.57</ele>
        <time>2020-05-23T14:35:58Z</time>
      </trkpt>
      <trkpt lat="43.94297" lon="2.37673">
        <ele>285.65</ele>
        <time>2020-05-23T14:36:05Z</time>
      </trkpt>
      <trkpt lat="43.94299" lon="2.37678">
        <ele>283.25</ele>
        <time>2020-05-23T14:36:13Z</time>
      </trkpt>
      <trkpt lat="43.94301" lon="2.3768">
        <ele>281.32</ele>
        <time>2020-05-23T14:36:20Z</time>
      </trkpt>
      <trkpt lat="43.94305" lon="2.37681">
        <ele>281.32</ele>
        <time>2020-05-23T14:36:30Z</time>
      </trkpt>
      <trkpt lat="43.94306" lon="2.37677">
        <ele>281.32</ele>
        <time>2020-05-23T14:36:36Z</time>
      </trkpt>
      <trkpt lat="43.94308" lon="2.37672">
        <ele>282.28</ele>
        <time>2020-05-23T14:36:42Z</time>
      </trkpt>
      <trkpt lat="43.94304" lon="2.37666">
        <ele>279.88</ele>
        <time>2020-05-23T14:36:50Z</time>
      </trkpt>
      <trkpt lat="43.943" lon="2.37661">
        <ele>277.96</ele>
        <time>2020-05-23T14:36:58Z</time>
      </trkpt>
      <trkpt lat="43.94296" lon="2.37653">
        <ele>276.04</ele>
        <time>2020-05-23T14:37:05Z</time>
      </trkpt>
      <trkpt lat="43.94295" lon="2.37645">
        <ele>274.11</ele>
        <time>2020-05-23T14:37:12Z</time>
      </trkpt>
      <trkpt lat="43.94295" lon="2.37638">
        <ele>272.19</ele>
        <time>2020-05-23T14:37:18Z</time>
      </trkpt>
      <trkpt lat="43.943" lon="2.3764">
        <ele>268.83</ele>
        <time>2020-05-23T14:37:28Z</time>
      </trkpt>
      <trkpt lat="43.94299" lon="2.37637">
        <ele>266.9</ele>
        <time>2020-05-23T14:37:34Z</time>
      </trkpt>
      <trkpt lat="43.94299" lon="2.37635">
        <ele>265.46</ele>
        <time>2020-05-23T14:37:37Z</time>
      </trkpt>
      <trkpt lat="43.94301" lon="2.37629">
        <ele>261.62</ele>
        <time>2020-05-23T14:37:45Z</time>
      </trkpt>
      <trkpt lat="43.94304" lon="2.37629">
        <ele>259.21</ele>
        <time>2020-05-23T14:37:54Z</time>
      </trkpt>
      <trkpt lat="43.94307" lon="2.37631">
        <ele>258.25</ele>
        <time>2020-05-23T14:38:01Z</time>
      </trkpt>
      <trkpt lat="43.94314" lon="2.37634">
        <ele>256.81</ele>
        <time>2020-05-23T14:38:11Z</time>
      </trkpt>
      <trkpt lat="43.94319" lon="2.37637">
        <ele>253.93</ele>
        <time>2020-05-23T14:38:20Z</time>
      </trkpt>
      <trkpt lat="43.94323" lon="2.3764">
        <ele>252.48</ele>
        <time>2020-05-23T14:38:28Z</time>
      </trkpt>
      <trkpt lat="43.94328" lon="2.37641">
        <ele>252.96</ele>
        <time>2020-05-23T14:38:35Z</time>
      </trkpt>
      <trkpt lat="43.94332" lon="2.37645">
        <ele>253.93</ele>
        <time>2020-05-23T14:38:43Z</time>
      </trkpt>
      <trkpt lat="43.94338" lon="2.37649">
        <ele>252.96</ele>
        <time>2020-05-23T14:38:51Z</time>
      </trkpt>
      <trkpt lat="43.94344" lon="2.37655">
        <ele>250.56</ele>
        <time>2020-05-23T14:39:00Z</time>
      </trkpt>
      <trkpt lat="43.9435" lon="2.3766">
        <ele>248.64</ele>
        <time>2020-05-23T14:39:08Z</time>
      </trkpt>
      <trkpt lat="43.94356" lon="2.37664">
        <ele>248.16</ele>
        <time>2020-05-23T14:39:15Z</time>
      </trkpt>
      <trkpt lat="43.94358" lon="2.37664">
        <ele>246.23</ele>
        <time>2020-05-23T14:39:21Z</time>
      </trkpt>
      <trkpt lat="43.94358" lon="2.3766">
        <ele>243.83</ele>
        <time>2020-05-23T14:39:29Z</time>
      </trkpt>
      <trkpt lat="43.94356" lon="2.37655">
        <ele>241.43</ele>
        <time>2020-05-23T14:39:35Z</time>
      </trkpt>
      <trkpt lat="43.94357" lon="2.3765">
        <ele>237.1</ele>
        <time>2020-05-23T14:39:43Z</time>
      </trkpt>
      <trkpt lat="43.94356" lon="2.37647">
        <ele>235.66</ele>
        <time>2020-05-23T14:39:50Z</time>
      </trkpt>
      <trkpt lat="43.94355" lon="2.37642">
        <ele>234.22</ele>
        <time>2020-05-23T14:39:57Z</time>
      </trkpt>
      <trkpt lat="43.94353" lon="2.37631">
        <ele>231.81</ele>
        <time>2020-05-23T14:40:04Z</time>
      </trkpt>
      <trkpt lat="43.94355" lon="2.37622">
        <ele>231.33</ele>
        <time>2020-05-23T14:40:10Z</time>
      </trkpt>
      <trkpt lat="43.94362" lon="2.37627">
        <ele>230.85</ele>
        <time>2020-05-23T14:40:18Z</time>
      </trkpt>
      <trkpt lat="43.94367" lon="2.37632">
        <ele>228.45</ele>
        <time>2020-05-23T14:40:25Z</time>
      </trkpt>
      <trkpt lat="43.94371" lon="2.37638">
        <ele>225.09</ele>
        <time>2020-05-23T14:40:34Z</time>
      </trkpt>
      <trkpt lat="43.94373" lon="2.37634">
        <ele>224.61</ele>
        <time>2020-05-23T14:40:42Z</time>
      </trkpt>
      <trkpt lat="43.94371" lon="2.37631">
        <ele>221.72</ele>
        <time>2020-05-23T14:40:47Z</time>
      </trkpt>
      <trkpt lat="43.94368" lon="2.37625">
        <ele>217.4</ele>
        <time>2020-05-23T14:40:55Z</time>
      </trkpt>
      <trkpt lat="43.94364" lon="2.37619">
        <ele>214.51</ele>
        <time>2020-05-23T14:41:04Z</time>
      </trkpt>
      <trkpt lat="43.94361" lon="2.37617">
        <ele>213.55</ele>
        <time>2020-05-23T14:41:08Z</time>
      </trkpt>
      <trkpt lat="43.9436" lon="2.37599">
        <ele>214.51</ele>
        <time>2020-05-23T14:41:17Z</time>
      </trkpt>
      <trkpt lat="43.94362" lon="2.37594">
        <ele>216.91</ele>
        <time>2020-05-23T14:41:22Z</time>
      </trkpt>
      <trkpt lat="43.94364" lon="2.37588">
        <ele>216.91</ele>
        <time>2020-05-23T14:41:29Z</time>
      </trkpt>
      <trkpt lat="43.94362" lon="2.37579">
        <ele>215.47</ele>
        <time>2020-05-23T14:41:37Z</time>
      </trkpt>
      <trkpt lat="43.94359" lon="2.37572">
        <ele>214.03</ele>
        <time>2020-05-23T14:41:43Z</time>
      </trkpt>
      <trkpt lat="43.9436" lon="2.3757">
        <ele>210.67</ele>
        <time>2020-05-23T14:41:49Z</time>
      </trkpt>
      <trkpt lat="43.94364" lon="2.37571">
        <ele>208.26</ele>
        <time>2020-05-23T14:41:58Z</time>
      </trkpt>
      <trkpt lat="43.94368" lon="2.37576">
        <ele>206.34</ele>
        <time>2020-05-23T14:42:06Z</time>
      </trkpt>
      <trkpt lat="43.94371" lon="2.37583">
        <ele>204.42</ele>
        <time>2020-05-23T14:42:17Z</time>
      </trkpt>
      <trkpt lat="43.94373" lon="2.3758">
        <ele>203.46</ele>
        <time>2020-05-23T14:42:23Z</time>
      </trkpt>
      <trkpt lat="43.94378" lon="2.37584">
        <ele>199.13</ele>
        <time>2020-05-23T14:42:33Z</time>
      </trkpt>
      <trkpt lat="43.94377" lon="2.3759">
        <ele>197.69</ele>
        <time>2020-05-23T14:42:42Z</time>
      </trkpt>
      <trkpt lat="43.9438" lon="2.37597">
        <ele>198.17</ele>
        <time>2020-05-23T14:42:50Z</time>
      </trkpt>
      <trkpt lat="43.94385" lon="2.37604">
        <ele>198.65</ele>
        <time>2020-05-23T14:42:59Z</time>
      </trkpt>
      <trkpt lat="43.94387" lon="2.37601">
        <ele>197.69</ele>
        <time>2020-05-23T14:43:07Z</time>
      </trkpt>
      <trkpt lat="43.94387" lon="2.37598">
        <ele>195.28</ele>
        <time>2020-05-23T14:43:15Z</time>
      </trkpt>
      <trkpt lat="43.94387" lon="2.37598">
        <ele>193.36</ele>
        <time>2020-05-23T14:43:23Z</time>
      </trkpt>
      <trkpt lat="43.94391" lon="2.37599">
        <ele>193.36</ele>
        <time>2020-05-23T14:43:30Z</time>
      </trkpt>
      <trkpt lat="43.94394" lon="2.37596">
        <ele>194.32</ele>
        <time>2020-05-23T14:43:36Z</time>
      </trkpt>
      <trkpt lat="43.94395" lon="2.37599">
        <ele>195.28</ele>
        <time>2020-05-23T14:43:44Z</time>
      </trkpt>
      <trkpt lat="43.94396" lon="2.37601">
        <ele>195.77</ele>
        <time>2020-05-23T14:43:51Z</time>
      </trkpt>
      <trkpt lat="43.94398" lon="2.37607">
        <ele>196.25</ele>
        <time>2020-05-23T14:43:58Z</time>
      </trkpt>
      <trkpt lat="43.94402" lon="2.37613">
        <ele>196.25</ele>
        <time>2020-05-23T14:44:05Z</time>
      </trkpt>
      <trkpt lat="43.94403" lon="2.37616">
        <ele>196.73</ele>
        <time>2020-05-23T14:44:08Z</time>
      </trkpt>
      <trkpt lat="43.94409" lon="2.3763">
        <ele>195.77</ele>
        <time>2020-05-23T14:44:18Z</time>
      </trkpt>
      <trkpt lat="43.9441" lon="2.37636">
        <ele>195.77</ele>
        <time>2020-05-23T14:44:22Z</time>
      </trkpt>
      <trkpt lat="43.94414" lon="2.37642">
        <ele>195.77</ele>
        <time>2020-05-23T14:44:30Z</time>
      </trkpt>
      <trkpt lat="43.94421" lon="2.3765">
        <ele>195.77</ele>
        <time>2020-05-23T14:44:37Z</time>
      </trkpt>
      <trkpt lat="43.94422" lon="2.37651">
        <ele>195.77</ele>
        <time>2020-05-23T14:44:38Z</time>
      </trkpt>
      <trkpt lat="43.94426" lon="2.37663">
        <ele>196.73</ele>
        <time>2020-05-23T14:44:46Z</time>
      </trkpt>
      <trkpt lat="43.94429" lon="2.37678">
        <ele>199.61</ele>
        <time>2020-05-23T14:44:55Z</time>
      </trkpt>
      <trkpt lat="43.94435" lon="2.37697">
        <ele>204.42</ele>
        <time>2020-05-23T14:45:07Z</time>
      </trkpt>
      <trkpt lat="43.94442" lon="2.37711">
        <ele>205.38</ele>
        <time>2020-05-23T14:45:16Z</time>
      </trkpt>
      <trkpt lat="43.94448" lon="2.37717">
        <ele>204.9</ele>
        <time>2020-05-23T14:45:25Z</time>
      </trkpt>
      <trkpt lat="43.94448" lon="2.37717">
        <ele>203.46</ele>
        <time>2020-05-23T14:45:36Z</time>
      </trkpt>
      <trkpt lat="43.94448" lon="2.37715">
        <ele>201.05</ele>
        <time>2020-05-23T14:45:48Z</time>
      </trkpt>
      <trkpt lat="43.94448" lon="2.37716">
        <ele>199.61</ele>
        <time>2020-05-23T14:46:04Z</time>
      </trkpt>
    </trkseg>
  </trk>
</gpx>